<?xml version='1.0' encoding='UTF-8'?><gpx version="1.1" creator="JPX - https://github.com/jenetics/jpx" xmlns="http://www.topografix.com/GPX/1/1"><trk><trkseg><trkpt lat="41.470763421684964" lon="12.778230628963394"><ele>21.0</ele><time>2026-04-25T09:54:48.999Z</time></trkpt><trkpt lat="41.470839783895364" lon="12.778192939727816"><ele>21.0</ele><time>2026-04-25T09:54:57Z</time></trkpt><trkpt lat="41.47089718655925" lon="12.778149514746445"><ele>21.0</ele><time>2026-04-25T09:55:03Z</time></trkpt><trkpt lat="41.47088199340389" lon="12.778056212426229"><ele>21.0</ele><time>2026-04-25T09:55:21Z</time></trkpt><trkpt lat="41.47077207188862" lon="12.77811605118129"><ele>21.0</ele><time>2026-04-25T09:55:24Z</time></trkpt><trkpt lat="41.470691604027266" lon="12.778165735398677"><ele>21.0</ele><time>2026-04-25T09:55:25Z</time></trkpt><trkpt lat="41.47061462641889" lon="12.778203022392013"><ele>21.0</ele><time>2026-04-25T09:55:26Z</time></trkpt><trkpt lat="41.470511586258276" lon="12.778248689575465"><ele>21.0</ele><time>2026-04-25T09:55:27Z</time></trkpt><trkpt lat="41.47037721272573" lon="12.778299821094901"><ele>21.0</ele><time>2026-04-25T09:55:28Z</time></trkpt><trkpt lat="41.47023459079869" lon="12.77835546634105"><ele>21.0</ele><time>2026-04-25T09:55:29Z</time></trkpt><trkpt lat="41.47009248257104" lon="12.778400697879247"><ele>21.0</ele><time>2026-04-25T09:55:30Z</time></trkpt><trkpt lat="41.46995437664358" lon="12.778447947020425"><ele>21.0</ele><time>2026-04-25T09:55:31Z</time></trkpt><trkpt lat="41.469810442336914" lon="12.778497229562674"><ele>21.0</ele><time>2026-04-25T09:55:32Z</time></trkpt><trkpt lat="41.46961521698843" lon="12.778568651610215"><ele>21.0</ele><time>2026-04-25T09:55:33Z</time></trkpt><trkpt lat="41.46942968098728" lon="12.778627935482588"><ele>21.0</ele><time>2026-04-25T09:55:34Z</time></trkpt><trkpt lat="41.46921710237106" lon="12.778695147562061"><ele>21.0</ele><time>2026-04-25T09:55:35Z</time></trkpt><trkpt lat="41.469035124367714" lon="12.77876196889715"><ele>21.0</ele><time>2026-04-25T09:55:36Z</time></trkpt><trkpt lat="41.468868954477124" lon="12.778813069928717"><ele>21.0</ele><time>2026-04-25T09:55:37Z</time></trkpt><trkpt lat="41.46872403526136" lon="12.77886376650685"><ele>21.0</ele><time>2026-04-25T09:55:38Z</time></trkpt><trkpt lat="41.468550545169926" lon="12.778916482075836"><ele>21.333333333333332</ele><time>2026-04-25T09:55:39Z</time></trkpt><trkpt lat="41.46840394797983" lon="12.778931031164754"><ele>21.666666666666664</ele><time>2026-04-25T09:55:40Z</time></trkpt><trkpt lat="41.4681884802147" lon="12.778985223495813"><ele>22.0</ele><time>2026-04-25T09:55:41Z</time></trkpt><trkpt lat="41.46799663410035" lon="12.779004375205709"><ele>22.0</ele><time>2026-04-25T09:55:42Z</time></trkpt><trkpt lat="41.46781568191054" lon="12.77904045464125"><ele>22.0</ele><time>2026-04-25T09:55:43Z</time></trkpt><trkpt lat="41.4676465899259" lon="12.779062907715696"><ele>22.0</ele><time>2026-04-25T09:55:44Z</time></trkpt><trkpt lat="41.467478426732534" lon="12.779085476631455"><ele>22.0</ele><time>2026-04-25T09:55:45Z</time></trkpt><trkpt lat="41.4673300487662" lon="12.779093492598419"><ele>22.0</ele><time>2026-04-25T09:55:46Z</time></trkpt><trkpt lat="41.46715904762403" lon="12.77912736712847"><ele>22.0</ele><time>2026-04-25T09:55:47Z</time></trkpt><trkpt lat="41.46699277347587" lon="12.779163445153307"><ele>22.333333333333332</ele><time>2026-04-25T09:55:48Z</time></trkpt><trkpt lat="41.46682590607886" lon="12.779174683023147"><ele>22.666666666666668</ele><time>2026-04-25T09:55:49Z</time></trkpt><trkpt lat="41.466658473704314" lon="12.779197766755875"><ele>23.0</ele><time>2026-04-25T09:55:50Z</time></trkpt><trkpt lat="41.466496235923124" lon="12.779215216646348"><ele>23.0</ele><time>2026-04-25T09:55:51Z</time></trkpt><trkpt lat="41.466326941119156" lon="12.779231092533394"><ele>23.0</ele><time>2026-04-25T09:55:52Z</time></trkpt><trkpt lat="41.46616274835694" lon="12.779258225918523"><ele>23.0</ele><time>2026-04-25T09:55:53Z</time></trkpt><trkpt lat="41.46596913529148" lon="12.779273621645084"><ele>23.0</ele><time>2026-04-25T09:55:54Z</time></trkpt><trkpt lat="41.46580051772498" lon="12.779288840277523"><ele>23.0</ele><time>2026-04-25T09:55:55Z</time></trkpt><trkpt lat="41.4656477652368" lon="12.779299822791627"><ele>23.0</ele><time>2026-04-25T09:55:56Z</time></trkpt><trkpt lat="41.46549229351713" lon="12.779321872791986"><ele>22.666666666666668</ele><time>2026-04-25T09:55:57Z</time></trkpt><trkpt lat="41.46534257521099" lon="12.779354937287426"><ele>22.333333333333332</ele><time>2026-04-25T09:55:58Z</time></trkpt><trkpt lat="41.465186334094334" lon="12.779371550033202"><ele>22.0</ele><time>2026-04-25T09:55:59Z</time></trkpt><trkpt lat="41.46500899485906" lon="12.77937969657845"><ele>22.0</ele><time>2026-04-25T09:56:00Z</time></trkpt><trkpt lat="41.46483562442465" lon="12.779399956992078"><ele>22.0</ele><time>2026-04-25T09:56:01Z</time></trkpt><trkpt lat="41.464665981175465" lon="12.779419154921493"><ele>22.0</ele><time>2026-04-25T09:56:02Z</time></trkpt><trkpt lat="41.46449053951221" lon="12.779444803605832"><ele>21.333333333333332</ele><time>2026-04-25T09:56:03Z</time></trkpt><trkpt lat="41.464301182059735" lon="12.779477333241807"><ele>20.666666666666668</ele><time>2026-04-25T09:56:04Z</time></trkpt><trkpt lat="41.4641145152059" lon="12.779512484414465"><ele>20.0</ele><time>2026-04-25T09:56:05Z</time></trkpt><trkpt lat="41.4639406719501" lon="12.779525568471048"><ele>20.0</ele><time>2026-04-25T09:56:06Z</time></trkpt><trkpt lat="41.46378123162375" lon="12.779543114799882"><ele>20.0</ele><time>2026-04-25T09:56:07Z</time></trkpt><trkpt lat="41.46362671194427" lon="12.77955643446341"><ele>20.0</ele><time>2026-04-25T09:56:08Z</time></trkpt><trkpt lat="41.463464601772905" lon="12.779572706770047"><ele>20.0</ele><time>2026-04-25T09:56:09Z</time></trkpt><trkpt lat="41.46330927481799" lon="12.779595582232657"><ele>20.0</ele><time>2026-04-25T09:56:10Z</time></trkpt><trkpt lat="41.463147805431355" lon="12.779614729275297"><ele>20.0</ele><time>2026-04-25T09:56:11Z</time></trkpt><trkpt lat="41.462992495267045" lon="12.779633725177607"><ele>19.75</ele><time>2026-04-25T09:56:12Z</time></trkpt><trkpt lat="41.46283473189394" lon="12.779649638662299"><ele>19.5</ele><time>2026-04-25T09:56:13Z</time></trkpt><trkpt lat="41.46269399895131" lon="12.77967431191435"><ele>19.25</ele><time>2026-04-25T09:56:14Z</time></trkpt><trkpt lat="41.462546295430236" lon="12.779698354620644"><ele>19.0</ele><time>2026-04-25T09:56:15Z</time></trkpt><trkpt lat="41.46240409138785" lon="12.779709079506588"><ele>19.0</ele><time>2026-04-25T09:56:16Z</time></trkpt><trkpt lat="41.462260639320505" lon="12.779727081602847"><ele>19.0</ele><time>2026-04-25T09:56:17Z</time></trkpt><trkpt lat="41.46209539838266" lon="12.779741887530891"><ele>19.0</ele><time>2026-04-25T09:56:18Z</time></trkpt><trkpt lat="41.46195725508362" lon="12.77976567111715"><ele>19.0</ele><time>2026-04-25T09:56:19Z</time></trkpt><trkpt lat="41.46181512027901" lon="12.77978709333163"><ele>19.0</ele><time>2026-04-25T09:56:20Z</time></trkpt><trkpt lat="41.46169812369035" lon="12.779808593137666"><ele>19.0</ele><time>2026-04-25T09:56:21Z</time></trkpt><trkpt lat="41.46158810284787" lon="12.779828158511798"><ele>19.0</ele><time>2026-04-25T09:56:22Z</time></trkpt><trkpt lat="41.46147512221337" lon="12.77984474311369"><ele>19.0</ele><time>2026-04-25T09:56:22.999Z</time></trkpt><trkpt lat="41.46135773966374" lon="12.779852446074347"><ele>18.8</ele><time>2026-04-25T09:56:23.999Z</time></trkpt><trkpt lat="41.46125197977875" lon="12.779859289777738"><ele>18.599999999999998</ele><time>2026-04-25T09:56:24.999Z</time></trkpt><trkpt lat="41.46115370059992" lon="12.779865741203322"><ele>18.4</ele><time>2026-04-25T09:56:25.999Z</time></trkpt><trkpt lat="41.461063699956824" lon="12.779871338827691"><ele>18.2</ele><time>2026-04-25T09:56:26.999Z</time></trkpt><trkpt lat="41.4609750061545" lon="12.779884029898039"><ele>18.0</ele><time>2026-04-25T09:56:27.999Z</time></trkpt><trkpt lat="41.46089375264381" lon="12.779892043856096"><ele>18.0</ele><time>2026-04-25T09:56:28.999Z</time></trkpt><trkpt lat="41.460811083637104" lon="12.779899470302858"><ele>18.0</ele><time>2026-04-25T09:56:29.999Z</time></trkpt><trkpt lat="41.460741790152774" lon="12.779906196852195"><ele>18.0</ele><time>2026-04-25T09:56:30.999Z</time></trkpt><trkpt lat="41.46067645887381" lon="12.779903815346369"><ele>18.0</ele><time>2026-04-25T09:56:31.999Z</time></trkpt><trkpt lat="41.46057876368386" lon="12.779930616044034"><ele>18.0</ele><time>2026-04-25T09:56:33.999Z</time></trkpt><trkpt lat="41.46048765838594" lon="12.779926256118287"><ele>18.0</ele><time>2026-04-25T09:57:17Z</time></trkpt><trkpt lat="41.4604207381945" lon="12.779938940161744"><ele>17.75</ele><time>2026-04-25T09:57:18Z</time></trkpt><trkpt lat="41.46033287739484" lon="12.779953887190972"><ele>17.5</ele><time>2026-04-25T09:57:19Z</time></trkpt><trkpt lat="41.46022355885943" lon="12.779973713903257"><ele>17.25</ele><time>2026-04-25T09:57:20Z</time></trkpt><trkpt lat="41.46009907109202" lon="12.780002382040145"><ele>17.0</ele><time>2026-04-25T09:57:21Z</time></trkpt><trkpt lat="41.459970031421065" lon="12.780022106053247"><ele>17.0</ele><time>2026-04-25T09:57:22Z</time></trkpt><trkpt lat="41.45981563794379" lon="12.780045395681418"><ele>17.0</ele><time>2026-04-25T09:57:23Z</time></trkpt><trkpt lat="41.45964293481156" lon="12.780075094522985"><ele>17.0</ele><time>2026-04-25T09:57:24Z</time></trkpt><trkpt lat="41.45941653534397" lon="12.780077547674043"><ele>16.333333333333336</ele><time>2026-04-25T09:57:25Z</time></trkpt><trkpt lat="41.459175039301996" lon="12.78011480787646"><ele>15.666666666666668</ele><time>2026-04-25T09:57:26Z</time></trkpt><trkpt lat="41.458971182255404" lon="12.780150147143448"><ele>15.0</ele><time>2026-04-25T09:57:27Z</time></trkpt><trkpt lat="41.45876416424349" lon="12.78018316333646"><ele>14.666666666666668</ele><time>2026-04-25T09:57:28Z</time></trkpt><trkpt lat="41.458548366373705" lon="12.780222540271316"><ele>14.333333333333334</ele><time>2026-04-25T09:57:29Z</time></trkpt><trkpt lat="41.45834193221627" lon="12.78026017463519"><ele>14.0</ele><time>2026-04-25T09:57:30Z</time></trkpt><trkpt lat="41.45812632725376" lon="12.780288727191378"><ele>13.666666666666668</ele><time>2026-04-25T09:57:31Z</time></trkpt><trkpt lat="41.45791646023304" lon="12.780317304281176"><ele>13.333333333333332</ele><time>2026-04-25T09:57:32Z</time></trkpt><trkpt lat="41.457712524559525" lon="12.780340246612822"><ele>13.0</ele><time>2026-04-25T09:57:33Z</time></trkpt><trkpt lat="41.4575056461286" lon="12.780374185338518"><ele>13.0</ele><time>2026-04-25T09:57:34Z</time></trkpt><trkpt lat="41.45728797588669" lon="12.78041767378688"><ele>13.0</ele><time>2026-04-25T09:57:35Z</time></trkpt><trkpt lat="41.457067825021745" lon="12.780456998398629"><ele>13.0</ele><time>2026-04-25T09:57:36Z</time></trkpt><trkpt lat="41.456840118614295" lon="12.78049076391319"><ele>14.0</ele><time>2026-04-25T09:57:37Z</time></trkpt><trkpt lat="41.45660941669626" lon="12.780515196219838"><ele>15.0</ele><time>2026-04-25T09:57:38Z</time></trkpt><trkpt lat="41.456375127630366" lon="12.780545139564508"><ele>16.0</ele><time>2026-04-25T09:57:39Z</time></trkpt><trkpt lat="41.456140776477355" lon="12.78059159403098"><ele>17.0</ele><time>2026-04-25T09:57:40Z</time></trkpt><trkpt lat="41.45589124861636" lon="12.78062982349402"><ele>17.0</ele><time>2026-04-25T09:57:41Z</time></trkpt><trkpt lat="41.455646028922466" lon="12.780672814939381"><ele>17.0</ele><time>2026-04-25T09:57:42Z</time></trkpt><trkpt lat="41.45540438806279" lon="12.78071104348246"><ele>17.0</ele><time>2026-04-25T09:57:43Z</time></trkpt><trkpt lat="41.455176478491296" lon="12.780746325217084"><ele>17.0</ele><time>2026-04-25T09:57:44Z</time></trkpt><trkpt lat="41.454973152386025" lon="12.780775082998183"><ele>17.0</ele><time>2026-04-25T09:57:45Z</time></trkpt><trkpt lat="41.45477653947487" lon="12.780807020727842"><ele>15.666666666666668</ele><time>2026-04-25T09:57:46Z</time></trkpt><trkpt lat="41.45457274068817" lon="12.780832238612003"><ele>14.333333333333332</ele><time>2026-04-25T09:57:47Z</time></trkpt><trkpt lat="41.45437304530554" lon="12.780863585143253"><ele>13.0</ele><time>2026-04-25T09:57:48Z</time></trkpt><trkpt lat="41.45416928089191" lon="12.780897303556898"><ele>13.0</ele><time>2026-04-25T09:57:49Z</time></trkpt><trkpt lat="41.453958698156164" lon="12.780931948075951"><ele>13.0</ele><time>2026-04-25T09:57:50Z</time></trkpt><trkpt lat="41.45373370425019" lon="12.780968648875936"><ele>13.0</ele><time>2026-04-25T09:57:51Z</time></trkpt><trkpt lat="41.45351200287177" lon="12.781002680491893"><ele>13.666666666666666</ele><time>2026-04-25T09:57:52Z</time></trkpt><trkpt lat="41.45329104652024" lon="12.781035505726905"><ele>14.333333333333332</ele><time>2026-04-25T09:57:53Z</time></trkpt><trkpt lat="41.45307469657282" lon="12.781066578579757"><ele>15.0</ele><time>2026-04-25T09:57:54Z</time></trkpt><trkpt lat="41.452862344107295" lon="12.781104435425222"><ele>15.0</ele><time>2026-04-25T09:57:55Z</time></trkpt><trkpt lat="41.45265108246757" lon="12.781127784276265"><ele>15.0</ele><time>2026-04-25T09:57:56Z</time></trkpt><trkpt lat="41.45243028134841" lon="12.781164384101537"><ele>15.0</ele><time>2026-04-25T09:57:57Z</time></trkpt><trkpt lat="41.45220690869554" lon="12.781202393853283"><ele>14.0</ele><time>2026-04-25T09:57:58Z</time></trkpt><trkpt lat="41.45198340642336" lon="12.781232538132784"><ele>13.0</ele><time>2026-04-25T09:57:59Z</time></trkpt><trkpt lat="41.45175537006135" lon="12.781267410322316"><ele>13.0</ele><time>2026-04-25T09:58:00Z</time></trkpt><trkpt lat="41.451530452217106" lon="12.781305428025698"><ele>13.0</ele><time>2026-04-25T09:58:01Z</time></trkpt><trkpt lat="41.45130507722049" lon="12.781340697105696"><ele>12.5</ele><time>2026-04-25T09:58:02Z</time></trkpt><trkpt lat="41.45107625053445" lon="12.781379361627536"><ele>12.0</ele><time>2026-04-25T09:58:03Z</time></trkpt><trkpt lat="41.450852220763444" lon="12.78141347135892"><ele>12.0</ele><time>2026-04-25T09:58:04Z</time></trkpt><trkpt lat="41.450648448903586" lon="12.781442541622239"><ele>12.0</ele><time>2026-04-25T09:58:05Z</time></trkpt><trkpt lat="41.45044884794276" lon="12.781469008266287"><ele>12.0</ele><time>2026-04-25T09:58:06Z</time></trkpt><trkpt lat="41.45022601546794" lon="12.781506810136595"><ele>11.5</ele><time>2026-04-25T09:58:07Z</time></trkpt><trkpt lat="41.44999450468432" lon="12.781535351252947"><ele>11.0</ele><time>2026-04-25T09:58:08Z</time></trkpt><trkpt lat="41.449770608537484" lon="12.781566297873129"><ele>11.666666666666666</ele><time>2026-04-25T09:58:09Z</time></trkpt><trkpt lat="41.4495493127282" lon="12.781601421788107"><ele>12.333333333333332</ele><time>2026-04-25T09:58:10Z</time></trkpt><trkpt lat="41.449330194465794" lon="12.781635310849818"><ele>13.0</ele><time>2026-04-25T09:58:11Z</time></trkpt><trkpt lat="41.44911382760423" lon="12.781669307864133"><ele>13.0</ele><time>2026-04-25T09:58:12Z</time></trkpt><trkpt lat="41.44889608459909" lon="12.781701616676942"><ele>13.0</ele><time>2026-04-25T09:58:13Z</time></trkpt><trkpt lat="41.448678807859146" lon="12.781735900202419"><ele>13.0</ele><time>2026-04-25T09:58:14Z</time></trkpt><trkpt lat="41.44846038937535" lon="12.781772290831261"><ele>13.0</ele><time>2026-04-25T09:58:15Z</time></trkpt><trkpt lat="41.448243807933004" lon="12.781810626732813"><ele>13.0</ele><time>2026-04-25T09:58:16Z</time></trkpt><trkpt lat="41.44802477787662" lon="12.781832385706112"><ele>13.0</ele><time>2026-04-25T09:58:17Z</time></trkpt><trkpt lat="41.44780790885072" lon="12.78187088904406"><ele>13.0</ele><time>2026-04-25T09:58:18Z</time></trkpt><trkpt lat="41.4475840509311" lon="12.781903841463887"><ele>13.0</ele><time>2026-04-25T09:58:19Z</time></trkpt><trkpt lat="41.447364977725144" lon="12.781941347502174"><ele>13.0</ele><time>2026-04-25T09:58:20Z</time></trkpt><trkpt lat="41.44714285470464" lon="12.781977100928158"><ele>13.5</ele><time>2026-04-25T09:58:21Z</time></trkpt><trkpt lat="41.44691501992246" lon="12.782014263208582"><ele>14.0</ele><time>2026-04-25T09:58:22Z</time></trkpt><trkpt lat="41.44668901388029" lon="12.78204062204818"><ele>14.0</ele><time>2026-04-25T09:58:23Z</time></trkpt><trkpt lat="41.44647088639496" lon="12.782076462636821"><ele>14.0</ele><time>2026-04-25T09:58:24Z</time></trkpt><trkpt lat="41.44625823977637" lon="12.78210976386432"><ele>14.0</ele><time>2026-04-25T09:58:25Z</time></trkpt><trkpt lat="41.44604766554915" lon="12.782143836101632"><ele>13.333333333333334</ele><time>2026-04-25T09:58:26Z</time></trkpt><trkpt lat="41.44584546064962" lon="12.782181897848792"><ele>12.666666666666668</ele><time>2026-04-25T09:58:27Z</time></trkpt><trkpt lat="41.44566090116665" lon="12.782208498333485"><ele>12.0</ele><time>2026-04-25T09:58:28Z</time></trkpt><trkpt lat="41.4454802735228" lon="12.78223301563317"><ele>11.333333333333334</ele><time>2026-04-25T09:58:29Z</time></trkpt><trkpt lat="41.44529649877707" lon="12.782258953528682"><ele>10.666666666666668</ele><time>2026-04-25T09:58:29.999Z</time></trkpt><trkpt lat="41.44511806846532" lon="12.782288886281611"><ele>10.0</ele><time>2026-04-25T09:58:30.999Z</time></trkpt><trkpt lat="41.44494144068593" lon="12.78231961935588"><ele>10.0</ele><time>2026-04-25T09:58:32Z</time></trkpt><trkpt lat="41.44476849107196" lon="12.7823478099241"><ele>10.0</ele><time>2026-04-25T09:58:33Z</time></trkpt><trkpt lat="41.4445925766899" lon="12.782389070173242"><ele>10.0</ele><time>2026-04-25T09:58:34Z</time></trkpt><trkpt lat="41.4444130567989" lon="12.78243588378481"><ele>9.666666666666668</ele><time>2026-04-25T09:58:35Z</time></trkpt><trkpt lat="41.44423740198384" lon="12.782491982336152"><ele>9.333333333333334</ele><time>2026-04-25T09:58:35.999Z</time></trkpt><trkpt lat="41.44406249063981" lon="12.782561615082313"><ele>9.0</ele><time>2026-04-25T09:58:36.999Z</time></trkpt><trkpt lat="41.44388573833764" lon="12.782636897945126"><ele>9.666666666666666</ele><time>2026-04-25T09:58:37.999Z</time></trkpt><trkpt lat="41.4436963724883" lon="12.782705479464315"><ele>10.333333333333332</ele><time>2026-04-25T09:58:38.999Z</time></trkpt><trkpt lat="41.44351253358831" lon="12.782814533514154"><ele>11.0</ele><time>2026-04-25T09:58:39.999Z</time></trkpt><trkpt lat="41.44333726558635" lon="12.782924107323582"><ele>11.0</ele><time>2026-04-25T09:58:40.999Z</time></trkpt><trkpt lat="41.443167866640124" lon="12.783040578092379"><ele>11.0</ele><time>2026-04-25T09:58:42Z</time></trkpt><trkpt lat="41.44299389725508" lon="12.78315115583389"><ele>11.0</ele><time>2026-04-25T09:58:43Z</time></trkpt><trkpt lat="41.442825213264726" lon="12.783272712470145"><ele>11.0</ele><time>2026-04-25T09:58:44Z</time></trkpt><trkpt lat="41.44265558292752" lon="12.78339674037274"><ele>11.0</ele><time>2026-04-25T09:58:45Z</time></trkpt><trkpt lat="41.44249151017937" lon="12.783504461066467"><ele>11.0</ele><time>2026-04-25T09:58:46Z</time></trkpt><trkpt lat="41.44230559508382" lon="12.7836124281964"><ele>10.666666666666666</ele><time>2026-04-25T09:58:47Z</time></trkpt><trkpt lat="41.44212826828616" lon="12.783723612507501"><ele>10.333333333333334</ele><time>2026-04-25T09:58:48Z</time></trkpt><trkpt lat="41.44194454551052" lon="12.783861781662171"><ele>10.0</ele><time>2026-04-25T09:58:49Z</time></trkpt><trkpt lat="41.4417352472282" lon="12.784002535413356"><ele>10.0</ele><time>2026-04-25T09:58:50Z</time></trkpt><trkpt lat="41.441508017174776" lon="12.784163296556297"><ele>10.0</ele><time>2026-04-25T09:58:51Z</time></trkpt><trkpt lat="41.44128459221964" lon="12.784316101434277"><ele>10.333333333333334</ele><time>2026-04-25T09:58:52Z</time></trkpt><trkpt lat="41.44108949029997" lon="12.784451667776883"><ele>10.666666666666666</ele><time>2026-04-25T09:58:53Z</time></trkpt><trkpt lat="41.44090609357844" lon="12.784570386747909"><ele>11.0</ele><time>2026-04-25T09:58:54Z</time></trkpt><trkpt lat="41.4407397499653" lon="12.784700051924167"><ele>11.0</ele><time>2026-04-25T09:58:55Z</time></trkpt><trkpt lat="41.44057325678288" lon="12.78480518020107"><ele>11.0</ele><time>2026-04-25T09:58:56Z</time></trkpt><trkpt lat="41.44040321356706" lon="12.784914382538117"><ele>11.0</ele><time>2026-04-25T09:58:57Z</time></trkpt><trkpt lat="41.44024005585078" lon="12.785023656782961"><ele>10.666666666666666</ele><time>2026-04-25T09:58:58Z</time></trkpt><trkpt lat="41.44007028402146" lon="12.78514027341201"><ele>10.333333333333334</ele><time>2026-04-25T09:58:59Z</time></trkpt><trkpt lat="41.43990209451343" lon="12.785245655410588"><ele>10.0</ele><time>2026-04-25T09:59:00Z</time></trkpt><trkpt lat="41.43973833317422" lon="12.785355738199598"><ele>10.666666666666668</ele><time>2026-04-25T09:59:01Z</time></trkpt><trkpt lat="41.43956863614275" lon="12.785468494614816"><ele>11.333333333333334</ele><time>2026-04-25T09:59:02Z</time></trkpt><trkpt lat="41.43940607432471" lon="12.785579677053798"><ele>12.0</ele><time>2026-04-25T09:59:03Z</time></trkpt><trkpt lat="41.4392421020938" lon="12.785690630112558"><ele>12.0</ele><time>2026-04-25T09:59:04Z</time></trkpt><trkpt lat="41.43909211787055" lon="12.78579658567244"><ele>12.0</ele><time>2026-04-25T09:59:05Z</time></trkpt><trkpt lat="41.43895183140311" lon="12.785875986461082"><ele>12.0</ele><time>2026-04-25T09:59:06Z</time></trkpt><trkpt lat="41.4388162730803" lon="12.785967496757099"><ele>11.5</ele><time>2026-04-25T09:59:07Z</time></trkpt><trkpt lat="41.43869821597668" lon="12.786048806970232"><ele>11.0</ele><time>2026-04-25T09:59:08Z</time></trkpt><trkpt lat="41.438582456834745" lon="12.786123971116446"><ele>10.5</ele><time>2026-04-25T09:59:09Z</time></trkpt><trkpt lat="41.43847394490318" lon="12.786197657034819"><ele>10.0</ele><time>2026-04-25T09:59:10Z</time></trkpt><trkpt lat="41.438361622776995" lon="12.786273797331884"><ele>10.0</ele><time>2026-04-25T09:59:11Z</time></trkpt><trkpt lat="41.438260178359585" lon="12.78634654964135"><ele>10.0</ele><time>2026-04-25T09:59:12Z</time></trkpt><trkpt lat="41.43816307150865" lon="12.78640249480564"><ele>10.0</ele><time>2026-04-25T09:59:13Z</time></trkpt><trkpt lat="41.4380645031894" lon="12.786472045160696"><ele>10.0</ele><time>2026-04-25T09:59:14Z</time></trkpt><trkpt lat="41.43796427199686" lon="12.786541226463546"><ele>10.0</ele><time>2026-04-25T09:59:15Z</time></trkpt><trkpt lat="41.43786621235656" lon="12.786613180652044"><ele>9.75</ele><time>2026-04-25T09:59:16Z</time></trkpt><trkpt lat="41.437767735359074" lon="12.786678982041538"><ele>9.5</ele><time>2026-04-25T09:59:17Z</time></trkpt><trkpt lat="41.437661328166655" lon="12.786752193042961"><ele>9.25</ele><time>2026-04-25T09:59:18Z</time></trkpt><trkpt lat="41.43754888497472" lon="12.786822945125284"><ele>9.0</ele><time>2026-04-25T09:59:19Z</time></trkpt><trkpt lat="41.43743128814895" lon="12.786903405060613"><ele>9.0</ele><time>2026-04-25T09:59:20Z</time></trkpt><trkpt lat="41.43728743056857" lon="12.786997000091931"><ele>9.0</ele><time>2026-04-25T09:59:21Z</time></trkpt><trkpt lat="41.43714026524874" lon="12.78709994809819"><ele>9.0</ele><time>2026-04-25T09:59:22Z</time></trkpt><trkpt lat="41.43698634925443" lon="12.787207633279381"><ele>8.333333333333334</ele><time>2026-04-25T09:59:23Z</time></trkpt><trkpt lat="41.43680562514765" lon="12.787330263346941"><ele>7.666666666666667</ele><time>2026-04-25T09:59:24Z</time></trkpt><trkpt lat="41.43658985243982" lon="12.787468790176588"><ele>7.0</ele><time>2026-04-25T09:59:25Z</time></trkpt><trkpt lat="41.4363801431429" lon="12.787605721525312"><ele>7.0</ele><time>2026-04-25T09:59:26Z</time></trkpt><trkpt lat="41.436195195081034" lon="12.787717883487906"><ele>7.0</ele><time>2026-04-25T09:59:27Z</time></trkpt><trkpt lat="41.43602797220598" lon="12.787816930786729"><ele>7.0</ele><time>2026-04-25T09:59:28Z</time></trkpt><trkpt lat="41.43587058389038" lon="12.78790511975724"><ele>7.0</ele><time>2026-04-25T09:59:29Z</time></trkpt><trkpt lat="41.43571249963305" lon="12.787953967338284"><ele>7.0</ele><time>2026-04-25T09:59:30Z</time></trkpt><trkpt lat="41.43555820977892" lon="12.787993695727796"><ele>7.0</ele><time>2026-04-25T09:59:31Z</time></trkpt><trkpt lat="41.43541585529572" lon="12.78803695812624"><ele>7.25</ele><time>2026-04-25T09:59:32Z</time></trkpt><trkpt lat="41.43527695013942" lon="12.788072294487735"><ele>7.5</ele><time>2026-04-25T09:59:33Z</time></trkpt><trkpt lat="41.43513723627226" lon="12.788103431024718"><ele>7.75</ele><time>2026-04-25T09:59:34Z</time></trkpt><trkpt lat="41.434986533766256" lon="12.788140049577216"><ele>8.0</ele><time>2026-04-25T09:59:35Z</time></trkpt><trkpt lat="41.43484055760021" lon="12.788159043618828"><ele>8.0</ele><time>2026-04-25T09:59:36Z</time></trkpt><trkpt lat="41.43469575221948" lon="12.78816704019011"><ele>8.0</ele><time>2026-04-25T09:59:37Z</time></trkpt><trkpt lat="41.43455487804006" lon="12.78817243725236"><ele>8.0</ele><time>2026-04-25T09:59:38Z</time></trkpt><trkpt lat="41.43443027080842" lon="12.78817373658382"><ele>8.0</ele><time>2026-04-25T09:59:39Z</time></trkpt><trkpt lat="41.43431334432913" lon="12.788170410055752"><ele>7.999999999999999</ele><time>2026-04-25T09:59:40Z</time></trkpt><trkpt lat="41.4342035803894" lon="12.788165738737362"><ele>8.0</ele><time>2026-04-25T09:59:41Z</time></trkpt><trkpt lat="41.434107564971484" lon="12.788149140728002"><ele>8.0</ele><time>2026-04-25T09:59:42Z</time></trkpt><trkpt lat="41.43402515443663" lon="12.788134624649155"><ele>8.0</ele><time>2026-04-25T09:59:43Z</time></trkpt><trkpt lat="41.433945125702316" lon="12.788117913873814"><ele>7.999999999999999</ele><time>2026-04-25T09:59:44Z</time></trkpt><trkpt lat="41.43387639458343" lon="12.78810811616779"><ele>8.0</ele><time>2026-04-25T09:59:45Z</time></trkpt><trkpt lat="41.433766537052314" lon="12.7880832345929"><ele>7.4</ele><time>2026-04-25T09:59:47Z</time></trkpt><trkpt lat="41.43368754868754" lon="12.788063728641234"><ele>6.800000000000001</ele><time>2026-04-25T09:59:49Z</time></trkpt><trkpt lat="41.43361774730992" lon="12.788058891660723"><ele>6.2</ele><time>2026-04-25T10:00:15.001Z</time></trkpt><trkpt lat="41.43355659610781" lon="12.788080083308023"><ele>5.6</ele><time>2026-04-25T10:00:17.001Z</time></trkpt><trkpt lat="41.43351592538129" lon="12.78828304754077"><ele>5.0</ele><time>2026-04-25T10:00:18.001Z</time></trkpt><trkpt lat="41.43349986238835" lon="12.788395898382012"><ele>5.0</ele><time>2026-04-25T10:00:19.001Z</time></trkpt><trkpt lat="41.43349255641711" lon="12.788498748713565"><ele>5.0</ele><time>2026-04-25T10:00:20.001Z</time></trkpt><trkpt lat="41.43348808783579" lon="12.788613966058238"><ele>5.0</ele><time>2026-04-25T10:00:21.001Z</time></trkpt><trkpt lat="41.43347598003322" lon="12.788771904209415"><ele>5.0</ele><time>2026-04-25T10:00:22.001Z</time></trkpt><trkpt lat="41.43345722761485" lon="12.788941095833861"><ele>5.0</ele><time>2026-04-25T10:00:23.001Z</time></trkpt><trkpt lat="41.433441931428476" lon="12.789117908923346"><ele>5.333333333333334</ele><time>2026-04-25T10:00:24.001Z</time></trkpt><trkpt lat="41.433424295109134" lon="12.78931224317032"><ele>5.666666666666667</ele><time>2026-04-25T10:00:25.001Z</time></trkpt><trkpt lat="41.43339437772922" lon="12.789537377181535"><ele>6.0</ele><time>2026-04-25T10:00:26.001Z</time></trkpt><trkpt lat="41.433372898568784" lon="12.789791020525506"><ele>6.666666666666666</ele><time>2026-04-25T10:00:27.001Z</time></trkpt><trkpt lat="41.43334264902054" lon="12.790030030720906"><ele>7.333333333333333</ele><time>2026-04-25T10:00:28.001Z</time></trkpt><trkpt lat="41.43332057964922" lon="12.7902574815003"><ele>8.0</ele><time>2026-04-25T10:00:29.001Z</time></trkpt><trkpt lat="41.43329714592667" lon="12.79049170896139"><ele>8.0</ele><time>2026-04-25T10:00:30.001Z</time></trkpt><trkpt lat="41.43327255049251" lon="12.790727473849861"><ele>8.0</ele><time>2026-04-25T10:00:31.001Z</time></trkpt><trkpt lat="41.43324246490575" lon="12.790963170433566"><ele>8.0</ele><time>2026-04-25T10:00:32.001Z</time></trkpt><trkpt lat="41.43322213543432" lon="12.791207424809054"><ele>8.0</ele><time>2026-04-25T10:00:33.001Z</time></trkpt><trkpt lat="41.43319880899974" lon="12.79143834606747"><ele>8.0</ele><time>2026-04-25T10:00:34.001Z</time></trkpt><trkpt lat="41.43317414951471" lon="12.791668613675505"><ele>8.0</ele><time>2026-04-25T10:00:35Z</time></trkpt><trkpt lat="41.43315557591601" lon="12.791899463777673"><ele>7.666666666666666</ele><time>2026-04-25T10:00:36Z</time></trkpt><trkpt lat="41.43313306262379" lon="12.792127363027289"><ele>7.333333333333334</ele><time>2026-04-25T10:00:37Z</time></trkpt><trkpt lat="41.43309637591495" lon="12.792340192004863"><ele>7.0</ele><time>2026-04-25T10:00:38Z</time></trkpt><trkpt lat="41.43307424598745" lon="12.792550909843598"><ele>7.666666666666667</ele><time>2026-04-25T10:00:39Z</time></trkpt><trkpt lat="41.433067474160545" lon="12.792768996525535"><ele>8.333333333333334</ele><time>2026-04-25T10:00:40Z</time></trkpt><trkpt lat="41.43302811186574" lon="12.792990191970343"><ele>9.0</ele><time>2026-04-25T10:00:41Z</time></trkpt><trkpt lat="41.43300428316337" lon="12.793217085289626"><ele>9.0</ele><time>2026-04-25T10:00:42Z</time></trkpt><trkpt lat="41.43298011779214" lon="12.7934471843071"><ele>9.0</ele><time>2026-04-25T10:00:43Z</time></trkpt><trkpt lat="41.4329562408379" lon="12.793686455266645"><ele>9.0</ele><time>2026-04-25T10:00:44Z</time></trkpt><trkpt lat="41.43293774666054" lon="12.793909946413965"><ele>8.333333333333334</ele><time>2026-04-25T10:00:45Z</time></trkpt><trkpt lat="41.43291837592488" lon="12.794127461415343"><ele>7.666666666666667</ele><time>2026-04-25T10:00:46Z</time></trkpt><trkpt lat="41.43289398023164" lon="12.794346836165644"><ele>7.0</ele><time>2026-04-25T10:00:47Z</time></trkpt><trkpt lat="41.432872861632255" lon="12.794568374892592"><ele>7.0</ele><time>2026-04-25T10:00:48Z</time></trkpt><trkpt lat="41.432852892886565" lon="12.79479322624461"><ele>7.0</ele><time>2026-04-25T10:00:49Z</time></trkpt><trkpt lat="41.43282564755158" lon="12.795012892279063"><ele>7.0</ele><time>2026-04-25T10:00:50Z</time></trkpt><trkpt lat="41.432801602757074" lon="12.795243036706356"><ele>7.0</ele><time>2026-04-25T10:00:51Z</time></trkpt><trkpt lat="41.43277694491659" lon="12.795514532486122"><ele>7.0</ele><time>2026-04-25T10:00:52Z</time></trkpt><trkpt lat="41.43274548362255" lon="12.795792122802395"><ele>7.0</ele><time>2026-04-25T10:00:53Z</time></trkpt><trkpt lat="41.43270059465697" lon="12.796075614035969"><ele>7.5</ele><time>2026-04-25T10:00:54Z</time></trkpt><trkpt lat="41.432665499688035" lon="12.796401487846156"><ele>8.0</ele><time>2026-04-25T10:00:55Z</time></trkpt><trkpt lat="41.432642162225605" lon="12.796724458201492"><ele>8.0</ele><time>2026-04-25T10:00:56Z</time></trkpt><trkpt lat="41.43260972402703" lon="12.797018561523098"><ele>8.0</ele><time>2026-04-25T10:00:57Z</time></trkpt><trkpt lat="41.43257868383881" lon="12.797299659401903"><ele>8.0</ele><time>2026-04-25T10:00:58Z</time></trkpt><trkpt lat="41.4325505353477" lon="12.797582126954216"><ele>8.0</ele><time>2026-04-25T10:00:59Z</time></trkpt><trkpt lat="41.43252048237947" lon="12.797871724301128"><ele>8.0</ele><time>2026-04-25T10:01:00Z</time></trkpt><trkpt lat="41.43249208470059" lon="12.798140833157476"><ele>8.0</ele><time>2026-04-25T10:01:01Z</time></trkpt><trkpt lat="41.43246201700744" lon="12.798389581087172"><ele>8.0</ele><time>2026-04-25T10:01:02Z</time></trkpt><trkpt lat="41.43243958138632" lon="12.798628815339551"><ele>8.0</ele><time>2026-04-25T10:01:03Z</time></trkpt><trkpt lat="41.43241360646864" lon="12.798847502539308"><ele>8.0</ele><time>2026-04-25T10:01:04Z</time></trkpt><trkpt lat="41.43239077899846" lon="12.799057849539986"><ele>8.0</ele><time>2026-04-25T10:01:05Z</time></trkpt><trkpt lat="41.432371910274064" lon="12.799252319436707"><ele>8.0</ele><time>2026-04-25T10:01:06Z</time></trkpt><trkpt lat="41.43234572155692" lon="12.799439984265764"><ele>8.0</ele><time>2026-04-25T10:01:07Z</time></trkpt><trkpt lat="41.432325380263244" lon="12.799618614471992"><ele>8.0</ele><time>2026-04-25T10:01:08Z</time></trkpt><trkpt lat="41.43230758494543" lon="12.799794062079727"><ele>8.0</ele><time>2026-04-25T10:01:09Z</time></trkpt><trkpt lat="41.43228811081001" lon="12.799991528659442"><ele>8.0</ele><time>2026-04-25T10:01:10Z</time></trkpt><trkpt lat="41.43226671673101" lon="12.800208283752019"><ele>8.0</ele><time>2026-04-25T10:01:11Z</time></trkpt><trkpt lat="41.432242367078985" lon="12.800413566483817"><ele>8.25</ele><time>2026-04-25T10:01:12Z</time></trkpt><trkpt lat="41.43221824736549" lon="12.80059545756593"><ele>8.5</ele><time>2026-04-25T10:01:13Z</time></trkpt><trkpt lat="41.43219837343275" lon="12.800777462087709"><ele>8.75</ele><time>2026-04-25T10:01:14Z</time></trkpt><trkpt lat="41.432178004204395" lon="12.800970538261181"><ele>9.0</ele><time>2026-04-25T10:01:15Z</time></trkpt><trkpt lat="41.432156199600186" lon="12.80114966260912"><ele>8.5</ele><time>2026-04-25T10:01:16Z</time></trkpt><trkpt lat="41.432134815623414" lon="12.801313624143443"><ele>8.0</ele><time>2026-04-25T10:01:17Z</time></trkpt><trkpt lat="41.432119347165624" lon="12.801466771193486"><ele>7.5</ele><time>2026-04-25T10:01:18Z</time></trkpt><trkpt lat="41.43210276959996" lon="12.801625468888389"><ele>7.0</ele><time>2026-04-25T10:01:19Z</time></trkpt><trkpt lat="41.4320910387846" lon="12.801792964656354"><ele>7.75</ele><time>2026-04-25T10:01:20Z</time></trkpt><trkpt lat="41.432066936609935" lon="12.801978445410889"><ele>8.5</ele><time>2026-04-25T10:01:21Z</time></trkpt><trkpt lat="41.43204482065048" lon="12.802169104631695"><ele>9.25</ele><time>2026-04-25T10:01:22Z</time></trkpt><trkpt lat="41.432020986124876" lon="12.80232194784597"><ele>10.0</ele><time>2026-04-25T10:01:23Z</time></trkpt><trkpt lat="41.43199577505119" lon="12.802432873961159"><ele>10.0</ele><time>2026-04-25T10:01:24Z</time></trkpt><trkpt lat="41.43197252155185" lon="12.802526548540756"><ele>10.0</ele><time>2026-04-25T10:01:25Z</time></trkpt><trkpt lat="41.431950319531346" lon="12.802622727614299"><ele>10.0</ele><time>2026-04-25T10:01:26Z</time></trkpt><trkpt lat="41.43194565178471" lon="12.802736805853414"><ele>10.0</ele><time>2026-04-25T10:01:27Z</time></trkpt><trkpt lat="41.43195308253856" lon="12.80286896217825"><ele>10.0</ele><time>2026-04-25T10:01:28Z</time></trkpt><trkpt lat="41.43196058384645" lon="12.80302606557537"><ele>10.0</ele><time>2026-04-25T10:01:29Z</time></trkpt><trkpt lat="41.43192649330917" lon="12.803185328555744"><ele>10.0</ele><time>2026-04-25T10:01:30Z</time></trkpt><trkpt lat="41.431918194224416" lon="12.803375258529819"><ele>10.0</ele><time>2026-04-25T10:01:31Z</time></trkpt><trkpt lat="41.43187104695092" lon="12.803617229576181"><ele>10.0</ele><time>2026-04-25T10:01:32Z</time></trkpt><trkpt lat="41.43184629870045" lon="12.803859715147887"><ele>10.0</ele><time>2026-04-25T10:01:33Z</time></trkpt><trkpt lat="41.43180971588455" lon="12.804130492011785"><ele>10.0</ele><time>2026-04-25T10:01:34Z</time></trkpt><trkpt lat="41.43177235254743" lon="12.804427791676764"><ele>9.5</ele><time>2026-04-25T10:01:35Z</time></trkpt><trkpt lat="41.43173736609049" lon="12.804735722997874"><ele>9.0</ele><time>2026-04-25T10:01:36Z</time></trkpt><trkpt lat="41.4316932147754" lon="12.805058876242201"><ele>9.0</ele><time>2026-04-25T10:01:37Z</time></trkpt><trkpt lat="41.431636753959324" lon="12.805393479277798"><ele>9.0</ele><time>2026-04-25T10:01:38Z</time></trkpt><trkpt lat="41.43158236398994" lon="12.805755169604105"><ele>10.5</ele><time>2026-04-25T10:01:39Z</time></trkpt><trkpt lat="41.43153513498756" lon="12.806117443545297"><ele>12.0</ele><time>2026-04-25T10:01:40Z</time></trkpt><trkpt lat="41.43149561198944" lon="12.806468726624566"><ele>12.0</ele><time>2026-04-25T10:01:41Z</time></trkpt><trkpt lat="41.43145542913911" lon="12.80680031090847"><ele>12.0</ele><time>2026-04-25T10:01:42Z</time></trkpt><trkpt lat="41.431417473793815" lon="12.80711437730664"><ele>12.0</ele><time>2026-04-25T10:01:43Z</time></trkpt><trkpt lat="41.43137732180009" lon="12.807431627749438"><ele>12.0</ele><time>2026-04-25T10:01:44Z</time></trkpt><trkpt lat="41.4313370849231" lon="12.807761375357082"><ele>10.5</ele><time>2026-04-25T10:01:45Z</time></trkpt><trkpt lat="41.43129474589215" lon="12.808097693440956"><ele>9.0</ele><time>2026-04-25T10:01:46Z</time></trkpt><trkpt lat="41.43125184778545" lon="12.808425432481902"><ele>9.5</ele><time>2026-04-25T10:01:47Z</time></trkpt><trkpt lat="41.431213967683654" lon="12.808748314312627"><ele>10.0</ele><time>2026-04-25T10:01:48Z</time></trkpt><trkpt lat="41.43117129890727" lon="12.809078187414608"><ele>12.0</ele><time>2026-04-25T10:01:49Z</time></trkpt><trkpt lat="41.431133958987104" lon="12.809400184685225"><ele>14.0</ele><time>2026-04-25T10:01:50Z</time></trkpt><trkpt lat="41.4310906518359" lon="12.80972596822717"><ele>14.0</ele><time>2026-04-25T10:01:51Z</time></trkpt><trkpt lat="41.431048981272674" lon="12.810029727384377"><ele>14.0</ele><time>2026-04-25T10:01:52Z</time></trkpt><trkpt lat="41.43101173555264" lon="12.81032641512094"><ele>11.5</ele><time>2026-04-25T10:01:53Z</time></trkpt><trkpt lat="41.43097446343077" lon="12.81063184834773"><ele>9.0</ele><time>2026-04-25T10:01:54Z</time></trkpt><trkpt lat="41.430936462603675" lon="12.810937492563221"><ele>9.666666666666666</ele><time>2026-04-25T10:01:55Z</time></trkpt><trkpt lat="41.43089964598501" lon="12.811234322956766"><ele>10.333333333333332</ele><time>2026-04-25T10:01:56Z</time></trkpt><trkpt lat="41.4308658723294" lon="12.81150751406651"><ele>11.0</ele><time>2026-04-25T10:01:57Z</time></trkpt><trkpt lat="41.43083525916308" lon="12.811764441548625"><ele>11.333333333333332</ele><time>2026-04-25T10:01:58Z</time></trkpt><trkpt lat="41.43080137885287" lon="12.812015646305111"><ele>11.666666666666666</ele><time>2026-04-25T10:01:59Z</time></trkpt><trkpt lat="41.430771022024395" lon="12.812299980861182"><ele>12.0</ele><time>2026-04-25T10:02:00Z</time></trkpt><trkpt lat="41.43073237325162" lon="12.812590982056577"><ele>11.0</ele><time>2026-04-25T10:02:01Z</time></trkpt><trkpt lat="41.43069728645681" lon="12.812868647144185"><ele>10.0</ele><time>2026-04-25T10:02:02Z</time></trkpt><trkpt lat="41.43066621186904" lon="12.813143901352548"><ele>9.0</ele><time>2026-04-25T10:02:03Z</time></trkpt><trkpt lat="41.43062754154465" lon="12.813416164879362"><ele>8.333333333333334</ele><time>2026-04-25T10:02:04Z</time></trkpt><trkpt lat="41.43059327343336" lon="12.813681181957243"><ele>7.666666666666667</ele><time>2026-04-25T10:02:05Z</time></trkpt><trkpt lat="41.430559393500495" lon="12.813925412172374"><ele>7.0</ele><time>2026-04-25T10:02:06Z</time></trkpt><trkpt lat="41.43052893178331" lon="12.814150961524696"><ele>7.333333333333334</ele><time>2026-04-25T10:02:07Z</time></trkpt><trkpt lat="41.43050013881865" lon="12.814359059941086"><ele>7.666666666666666</ele><time>2026-04-25T10:02:08Z</time></trkpt><trkpt lat="41.430471222304" lon="12.81455412781556"><ele>8.0</ele><time>2026-04-25T10:02:09Z</time></trkpt><trkpt lat="41.43043957104801" lon="12.81475322981838"><ele>8.0</ele><time>2026-04-25T10:02:10Z</time></trkpt><trkpt lat="41.43041400781227" lon="12.814955083056876"><ele>8.0</ele><time>2026-04-25T10:02:11Z</time></trkpt><trkpt lat="41.43038801795762" lon="12.815148837435775"><ele>8.0</ele><time>2026-04-25T10:02:12Z</time></trkpt><trkpt lat="41.43036270125197" lon="12.815336929098567"><ele>8.0</ele><time>2026-04-25T10:02:13Z</time></trkpt><trkpt lat="41.43034189601986" lon="12.815519480954345"><ele>6.75</ele><time>2026-04-25T10:02:14Z</time></trkpt><trkpt lat="41.4303148166755" lon="12.815700765071915"><ele>5.5</ele><time>2026-04-25T10:02:15Z</time></trkpt><trkpt lat="41.43029377637629" lon="12.815889718729895"><ele>4.25</ele><time>2026-04-25T10:02:16Z</time></trkpt><trkpt lat="41.43027547325521" lon="12.81608953508192"><ele>3.0</ele><time>2026-04-25T10:02:17Z</time></trkpt><trkpt lat="41.430249682304186" lon="12.816297650909313"><ele>3.0</ele><time>2026-04-25T10:02:18Z</time></trkpt><trkpt lat="41.43022289072187" lon="12.816507722737816"><ele>3.0</ele><time>2026-04-25T10:02:19.001Z</time></trkpt><trkpt lat="41.430190519111534" lon="12.816730523314128"><ele>3.0</ele><time>2026-04-25T10:02:20.001Z</time></trkpt><trkpt lat="41.43016108634299" lon="12.816972662912498"><ele>3.0</ele><time>2026-04-25T10:02:21.001Z</time></trkpt><trkpt lat="41.43013426551875" lon="12.817234956185706"><ele>3.0</ele><time>2026-04-25T10:02:22.001Z</time></trkpt><trkpt lat="41.43010651940063" lon="12.817474257924985"><ele>3.0</ele><time>2026-04-25T10:02:23.001Z</time></trkpt><trkpt lat="41.430075688301976" lon="12.817697272500636"><ele>3.0</ele><time>2026-04-25T10:02:24.001Z</time></trkpt><trkpt lat="41.43004697395865" lon="12.817918615916966"><ele>3.0</ele><time>2026-04-25T10:02:25.001Z</time></trkpt><trkpt lat="41.43002037376779" lon="12.818145662576761"><ele>3.0</ele><time>2026-04-25T10:02:26.001Z</time></trkpt><trkpt lat="41.42999220336163" lon="12.81837099411476"><ele>3.5</ele><time>2026-04-25T10:02:27.001Z</time></trkpt><trkpt lat="41.42996417316784" lon="12.818577145933336"><ele>4.0</ele><time>2026-04-25T10:02:28.001Z</time></trkpt><trkpt lat="41.42994163699206" lon="12.818766205604497"><ele>4.5</ele><time>2026-04-25T10:02:29.001Z</time></trkpt><trkpt lat="41.429918683488346" lon="12.818947723733679"><ele>5.0</ele><time>2026-04-25T10:02:30.001Z</time></trkpt><trkpt lat="41.42989485954535" lon="12.819120217017574"><ele>5.0</ele><time>2026-04-25T10:02:31.001Z</time></trkpt><trkpt lat="41.42987192948255" lon="12.81928534570338"><ele>5.0</ele><time>2026-04-25T10:02:32.001Z</time></trkpt><trkpt lat="41.42985407527673" lon="12.819437843064232"><ele>5.0</ele><time>2026-04-25T10:02:33.001Z</time></trkpt><trkpt lat="41.42983565213257" lon="12.81957888139792"><ele>5.0</ele><time>2026-04-25T10:02:34.001Z</time></trkpt><trkpt lat="41.429816305452164" lon="12.819708930273608"><ele>5.0</ele><time>2026-04-25T10:02:35.001Z</time></trkpt><trkpt lat="41.429803556748105" lon="12.819830959337557"><ele>5.333333333333334</ele><time>2026-04-25T10:02:36.001Z</time></trkpt><trkpt lat="41.4297909795711" lon="12.819917398670489"><ele>5.666666666666667</ele><time>2026-04-25T10:02:37.001Z</time></trkpt><trkpt lat="41.4297722801298" lon="12.820020188023467"><ele>6.0</ele><time>2026-04-25T10:02:39.001Z</time></trkpt><trkpt lat="41.429763707280195" lon="12.820142594310605"><ele>6.333333333333334</ele><time>2026-04-25T10:02:41Z</time></trkpt><trkpt lat="41.42975516897664" lon="12.820247664232218"><ele>6.666666666666667</ele><time>2026-04-25T10:02:42Z</time></trkpt><trkpt lat="41.42973994436586" lon="12.82037091743962"><ele>7.0</ele><time>2026-04-25T10:02:43Z</time></trkpt><trkpt lat="41.42971678077905" lon="12.82050745898557"><ele>7.199999999999999</ele><time>2026-04-25T10:02:44Z</time></trkpt><trkpt lat="41.429698359141746" lon="12.820660238897377"><ele>7.3999999999999995</ele><time>2026-04-25T10:02:45Z</time></trkpt><trkpt lat="41.429683848145814" lon="12.82079911312685"><ele>7.6000000000000005</ele><time>2026-04-25T10:02:46Z</time></trkpt><trkpt lat="41.42966987873514" lon="12.820913331499481"><ele>7.800000000000001</ele><time>2026-04-25T10:02:47Z</time></trkpt><trkpt lat="41.429651509955505" lon="12.82105796705764"><ele>8.0</ele><time>2026-04-25T10:02:49Z</time></trkpt><trkpt lat="41.42962791533115" lon="12.821171655930602"><ele>7.999999999999999</ele><time>2026-04-25T10:02:51Z</time></trkpt><trkpt lat="41.429612825612914" lon="12.821255182084684"><ele>8.0</ele><time>2026-04-25T10:02:55Z</time></trkpt><trkpt lat="41.42958911144337" lon="12.821333723686587"><ele>8.0</ele><time>2026-04-25T10:02:59Z</time></trkpt><trkpt lat="41.429562635217366" lon="12.8214108537627"><ele>8.0</ele><time>2026-04-25T10:03:03Z</time></trkpt><trkpt lat="41.42953040542964" lon="12.821515202349003"><ele>7.999999999999999</ele><time>2026-04-25T10:03:05Z</time></trkpt><trkpt lat="41.42961525572176" lon="12.8215758567727"><ele>8.0</ele><time>2026-04-25T10:03:07Z</time></trkpt><trkpt lat="41.42967317901281" lon="12.821478634781224"><ele>8.0</ele><time>2026-04-25T10:03:09Z</time></trkpt><trkpt lat="41.42966916138488" lon="12.821362191897673"><ele>8.0</ele><time>2026-04-25T10:03:10Z</time></trkpt><trkpt lat="41.42966806800787" lon="12.821213830557204"><ele>8.0</ele><time>2026-04-25T10:03:11Z</time></trkpt><trkpt lat="41.42968048330166" lon="12.82103107747774"><ele>8.0</ele><time>2026-04-25T10:03:12Z</time></trkpt><trkpt lat="41.42970785206086" lon="12.820823591380586"><ele>8.0</ele><time>2026-04-25T10:03:13Z</time></trkpt><trkpt lat="41.42974085090702" lon="12.820571941189236"><ele>8.0</ele><time>2026-04-25T10:03:14Z</time></trkpt><trkpt lat="41.42977782597813" lon="12.820293475081739"><ele>8.0</ele><time>2026-04-25T10:03:15Z</time></trkpt><trkpt lat="41.42981515090855" lon="12.819968008910294"><ele>7.5</ele><time>2026-04-25T10:03:16Z</time></trkpt><trkpt lat="41.429859531502665" lon="12.819644845981607"><ele>7.0</ele><time>2026-04-25T10:03:17Z</time></trkpt><trkpt lat="41.42989668724141" lon="12.819356692442542"><ele>6.333333333333334</ele><time>2026-04-25T10:03:18Z</time></trkpt><trkpt lat="41.42992937178603" lon="12.819097886438692"><ele>5.666666666666667</ele><time>2026-04-25T10:03:19Z</time></trkpt><trkpt lat="41.429959492609406" lon="12.818855568619153"><ele>5.0</ele><time>2026-04-25T10:03:20Z</time></trkpt><trkpt lat="41.42998966435316" lon="12.81858399744023"><ele>4.0</ele><time>2026-04-25T10:03:21Z</time></trkpt><trkpt lat="41.43002661764819" lon="12.818283672926956"><ele>3.0</ele><time>2026-04-25T10:03:22Z</time></trkpt><trkpt lat="41.430061536833435" lon="12.817965073867324"><ele>2.5</ele><time>2026-04-25T10:03:23Z</time></trkpt><trkpt lat="41.43012201676626" lon="12.817644332215117"><ele>2.0</ele><time>2026-04-25T10:03:24Z</time></trkpt><trkpt lat="41.43015889655307" lon="12.817369432270878"><ele>2.0</ele><time>2026-04-25T10:03:25Z</time></trkpt><trkpt lat="41.430187551561524" lon="12.817114069788953"><ele>2.0</ele><time>2026-04-25T10:03:26Z</time></trkpt><trkpt lat="41.43021218848913" lon="12.816873947303524"><ele>2.0</ele><time>2026-04-25T10:03:27Z</time></trkpt><trkpt lat="41.43023987467722" lon="12.816648137896332"><ele>2.25</ele><time>2026-04-25T10:03:28Z</time></trkpt><trkpt lat="41.43026743757201" lon="12.816441137356552"><ele>2.5</ele><time>2026-04-25T10:03:29Z</time></trkpt><trkpt lat="41.43029155477739" lon="12.816258811855704"><ele>2.75</ele><time>2026-04-25T10:03:30Z</time></trkpt><trkpt lat="41.430317671128705" lon="12.8160651431129"><ele>3.0</ele><time>2026-04-25T10:03:31Z</time></trkpt><trkpt lat="41.43033871796359" lon="12.815873980323394"><ele>3.0</ele><time>2026-04-25T10:03:32Z</time></trkpt><trkpt lat="41.4303561844026" lon="12.815700019291691"><ele>3.0</ele><time>2026-04-25T10:03:33Z</time></trkpt><trkpt lat="41.43037925607966" lon="12.815545926728712"><ele>3.0</ele><time>2026-04-25T10:03:34Z</time></trkpt><trkpt lat="41.43039952090927" lon="12.815400318043363"><ele>3.0</ele><time>2026-04-25T10:03:35Z</time></trkpt><trkpt lat="41.43041679360794" lon="12.815259051324425"><ele>3.25</ele><time>2026-04-25T10:03:36Z</time></trkpt><trkpt lat="41.430437197578726" lon="12.81511432824203"><ele>3.5</ele><time>2026-04-25T10:03:37Z</time></trkpt><trkpt lat="41.43045697980761" lon="12.8149571613699"><ele>3.75</ele><time>2026-04-25T10:03:38Z</time></trkpt><trkpt lat="41.430475618021234" lon="12.814798330011053"><ele>4.0</ele><time>2026-04-25T10:03:39Z</time></trkpt><trkpt lat="41.43049290009741" lon="12.814652201556592"><ele>4.0</ele><time>2026-04-25T10:03:40Z</time></trkpt><trkpt lat="41.43050879424129" lon="12.814521945952883"><ele>4.0</ele><time>2026-04-25T10:03:41Z</time></trkpt><trkpt lat="41.43051814272348" lon="12.81439948612666"><ele>4.0</ele><time>2026-04-25T10:03:42Z</time></trkpt><trkpt lat="41.430535952850924" lon="12.814294460292107"><ele>4.0</ele><time>2026-04-25T10:03:43Z</time></trkpt><trkpt lat="41.430551615718365" lon="12.814172450724781"><ele>4.0</ele><time>2026-04-25T10:03:45Z</time></trkpt><trkpt lat="41.430489450664425" lon="12.81438128252428"><ele>4.666666666666666</ele><time>2026-04-25T10:03:51Z</time></trkpt><trkpt lat="41.43046784007037" lon="12.814527617637282"><ele>5.333333333333333</ele><time>2026-04-25T10:03:52Z</time></trkpt><trkpt lat="41.43045020977185" lon="12.814638169090232"><ele>6.0</ele><time>2026-04-25T10:03:53Z</time></trkpt><trkpt lat="41.4304314961231" lon="12.814725309736492"><ele>6.666666666666666</ele><time>2026-04-25T10:03:54Z</time></trkpt><trkpt lat="41.43041971254253" lon="12.814814885208992"><ele>7.333333333333333</ele><time>2026-04-25T10:03:55Z</time></trkpt><trkpt lat="41.43037119474457" lon="12.814943919574578"><ele>8.0</ele><time>2026-04-25T10:03:57Z</time></trkpt><trkpt lat="41.4302903801452" lon="12.814994476521917"><ele>7.999999999999999</ele><time>2026-04-25T10:03:59Z</time></trkpt><trkpt lat="41.43021709244531" lon="12.814998449249012"><ele>8.0</ele><time>2026-04-25T10:04:00Z</time></trkpt><trkpt lat="41.430142646250246" lon="12.815031422186124"><ele>8.0</ele><time>2026-04-25T10:04:01Z</time></trkpt><trkpt lat="41.4300669154924" lon="12.81508490473952"><ele>8.0</ele><time>2026-04-25T10:04:03Z</time></trkpt><trkpt lat="41.42998694626145" lon="12.815129044793089"><ele>7.999999999999999</ele><time>2026-04-25T10:04:16Z</time></trkpt><trkpt lat="41.429894519362485" lon="12.81510227066136"><ele>8.0</ele><time>2026-04-25T10:04:18Z</time></trkpt><trkpt lat="41.42979518089512" lon="12.815021141332485"><ele>8.0</ele><time>2026-04-25T10:04:20Z</time></trkpt><trkpt lat="41.429737428592624" lon="12.814984222285856"><ele>7.999999999999999</ele><time>2026-04-25T10:04:21Z</time></trkpt><trkpt lat="41.429670977128524" lon="12.814940838130681"><ele>8.0</ele><time>2026-04-25T10:04:22Z</time></trkpt><trkpt lat="41.42960766317878" lon="12.814893838874184"><ele>8.0</ele><time>2026-04-25T10:04:23Z</time></trkpt><trkpt lat="41.42954926313396" lon="12.814859584523937"><ele>7.999999999999999</ele><time>2026-04-25T10:04:24Z</time></trkpt><trkpt lat="41.4294886699269" lon="12.814824452637374"><ele>8.0</ele><time>2026-04-25T10:04:25Z</time></trkpt><trkpt lat="41.42942277937412" lon="12.81479289388188"><ele>8.0</ele><time>2026-04-25T10:04:26Z</time></trkpt><trkpt lat="41.42930917900601" lon="12.814721916327034"><ele>7.0</ele><time>2026-04-25T10:04:28Z</time></trkpt><trkpt lat="41.429245469462046" lon="12.814683172304528"><ele>6.000000000000001</ele><time>2026-04-25T10:04:29Z</time></trkpt><trkpt lat="41.42914098480797" lon="12.814620569085555"><ele>5.0</ele><time>2026-04-25T10:04:31Z</time></trkpt><trkpt lat="41.4290449192717" lon="12.814564632144466"><ele>4.0</ele><time>2026-04-25T10:04:33Z</time></trkpt><trkpt lat="41.428936405651136" lon="12.814503255286862"><ele>3.0</ele><time>2026-04-25T10:04:35Z</time></trkpt><trkpt lat="41.428876875826546" lon="12.814469093268151"><ele>3.0</ele><time>2026-04-25T10:04:36Z</time></trkpt><trkpt lat="41.4287706586327" lon="12.814402174482627"><ele>3.0</ele><time>2026-04-25T10:04:38Z</time></trkpt><trkpt lat="41.428712981911914" lon="12.814362261182465"><ele>3.0</ele><time>2026-04-25T10:04:39Z</time></trkpt><trkpt lat="41.42865390277169" lon="12.814311838619039"><ele>3.0</ele><time>2026-04-25T10:04:40Z</time></trkpt><trkpt lat="41.428586204386825" lon="12.81426876685209"><ele>3.0</ele><time>2026-04-25T10:04:41Z</time></trkpt><trkpt lat="41.42851937909661" lon="12.81422341010136"><ele>3.0</ele><time>2026-04-25T10:04:42Z</time></trkpt><trkpt lat="41.428451377430534" lon="12.814172766426816"><ele>3.0</ele><time>2026-04-25T10:04:43Z</time></trkpt><trkpt lat="41.42839629001931" lon="12.814127889616236"><ele>3.0</ele><time>2026-04-25T10:04:44Z</time></trkpt><trkpt lat="41.42833541240984" lon="12.814074672096824"><ele>3.0</ele><time>2026-04-25T10:04:45Z</time></trkpt><trkpt lat="41.428268680343145" lon="12.814019527138047"><ele>3.0</ele><time>2026-04-25T10:04:46Z</time></trkpt><trkpt lat="41.428188739769745" lon="12.813966401532662"><ele>3.0</ele><time>2026-04-25T10:04:47Z</time></trkpt><trkpt lat="41.42811311572283" lon="12.813927291334899"><ele>3.0</ele><time>2026-04-25T10:04:48Z</time></trkpt><trkpt lat="41.42804830086159" lon="12.813895601291764"><ele>2.9999999999999996</ele><time>2026-04-25T10:04:49Z</time></trkpt><trkpt lat="41.42799125925864" lon="12.813859580063433"><ele>3.0</ele><time>2026-04-25T10:04:50Z</time></trkpt><trkpt lat="41.42793243440113" lon="12.813822058868134"><ele>3.0</ele><time>2026-04-25T10:04:51Z</time></trkpt><trkpt lat="41.427873986045164" lon="12.813779086983333"><ele>3.0</ele><time>2026-04-25T10:04:52Z</time></trkpt><trkpt lat="41.427813260230714" lon="12.813729633807354"><ele>3.0</ele><time>2026-04-25T10:04:53Z</time></trkpt><trkpt lat="41.427746756855086" lon="12.813676736729521"><ele>2.9999999999999996</ele><time>2026-04-25T10:04:54Z</time></trkpt><trkpt lat="41.42768783031883" lon="12.813631534978121"><ele>3.0</ele><time>2026-04-25T10:04:55Z</time></trkpt><trkpt lat="41.42763196418883" lon="12.813583255502415"><ele>3.2</ele><time>2026-04-25T10:04:56Z</time></trkpt><trkpt lat="41.42754464756419" lon="12.813499259637224"><ele>3.4</ele><time>2026-04-25T10:04:58Z</time></trkpt><trkpt lat="41.42743775922387" lon="12.813423246821138"><ele>3.6000000000000005</ele><time>2026-04-25T10:05:00Z</time></trkpt><trkpt lat="41.4273756724674" lon="12.813377938895302"><ele>3.8000000000000003</ele><time>2026-04-25T10:05:01Z</time></trkpt><trkpt lat="41.42730468313841" lon="12.813323316964908"><ele>4.0</ele><time>2026-04-25T10:05:02Z</time></trkpt><trkpt lat="41.42722920528519" lon="12.813267755930857"><ele>4.0</ele><time>2026-04-25T10:05:03Z</time></trkpt><trkpt lat="41.42715492123415" lon="12.813217051396"><ele>4.0</ele><time>2026-04-25T10:05:04Z</time></trkpt><trkpt lat="41.42709647281675" lon="12.813174772372074"><ele>4.0</ele><time>2026-04-25T10:05:05Z</time></trkpt><trkpt lat="41.42698762775327" lon="12.813115191159897"><ele>4.0</ele><time>2026-04-25T10:05:07Z</time></trkpt><trkpt lat="41.42689513806421" lon="12.813075416861318"><ele>4.0</ele><time>2026-04-25T10:05:09Z</time></trkpt><trkpt lat="41.42679424680967" lon="12.813031124125253"><ele>3.833333333333333</ele><time>2026-04-25T10:05:11Z</time></trkpt><trkpt lat="41.42673171179764" lon="12.813000532222357"><ele>3.6666666666666665</ele><time>2026-04-25T10:05:12Z</time></trkpt><trkpt lat="41.426663732707674" lon="12.812973150077207"><ele>3.5</ele><time>2026-04-25T10:05:13Z</time></trkpt><trkpt lat="41.426582043778765" lon="12.812941898826919"><ele>3.333333333333333</ele><time>2026-04-25T10:05:14Z</time></trkpt><trkpt lat="41.426488890696334" lon="12.812919987332988"><ele>3.1666666666666665</ele><time>2026-04-25T10:05:15Z</time></trkpt><trkpt lat="41.42639617773036" lon="12.812905645224768"><ele>3.0</ele><time>2026-04-25T10:05:16Z</time></trkpt><trkpt lat="41.42631977918934" lon="12.812894316960495"><ele>2.8571428571428568</ele><time>2026-04-25T10:05:17Z</time></trkpt><trkpt lat="41.426248746604614" lon="12.812874635371186"><ele>2.7142857142857144</ele><time>2026-04-25T10:05:18Z</time></trkpt><trkpt lat="41.42618530573865" lon="12.812861133677647"><ele>2.571428571428571</ele><time>2026-04-25T10:05:19Z</time></trkpt><trkpt lat="41.42612139384133" lon="12.8128422074303"><ele>2.4285714285714284</ele><time>2026-04-25T10:05:20Z</time></trkpt><trkpt lat="41.4260562137623" lon="12.812820105414453"><ele>2.2857142857142856</ele><time>2026-04-25T10:05:21Z</time></trkpt><trkpt lat="41.425983614146226" lon="12.81279624384416"><ele>2.142857142857143</ele><time>2026-04-25T10:05:22Z</time></trkpt><trkpt lat="41.42590526375173" lon="12.812781039130366"><ele>2.0</ele><time>2026-04-25T10:05:23Z</time></trkpt><trkpt lat="41.42581528174991" lon="12.812773321198016"><ele>1.9999999999999998</ele><time>2026-04-25T10:05:24Z</time></trkpt><trkpt lat="41.425724727819784" lon="12.81276206475448"><ele>2.0</ele><time>2026-04-25T10:05:25Z</time></trkpt><trkpt lat="41.4256368577623" lon="12.812754245627811"><ele>2.0</ele><time>2026-04-25T10:05:26Z</time></trkpt><trkpt lat="41.4255466549357" lon="12.812742417760843"><ele>2.0</ele><time>2026-04-25T10:05:27Z</time></trkpt><trkpt lat="41.425474795613184" lon="12.812729367046773"><ele>1.9999999999999998</ele><time>2026-04-25T10:05:28Z</time></trkpt><trkpt lat="41.42540044082462" lon="12.81272496384667"><ele>2.0</ele><time>2026-04-25T10:05:29Z</time></trkpt><trkpt lat="41.42531470682678" lon="12.812722412928625"><ele>1.9999999999999998</ele><time>2026-04-25T10:05:30Z</time></trkpt><trkpt lat="41.4252350745888" lon="12.812719776180305"><ele>2.0</ele><time>2026-04-25T10:05:31Z</time></trkpt><trkpt lat="41.42515716586522" lon="12.812719379806955"><ele>2.0</ele><time>2026-04-25T10:05:32Z</time></trkpt><trkpt lat="41.425090582523815" lon="12.812716919609446"><ele>2.0</ele><time>2026-04-25T10:05:33Z</time></trkpt><trkpt lat="41.42502575831649" lon="12.812706094420541"><ele>1.9999999999999998</ele><time>2026-04-25T10:05:34Z</time></trkpt><trkpt lat="41.42490623788756" lon="12.812702235503124"><ele>2.0</ele><time>2026-04-25T10:05:36Z</time></trkpt><trkpt lat="41.42484320035905" lon="12.812698737827413"><ele>2.0</ele><time>2026-04-25T10:05:37Z</time></trkpt><trkpt lat="41.424764939929766" lon="12.812693022390235"><ele>1.9999999999999998</ele><time>2026-04-25T10:05:38Z</time></trkpt><trkpt lat="41.424699127521635" lon="12.81269230544048"><ele>2.0</ele><time>2026-04-25T10:05:39Z</time></trkpt><trkpt lat="41.42463119452934" lon="12.812686245561228"><ele>2.0</ele><time>2026-04-25T10:05:40Z</time></trkpt><trkpt lat="41.42456553379143" lon="12.812687295041455"><ele>1.9999999999999998</ele><time>2026-04-25T10:05:41Z</time></trkpt><trkpt lat="41.424497942201235" lon="12.812686958717636"><ele>2.0</ele><time>2026-04-25T10:05:42Z</time></trkpt><trkpt lat="41.424428403245535" lon="12.812688336086367"><ele>2.0</ele><time>2026-04-25T10:05:43Z</time></trkpt><trkpt lat="41.42431020780342" lon="12.812699060027498"><ele>1.8333333333333333</ele><time>2026-04-25T10:05:45Z</time></trkpt><trkpt lat="41.424240549473765" lon="12.812702348104887"><ele>1.6666666666666665</ele><time>2026-04-25T10:05:46Z</time></trkpt><trkpt lat="41.42417269691274" lon="12.812704464933818"><ele>1.5</ele><time>2026-04-25T10:05:47Z</time></trkpt><trkpt lat="41.424063682761954" lon="12.812705522346493"><ele>1.3333333333333333</ele><time>2026-04-25T10:05:49Z</time></trkpt><trkpt lat="41.42399615970665" lon="12.812685355084833"><ele>1.1666666666666665</ele><time>2026-04-25T10:05:52Z</time></trkpt><trkpt lat="41.423915656989834" lon="12.812695042489542"><ele>1.0</ele><time>2026-04-25T10:05:54Z</time></trkpt><trkpt lat="41.423835326867994" lon="12.81268513721282"><ele>1.5</ele><time>2026-04-25T10:05:56Z</time></trkpt><trkpt lat="41.42372340678513" lon="12.812647496237613"><ele>2.0</ele><time>2026-04-25T10:05:58Z</time></trkpt><trkpt lat="41.42364854967892" lon="12.812645039718568"><ele>2.5</ele><time>2026-04-25T10:05:59Z</time></trkpt><trkpt lat="41.423572669639775" lon="12.812632667416464"><ele>3.0</ele><time>2026-04-25T10:06:00Z</time></trkpt><trkpt lat="41.42349388772832" lon="12.812611018141093"><ele>3.4999999999999996</ele><time>2026-04-25T10:06:01Z</time></trkpt><trkpt lat="41.42341221078184" lon="12.812608962544807"><ele>4.0</ele><time>2026-04-25T10:06:02Z</time></trkpt><trkpt lat="41.42332339849495" lon="12.812604064188106"><ele>3.9999999999999996</ele><time>2026-04-25T10:06:03Z</time></trkpt><trkpt lat="41.42323989161826" lon="12.812607252389835"><ele>4.0</ele><time>2026-04-25T10:06:04Z</time></trkpt><trkpt lat="41.42316202348756" lon="12.81260196147169"><ele>4.0</ele><time>2026-04-25T10:06:05Z</time></trkpt><trkpt lat="41.423079596670114" lon="12.812604840911984"><ele>4.0</ele><time>2026-04-25T10:06:06Z</time></trkpt><trkpt lat="41.42299510851719" lon="12.812601963727582"><ele>3.9999999999999996</ele><time>2026-04-25T10:06:07Z</time></trkpt><trkpt lat="41.42291051853464" lon="12.8125985429604"><ele>4.0</ele><time>2026-04-25T10:06:08Z</time></trkpt><trkpt lat="41.42282597417291" lon="12.812596981888996"><ele>4.0</ele><time>2026-04-25T10:06:09Z</time></trkpt><trkpt lat="41.422740865854706" lon="12.812599889262723"><ele>4.0</ele><time>2026-04-25T10:06:10Z</time></trkpt><trkpt lat="41.422653412874524" lon="12.812587435598793"><ele>4.0</ele><time>2026-04-25T10:06:11Z</time></trkpt><trkpt lat="41.42255502550024" lon="12.812574405088377"><ele>4.0</ele><time>2026-04-25T10:06:12Z</time></trkpt><trkpt lat="41.422452219615415" lon="12.812566805277065"><ele>4.0</ele><time>2026-04-25T10:06:13Z</time></trkpt><trkpt lat="41.42235906395388" lon="12.81256164749519"><ele>3.9999999999999996</ele><time>2026-04-25T10:06:14Z</time></trkpt><trkpt lat="41.422267206974674" lon="12.812572514963996"><ele>4.0</ele><time>2026-04-25T10:06:15Z</time></trkpt><trkpt lat="41.422167585181754" lon="12.812596181934058"><ele>4.0</ele><time>2026-04-25T10:06:16Z</time></trkpt><trkpt lat="41.422086729017764" lon="12.812613681902349"><ele>4.0</ele><time>2026-04-25T10:06:17Z</time></trkpt><trkpt lat="41.422010836620615" lon="12.8126261455489"><ele>3.9999999999999996</ele><time>2026-04-25T10:06:18Z</time></trkpt><trkpt lat="41.42193620509496" lon="12.812617499697442"><ele>4.0</ele><time>2026-04-25T10:06:19Z</time></trkpt><trkpt lat="41.421871014464664" lon="12.812607230379015"><ele>4.0</ele><time>2026-04-25T10:06:20Z</time></trkpt><trkpt lat="41.421808838944465" lon="12.812575364744761"><ele>4.0</ele><time>2026-04-25T10:06:21Z</time></trkpt><trkpt lat="41.42167029416376" lon="12.812548625313266"><ele>4.0</ele><time>2026-04-25T10:06:23Z</time></trkpt><trkpt lat="41.42157766467258" lon="12.81256682534623"><ele>4.0</ele><time>2026-04-25T10:06:24Z</time></trkpt><trkpt lat="41.4214730418558" lon="12.812592761343934"><ele>4.0</ele><time>2026-04-25T10:06:25Z</time></trkpt><trkpt lat="41.421385944346696" lon="12.812620470577306"><ele>3.9999999999999996</ele><time>2026-04-25T10:06:26.001Z</time></trkpt><trkpt lat="41.42131173398985" lon="12.81265210257233"><ele>4.0</ele><time>2026-04-25T10:06:27.001Z</time></trkpt><trkpt lat="41.42123701167551" lon="12.81266363604662"><ele>4.0</ele><time>2026-04-25T10:06:28.001Z</time></trkpt><trkpt lat="41.421162712486975" lon="12.812659301975325"><ele>4.0</ele><time>2026-04-25T10:06:29.001Z</time></trkpt><trkpt lat="41.42106878713908" lon="12.812660069817703"><ele>3.9999999999999996</ele><time>2026-04-25T10:06:30.001Z</time></trkpt><trkpt lat="41.4209615546657" lon="12.812648131987793"><ele>4.0</ele><time>2026-04-25T10:06:31.001Z</time></trkpt><trkpt lat="41.42086924709976" lon="12.812638053705848"><ele>4.2</ele><time>2026-04-25T10:06:32.001Z</time></trkpt><trkpt lat="41.420778973947456" lon="12.812623442953264"><ele>4.4</ele><time>2026-04-25T10:06:33.001Z</time></trkpt><trkpt lat="41.4206710672375" lon="12.812626525310128"><ele>4.6</ele><time>2026-04-25T10:06:34.001Z</time></trkpt><trkpt lat="41.420574561815336" lon="12.812625879528824"><ele>4.8</ele><time>2026-04-25T10:06:35.001Z</time></trkpt><trkpt lat="41.420485516744066" lon="12.812622882066249"><ele>5.0</ele><time>2026-04-25T10:06:36.001Z</time></trkpt><trkpt lat="41.420405679032235" lon="12.81261852943261"><ele>5.0</ele><time>2026-04-25T10:06:37.001Z</time></trkpt><trkpt lat="41.420312634153234" lon="12.81262196829772"><ele>5.0</ele><time>2026-04-25T10:06:38.001Z</time></trkpt><trkpt lat="41.42021370591828" lon="12.812620502814767"><ele>5.0</ele><time>2026-04-25T10:06:39.001Z</time></trkpt><trkpt lat="41.42010224895368" lon="12.812623905324802"><ele>5.0</ele><time>2026-04-25T10:06:40.001Z</time></trkpt><trkpt lat="41.41999444005149" lon="12.812620927061463"><ele>5.0</ele><time>2026-04-25T10:06:41.001Z</time></trkpt><trkpt lat="41.41987811598495" lon="12.812611753344429"><ele>5.0</ele><time>2026-04-25T10:06:42.001Z</time></trkpt><trkpt lat="41.41978091260922" lon="12.812601179217497"><ele>5.0</ele><time>2026-04-25T10:06:43.001Z</time></trkpt><trkpt lat="41.419686708102795" lon="12.812597716490773"><ele>5.0</ele><time>2026-04-25T10:06:44.001Z</time></trkpt><trkpt lat="41.41958798311494" lon="12.812596674616588"><ele>5.0</ele><time>2026-04-25T10:06:45.001Z</time></trkpt><trkpt lat="41.419489317604466" lon="12.812598905774593"><ele>5.0</ele><time>2026-04-25T10:06:46.001Z</time></trkpt><trkpt lat="41.41938297104258" lon="12.812596508583642"><ele>4.8</ele><time>2026-04-25T10:06:47.001Z</time></trkpt><trkpt lat="41.41928880646499" lon="12.81259522969923"><ele>4.6</ele><time>2026-04-25T10:06:48.001Z</time></trkpt><trkpt lat="41.419196427345916" lon="12.812579641230094"><ele>4.4</ele><time>2026-04-25T10:06:49.001Z</time></trkpt><trkpt lat="41.419103445063534" lon="12.812565216808201"><ele>4.2</ele><time>2026-04-25T10:06:50.001Z</time></trkpt><trkpt lat="41.41901376823666" lon="12.81254590053928"><ele>4.0</ele><time>2026-04-25T10:06:51.001Z</time></trkpt><trkpt lat="41.41892530317224" lon="12.812520415885214"><ele>4.0</ele><time>2026-04-25T10:06:52.001Z</time></trkpt><trkpt lat="41.41883643265231" lon="12.81250004675679"><ele>4.0</ele><time>2026-04-25T10:06:53Z</time></trkpt><trkpt lat="41.41874276745206" lon="12.812475767806761"><ele>4.0</ele><time>2026-04-25T10:06:54Z</time></trkpt><trkpt lat="41.41864685518914" lon="12.812457197687293"><ele>4.0</ele><time>2026-04-25T10:06:55Z</time></trkpt><trkpt lat="41.41853762088127" lon="12.812452155246323"><ele>4.0</ele><time>2026-04-25T10:06:56Z</time></trkpt><trkpt lat="41.41843304801146" lon="12.812449395725181"><ele>4.0</ele><time>2026-04-25T10:06:57Z</time></trkpt><trkpt lat="41.41833036444357" lon="12.812450800619581"><ele>4.0</ele><time>2026-04-25T10:06:58Z</time></trkpt><trkpt lat="41.418230211330574" lon="12.812456239126277"><ele>4.0</ele><time>2026-04-25T10:06:59Z</time></trkpt><trkpt lat="41.418130719149815" lon="12.812471682498913"><ele>4.0</ele><time>2026-04-25T10:07:00Z</time></trkpt><trkpt lat="41.41805193673255" lon="12.812498440261585"><ele>4.0</ele><time>2026-04-25T10:07:01Z</time></trkpt><trkpt lat="41.41797654112691" lon="12.812534260965982"><ele>3.9999999999999996</ele><time>2026-04-25T10:07:02Z</time></trkpt><trkpt lat="41.41791086277912" lon="12.812558906094091"><ele>4.0</ele><time>2026-04-25T10:07:03Z</time></trkpt><trkpt lat="41.41784305036073" lon="12.812572167135196"><ele>4.0</ele><time>2026-04-25T10:07:04Z</time></trkpt><trkpt lat="41.41776621096081" lon="12.81257561817115"><ele>4.0</ele><time>2026-04-25T10:07:05Z</time></trkpt><trkpt lat="41.417687806977895" lon="12.812579186108778"><ele>3.9999999999999996</ele><time>2026-04-25T10:07:06Z</time></trkpt><trkpt lat="41.41759002604064" lon="12.812577852123955"><ele>4.0</ele><time>2026-04-25T10:07:07Z</time></trkpt><trkpt lat="41.417499710478445" lon="12.812594901588314"><ele>3.9999999999999996</ele><time>2026-04-25T10:07:08Z</time></trkpt><trkpt lat="41.41741874533628" lon="12.812584651994898"><ele>4.0</ele><time>2026-04-25T10:07:09Z</time></trkpt><trkpt lat="41.417337666395355" lon="12.812569956934212"><ele>4.0</ele><time>2026-04-25T10:07:10Z</time></trkpt><trkpt lat="41.417239714944294" lon="12.812562600334328"><ele>4.0</ele><time>2026-04-25T10:07:11Z</time></trkpt><trkpt lat="41.41715058289759" lon="12.812559022632048"><ele>3.9999999999999996</ele><time>2026-04-25T10:07:12Z</time></trkpt><trkpt lat="41.41707251756819" lon="12.812553873125914"><ele>4.0</ele><time>2026-04-25T10:07:13Z</time></trkpt><trkpt lat="41.416995640506514" lon="12.8125530164871"><ele>3.6</ele><time>2026-04-25T10:07:14Z</time></trkpt><trkpt lat="41.416922790644925" lon="12.812564551672471"><ele>3.2</ele><time>2026-04-25T10:07:15Z</time></trkpt><trkpt lat="41.416815126029" lon="12.812595374812634"><ele>2.8000000000000003</ele><time>2026-04-25T10:07:17Z</time></trkpt><trkpt lat="41.416735932584736" lon="12.81260131426756"><ele>2.4000000000000004</ele><time>2026-04-25T10:07:19Z</time></trkpt><trkpt lat="41.41659762500986" lon="12.812604832423716"><ele>2.0</ele><time>2026-04-25T10:07:21Z</time></trkpt><trkpt lat="41.41649909210295" lon="12.812609641662982"><ele>2.0</ele><time>2026-04-25T10:07:22Z</time></trkpt><trkpt lat="41.41642176125084" lon="12.812600103239491"><ele>2.0</ele><time>2026-04-25T10:07:23Z</time></trkpt><trkpt lat="41.41635012810341" lon="12.812582554886005"><ele>2.0</ele><time>2026-04-25T10:07:24Z</time></trkpt><trkpt lat="41.41623328729987" lon="12.812553169156251"><ele>2.0</ele><time>2026-04-25T10:07:26Z</time></trkpt><trkpt lat="41.41610748379787" lon="12.812537363107893"><ele>2.0</ele><time>2026-04-25T10:07:28Z</time></trkpt><trkpt lat="41.416004424658304" lon="12.812518750915734"><ele>1.9999999999999998</ele><time>2026-04-25T10:07:30Z</time></trkpt><trkpt lat="41.4159135669885" lon="12.812556951147629"><ele>2.0</ele><time>2026-04-25T10:07:32Z</time></trkpt><trkpt lat="41.41583545042536" lon="12.812571019938467"><ele>2.0</ele><time>2026-04-25T10:07:34Z</time></trkpt><trkpt lat="41.41575574403014" lon="12.812540233749564"><ele>2.0</ele><time>2026-04-25T10:07:36Z</time></trkpt><trkpt lat="41.415679884390755" lon="12.812502354716527"><ele>1.9999999999999998</ele><time>2026-04-25T10:07:38Z</time></trkpt><trkpt lat="41.41561303230318" lon="12.81244192988167"><ele>2.0</ele><time>2026-04-25T10:07:40Z</time></trkpt><trkpt lat="41.41556160240742" lon="12.812390501110244"><ele>2.0</ele><time>2026-04-25T10:07:44Z</time></trkpt><trkpt lat="41.4156027193547" lon="12.81227175548621"><ele>2.0</ele><time>2026-04-25T10:08:21.001Z</time></trkpt><trkpt lat="41.41565419801957" lon="12.812197600533635"><ele>2.0</ele><time>2026-04-25T10:08:22.001Z</time></trkpt><trkpt lat="41.4157069668028" lon="12.812090833754045"><ele>2.0</ele><time>2026-04-25T10:08:24.001Z</time></trkpt><trkpt lat="41.415541719081844" lon="12.812045260430592"><ele>2.0</ele><time>2026-04-25T10:08:26.001Z</time></trkpt><trkpt lat="41.41554366406293" lon="12.811957872503564"><ele>1.9999999999999998</ele><time>2026-04-25T10:08:30.001Z</time></trkpt><trkpt lat="41.415525137337255" lon="12.812041536167715"><ele>2.0</ele><time>2026-04-25T10:08:45.001Z</time></trkpt><trkpt lat="41.41551102561867" lon="12.812124843755477"><ele>2.0</ele><time>2026-04-25T10:08:47.001Z</time></trkpt><trkpt lat="41.41550704703519" lon="12.812215202344387"><ele>2.0</ele><time>2026-04-25T10:08:51.001Z</time></trkpt><trkpt lat="41.415501707126815" lon="12.812314184339975"><ele>1.9999999999999998</ele><time>2026-04-25T10:08:53.001Z</time></trkpt><trkpt lat="41.41550188573874" lon="12.812461697735436"><ele>2.0</ele><time>2026-04-25T10:08:55.001Z</time></trkpt><trkpt lat="41.415506440163675" lon="12.81255292221054"><ele>2.0</ele><time>2026-04-25T10:08:56.001Z</time></trkpt><trkpt lat="41.41550205432427" lon="12.812646615871406"><ele>2.0</ele><time>2026-04-25T10:08:57.001Z</time></trkpt><trkpt lat="41.41549600739253" lon="12.812811784889641"><ele>2.0</ele><time>2026-04-25T10:08:59Z</time></trkpt><trkpt lat="41.41548906949653" lon="12.812962252078458"><ele>2.0</ele><time>2026-04-25T10:09:01Z</time></trkpt><trkpt lat="41.41549365791958" lon="12.813100218197988"><ele>2.0</ele><time>2026-04-25T10:09:03Z</time></trkpt><trkpt lat="41.41547947854087" lon="12.813217552833194"><ele>2.0</ele><time>2026-04-25T10:09:06Z</time></trkpt><trkpt lat="41.415469448647286" lon="12.813300755002196"><ele>1.9999999999999998</ele><time>2026-04-25T10:09:08Z</time></trkpt><trkpt lat="41.41544335107708" lon="12.813385062359767"><ele>2.0</ele><time>2026-04-25T10:09:18Z</time></trkpt><trkpt lat="41.41536842802476" lon="12.813376773571932"><ele>2.0</ele><time>2026-04-25T10:09:21Z</time></trkpt><trkpt lat="41.415416302378155" lon="12.81331461890052"><ele>1.9999999999999998</ele><time>2026-04-25T10:09:23Z</time></trkpt><trkpt lat="41.41550219155104" lon="12.813303025208418"><ele>2.0</ele><time>2026-04-25T10:09:25Z</time></trkpt><trkpt lat="41.41557343910843" lon="12.813341006997973"><ele>2.0</ele><time>2026-04-25T10:09:26Z</time></trkpt><trkpt lat="41.41564573695042" lon="12.813343768174706"><ele>2.0</ele><time>2026-04-25T10:09:27Z</time></trkpt><trkpt lat="41.41574583702817" lon="12.813370008423632"><ele>2.0</ele><time>2026-04-25T10:09:29Z</time></trkpt><trkpt lat="41.41583662522859" lon="12.81332262826278"><ele>2.0</ele><time>2026-04-25T10:09:31Z</time></trkpt><trkpt lat="41.41588876417284" lon="12.813174514236575"><ele>2.0</ele><time>2026-04-25T10:09:33Z</time></trkpt><trkpt lat="41.41591221450649" lon="12.813026450734869"><ele>2.0</ele><time>2026-04-25T10:09:35Z</time></trkpt><trkpt lat="41.415971478873715" lon="12.81298484940418"><ele>2.0</ele><time>2026-04-25T10:09:53Z</time></trkpt><trkpt lat="41.41596412416579" lon="12.812901477630161"><ele>1.9999999999999998</ele><time>2026-04-25T10:09:56Z</time></trkpt><trkpt lat="41.41590182886964" lon="12.81292177640815"><ele>2.0</ele><time>2026-04-25T10:09:58Z</time></trkpt><trkpt lat="41.41590260307046" lon="12.81304637787186"><ele>2.0</ele><time>2026-04-25T10:10:11Z</time></trkpt><trkpt lat="41.41589659051452" lon="12.813142967299562"><ele>1.9999999999999998</ele><time>2026-04-25T10:10:12Z</time></trkpt><trkpt lat="41.41587641285407" lon="12.813242987218503"><ele>2.0</ele><time>2026-04-25T10:10:13Z</time></trkpt><trkpt lat="41.415847124307966" lon="12.813328089715748"><ele>2.0</ele><time>2026-04-25T10:10:14Z</time></trkpt><trkpt lat="41.41578999600798" lon="12.813380393344847"><ele>2.0</ele><time>2026-04-25T10:10:16Z</time></trkpt><trkpt lat="41.41571339704675" lon="12.813380238732389"><ele>2.0</ele><time>2026-04-25T10:10:29.001Z</time></trkpt><trkpt lat="41.41561303514598" lon="12.813323738633938"><ele>2.0</ele><time>2026-04-25T10:10:32.001Z</time></trkpt><trkpt lat="41.41553354542325" lon="12.813315066580728"><ele>2.0</ele><time>2026-04-25T10:10:34.001Z</time></trkpt><trkpt lat="41.41548292596779" lon="12.813373481972565"><ele>2.0</ele><time>2026-04-25T10:11:30Z</time></trkpt><trkpt lat="41.41546471932248" lon="12.813545613093472"><ele>2.0</ele><time>2026-04-25T10:11:32Z</time></trkpt><trkpt lat="41.41546719566997" lon="12.813632186334416"><ele>2.0</ele><time>2026-04-25T10:11:33Z</time></trkpt><trkpt lat="41.41547188643985" lon="12.81372135779014"><ele>2.0</ele><time>2026-04-25T10:11:34Z</time></trkpt><trkpt lat="41.4154740691244" lon="12.813835201533582"><ele>2.0</ele><time>2026-04-25T10:11:35Z</time></trkpt><trkpt lat="41.415477822857426" lon="12.814008314062578"><ele>2.0</ele><time>2026-04-25T10:11:36Z</time></trkpt><trkpt lat="41.415485603584294" lon="12.814174638314455"><ele>1.9999999999999998</ele><time>2026-04-25T10:11:37Z</time></trkpt><trkpt lat="41.415485347688026" lon="12.814274587621098"><ele>2.0</ele><time>2026-04-25T10:11:38Z</time></trkpt><trkpt lat="41.415498419820885" lon="12.814420670429712"><ele>2.0</ele><time>2026-04-25T10:11:40Z</time></trkpt><trkpt lat="41.41550183974988" lon="12.814514016559848"><ele>2.0</ele><time>2026-04-25T10:11:41Z</time></trkpt><trkpt lat="41.415504743081314" lon="12.814619503302863"><ele>1.9999999999999998</ele><time>2026-04-25T10:11:42Z</time></trkpt><trkpt lat="41.415515410654145" lon="12.814749356904116"><ele>2.0</ele><time>2026-04-25T10:11:43Z</time></trkpt><trkpt lat="41.41552654834115" lon="12.814892671348252"><ele>2.0</ele><time>2026-04-25T10:11:44Z</time></trkpt><trkpt lat="41.415535972616496" lon="12.815035764961689"><ele>2.0</ele><time>2026-04-25T10:11:45Z</time></trkpt><trkpt lat="41.415545263455854" lon="12.815169345342486"><ele>2.0</ele><time>2026-04-25T10:11:46Z</time></trkpt><trkpt lat="41.41556110812253" lon="12.81530957117422"><ele>2.0</ele><time>2026-04-25T10:11:47Z</time></trkpt><trkpt lat="41.415574883767526" lon="12.815459501842472"><ele>2.0</ele><time>2026-04-25T10:11:48Z</time></trkpt><trkpt lat="41.415590070819405" lon="12.81560341938405"><ele>1.5</ele><time>2026-04-25T10:11:49Z</time></trkpt><trkpt lat="41.41560499801623" lon="12.815752818303014"><ele>1.0</ele><time>2026-04-25T10:11:50Z</time></trkpt><trkpt lat="41.41561750791101" lon="12.815902137718"><ele>0.5</ele><time>2026-04-25T10:11:51Z</time></trkpt><trkpt lat="41.41563251561302" lon="12.816057572727233"><ele>0.0</ele><time>2026-04-25T10:11:52Z</time></trkpt><trkpt lat="41.41565089717755" lon="12.816217327807978"><ele>0.0</ele><time>2026-04-25T10:11:53Z</time></trkpt><trkpt lat="41.41566889195025" lon="12.81636975508136"><ele>0.0</ele><time>2026-04-25T10:11:54Z</time></trkpt><trkpt lat="41.415685930323654" lon="12.816501381169457"><ele>0.0</ele><time>2026-04-25T10:11:55Z</time></trkpt><trkpt lat="41.41569871401858" lon="12.816622030669253"><ele>0.0</ele><time>2026-04-25T10:11:56Z</time></trkpt><trkpt lat="41.415709910717496" lon="12.816737364881515"><ele>0.0</ele><time>2026-04-25T10:11:57Z</time></trkpt><trkpt lat="41.415724251084264" lon="12.816861342015821"><ele>0.2</ele><time>2026-04-25T10:11:58Z</time></trkpt><trkpt lat="41.41574296311722" lon="12.816994245624533"><ele>0.4</ele><time>2026-04-25T10:11:59Z</time></trkpt><trkpt lat="41.41575840659937" lon="12.817127044574145"><ele>0.6000000000000001</ele><time>2026-04-25T10:12:00Z</time></trkpt><trkpt lat="41.4157749623802" lon="12.81725598938453"><ele>0.8</ele><time>2026-04-25T10:12:01Z</time></trkpt><trkpt lat="41.415790315466765" lon="12.81738793551567"><ele>1.0</ele><time>2026-04-25T10:12:02Z</time></trkpt><trkpt lat="41.4157965290029" lon="12.8175181216789"><ele>1.0</ele><time>2026-04-25T10:12:03Z</time></trkpt><trkpt lat="41.41580807551377" lon="12.817650172878341"><ele>1.0</ele><time>2026-04-25T10:12:04Z</time></trkpt><trkpt lat="41.41582130481468" lon="12.817777033119727"><ele>1.0</ele><time>2026-04-25T10:12:05Z</time></trkpt><trkpt lat="41.41583686783615" lon="12.817898587588964"><ele>1.0</ele><time>2026-04-25T10:12:06Z</time></trkpt><trkpt lat="41.4158467888997" lon="12.818009700743014"><ele>1.0</ele><time>2026-04-25T10:12:07Z</time></trkpt><trkpt lat="41.415854202804105" lon="12.818119393134939"><ele>1.2000000000000002</ele><time>2026-04-25T10:12:08Z</time></trkpt><trkpt lat="41.41586245771291" lon="12.818232099780342"><ele>1.4000000000000001</ele><time>2026-04-25T10:12:09Z</time></trkpt><trkpt lat="41.41587608309011" lon="12.818356558827674"><ele>1.6</ele><time>2026-04-25T10:12:10Z</time></trkpt><trkpt lat="41.4158901368969" lon="12.818480810030415"><ele>1.8</ele><time>2026-04-25T10:12:11Z</time></trkpt><trkpt lat="41.4159039050695" lon="12.818610649911822"><ele>2.0</ele><time>2026-04-25T10:12:12Z</time></trkpt><trkpt lat="41.415919503779165" lon="12.818731598665616"><ele>2.0</ele><time>2026-04-25T10:12:13Z</time></trkpt><trkpt lat="41.41593398511191" lon="12.818861376544609"><ele>2.0</ele><time>2026-04-25T10:12:14Z</time></trkpt><trkpt lat="41.415949509137214" lon="12.818998636605185"><ele>2.0</ele><time>2026-04-25T10:12:15Z</time></trkpt><trkpt lat="41.41596685286096" lon="12.819150037675396"><ele>2.0</ele><time>2026-04-25T10:12:16Z</time></trkpt><trkpt lat="41.41598236729117" lon="12.819288249043886"><ele>2.0</ele><time>2026-04-25T10:12:17Z</time></trkpt><trkpt lat="41.415997395374674" lon="12.819421482530085"><ele>2.0</ele><time>2026-04-25T10:12:18Z</time></trkpt><trkpt lat="41.41602032244712" lon="12.819553823385927"><ele>2.0</ele><time>2026-04-25T10:12:19Z</time></trkpt><trkpt lat="41.41604696384264" lon="12.81968841726694"><ele>2.0</ele><time>2026-04-25T10:12:20Z</time></trkpt><trkpt lat="41.41608329153366" lon="12.819823682760262"><ele>2.0</ele><time>2026-04-25T10:12:21.001Z</time></trkpt><trkpt lat="41.41612608454891" lon="12.819957250922574"><ele>2.0</ele><time>2026-04-25T10:12:22.001Z</time></trkpt><trkpt lat="41.41616931120317" lon="12.820095852917007"><ele>2.0</ele><time>2026-04-25T10:12:23.001Z</time></trkpt><trkpt lat="41.41621163385788" lon="12.82023491547325"><ele>2.0</ele><time>2026-04-25T10:12:24.001Z</time></trkpt><trkpt lat="41.416255037051364" lon="12.82037953153837"><ele>2.0</ele><time>2026-04-25T10:12:25.001Z</time></trkpt><trkpt lat="41.41628161560426" lon="12.820532127823974"><ele>2.0</ele><time>2026-04-25T10:12:26.001Z</time></trkpt><trkpt lat="41.416323482862616" lon="12.82067406643041"><ele>2.2</ele><time>2026-04-25T10:12:27.001Z</time></trkpt><trkpt lat="41.41636357656099" lon="12.820810966262195"><ele>2.4000000000000004</ele><time>2026-04-25T10:12:28.001Z</time></trkpt><trkpt lat="41.416413784620985" lon="12.82093483397431"><ele>2.5999999999999996</ele><time>2026-04-25T10:12:29.001Z</time></trkpt><trkpt lat="41.4164503170809" lon="12.821057483031568"><ele>2.8</ele><time>2026-04-25T10:12:30.001Z</time></trkpt><trkpt lat="41.41648589586232" lon="12.821167266617797"><ele>3.0</ele><time>2026-04-25T10:12:31.001Z</time></trkpt><trkpt lat="41.41649799552885" lon="12.821294066897993"><ele>3.0</ele><time>2026-04-25T10:12:32.001Z</time></trkpt><trkpt lat="41.41652823804" lon="12.821387297659053"><ele>3.0</ele><time>2026-04-25T10:12:33.001Z</time></trkpt><trkpt lat="41.416556156487495" lon="12.821474052274255"><ele>3.0</ele><time>2026-04-25T10:12:34.001Z</time></trkpt><trkpt lat="41.41657634526059" lon="12.821563257891695"><ele>3.0</ele><time>2026-04-25T10:12:35.001Z</time></trkpt><trkpt lat="41.41660550657046" lon="12.821690121046847"><ele>3.0</ele><time>2026-04-25T10:12:37.001Z</time></trkpt><trkpt lat="41.41665120997426" lon="12.82180307055714"><ele>3.0</ele><time>2026-04-25T10:12:40.001Z</time></trkpt><trkpt lat="41.41668085788409" lon="12.821879375805063"><ele>3.0</ele><time>2026-04-25T10:12:42.001Z</time></trkpt><trkpt lat="41.41684198891625" lon="12.821821527973245"><ele>3.0</ele><time>2026-04-25T10:12:44.001Z</time></trkpt><trkpt lat="41.41695392507495" lon="12.82175546899297"><ele>3.0</ele><time>2026-04-25T10:12:46.001Z</time></trkpt><trkpt lat="41.41701446964232" lon="12.82172719055964"><ele>3.0</ele><time>2026-04-25T10:12:47.001Z</time></trkpt><trkpt lat="41.41708643214463" lon="12.821696370817984"><ele>3.0</ele><time>2026-04-25T10:12:48.001Z</time></trkpt><trkpt lat="41.41715946648795" lon="12.821662747565405"><ele>2.8333333333333335</ele><time>2026-04-25T10:12:49.001Z</time></trkpt><trkpt lat="41.41722450817646" lon="12.821603350786583"><ele>2.6666666666666665</ele><time>2026-04-25T10:12:50.001Z</time></trkpt><trkpt lat="41.41729525774568" lon="12.82156585802356"><ele>2.5</ele><time>2026-04-25T10:12:51.001Z</time></trkpt><trkpt lat="41.41736426676478" lon="12.821532878297472"><ele>2.333333333333333</ele><time>2026-04-25T10:12:52.001Z</time></trkpt><trkpt lat="41.4174356543697" lon="12.821502339168049"><ele>2.1666666666666665</ele><time>2026-04-25T10:12:53.001Z</time></trkpt><trkpt lat="41.417507107505756" lon="12.821472998729336"><ele>2.0</ele><time>2026-04-25T10:12:54.001Z</time></trkpt><trkpt lat="41.417585369158495" lon="12.821457518268542"><ele>1.9999999999999998</ele><time>2026-04-25T10:12:55.001Z</time></trkpt><trkpt lat="41.417655588188566" lon="12.82139883610482"><ele>2.0</ele><time>2026-04-25T10:12:56.001Z</time></trkpt><trkpt lat="41.41773041654255" lon="12.821355736879347"><ele>2.0</ele><time>2026-04-25T10:12:57.001Z</time></trkpt><trkpt lat="41.41780005881075" lon="12.821319264661978"><ele>2.0</ele><time>2026-04-25T10:12:58.001Z</time></trkpt><trkpt lat="41.41785944151507" lon="12.82126082678291"><ele>1.9999999999999998</ele><time>2026-04-25T10:12:59.001Z</time></trkpt><trkpt lat="41.417911758295595" lon="12.821201308795265"><ele>2.0</ele><time>2026-04-25T10:13:00.001Z</time></trkpt><trkpt lat="41.41801916102123" lon="12.821103043320399"><ele>1.8</ele><time>2026-04-25T10:13:02.001Z</time></trkpt><trkpt lat="41.41809087389421" lon="12.821053667674617"><ele>1.6</ele><time>2026-04-25T10:13:03.001Z</time></trkpt><trkpt lat="41.4181788068825" lon="12.821002599600613"><ele>1.4000000000000001</ele><time>2026-04-25T10:13:04.001Z</time></trkpt><trkpt lat="41.41826108637539" lon="12.820963568819721"><ele>1.2000000000000002</ele><time>2026-04-25T10:13:05.001Z</time></trkpt><trkpt lat="41.418354040000644" lon="12.82091486634968"><ele>1.0</ele><time>2026-04-25T10:13:06.001Z</time></trkpt><trkpt lat="41.41845337849458" lon="12.820855594294468"><ele>1.0</ele><time>2026-04-25T10:13:07.001Z</time></trkpt><trkpt lat="41.41855197090971" lon="12.820803610756165"><ele>1.0</ele><time>2026-04-25T10:13:08.001Z</time></trkpt><trkpt lat="41.41864569139913" lon="12.820749968569789"><ele>1.0</ele><time>2026-04-25T10:13:09.001Z</time></trkpt><trkpt lat="41.41872937685243" lon="12.820696539067052"><ele>1.0</ele><time>2026-04-25T10:13:10.001Z</time></trkpt><trkpt lat="41.41881156835123" lon="12.820649263353163"><ele>1.0</ele><time>2026-04-25T10:13:11Z</time></trkpt><trkpt lat="41.418897148285716" lon="12.820599281100387"><ele>1.1666666666666665</ele><time>2026-04-25T10:13:11.999Z</time></trkpt><trkpt lat="41.418976447373446" lon="12.820554101340614"><ele>1.3333333333333333</ele><time>2026-04-25T10:13:12.999Z</time></trkpt><trkpt lat="41.41905138663992" lon="12.820506088013303"><ele>1.5</ele><time>2026-04-25T10:13:14Z</time></trkpt><trkpt lat="41.41912358419147" lon="12.82045869152433"><ele>1.6666666666666665</ele><time>2026-04-25T10:13:15Z</time></trkpt><trkpt lat="41.41919919570154" lon="12.820408920137588"><ele>1.8333333333333333</ele><time>2026-04-25T10:13:16Z</time></trkpt><trkpt lat="41.41928060880604" lon="12.820354952271463"><ele>2.0</ele><time>2026-04-25T10:13:17Z</time></trkpt><trkpt lat="41.41936070117541" lon="12.820303065864483"><ele>2.0</ele><time>2026-04-25T10:13:18Z</time></trkpt><trkpt lat="41.41944184626918" lon="12.820253799829203"><ele>2.0</ele><time>2026-04-25T10:13:19Z</time></trkpt><trkpt lat="41.41952461004523" lon="12.820208198186338"><ele>2.0</ele><time>2026-04-25T10:13:20Z</time></trkpt><trkpt lat="41.419613813918644" lon="12.820169118621466"><ele>2.0</ele><time>2026-04-25T10:13:20.999Z</time></trkpt><trkpt lat="41.419702109072446" lon="12.820119889148302"><ele>2.0</ele><time>2026-04-25T10:13:21.999Z</time></trkpt><trkpt lat="41.41979024376278" lon="12.820063802153363"><ele>2.1666666666666665</ele><time>2026-04-25T10:13:23Z</time></trkpt><trkpt lat="41.41987726616552" lon="12.820014490151182"><ele>2.333333333333333</ele><time>2026-04-25T10:13:23.999Z</time></trkpt><trkpt lat="41.41996665361321" lon="12.819967048945607"><ele>2.5</ele><time>2026-04-25T10:13:24.999Z</time></trkpt><trkpt lat="41.420052886176286" lon="12.819919093850432"><ele>2.6666666666666665</ele><time>2026-04-25T10:13:25.999Z</time></trkpt><trkpt lat="41.420131263503244" lon="12.819869543043183"><ele>2.8333333333333335</ele><time>2026-04-25T10:13:26.999Z</time></trkpt><trkpt lat="41.42020274580885" lon="12.819829206022225"><ele>3.0</ele><time>2026-04-25T10:13:27.999Z</time></trkpt><trkpt lat="41.42030552900973" lon="12.819775340197712"><ele>3.0</ele><time>2026-04-25T10:13:29.999Z</time></trkpt><trkpt lat="41.42039353590173" lon="12.819722783711722"><ele>3.0</ele><time>2026-04-25T10:13:43Z</time></trkpt><trkpt lat="41.42048015205098" lon="12.819679948893631"><ele>3.0</ele><time>2026-04-25T10:13:45Z</time></trkpt><trkpt lat="41.42050302843769" lon="12.819945304499887"><ele>3.0</ele><time>2026-04-25T10:13:53Z</time></trkpt><trkpt lat="41.42050145660325" lon="12.820056066079639"><ele>3.1666666666666665</ele><time>2026-04-25T10:13:54Z</time></trkpt><trkpt lat="41.420505717807416" lon="12.820140210553143"><ele>3.333333333333333</ele><time>2026-04-25T10:13:55Z</time></trkpt><trkpt lat="41.42052947375734" lon="12.820312247705436"><ele>3.5</ele><time>2026-04-25T10:13:57Z</time></trkpt><trkpt lat="41.42052194765545" lon="12.820424384608781"><ele>3.6666666666666665</ele><time>2026-04-25T10:13:58Z</time></trkpt><trkpt lat="41.42052073686262" lon="12.820532086777"><ele>3.833333333333333</ele><time>2026-04-25T10:13:59Z</time></trkpt><trkpt lat="41.420524379166714" lon="12.820626352668526"><ele>4.0</ele><time>2026-04-25T10:14:00Z</time></trkpt><trkpt lat="41.42052611602207" lon="12.820718651917828"><ele>4.333333333333333</ele><time>2026-04-25T10:14:01Z</time></trkpt><trkpt lat="41.420529817630516" lon="12.820806329879371"><ele>4.666666666666666</ele><time>2026-04-25T10:14:02Z</time></trkpt><trkpt lat="41.42052915122022" lon="12.820917080530855"><ele>5.0</ele><time>2026-04-25T10:14:03Z</time></trkpt><trkpt lat="41.42052849348906" lon="12.821024059104065"><ele>5.333333333333333</ele><time>2026-04-25T10:14:04Z</time></trkpt><trkpt lat="41.4205179610137" lon="12.821133362285282"><ele>5.666666666666667</ele><time>2026-04-25T10:14:05Z</time></trkpt><trkpt lat="41.42050838231746" lon="12.82126145177925"><ele>6.0</ele><time>2026-04-25T10:14:06Z</time></trkpt><trkpt lat="41.42050676941044" lon="12.821374014758964"><ele>6.0</ele><time>2026-04-25T10:14:07Z</time></trkpt><trkpt lat="41.420512880006186" lon="12.821464259799125"><ele>6.0</ele><time>2026-04-25T10:14:08Z</time></trkpt><trkpt lat="41.420518309253" lon="12.821648706030954"><ele>6.0</ele><time>2026-04-25T10:14:10Z</time></trkpt><trkpt lat="41.42051751968928" lon="12.82174163787438"><ele>6.0</ele><time>2026-04-25T10:14:11Z</time></trkpt><trkpt lat="41.42051301540698" lon="12.821834040545848"><ele>6.0</ele><time>2026-04-25T10:14:12Z</time></trkpt><trkpt lat="41.4205097121134" lon="12.821926842350427"><ele>6.0</ele><time>2026-04-25T10:14:13Z</time></trkpt><trkpt lat="41.42050970193058" lon="12.82202984620698"><ele>5.999999999999999</ele><time>2026-04-25T10:14:14Z</time></trkpt><trkpt lat="41.420507821774656" lon="12.822137381898337"><ele>6.0</ele><time>2026-04-25T10:14:15Z</time></trkpt><trkpt lat="41.420512266353356" lon="12.822230976311927"><ele>6.0</ele><time>2026-04-25T10:14:16Z</time></trkpt><trkpt lat="41.420513800320066" lon="12.822330651832115"><ele>6.0</ele><time>2026-04-25T10:14:17Z</time></trkpt><trkpt lat="41.42050686554682" lon="12.822416768053678"><ele>6.0</ele><time>2026-04-25T10:14:18Z</time></trkpt><trkpt lat="41.42050066929652" lon="12.822510377280441"><ele>5.999999999999999</ele><time>2026-04-25T10:14:19Z</time></trkpt><trkpt lat="41.42050704016068" lon="12.82260601277347"><ele>6.0</ele><time>2026-04-25T10:14:20Z</time></trkpt><trkpt lat="41.42051327039233" lon="12.822710450133908"><ele>5.6</ele><time>2026-04-25T10:14:21Z</time></trkpt><trkpt lat="41.42051806576811" lon="12.82280744414271"><ele>5.199999999999999</ele><time>2026-04-25T10:14:22Z</time></trkpt><trkpt lat="41.420526419216834" lon="12.822908922518115"><ele>4.800000000000001</ele><time>2026-04-25T10:14:23Z</time></trkpt><trkpt lat="41.42053090326834" lon="12.823094573289412"><ele>4.4</ele><time>2026-04-25T10:14:25Z</time></trkpt><trkpt lat="41.42053396575442" lon="12.823195321734634"><ele>4.0</ele><time>2026-04-25T10:14:26Z</time></trkpt><trkpt lat="41.420538164355385" lon="12.823311544507822"><ele>3.9999999999999996</ele><time>2026-04-25T10:14:27Z</time></trkpt><trkpt lat="41.420543548147364" lon="12.823429423548042"><ele>4.0</ele><time>2026-04-25T10:14:28Z</time></trkpt><trkpt lat="41.420550148087486" lon="12.823536817599402"><ele>4.0</ele><time>2026-04-25T10:14:29Z</time></trkpt><trkpt lat="41.42055456665494" lon="12.823644046752259"><ele>4.0</ele><time>2026-04-25T10:14:30Z</time></trkpt><trkpt lat="41.42056052704871" lon="12.823757663724786"><ele>3.9999999999999996</ele><time>2026-04-25T10:14:31Z</time></trkpt><trkpt lat="41.420557249792914" lon="12.823875985224616"><ele>4.0</ele><time>2026-04-25T10:14:32Z</time></trkpt><trkpt lat="41.420561001226844" lon="12.824005034534832"><ele>4.0</ele><time>2026-04-25T10:14:33Z</time></trkpt><trkpt lat="41.42056155644803" lon="12.82412656362708"><ele>4.0</ele><time>2026-04-25T10:14:34Z</time></trkpt><trkpt lat="41.420562837671056" lon="12.824248166998732"><ele>4.0</ele><time>2026-04-25T10:14:35Z</time></trkpt><trkpt lat="41.420565318582405" lon="12.82436607689019"><ele>4.0</ele><time>2026-04-25T10:14:36Z</time></trkpt><trkpt lat="41.42057313932671" lon="12.824496465014146"><ele>4.0</ele><time>2026-04-25T10:14:37Z</time></trkpt><trkpt lat="41.42057606929211" lon="12.824631399958022"><ele>4.0</ele><time>2026-04-25T10:14:38Z</time></trkpt><trkpt lat="41.420580295906596" lon="12.824778221089058"><ele>4.0</ele><time>2026-04-25T10:14:39Z</time></trkpt><trkpt lat="41.42058146371621" lon="12.824917486916613"><ele>4.0</ele><time>2026-04-25T10:14:40Z</time></trkpt><trkpt lat="41.4205828400049" lon="12.825054105243339"><ele>4.0</ele><time>2026-04-25T10:14:41Z</time></trkpt><trkpt lat="41.420583706683956" lon="12.82518708337835"><ele>4.0</ele><time>2026-04-25T10:14:42Z</time></trkpt><trkpt lat="41.42058099141059" lon="12.825325129422867"><ele>4.0</ele><time>2026-04-25T10:14:43Z</time></trkpt><trkpt lat="41.42057913068616" lon="12.82545046629972"><ele>4.0</ele><time>2026-04-25T10:14:44Z</time></trkpt><trkpt lat="41.420585236677816" lon="12.825574427871876"><ele>4.0</ele><time>2026-04-25T10:14:45Z</time></trkpt><trkpt lat="41.42059411861422" lon="12.825711768290986"><ele>4.0</ele><time>2026-04-25T10:14:46Z</time></trkpt><trkpt lat="41.420595549092525" lon="12.825859178051658"><ele>4.0</ele><time>2026-04-25T10:14:47Z</time></trkpt><trkpt lat="41.42059647229902" lon="12.826026042638615"><ele>4.0</ele><time>2026-04-25T10:14:48Z</time></trkpt><trkpt lat="41.420597394378085" lon="12.826183774961194"><ele>4.0</ele><time>2026-04-25T10:14:49Z</time></trkpt><trkpt lat="41.42060020100644" lon="12.826333169033761"><ele>4.0</ele><time>2026-04-25T10:14:50Z</time></trkpt><trkpt lat="41.420601335080136" lon="12.82647490986861"><ele>4.0</ele><time>2026-04-25T10:14:51Z</time></trkpt><trkpt lat="41.42060404303305" lon="12.826617724503217"><ele>4.0</ele><time>2026-04-25T10:14:52Z</time></trkpt><trkpt lat="41.420604744035714" lon="12.826766342793087"><ele>4.25</ele><time>2026-04-25T10:14:53Z</time></trkpt><trkpt lat="41.420606482769244" lon="12.82692480027023"><ele>4.5</ele><time>2026-04-25T10:14:54Z</time></trkpt><trkpt lat="41.42061159185137" lon="12.827115913082451"><ele>4.75</ele><time>2026-04-25T10:14:55Z</time></trkpt><trkpt lat="41.42061154629313" lon="12.82730535412951"><ele>5.0</ele><time>2026-04-25T10:14:56Z</time></trkpt><trkpt lat="41.42061538915961" lon="12.82748813439257"><ele>4.75</ele><time>2026-04-25T10:14:57Z</time></trkpt><trkpt lat="41.42061968800618" lon="12.827670755761746"><ele>4.5</ele><time>2026-04-25T10:14:58Z</time></trkpt><trkpt lat="41.42062439320248" lon="12.827855580149166"><ele>4.25</ele><time>2026-04-25T10:14:59Z</time></trkpt><trkpt lat="41.420626879042224" lon="12.828045353582674"><ele>4.0</ele><time>2026-04-25T10:15:00Z</time></trkpt><trkpt lat="41.42063092918246" lon="12.828227097358727"><ele>4.0</ele><time>2026-04-25T10:15:01Z</time></trkpt><trkpt lat="41.42063508550676" lon="12.828388218231424"><ele>4.0</ele><time>2026-04-25T10:15:02Z</time></trkpt><trkpt lat="41.4206350301361" lon="12.828544678281183"><ele>4.0</ele><time>2026-04-25T10:15:03Z</time></trkpt><trkpt lat="41.42063161808795" lon="12.828694835890401"><ele>4.0</ele><time>2026-04-25T10:15:04Z</time></trkpt><trkpt lat="41.42063800073238" lon="12.828849461370112"><ele>4.0</ele><time>2026-04-25T10:15:05Z</time></trkpt><trkpt lat="41.42064207373046" lon="12.829009003003033"><ele>4.0</ele><time>2026-04-25T10:15:06Z</time></trkpt><trkpt lat="41.420639145465465" lon="12.82917508093282"><ele>4.0</ele><time>2026-04-25T10:15:07Z</time></trkpt><trkpt lat="41.42064175118553" lon="12.829350283916996"><ele>4.0</ele><time>2026-04-25T10:15:08Z</time></trkpt><trkpt lat="41.420645135243326" lon="12.829522868256564"><ele>4.0</ele><time>2026-04-25T10:15:09Z</time></trkpt><trkpt lat="41.4206510131998" lon="12.829688477756362"><ele>4.0</ele><time>2026-04-25T10:15:10Z</time></trkpt><trkpt lat="41.42065385841974" lon="12.82985464891413"><ele>4.0</ele><time>2026-04-25T10:15:11Z</time></trkpt><trkpt lat="41.42064931075631" lon="12.830014087086624"><ele>4.0</ele><time>2026-04-25T10:15:12Z</time></trkpt><trkpt lat="41.420650257919874" lon="12.830175954014416"><ele>4.0</ele><time>2026-04-25T10:15:13Z</time></trkpt><trkpt lat="41.420653086938124" lon="12.830348630435502"><ele>4.0</ele><time>2026-04-25T10:15:14Z</time></trkpt><trkpt lat="41.42065336283057" lon="12.830521878240754"><ele>4.0</ele><time>2026-04-25T10:15:15Z</time></trkpt><trkpt lat="41.4206542710762" lon="12.830694153719085"><ele>4.0</ele><time>2026-04-25T10:15:16Z</time></trkpt><trkpt lat="41.42065676015901" lon="12.830859171473445"><ele>4.0</ele><time>2026-04-25T10:15:17Z</time></trkpt><trkpt lat="41.42066477984773" lon="12.831023547078736"><ele>4.0</ele><time>2026-04-25T10:15:18Z</time></trkpt><trkpt lat="41.42066360423474" lon="12.831182059234433"><ele>4.0</ele><time>2026-04-25T10:15:19Z</time></trkpt><trkpt lat="41.420668706493494" lon="12.831341417350268"><ele>4.0</ele><time>2026-04-25T10:15:20Z</time></trkpt><trkpt lat="41.42067372019907" lon="12.831503432983638"><ele>4.0</ele><time>2026-04-25T10:15:21Z</time></trkpt><trkpt lat="41.42066965231537" lon="12.831673844789545"><ele>4.0</ele><time>2026-04-25T10:15:22Z</time></trkpt><trkpt lat="41.42067598442965" lon="12.831840049941343"><ele>4.0</ele><time>2026-04-25T10:15:23Z</time></trkpt><trkpt lat="41.420672719165154" lon="12.832006764029483"><ele>4.0</ele><time>2026-04-25T10:15:24Z</time></trkpt><trkpt lat="41.42067716207335" lon="12.832176797178533"><ele>4.0</ele><time>2026-04-25T10:15:25Z</time></trkpt><trkpt lat="41.42068289494073" lon="12.832339760060188"><ele>4.0</ele><time>2026-04-25T10:15:26Z</time></trkpt><trkpt lat="41.4206831656602" lon="12.832498897085904"><ele>4.0</ele><time>2026-04-25T10:15:26.999Z</time></trkpt><trkpt lat="41.42068895979955" lon="12.83265663091248"><ele>4.0</ele><time>2026-04-25T10:15:27.999Z</time></trkpt><trkpt lat="41.42050079461561" lon="12.832836417600207"><ele>4.0</ele><time>2026-04-25T10:15:29Z</time></trkpt><trkpt lat="41.42051090006613" lon="12.83300487048914"><ele>4.0</ele><time>2026-04-25T10:15:30Z</time></trkpt><trkpt lat="41.42052138098609" lon="12.833179582413814"><ele>4.0</ele><time>2026-04-25T10:15:31Z</time></trkpt><trkpt lat="41.42053327163442" lon="12.833377793872419"><ele>4.0</ele><time>2026-04-25T10:15:32Z</time></trkpt><trkpt lat="41.42054509941678" lon="12.833574957328146"><ele>3.75</ele><time>2026-04-25T10:15:33Z</time></trkpt><trkpt lat="41.42055344357186" lon="12.833742462651298"><ele>3.5</ele><time>2026-04-25T10:15:34Z</time></trkpt><trkpt lat="41.420574986078826" lon="12.833893559429418"><ele>3.25</ele><time>2026-04-25T10:15:35Z</time></trkpt><trkpt lat="41.42056221719972" lon="12.834037824492816"><ele>3.0</ele><time>2026-04-25T10:15:36Z</time></trkpt><trkpt lat="41.4205637732024" lon="12.834178594069638"><ele>3.2</ele><time>2026-04-25T10:15:37Z</time></trkpt><trkpt lat="41.42056475756367" lon="12.834316578144069"><ele>3.4</ele><time>2026-04-25T10:15:38Z</time></trkpt><trkpt lat="41.42056574812463" lon="12.834455431391083"><ele>3.6000000000000005</ele><time>2026-04-25T10:15:39Z</time></trkpt><trkpt lat="41.420566717919215" lon="12.83459137381984"><ele>3.8000000000000003</ele><time>2026-04-25T10:15:40Z</time></trkpt><trkpt lat="41.42056765399587" lon="12.83472258963197"><ele>4.0</ele><time>2026-04-25T10:15:41Z</time></trkpt><trkpt lat="41.42056870850025" lon="12.834845018004511"><ele>4.0</ele><time>2026-04-25T10:15:42Z</time></trkpt><trkpt lat="41.42057027599586" lon="12.83497909212844"><ele>4.0</ele><time>2026-04-25T10:15:43Z</time></trkpt><trkpt lat="41.420571759066604" lon="12.835105945160066"><ele>4.0</ele><time>2026-04-25T10:15:44Z</time></trkpt><trkpt lat="41.42057330101711" lon="12.835237834341804"><ele>4.0</ele><time>2026-04-25T10:15:45Z</time></trkpt><trkpt lat="41.42057496092876" lon="12.83537981348894"><ele>4.0</ele><time>2026-04-25T10:15:46Z</time></trkpt><trkpt lat="41.42057650530764" lon="12.835511910326755"><ele>4.0</ele><time>2026-04-25T10:15:47Z</time></trkpt><trkpt lat="41.42059408588969" lon="12.835638000050904"><ele>4.0</ele><time>2026-04-25T10:15:48Z</time></trkpt><trkpt lat="41.42057835684748" lon="12.835771627803524"><ele>4.0</ele><time>2026-04-25T10:15:49Z</time></trkpt><trkpt lat="41.42058266827005" lon="12.835904568110537"><ele>4.0</ele><time>2026-04-25T10:15:50Z</time></trkpt><trkpt lat="41.42058800464934" lon="12.83603565219819"><ele>4.0</ele><time>2026-04-25T10:15:51Z</time></trkpt><trkpt lat="41.42059658706411" lon="12.83616675222041"><ele>4.0</ele><time>2026-04-25T10:15:52Z</time></trkpt><trkpt lat="41.420594879896406" lon="12.836300885583466"><ele>4.0</ele><time>2026-04-25T10:15:53Z</time></trkpt><trkpt lat="41.420599878617935" lon="12.836432097291251"><ele>4.0</ele><time>2026-04-25T10:15:54Z</time></trkpt><trkpt lat="41.42058051755527" lon="12.8365612115226"><ele>4.0</ele><time>2026-04-25T10:15:55Z</time></trkpt><trkpt lat="41.42058768964914" lon="12.836690230831044"><ele>4.0</ele><time>2026-04-25T10:15:56Z</time></trkpt><trkpt lat="41.420593023150055" lon="12.83681565490903"><ele>4.0</ele><time>2026-04-25T10:15:57Z</time></trkpt><trkpt lat="41.42056951634829" lon="12.836943848085243"><ele>4.0</ele><time>2026-04-25T10:15:58Z</time></trkpt><trkpt lat="41.42056283632836" lon="12.837070638689474"><ele>4.0</ele><time>2026-04-25T10:15:59Z</time></trkpt><trkpt lat="41.42055703866316" lon="12.837190916235624"><ele>4.0</ele><time>2026-04-25T10:16:00Z</time></trkpt><trkpt lat="41.420551242273895" lon="12.837311167341728"><ele>4.0</ele><time>2026-04-25T10:16:01Z</time></trkpt><trkpt lat="41.42054572117757" lon="12.837423488380692"><ele>4.0</ele><time>2026-04-25T10:16:02Z</time></trkpt><trkpt lat="41.42054033682075" lon="12.837526396955171"><ele>4.0</ele><time>2026-04-25T10:16:03Z</time></trkpt><trkpt lat="41.42053432020343" lon="12.8376356802728"><ele>4.0</ele><time>2026-04-25T10:16:04Z</time></trkpt><trkpt lat="41.420527263679766" lon="12.837762093460992"><ele>4.0</ele><time>2026-04-25T10:16:05Z</time></trkpt><trkpt lat="41.42052012388493" lon="12.837889998530002"><ele>4.0</ele><time>2026-04-25T10:16:06Z</time></trkpt><trkpt lat="41.42051216580444" lon="12.83803256263789"><ele>3.8000000000000003</ele><time>2026-04-25T10:16:07Z</time></trkpt><trkpt lat="41.420504364402035" lon="12.838169689580123"><ele>3.6000000000000005</ele><time>2026-04-25T10:16:08Z</time></trkpt><trkpt lat="41.420496862973216" lon="12.838300501752153"><ele>3.4</ele><time>2026-04-25T10:16:09Z</time></trkpt><trkpt lat="41.42048945514497" lon="12.838429681743802"><ele>3.2</ele><time>2026-04-25T10:16:10Z</time></trkpt><trkpt lat="41.420482098707225" lon="12.838557965599806"><ele>3.0</ele><time>2026-04-25T10:16:11Z</time></trkpt><trkpt lat="41.4204751975342" lon="12.838678310327223"><ele>2.4</ele><time>2026-04-25T10:16:12Z</time></trkpt><trkpt lat="41.420468573319205" lon="12.838793825475875"><ele>1.7999999999999998</ele><time>2026-04-25T10:16:13Z</time></trkpt><trkpt lat="41.42046184130501" lon="12.838911220379122"><ele>1.2</ele><time>2026-04-25T10:16:14Z</time></trkpt><trkpt lat="41.42045459366266" lon="12.839037351019789"><ele>0.6</ele><time>2026-04-25T10:16:15Z</time></trkpt><trkpt lat="41.420447121470275" lon="12.839165736861943"><ele>0.0</ele><time>2026-04-25T10:16:16Z</time></trkpt><trkpt lat="41.420439443000795" lon="12.839296907599975"><ele>0.4</ele><time>2026-04-25T10:16:17Z</time></trkpt><trkpt lat="41.4204320542389" lon="12.839422474602463"><ele>0.8</ele><time>2026-04-25T10:16:18Z</time></trkpt><trkpt lat="41.420424661676925" lon="12.839548106146994"><ele>1.2000000000000002</ele><time>2026-04-25T10:16:19Z</time></trkpt><trkpt lat="41.420417252193836" lon="12.839674025266971"><ele>1.6</ele><time>2026-04-25T10:16:20Z</time></trkpt><trkpt lat="41.42041008015904" lon="12.839795909088497"><ele>2.0</ele><time>2026-04-25T10:16:21Z</time></trkpt><trkpt lat="41.42040110163964" lon="12.839911384358969"><ele>2.0</ele><time>2026-04-25T10:16:22Z</time></trkpt><trkpt lat="41.42038994760493" lon="12.840025230841956"><ele>2.0</ele><time>2026-04-25T10:16:23Z</time></trkpt><trkpt lat="41.42037624564712" lon="12.840143485245946"><ele>2.0</ele><time>2026-04-25T10:16:24Z</time></trkpt><trkpt lat="41.420360052382186" lon="12.8402692431686"><ele>2.0</ele><time>2026-04-25T10:16:25Z</time></trkpt><trkpt lat="41.420340392308916" lon="12.840382970280976"><ele>2.0</ele><time>2026-04-25T10:16:26Z</time></trkpt><trkpt lat="41.42031779374537" lon="12.84050628994291"><ele>2.2</ele><time>2026-04-25T10:16:27Z</time></trkpt><trkpt lat="41.420294642097886" lon="12.840632550433126"><ele>2.4000000000000004</ele><time>2026-04-25T10:16:28Z</time></trkpt><trkpt lat="41.42027235155464" lon="12.840754114797388"><ele>2.5999999999999996</ele><time>2026-04-25T10:16:29Z</time></trkpt><trkpt lat="41.42024766997444" lon="12.840888719010541"><ele>2.8</ele><time>2026-04-25T10:16:30Z</time></trkpt><trkpt lat="41.420221104889634" lon="12.841033595100763"><ele>3.0</ele><time>2026-04-25T10:16:31Z</time></trkpt><trkpt lat="41.42019589868028" lon="12.841171060458231"><ele>3.2</ele><time>2026-04-25T10:16:32.001Z</time></trkpt><trkpt lat="41.42017322124281" lon="12.841292124163186"><ele>3.4</ele><time>2026-04-25T10:16:33.001Z</time></trkpt><trkpt lat="41.42015101804151" lon="12.841410046142453"><ele>3.6000000000000005</ele><time>2026-04-25T10:16:34.001Z</time></trkpt><trkpt lat="41.42012737750395" lon="12.841537704223215"><ele>3.8000000000000003</ele><time>2026-04-25T10:16:35.001Z</time></trkpt><trkpt lat="41.42010612914061" lon="12.8416556071363"><ele>4.0</ele><time>2026-04-25T10:16:36.001Z</time></trkpt><trkpt lat="41.42008845835266" lon="12.841753658729546"><ele>4.2</ele><time>2026-04-25T10:16:37.001Z</time></trkpt><trkpt lat="41.420067367003426" lon="12.841870690387866"><ele>4.4</ele><time>2026-04-25T10:16:38.001Z</time></trkpt><trkpt lat="41.42004371365352" lon="12.842001938045565"><ele>4.6</ele><time>2026-04-25T10:16:39.001Z</time></trkpt><trkpt lat="41.420016567913386" lon="12.842152564253139"><ele>4.8</ele><time>2026-04-25T10:16:40.001Z</time></trkpt><trkpt lat="41.4199901768422" lon="12.842299002962397"><ele>5.0</ele><time>2026-04-25T10:16:41.001Z</time></trkpt><trkpt lat="41.419966196173874" lon="12.842432066898015"><ele>5.0</ele><time>2026-04-25T10:16:42.001Z</time></trkpt><trkpt lat="41.41994169728433" lon="12.842568006302526"><ele>5.0</ele><time>2026-04-25T10:16:43.001Z</time></trkpt><trkpt lat="41.41991654034637" lon="12.842707597072897"><ele>5.0</ele><time>2026-04-25T10:16:44.001Z</time></trkpt><trkpt lat="41.419892010426324" lon="12.842843708690447"><ele>5.0</ele><time>2026-04-25T10:16:45.001Z</time></trkpt><trkpt lat="41.41986789163461" lon="12.842977538988787"><ele>5.0</ele><time>2026-04-25T10:16:46.001Z</time></trkpt><trkpt lat="41.419844739890365" lon="12.843105087981288"><ele>4.8</ele><time>2026-04-25T10:16:47.001Z</time></trkpt><trkpt lat="41.419821400148194" lon="12.843233328804653"><ele>4.6</ele><time>2026-04-25T10:16:48.001Z</time></trkpt><trkpt lat="41.4197971452113" lon="12.843366598158187"><ele>4.4</ele><time>2026-04-25T10:16:49.001Z</time></trkpt><trkpt lat="41.4197716041106" lon="12.843506934383608"><ele>4.2</ele><time>2026-04-25T10:16:50.001Z</time></trkpt><trkpt lat="41.41974555076697" lon="12.843650859108521"><ele>4.0</ele><time>2026-04-25T10:16:51.001Z</time></trkpt><trkpt lat="41.41972162088605" lon="12.843785214241773"><ele>4.0</ele><time>2026-04-25T10:16:52.001Z</time></trkpt><trkpt lat="41.41969869543603" lon="12.843913930017937"><ele>4.0</ele><time>2026-04-25T10:16:53.001Z</time></trkpt><trkpt lat="41.41967472047364" lon="12.844048538297166"><ele>4.0</ele><time>2026-04-25T10:16:54.001Z</time></trkpt><trkpt lat="41.419651237075634" lon="12.844180386674077"><ele>4.0</ele><time>2026-04-25T10:16:55.001Z</time></trkpt><trkpt lat="41.41962928116763" lon="12.844299739052884"><ele>4.0</ele><time>2026-04-25T10:16:56.001Z</time></trkpt><trkpt lat="41.419607409806936" lon="12.844416426568284"><ele>4.166666666666666</ele><time>2026-04-25T10:16:57.001Z</time></trkpt><trkpt lat="41.41958682783774" lon="12.844528525021811"><ele>4.333333333333333</ele><time>2026-04-25T10:16:58.001Z</time></trkpt><trkpt lat="41.419572249208805" lon="12.84462924520915"><ele>4.5</ele><time>2026-04-25T10:16:59.001Z</time></trkpt><trkpt lat="41.41956832642878" lon="12.844734186853547"><ele>4.666666666666667</ele><time>2026-04-25T10:17:00.001Z</time></trkpt><trkpt lat="41.419579668303385" lon="12.844866964561291"><ele>4.833333333333334</ele><time>2026-04-25T10:17:03.001Z</time></trkpt><trkpt lat="41.41963203543857" lon="12.844990018281617"><ele>5.0</ele><time>2026-04-25T10:17:06.001Z</time></trkpt><trkpt lat="41.41968354403872" lon="12.845041927671444"><ele>4.666666666666667</ele><time>2026-04-25T10:17:10.001Z</time></trkpt><trkpt lat="41.41972875593555" lon="12.845130826832593"><ele>4.333333333333334</ele><time>2026-04-25T10:18:37.001Z</time></trkpt><trkpt lat="41.41974721136605" lon="12.845215000293303"><ele>4.0</ele><time>2026-04-25T10:18:38.001Z</time></trkpt><trkpt lat="41.41978137445136" lon="12.84531792369343"><ele>3.666666666666667</ele><time>2026-04-25T10:18:39.001Z</time></trkpt><trkpt lat="41.41980275342259" lon="12.845412455337993"><ele>3.3333333333333335</ele><time>2026-04-25T10:18:40.001Z</time></trkpt><trkpt lat="41.419808838245274" lon="12.845502690801581"><ele>3.0</ele><time>2026-04-25T10:18:41.001Z</time></trkpt><trkpt lat="41.41977518699705" lon="12.845648087917043"><ele>3.0</ele><time>2026-04-25T10:18:42.001Z</time></trkpt><trkpt lat="41.41973694093746" lon="12.845853738030645"><ele>3.0</ele><time>2026-04-25T10:18:43.001Z</time></trkpt><trkpt lat="41.41970516914487" lon="12.846049538350263"><ele>3.0</ele><time>2026-04-25T10:18:44.001Z</time></trkpt><trkpt lat="41.419670183949215" lon="12.846242864742107"><ele>2.6666666666666665</ele><time>2026-04-25T10:18:45.001Z</time></trkpt><trkpt lat="41.41963302616394" lon="12.846442446004197"><ele>2.333333333333333</ele><time>2026-04-25T10:18:46.001Z</time></trkpt><trkpt lat="41.419595377975995" lon="12.846642899970238"><ele>2.0</ele><time>2026-04-25T10:18:47.001Z</time></trkpt><trkpt lat="41.419561839944954" lon="12.846825374170562"><ele>2.4000000000000004</ele><time>2026-04-25T10:18:48.001Z</time></trkpt><trkpt lat="41.419529780364215" lon="12.84698575857919"><ele>2.8000000000000003</ele><time>2026-04-25T10:18:49.001Z</time></trkpt><trkpt lat="41.419505318997814" lon="12.847134758525623"><ele>3.2</ele><time>2026-04-25T10:18:50.001Z</time></trkpt><trkpt lat="41.419486963755" lon="12.847272738663413"><ele>3.6</ele><time>2026-04-25T10:18:51.001Z</time></trkpt><trkpt lat="41.41945626910449" lon="12.847396664959605"><ele>4.0</ele><time>2026-04-25T10:18:52.001Z</time></trkpt><trkpt lat="41.41942700025767" lon="12.847507571982856"><ele>4.0</ele><time>2026-04-25T10:18:53.001Z</time></trkpt><trkpt lat="41.41940653909303" lon="12.847623528190546"><ele>4.0</ele><time>2026-04-25T10:18:54.001Z</time></trkpt><trkpt lat="41.419385673617725" lon="12.847753717997389"><ele>4.0</ele><time>2026-04-25T10:18:55.001Z</time></trkpt><trkpt lat="41.419367925646256" lon="12.847882177028184"><ele>4.0</ele><time>2026-04-25T10:18:56.001Z</time></trkpt><trkpt lat="41.41934772799634" lon="12.847997118584937"><ele>4.0</ele><time>2026-04-25T10:18:57.001Z</time></trkpt><trkpt lat="41.419330139811926" lon="12.848116020200996"><ele>3.5</ele><time>2026-04-25T10:18:58.001Z</time></trkpt><trkpt lat="41.41930909939635" lon="12.848246288552845"><ele>3.0</ele><time>2026-04-25T10:18:59.001Z</time></trkpt><trkpt lat="41.41926805791757" lon="12.84837773643589"><ele>2.5</ele><time>2026-04-25T10:19:00.001Z</time></trkpt><trkpt lat="41.419239878720305" lon="12.84853781098233"><ele>2.0</ele><time>2026-04-25T10:19:01.001Z</time></trkpt><trkpt lat="41.41921620419815" lon="12.848712051142174"><ele>2.0</ele><time>2026-04-25T10:19:02.001Z</time></trkpt><trkpt lat="41.41918187852196" lon="12.848897662634995"><ele>2.0</ele><time>2026-04-25T10:19:03.001Z</time></trkpt><trkpt lat="41.41915021679203" lon="12.849089527051179"><ele>2.0</ele><time>2026-04-25T10:19:04.001Z</time></trkpt><trkpt lat="41.41910440155235" lon="12.849291350919529"><ele>2.0</ele><time>2026-04-25T10:19:05.001Z</time></trkpt><trkpt lat="41.419063030155556" lon="12.849500129757061"><ele>2.0</ele><time>2026-04-25T10:19:06.001Z</time></trkpt><trkpt lat="41.419030369191816" lon="12.849656868672007"><ele>2.0</ele><time>2026-04-25T10:19:07.001Z</time></trkpt><trkpt lat="41.41900417930114" lon="12.849809750557483"><ele>2.0</ele><time>2026-04-25T10:19:08.001Z</time></trkpt><trkpt lat="41.41897909096045" lon="12.84994721055841"><ele>2.0</ele><time>2026-04-25T10:19:09.001Z</time></trkpt><trkpt lat="41.4189508770492" lon="12.850084072344654"><ele>2.2</ele><time>2026-04-25T10:19:10.001Z</time></trkpt><trkpt lat="41.41892364444636" lon="12.850227983142583"><ele>2.4000000000000004</ele><time>2026-04-25T10:19:11.001Z</time></trkpt><trkpt lat="41.41889908741731" lon="12.850363192397927"><ele>2.5999999999999996</ele><time>2026-04-25T10:19:12.001Z</time></trkpt><trkpt lat="41.41887892649186" lon="12.850498981798536"><ele>2.8</ele><time>2026-04-25T10:19:13.001Z</time></trkpt><trkpt lat="41.418855341520626" lon="12.850635933537372"><ele>3.0</ele><time>2026-04-25T10:19:14.001Z</time></trkpt><trkpt lat="41.4188350216359" lon="12.850754785409725"><ele>2.8333333333333335</ele><time>2026-04-25T10:19:15.001Z</time></trkpt><trkpt lat="41.41881193016564" lon="12.850874495481126"><ele>2.6666666666666665</ele><time>2026-04-25T10:19:16.001Z</time></trkpt><trkpt lat="41.418790438127886" lon="12.850966900490016"><ele>2.5</ele><time>2026-04-25T10:19:17.001Z</time></trkpt><trkpt lat="41.41873885480948" lon="12.851053066499087"><ele>2.333333333333333</ele><time>2026-04-25T10:19:19.001Z</time></trkpt><trkpt lat="41.418641396865254" lon="12.851048927322559"><ele>2.1666666666666665</ele><time>2026-04-25T10:19:21.001Z</time></trkpt><trkpt lat="41.41857958700894" lon="12.851026267546459"><ele>2.0</ele><time>2026-04-25T10:19:22.001Z</time></trkpt><trkpt lat="41.41849902964096" lon="12.85104399530475"><ele>2.0</ele><time>2026-04-25T10:19:23.001Z</time></trkpt><trkpt lat="41.41843742350626" lon="12.851092184778347"><ele>1.9999999999999998</ele><time>2026-04-25T10:19:24.001Z</time></trkpt><trkpt lat="41.41839931552357" lon="12.851174557255005"><ele>2.0</ele><time>2026-04-25T10:19:25.001Z</time></trkpt><trkpt lat="41.418372880171376" lon="12.851257697451592"><ele>2.0</ele><time>2026-04-25T10:19:26.001Z</time></trkpt><trkpt lat="41.418359079768976" lon="12.851366157330434"><ele>1.9999999999999998</ele><time>2026-04-25T10:19:27.001Z</time></trkpt><trkpt lat="41.418342867942634" lon="12.851466412504172"><ele>2.0</ele><time>2026-04-25T10:19:28.001Z</time></trkpt><trkpt lat="41.41832615199637" lon="12.851555743700615"><ele>2.0</ele><time>2026-04-25T10:19:29Z</time></trkpt><trkpt lat="41.41831069702169" lon="12.851642278643048"><ele>1.8</ele><time>2026-04-25T10:19:29.999Z</time></trkpt><trkpt lat="41.418271036851586" lon="12.851800338039691"><ele>1.6</ele><time>2026-04-25T10:19:32Z</time></trkpt><trkpt lat="41.41827071159091" lon="12.851953152203876"><ele>1.4000000000000001</ele><time>2026-04-25T10:19:34Z</time></trkpt><trkpt lat="41.41831239984539" lon="12.852046891052169"><ele>1.2000000000000002</ele><time>2026-04-25T10:19:36Z</time></trkpt><trkpt lat="41.418385859037684" lon="12.852064108706031"><ele>1.0</ele><time>2026-04-25T10:19:39Z</time></trkpt><trkpt lat="41.41844882598143" lon="12.852086515918083"><ele>1.0</ele><time>2026-04-25T10:19:41.999Z</time></trkpt><trkpt lat="41.41852096431287" lon="12.852079871600848"><ele>1.0</ele><time>2026-04-25T10:20:14Z</time></trkpt><trkpt lat="41.41826170729369" lon="12.852193022248093"><ele>1.0</ele><time>2026-04-25T10:20:22Z</time></trkpt><trkpt lat="41.41822405807642" lon="12.852363091989353"><ele>0.9999999999999999</ele><time>2026-04-25T10:20:24Z</time></trkpt><trkpt lat="41.41820345292094" lon="12.852457694393333"><ele>1.0</ele><time>2026-04-25T10:20:25Z</time></trkpt><trkpt lat="41.41818235851926" lon="12.852561641623272"><ele>1.0</ele><time>2026-04-25T10:20:26Z</time></trkpt><trkpt lat="41.418161421432934" lon="12.852676169719611"><ele>1.0</ele><time>2026-04-25T10:20:27Z</time></trkpt><trkpt lat="41.418144212675486" lon="12.85278301228067"><ele>0.9999999999999999</ele><time>2026-04-25T10:20:28Z</time></trkpt><trkpt lat="41.4181283897784" lon="12.85288188088249"><ele>1.0</ele><time>2026-04-25T10:20:29Z</time></trkpt><trkpt lat="41.41811084886638" lon="12.852991484262462"><ele>0.9999999999999999</ele><time>2026-04-25T10:20:30Z</time></trkpt><trkpt lat="41.41809345584569" lon="12.853100163661459"><ele>1.0</ele><time>2026-04-25T10:20:31Z</time></trkpt><trkpt lat="41.418074935868155" lon="12.853215884749506"><ele>1.0</ele><time>2026-04-25T10:20:32Z</time></trkpt><trkpt lat="41.418057483646564" lon="12.853324934015106"><ele>1.0</ele><time>2026-04-25T10:20:33Z</time></trkpt><trkpt lat="41.41803858399535" lon="12.853443027528959"><ele>0.9999999999999999</ele><time>2026-04-25T10:20:34Z</time></trkpt><trkpt lat="41.41801824303797" lon="12.853570126849124"><ele>1.0</ele><time>2026-04-25T10:20:35Z</time></trkpt><trkpt lat="41.41799863927796" lon="12.853692619881835"><ele>0.9999999999999999</ele><time>2026-04-25T10:20:36Z</time></trkpt><trkpt lat="41.41798134152898" lon="12.853794754676706"><ele>1.0</ele><time>2026-04-25T10:20:37Z</time></trkpt><trkpt lat="41.41796211162627" lon="12.853908331201303"><ele>1.0</ele><time>2026-04-25T10:20:38Z</time></trkpt><trkpt lat="41.41794169098479" lon="12.85399373388879"><ele>1.0</ele><time>2026-04-25T10:20:39Z</time></trkpt><trkpt lat="41.417913266816704" lon="12.854091411846417"><ele>0.9999999999999999</ele><time>2026-04-25T10:20:40Z</time></trkpt><trkpt lat="41.417880694704884" lon="12.854198174743841"><ele>1.0</ele><time>2026-04-25T10:20:41Z</time></trkpt><trkpt lat="41.41779351069928" lon="12.854364355584128"><ele>1.6666666666666665</ele><time>2026-04-25T10:20:43Z</time></trkpt><trkpt lat="41.41775008037405" lon="12.854465512089272"><ele>2.3333333333333335</ele><time>2026-04-25T10:20:44Z</time></trkpt><trkpt lat="41.417706546136934" lon="12.85456691044173"><ele>3.0</ele><time>2026-04-25T10:20:45Z</time></trkpt><trkpt lat="41.41792850741966" lon="12.854870258035191"><ele>3.0</ele><time>2026-04-25T10:20:46Z</time></trkpt><trkpt lat="41.41789912010245" lon="12.8549871788088"><ele>3.0</ele><time>2026-04-25T10:20:47Z</time></trkpt><trkpt lat="41.41788651294911" lon="12.855109024785566"><ele>3.0</ele><time>2026-04-25T10:20:48Z</time></trkpt><trkpt lat="41.41786534867925" lon="12.855228024068586"><ele>3.0</ele><time>2026-04-25T10:20:49Z</time></trkpt><trkpt lat="41.417845101318555" lon="12.855335972667495"><ele>3.0</ele><time>2026-04-25T10:20:50Z</time></trkpt><trkpt lat="41.417828876523565" lon="12.855447741753084"><ele>3.0</ele><time>2026-04-25T10:20:51Z</time></trkpt><trkpt lat="41.417808547521894" lon="12.855568326412357"><ele>3.0</ele><time>2026-04-25T10:20:52Z</time></trkpt><trkpt lat="41.417784636118114" lon="12.855712420989008"><ele>3.0</ele><time>2026-04-25T10:20:53Z</time></trkpt><trkpt lat="41.417761264855564" lon="12.855853281180478"><ele>3.0</ele><time>2026-04-25T10:20:54Z</time></trkpt><trkpt lat="41.41774385086682" lon="12.855990628612643"><ele>3.0</ele><time>2026-04-25T10:20:55Z</time></trkpt><trkpt lat="41.417717795795" lon="12.856112991500511"><ele>3.0</ele><time>2026-04-25T10:20:56Z</time></trkpt><trkpt lat="41.41768685587826" lon="12.85624483182868"><ele>2.8</ele><time>2026-04-25T10:20:57Z</time></trkpt><trkpt lat="41.417662494788665" lon="12.856361830203834"><ele>2.5999999999999996</ele><time>2026-04-25T10:20:58Z</time></trkpt><trkpt lat="41.417646925943686" lon="12.85645692331452"><ele>2.4000000000000004</ele><time>2026-04-25T10:20:59Z</time></trkpt><trkpt lat="41.41763051731712" lon="12.8565647485714"><ele>2.2</ele><time>2026-04-25T10:21:01Z</time></trkpt><trkpt lat="41.417601856192384" lon="12.856678050130599"><ele>2.0</ele><time>2026-04-25T10:21:59Z</time></trkpt><trkpt lat="41.41757895933553" lon="12.85683313842703"><ele>2.0</ele><time>2026-04-25T10:22:01Z</time></trkpt><trkpt lat="41.41756855433962" lon="12.856922437282988"><ele>1.9999999999999998</ele><time>2026-04-25T10:22:02Z</time></trkpt><trkpt lat="41.41754601288519" lon="12.857021629499407"><ele>2.0</ele><time>2026-04-25T10:22:03Z</time></trkpt><trkpt lat="41.417526274404466" lon="12.85711647369108"><ele>2.0</ele><time>2026-04-25T10:22:04Z</time></trkpt><trkpt lat="41.41750654455999" lon="12.857206254326277"><ele>1.9999999999999998</ele><time>2026-04-25T10:22:05Z</time></trkpt><trkpt lat="41.41749051076586" lon="12.857289227369899"><ele>2.0</ele><time>2026-04-25T10:22:06Z</time></trkpt><trkpt lat="41.41747925495079" lon="12.85737883805824"><ele>2.0</ele><time>2026-04-25T10:22:07Z</time></trkpt><trkpt lat="41.41746546668817" lon="12.857491105567714"><ele>2.0</ele><time>2026-04-25T10:22:08Z</time></trkpt><trkpt lat="41.417448154465646" lon="12.857616829680765"><ele>2.0</ele><time>2026-04-25T10:22:09Z</time></trkpt><trkpt lat="41.41743650526209" lon="12.857749801867339"><ele>2.0</ele><time>2026-04-25T10:22:10Z</time></trkpt><trkpt lat="41.41740887096894" lon="12.857890581865188"><ele>2.0</ele><time>2026-04-25T10:22:11Z</time></trkpt><trkpt lat="41.41738816918044" lon="12.858024101969162"><ele>2.0</ele><time>2026-04-25T10:22:12Z</time></trkpt><trkpt lat="41.41736388499685" lon="12.858149741065969"><ele>2.2</ele><time>2026-04-25T10:22:13Z</time></trkpt><trkpt lat="41.41734108322332" lon="12.85828200136939"><ele>2.4000000000000004</ele><time>2026-04-25T10:22:14Z</time></trkpt><trkpt lat="41.417315425364606" lon="12.858417825721672"><ele>2.5999999999999996</ele><time>2026-04-25T10:22:15Z</time></trkpt><trkpt lat="41.417298526597406" lon="12.85855632117273"><ele>2.8</ele><time>2026-04-25T10:22:16Z</time></trkpt><trkpt lat="41.417274721085555" lon="12.858695922335905"><ele>3.0</ele><time>2026-04-25T10:22:17Z</time></trkpt><trkpt lat="41.41725043667331" lon="12.858841391296165"><ele>3.0</ele><time>2026-04-25T10:22:18Z</time></trkpt><trkpt lat="41.417221884347974" lon="12.858994928077742"><ele>3.0</ele><time>2026-04-25T10:22:19Z</time></trkpt><trkpt lat="41.41719927279091" lon="12.859145636439395"><ele>3.0</ele><time>2026-04-25T10:22:20Z</time></trkpt><trkpt lat="41.41717356112119" lon="12.859300204801016"><ele>3.0</ele><time>2026-04-25T10:22:21Z</time></trkpt><trkpt lat="41.41714645286718" lon="12.85945418907637"><ele>2.25</ele><time>2026-04-25T10:22:22Z</time></trkpt><trkpt lat="41.417121955067216" lon="12.859610777842489"><ele>1.5</ele><time>2026-04-25T10:22:23Z</time></trkpt><trkpt lat="41.41709880935147" lon="12.859773397862744"><ele>0.75</ele><time>2026-04-25T10:22:24Z</time></trkpt><trkpt lat="41.417074937011506" lon="12.859931566963118"><ele>0.0</ele><time>2026-04-25T10:22:25Z</time></trkpt><trkpt lat="41.41705115088474" lon="12.86009040939017"><ele>0.5</ele><time>2026-04-25T10:22:26Z</time></trkpt><trkpt lat="41.41702262499911" lon="12.86024855938629"><ele>1.0</ele><time>2026-04-25T10:22:27Z</time></trkpt><trkpt lat="41.41699265290658" lon="12.860411525726695"><ele>1.5</ele><time>2026-04-25T10:22:28Z</time></trkpt><trkpt lat="41.41697135009363" lon="12.860574579999353"><ele>2.0</ele><time>2026-04-25T10:22:29Z</time></trkpt><trkpt lat="41.416945172457694" lon="12.860736139326931"><ele>2.0</ele><time>2026-04-25T10:22:30Z</time></trkpt><trkpt lat="41.41691570084916" lon="12.860897659127891"><ele>2.0</ele><time>2026-04-25T10:22:31Z</time></trkpt><trkpt lat="41.416891692740236" lon="12.861052926234159"><ele>2.0</ele><time>2026-04-25T10:22:32Z</time></trkpt><trkpt lat="41.41686083522819" lon="12.861219047454695"><ele>2.0</ele><time>2026-04-25T10:22:33Z</time></trkpt><trkpt lat="41.41683572677828" lon="12.861380682318082"><ele>2.0</ele><time>2026-04-25T10:22:34Z</time></trkpt><trkpt lat="41.41680878327305" lon="12.861546485378051"><ele>2.0</ele><time>2026-04-25T10:22:35Z</time></trkpt><trkpt lat="41.416784954332435" lon="12.861715011241301"><ele>2.0</ele><time>2026-04-25T10:22:36Z</time></trkpt><trkpt lat="41.41675757273389" lon="12.861887763875702"><ele>2.0</ele><time>2026-04-25T10:22:37Z</time></trkpt><trkpt lat="41.416726194314094" lon="12.862075763148566"><ele>2.0</ele><time>2026-04-25T10:22:38Z</time></trkpt><trkpt lat="41.41669287049666" lon="12.862268691702665"><ele>2.0</ele><time>2026-04-25T10:22:39Z</time></trkpt><trkpt lat="41.41666481860297" lon="12.862434545075914"><ele>2.0</ele><time>2026-04-25T10:22:40Z</time></trkpt><trkpt lat="41.416638358299366" lon="12.862585471195137"><ele>2.0</ele><time>2026-04-25T10:22:41Z</time></trkpt><trkpt lat="41.416624045915505" lon="12.862702345989934"><ele>1.6666666666666665</ele><time>2026-04-25T10:22:42Z</time></trkpt><trkpt lat="41.41660197111991" lon="12.862818023628122"><ele>1.3333333333333333</ele><time>2026-04-25T10:22:43Z</time></trkpt><trkpt lat="41.41659059443011" lon="12.862930757650163"><ele>1.0</ele><time>2026-04-25T10:22:44Z</time></trkpt><trkpt lat="41.41657571937447" lon="12.863030610814153"><ele>0.6666666666666666</ele><time>2026-04-25T10:22:45Z</time></trkpt><trkpt lat="41.416558770847715" lon="12.86313547485451"><ele>0.3333333333333333</ele><time>2026-04-25T10:22:46Z</time></trkpt><trkpt lat="41.41654366840666" lon="12.863221383778129"><ele>0.0</ele><time>2026-04-25T10:22:47Z</time></trkpt><trkpt lat="41.41652813811122" lon="12.863309901306447"><ele>0.0</ele><time>2026-04-25T10:22:48Z</time></trkpt><trkpt lat="41.416511892171464" lon="12.863415782378654"><ele>0.0</ele><time>2026-04-25T10:22:49Z</time></trkpt><trkpt lat="41.41649342123738" lon="12.863535352166307"><ele>0.0</ele><time>2026-04-25T10:22:50Z</time></trkpt><trkpt lat="41.41647141800842" lon="12.863665966563785"><ele>0.0</ele><time>2026-04-25T10:22:51Z</time></trkpt><trkpt lat="41.416447386995564" lon="12.86379928052166"><ele>0.0</ele><time>2026-04-25T10:22:52Z</time></trkpt><trkpt lat="41.41641663110475" lon="12.863936758645828"><ele>0.0</ele><time>2026-04-25T10:22:53Z</time></trkpt><trkpt lat="41.41639453669115" lon="12.864075518847699"><ele>0.0</ele><time>2026-04-25T10:22:54Z</time></trkpt><trkpt lat="41.416370621236716" lon="12.864208101954613"><ele>0.0</ele><time>2026-04-25T10:22:55Z</time></trkpt><trkpt lat="41.41634137815935" lon="12.864359724952863"><ele>0.0</ele><time>2026-04-25T10:22:56Z</time></trkpt><trkpt lat="41.41631293100995" lon="12.864517083974162"><ele>0.0</ele><time>2026-04-25T10:22:57Z</time></trkpt><trkpt lat="41.416283026235725" lon="12.864688540127437"><ele>0.0</ele><time>2026-04-25T10:22:58Z</time></trkpt><trkpt lat="41.416255979964575" lon="12.864870483485138"><ele>0.0</ele><time>2026-04-25T10:22:59Z</time></trkpt><trkpt lat="41.41621841358371" lon="12.865045026698793"><ele>0.0</ele><time>2026-04-25T10:23:00Z</time></trkpt><trkpt lat="41.41619156253947" lon="12.865222240574163"><ele>0.0</ele><time>2026-04-25T10:23:01Z</time></trkpt><trkpt lat="41.416164106244516" lon="12.865400781490845"><ele>0.0</ele><time>2026-04-25T10:23:02Z</time></trkpt><trkpt lat="41.416129488089226" lon="12.865578710315399"><ele>0.0</ele><time>2026-04-25T10:23:03Z</time></trkpt><trkpt lat="41.41610312947664" lon="12.86575834650157"><ele>0.0</ele><time>2026-04-25T10:23:04Z</time></trkpt><trkpt lat="41.416073157685794" lon="12.86592837701747"><ele>0.0</ele><time>2026-04-25T10:23:05.001Z</time></trkpt><trkpt lat="41.41604847396752" lon="12.866100033086376"><ele>0.0</ele><time>2026-04-25T10:23:06.001Z</time></trkpt><trkpt lat="41.41601842862504" lon="12.866279463310356"><ele>0.0</ele><time>2026-04-25T10:23:07.001Z</time></trkpt><trkpt lat="41.415991830992255" lon="12.866458916376963"><ele>0.0</ele><time>2026-04-25T10:23:08.001Z</time></trkpt><trkpt lat="41.41596188104421" lon="12.866635771185903"><ele>0.0</ele><time>2026-04-25T10:23:09.001Z</time></trkpt><trkpt lat="41.415931494846255" lon="12.866807145878044"><ele>0.25</ele><time>2026-04-25T10:23:10.001Z</time></trkpt><trkpt lat="41.41589914270889" lon="12.8669694957887"><ele>0.5</ele><time>2026-04-25T10:23:11.001Z</time></trkpt><trkpt lat="41.415874509088404" lon="12.867152688394706"><ele>0.75</ele><time>2026-04-25T10:23:12.001Z</time></trkpt><trkpt lat="41.41584338637638" lon="12.867342838200887"><ele>1.0</ele><time>2026-04-25T10:23:13.001Z</time></trkpt><trkpt lat="41.41581490111438" lon="12.867533036594583"><ele>1.0</ele><time>2026-04-25T10:23:14.001Z</time></trkpt><trkpt lat="41.4157828570844" lon="12.867729078673754"><ele>1.0</ele><time>2026-04-25T10:23:15.001Z</time></trkpt><trkpt lat="41.4157497046443" lon="12.86792667175405"><ele>1.0</ele><time>2026-04-25T10:23:16.001Z</time></trkpt><trkpt lat="41.41572075533207" lon="12.868129595721845"><ele>1.0</ele><time>2026-04-25T10:23:17.001Z</time></trkpt><trkpt lat="41.415684083910435" lon="12.868323479420475"><ele>1.0</ele><time>2026-04-25T10:23:18.001Z</time></trkpt><trkpt lat="41.41552368812001" lon="12.868470790420723"><ele>1.0</ele><time>2026-04-25T10:23:19.001Z</time></trkpt><trkpt lat="41.41549003944517" lon="12.86864697625274"><ele>1.0</ele><time>2026-04-25T10:23:20.001Z</time></trkpt><trkpt lat="41.415458951590345" lon="12.868812232465077"><ele>1.0</ele><time>2026-04-25T10:23:21.001Z</time></trkpt><trkpt lat="41.41543735787277" lon="12.868940147122037"><ele>1.0</ele><time>2026-04-25T10:23:22.001Z</time></trkpt><trkpt lat="41.41542156275424" lon="12.869033712643834"><ele>1.0</ele><time>2026-04-25T10:23:23.001Z</time></trkpt><trkpt lat="41.41540643097319" lon="12.869123348744296"><ele>1.0</ele><time>2026-04-25T10:23:26.001Z</time></trkpt><trkpt lat="41.415367399689394" lon="12.869351113590971"><ele>1.0</ele><time>2026-04-25T10:23:38.001Z</time></trkpt><trkpt lat="41.415347207493575" lon="12.869465815026729"><ele>1.0</ele><time>2026-04-25T10:23:39.001Z</time></trkpt><trkpt lat="41.41532691509768" lon="12.869581085647289"><ele>1.0</ele><time>2026-04-25T10:23:40.001Z</time></trkpt><trkpt lat="41.41530488285893" lon="12.86970623934889"><ele>1.0</ele><time>2026-04-25T10:23:40.999Z</time></trkpt><trkpt lat="41.415289941521706" lon="12.869846862662747"><ele>1.0</ele><time>2026-04-25T10:23:41.999Z</time></trkpt><trkpt lat="41.41526913365073" lon="12.869974625708855"><ele>1.5</ele><time>2026-04-25T10:23:42.999Z</time></trkpt><trkpt lat="41.4152443462065" lon="12.870119345068229"><ele>2.0</ele><time>2026-04-25T10:23:44Z</time></trkpt><trkpt lat="41.415218719169296" lon="12.87028156994902"><ele>2.5</ele><time>2026-04-25T10:23:45Z</time></trkpt><trkpt lat="41.415192585484405" lon="12.87045310280205"><ele>3.0</ele><time>2026-04-25T10:23:46Z</time></trkpt><trkpt lat="41.41516216279291" lon="12.870636690622703"><ele>3.0</ele><time>2026-04-25T10:23:47Z</time></trkpt><trkpt lat="41.415132177153936" lon="12.870812334524867"><ele>3.0</ele><time>2026-04-25T10:23:48Z</time></trkpt><trkpt lat="41.41510107517929" lon="12.870999189881358"><ele>3.0</ele><time>2026-04-25T10:23:49Z</time></trkpt><trkpt lat="41.415055072146565" lon="12.871194014051776"><ele>3.0</ele><time>2026-04-25T10:23:50Z</time></trkpt><trkpt lat="41.415022953423126" lon="12.871389341553321"><ele>3.0</ele><time>2026-04-25T10:23:51Z</time></trkpt><trkpt lat="41.41500348791101" lon="12.871583426428439"><ele>3.0</ele><time>2026-04-25T10:23:52Z</time></trkpt><trkpt lat="41.41497101105062" lon="12.871780402677016"><ele>3.0</ele><time>2026-04-25T10:23:53Z</time></trkpt><trkpt lat="41.414938259070404" lon="12.871984399376856"><ele>3.0</ele><time>2026-04-25T10:23:54Z</time></trkpt><trkpt lat="41.41490566537491" lon="12.872185006070715"><ele>3.0</ele><time>2026-04-25T10:23:55Z</time></trkpt><trkpt lat="41.41485682324937" lon="12.872382483447819"><ele>3.0</ele><time>2026-04-25T10:23:56Z</time></trkpt><trkpt lat="41.414825826026174" lon="12.87257837452795"><ele>2.75</ele><time>2026-04-25T10:23:57Z</time></trkpt><trkpt lat="41.41479651841029" lon="12.872763587842158"><ele>2.5</ele><time>2026-04-25T10:23:58Z</time></trkpt><trkpt lat="41.4147672007421" lon="12.872948864748194"><ele>2.25</ele><time>2026-04-25T10:23:59Z</time></trkpt><trkpt lat="41.41473841100288" lon="12.873130805346493"><ele>2.0</ele><time>2026-04-25T10:24:00Z</time></trkpt><trkpt lat="41.41471018664087" lon="12.873308458763399"><ele>2.0</ele><time>2026-04-25T10:24:01Z</time></trkpt><trkpt lat="41.4146814191593" lon="12.873476005010719"><ele>2.0</ele><time>2026-04-25T10:24:02Z</time></trkpt><trkpt lat="41.414668316731806" lon="12.873633795967782"><ele>2.0</ele><time>2026-04-25T10:24:03Z</time></trkpt><trkpt lat="41.414641656756665" lon="12.873785694675886"><ele>2.0</ele><time>2026-04-25T10:24:04Z</time></trkpt><trkpt lat="41.414602801701164" lon="12.873933885357562"><ele>2.0</ele><time>2026-04-25T10:24:05Z</time></trkpt><trkpt lat="41.41458721582486" lon="12.874090066515844"><ele>2.0</ele><time>2026-04-25T10:24:06Z</time></trkpt><trkpt lat="41.414566441808354" lon="12.8742416313783"><ele>2.0</ele><time>2026-04-25T10:24:07Z</time></trkpt><trkpt lat="41.41453059357131" lon="12.874393287907232"><ele>2.0</ele><time>2026-04-25T10:24:08Z</time></trkpt><trkpt lat="41.4145084876637" lon="12.874534586876402"><ele>1.9999999999999998</ele><time>2026-04-25T10:24:09Z</time></trkpt><trkpt lat="41.41450509430923" lon="12.874647759550934"><ele>2.0</ele><time>2026-04-25T10:24:10Z</time></trkpt><trkpt lat="41.41448788597338" lon="12.874763016033105"><ele>2.0</ele><time>2026-04-25T10:24:11Z</time></trkpt><trkpt lat="41.4144571158589" lon="12.874876435886938"><ele>2.0</ele><time>2026-04-25T10:24:12Z</time></trkpt><trkpt lat="41.41445526232452" lon="12.875004748334431"><ele>1.9999999999999998</ele><time>2026-04-25T10:24:13Z</time></trkpt><trkpt lat="41.41443504069313" lon="12.875112198482952"><ele>2.0</ele><time>2026-04-25T10:24:14Z</time></trkpt><trkpt lat="41.41440450037285" lon="12.87522436623905"><ele>2.0</ele><time>2026-04-25T10:24:16Z</time></trkpt><trkpt lat="41.41438900824975" lon="12.875314282583137"><ele>2.0</ele><time>2026-04-25T10:24:34Z</time></trkpt><trkpt lat="41.41451128696822" lon="12.875412514125184"><ele>2.0</ele><time>2026-04-25T10:24:35Z</time></trkpt><trkpt lat="41.41459784696061" lon="12.875443645052849"><ele>2.0</ele><time>2026-04-25T10:24:36Z</time></trkpt><trkpt lat="41.41470232830909" lon="12.875474003711272"><ele>2.0</ele><time>2026-04-25T10:24:37Z</time></trkpt><trkpt lat="41.41484030016325" lon="12.875545523661707"><ele>1.3333333333333333</ele><time>2026-04-25T10:24:38Z</time></trkpt><trkpt lat="41.414982906088945" lon="12.875622027883107"><ele>0.6666666666666666</ele><time>2026-04-25T10:24:39Z</time></trkpt><trkpt lat="41.41517326310302" lon="12.875714901747363"><ele>0.0</ele><time>2026-04-25T10:24:40Z</time></trkpt><trkpt lat="41.4153742694274" lon="12.875809920409807"><ele>0.3333333333333333</ele><time>2026-04-25T10:24:41Z</time></trkpt><trkpt lat="41.41556018444775" lon="12.875897654888258"><ele>0.6666666666666666</ele><time>2026-04-25T10:24:42Z</time></trkpt><trkpt lat="41.415727322580075" lon="12.87596338144202"><ele>1.0</ele><time>2026-04-25T10:24:43Z</time></trkpt><trkpt lat="41.41587662743163" lon="12.87602901563771"><ele>1.0</ele><time>2026-04-25T10:24:44Z</time></trkpt><trkpt lat="41.416015634307506" lon="12.8760878114396"><ele>1.0</ele><time>2026-04-25T10:24:45Z</time></trkpt><trkpt lat="41.416152662371324" lon="12.876137884384507"><ele>1.0</ele><time>2026-04-25T10:24:46Z</time></trkpt><trkpt lat="41.41628531361561" lon="12.87619399459297"><ele>1.0</ele><time>2026-04-25T10:24:47Z</time></trkpt><trkpt lat="41.41639338256436" lon="12.876244598514466"><ele>1.1666666666666665</ele><time>2026-04-25T10:24:48Z</time></trkpt><trkpt lat="41.416479776875505" lon="12.876292987154871"><ele>1.3333333333333333</ele><time>2026-04-25T10:24:49Z</time></trkpt><trkpt lat="41.416535567598814" lon="12.876342141518048"><ele>1.5</ele><time>2026-04-25T10:24:50Z</time></trkpt><trkpt lat="41.416603691232915" lon="12.876352306324392"><ele>1.6666666666666665</ele><time>2026-04-25T10:24:52Z</time></trkpt><trkpt lat="41.41659256328396" lon="12.87651129456292"><ele>1.8333333333333333</ele><time>2026-04-25T10:24:53Z</time></trkpt><trkpt lat="41.41666591452525" lon="12.87655185484339"><ele>2.0</ele><time>2026-04-25T10:24:55Z</time></trkpt><trkpt lat="41.416766719401046" lon="12.876550384138993"><ele>1.9999999999999998</ele><time>2026-04-25T10:28:40.001Z</time></trkpt><trkpt lat="41.416834618329155" lon="12.876578301322079"><ele>2.0</ele><time>2026-04-25T10:30:29Z</time></trkpt><trkpt lat="41.41691189904991" lon="12.876492159131828"><ele>2.0</ele><time>2026-04-25T10:31:10Z</time></trkpt><trkpt lat="41.416896639738894" lon="12.876573999284657"><ele>2.0</ele><time>2026-04-25T10:31:13Z</time></trkpt><trkpt lat="41.416822858138886" lon="12.876606642845607"><ele>1.9999999999999998</ele><time>2026-04-25T10:35:18.001Z</time></trkpt><trkpt lat="41.416909962029" lon="12.876611584331616"><ele>2.0</ele><time>2026-04-25T10:35:20.001Z</time></trkpt><trkpt lat="41.416999971958305" lon="12.87654117255183"><ele>2.0</ele><time>2026-04-25T10:35:23.001Z</time></trkpt><trkpt lat="41.417007472606066" lon="12.876445072266579"><ele>2.0</ele><time>2026-04-25T10:36:08.001Z</time></trkpt><trkpt lat="41.41681233341282" lon="12.876370914282049"><ele>2.0</ele><time>2026-04-25T10:36:09.001Z</time></trkpt><trkpt lat="41.41673214819416" lon="12.876333973301913"><ele>2.0</ele><time>2026-04-25T10:36:10.001Z</time></trkpt><trkpt lat="41.41663406199269" lon="12.876296659183165"><ele>2.0</ele><time>2026-04-25T10:36:11.001Z</time></trkpt><trkpt lat="41.41651323231281" lon="12.876248247273665"><ele>2.0</ele><time>2026-04-25T10:36:12.001Z</time></trkpt><trkpt lat="41.41638490903335" lon="12.876186839197938"><ele>2.0</ele><time>2026-04-25T10:36:13.001Z</time></trkpt><trkpt lat="41.41626397061211" lon="12.876134505953486"><ele>2.0</ele><time>2026-04-25T10:36:14.001Z</time></trkpt><trkpt lat="41.416142878845505" lon="12.876080028060366"><ele>1.75</ele><time>2026-04-25T10:36:15.001Z</time></trkpt><trkpt lat="41.4160292272904" lon="12.876034920608289"><ele>1.5</ele><time>2026-04-25T10:36:16.001Z</time></trkpt><trkpt lat="41.41590225186112" lon="12.875979826645027"><ele>1.25</ele><time>2026-04-25T10:36:17.001Z</time></trkpt><trkpt lat="41.415773602997504" lon="12.875923024308442"><ele>1.0</ele><time>2026-04-25T10:36:18Z</time></trkpt><trkpt lat="41.415644384450594" lon="12.875858262523517"><ele>1.0</ele><time>2026-04-25T10:36:19Z</time></trkpt><trkpt lat="41.415513948246776" lon="12.875798665507185"><ele>1.0</ele><time>2026-04-25T10:36:20.001Z</time></trkpt><trkpt lat="41.41539373924372" lon="12.875743413054428"><ele>1.0</ele><time>2026-04-25T10:36:21Z</time></trkpt><trkpt lat="41.41528367513661" lon="12.8756911575576"><ele>1.0</ele><time>2026-04-25T10:36:22Z</time></trkpt><trkpt lat="41.41518327391938" lon="12.875643021818824"><ele>0.8</ele><time>2026-04-25T10:36:23.001Z</time></trkpt><trkpt lat="41.41508556715417" lon="12.875593551572827"><ele>0.6000000000000001</ele><time>2026-04-25T10:36:24.001Z</time></trkpt><trkpt lat="41.41498473719651" lon="12.87554679863078"><ele>0.4</ele><time>2026-04-25T10:36:25.001Z</time></trkpt><trkpt lat="41.41488182972411" lon="12.8754963539756"><ele>0.2</ele><time>2026-04-25T10:36:26.001Z</time></trkpt><trkpt lat="41.41478543008724" lon="12.87544968765265"><ele>0.0</ele><time>2026-04-25T10:36:27.001Z</time></trkpt><trkpt lat="41.41467675466314" lon="12.875406594457905"><ele>0.4</ele><time>2026-04-25T10:36:28.001Z</time></trkpt><trkpt lat="41.41456430489174" lon="12.875360685965136"><ele>0.8</ele><time>2026-04-25T10:36:29.001Z</time></trkpt><trkpt lat="41.414460121360825" lon="12.875316565736643"><ele>1.2000000000000002</ele><time>2026-04-25T10:36:30.001Z</time></trkpt><trkpt lat="41.4143566435963" lon="12.875274897873219"><ele>1.6</ele><time>2026-04-25T10:36:31.001Z</time></trkpt><trkpt lat="41.41425138134061" lon="12.875224401263967"><ele>2.0</ele><time>2026-04-25T10:36:32.001Z</time></trkpt><trkpt lat="41.414149017191605" lon="12.875176109264874"><ele>2.0</ele><time>2026-04-25T10:36:33.001Z</time></trkpt><trkpt lat="41.414044871998826" lon="12.875125610590331"><ele>2.0</ele><time>2026-04-25T10:36:34.001Z</time></trkpt><trkpt lat="41.41393537874039" lon="12.87507469173965"><ele>2.0</ele><time>2026-04-25T10:36:35.001Z</time></trkpt><trkpt lat="41.41381349865995" lon="12.875016026556185"><ele>2.0</ele><time>2026-04-25T10:36:36.001Z</time></trkpt><trkpt lat="41.413678490978455" lon="12.87495823494942"><ele>2.0</ele><time>2026-04-25T10:36:37.001Z</time></trkpt><trkpt lat="41.41353301593336" lon="12.874897316326935"><ele>2.0</ele><time>2026-04-25T10:36:38.001Z</time></trkpt><trkpt lat="41.41337925171579" lon="12.87482164315537"><ele>2.0</ele><time>2026-04-25T10:36:39.001Z</time></trkpt><trkpt lat="41.41322396773349" lon="12.874750832552484"><ele>2.0</ele><time>2026-04-25T10:36:40.001Z</time></trkpt><trkpt lat="41.41306507574422" lon="12.874677671696555"><ele>2.0</ele><time>2026-04-25T10:36:41.001Z</time></trkpt><trkpt lat="41.41289718166601" lon="12.874600552306688"><ele>2.0</ele><time>2026-04-25T10:36:42.001Z</time></trkpt><trkpt lat="41.412729108087156" lon="12.87452728699998"><ele>1.3333333333333333</ele><time>2026-04-25T10:36:43.001Z</time></trkpt><trkpt lat="41.41257841961435" lon="12.87445342889176"><ele>0.6666666666666666</ele><time>2026-04-25T10:36:44.001Z</time></trkpt><trkpt lat="41.41243315676903" lon="12.8743918114602"><ele>0.0</ele><time>2026-04-25T10:36:45.001Z</time></trkpt><trkpt lat="41.41229429179339" lon="12.874333403309384"><ele>0.0</ele><time>2026-04-25T10:36:46.001Z</time></trkpt><trkpt lat="41.41214648546081" lon="12.874260949459346"><ele>0.0</ele><time>2026-04-25T10:36:47.001Z</time></trkpt><trkpt lat="41.41198941805359" lon="12.874175838466861"><ele>0.0</ele><time>2026-04-25T10:36:48.001Z</time></trkpt><trkpt lat="41.41182897506486" lon="12.874103433140437"><ele>0.0</ele><time>2026-04-25T10:36:49.001Z</time></trkpt><trkpt lat="41.411657722344295" lon="12.874030710497651"><ele>0.0</ele><time>2026-04-25T10:36:50.001Z</time></trkpt><trkpt lat="41.41149013116843" lon="12.873961168188462"><ele>0.0</ele><time>2026-04-25T10:36:51.001Z</time></trkpt><trkpt lat="41.411325179778686" lon="12.873880362411294"><ele>0.0</ele><time>2026-04-25T10:36:52.001Z</time></trkpt><trkpt lat="41.411164268609944" lon="12.873803676629777"><ele>0.0</ele><time>2026-04-25T10:36:53.001Z</time></trkpt><trkpt lat="41.41099912788002" lon="12.873730492002785"><ele>0.0</ele><time>2026-04-25T10:36:54.001Z</time></trkpt><trkpt lat="41.41083675646493" lon="12.873657393204681"><ele>0.0</ele><time>2026-04-25T10:36:55.001Z</time></trkpt><trkpt lat="41.41067872914688" lon="12.87358236843179"><ele>0.0</ele><time>2026-04-25T10:36:56.001Z</time></trkpt><trkpt lat="41.410520574236514" lon="12.87351195130759"><ele>0.0</ele><time>2026-04-25T10:36:57.001Z</time></trkpt><trkpt lat="41.41036414718707" lon="12.87343641471357"><ele>0.0</ele><time>2026-04-25T10:36:58.001Z</time></trkpt><trkpt lat="41.410211834957614" lon="12.873363275265607"><ele>0.0</ele><time>2026-04-25T10:36:59.001Z</time></trkpt><trkpt lat="41.41005950566774" lon="12.873293575455692"><ele>0.0</ele><time>2026-04-25T10:37:00.001Z</time></trkpt><trkpt lat="41.409916166537954" lon="12.873226857578258"><ele>0.0</ele><time>2026-04-25T10:37:01.001Z</time></trkpt><trkpt lat="41.409782354614755" lon="12.873171103364358"><ele>0.0</ele><time>2026-04-25T10:37:02.001Z</time></trkpt><trkpt lat="41.409649058519676" lon="12.873111363312624"><ele>0.0</ele><time>2026-04-25T10:37:03.001Z</time></trkpt><trkpt lat="41.40950775177925" lon="12.873044352684353"><ele>0.0</ele><time>2026-04-25T10:37:04.001Z</time></trkpt><trkpt lat="41.409353146268934" lon="12.872970127710587"><ele>0.3333333333333333</ele><time>2026-04-25T10:37:05.001Z</time></trkpt><trkpt lat="41.40919013449761" lon="12.872900630395897"><ele>0.6666666666666666</ele><time>2026-04-25T10:37:06.001Z</time></trkpt><trkpt lat="41.409026220586135" lon="12.872831252494723"><ele>1.0</ele><time>2026-04-25T10:37:07.001Z</time></trkpt><trkpt lat="41.4088657134205" lon="12.87275921247436"><ele>1.0</ele><time>2026-04-25T10:37:08.001Z</time></trkpt><trkpt lat="41.4087137281096" lon="12.872685817082953"><ele>1.0</ele><time>2026-04-25T10:37:09.001Z</time></trkpt><trkpt lat="41.408564272159886" lon="12.872616435087172"><ele>1.0</ele><time>2026-04-25T10:37:10.001Z</time></trkpt><trkpt lat="41.40841531337187" lon="12.872545500870146"><ele>1.0</ele><time>2026-04-25T10:37:11.001Z</time></trkpt><trkpt lat="41.40826518929535" lon="12.872477206063524"><ele>1.0</ele><time>2026-04-25T10:37:12.001Z</time></trkpt><trkpt lat="41.40811344676402" lon="12.872406808005637"><ele>1.0</ele><time>2026-04-25T10:37:13.001Z</time></trkpt><trkpt lat="41.40796293876638" lon="12.872337022288727"><ele>1.0</ele><time>2026-04-25T10:37:14.001Z</time></trkpt><trkpt lat="41.4078182949607" lon="12.872273962509967"><ele>1.0</ele><time>2026-04-25T10:37:15.001Z</time></trkpt><trkpt lat="41.407686612269174" lon="12.872213830133347"><ele>1.0</ele><time>2026-04-25T10:37:16.001Z</time></trkpt><trkpt lat="41.40755865042381" lon="12.872156345484557"><ele>1.0</ele><time>2026-04-25T10:37:17.001Z</time></trkpt><trkpt lat="41.40742640096915" lon="12.872097811264029"><ele>1.0</ele><time>2026-04-25T10:37:18.001Z</time></trkpt><trkpt lat="41.4072976882668" lon="12.87203225853243"><ele>1.0</ele><time>2026-04-25T10:37:19.001Z</time></trkpt><trkpt lat="41.40718353772782" lon="12.871980583221452"><ele>1.0</ele><time>2026-04-25T10:37:20.001Z</time></trkpt><trkpt lat="41.407079080715704" lon="12.871931833065995"><ele>1.0</ele><time>2026-04-25T10:37:21.001Z</time></trkpt><trkpt lat="41.40697773437737" lon="12.871890143709448"><ele>1.2000000000000002</ele><time>2026-04-25T10:37:22.001Z</time></trkpt><trkpt lat="41.406877707949405" lon="12.871849380567275"><ele>1.4000000000000001</ele><time>2026-04-25T10:37:23.001Z</time></trkpt><trkpt lat="41.40678386616022" lon="12.871813746188037"><ele>1.6</ele><time>2026-04-25T10:37:24.001Z</time></trkpt><trkpt lat="41.40670695676166" lon="12.871777878662044"><ele>1.8</ele><time>2026-04-25T10:37:25.001Z</time></trkpt><trkpt lat="41.40663741523363" lon="12.87174798092178"><ele>2.0</ele><time>2026-04-25T10:37:26.001Z</time></trkpt><trkpt lat="41.406534392900525" lon="12.871706017069501"><ele>2.0</ele><time>2026-04-25T10:37:28.001Z</time></trkpt><trkpt lat="41.406447968399355" lon="12.871661877841149"><ele>2.0</ele><time>2026-04-25T10:37:30.001Z</time></trkpt><trkpt lat="41.40636948298943" lon="12.871630044182439"><ele>2.0</ele><time>2026-04-25T10:37:33.001Z</time></trkpt><trkpt lat="41.40634166672041" lon="12.871543765926937"><ele>2.0</ele><time>2026-04-25T10:37:35.001Z</time></trkpt><trkpt lat="41.40634228668128" lon="12.871404040906004"><ele>2.0</ele><time>2026-04-25T10:37:37.001Z</time></trkpt><trkpt lat="41.40635804550452" lon="12.871272522004256"><ele>2.0</ele><time>2026-04-25T10:37:39.001Z</time></trkpt><trkpt lat="41.4063813991324" lon="12.871129163580171"><ele>2.0</ele><time>2026-04-25T10:37:41.001Z</time></trkpt><trkpt lat="41.40643770933409" lon="12.870991367699865"><ele>2.0</ele><time>2026-04-25T10:37:43.001Z</time></trkpt><trkpt lat="41.40648850974679" lon="12.870874437292647"><ele>2.0</ele><time>2026-04-25T10:37:45.001Z</time></trkpt><trkpt lat="41.406528319549906" lon="12.870808790034836"><ele>2.0</ele><time>2026-04-25T10:37:50.001Z</time></trkpt><trkpt lat="41.40654082840286" lon="12.870710090134866"><ele>1.9999999999999998</ele><time>2026-04-25T10:38:29.001Z</time></trkpt><trkpt lat="41.4065897519837" lon="12.870605875798876"><ele>2.0</ele><time>2026-04-25T10:38:31Z</time></trkpt><trkpt lat="41.40662756535108" lon="12.870529781659918"><ele>2.0</ele><time>2026-04-25T10:38:32Z</time></trkpt><trkpt lat="41.40665785813084" lon="12.870454870384151"><ele>2.0</ele><time>2026-04-25T10:38:33Z</time></trkpt><trkpt lat="41.40669860031796" lon="12.870333808428324"><ele>1.9999999999999998</ele><time>2026-04-25T10:38:35Z</time></trkpt><trkpt lat="41.406739666560036" lon="12.87023066569596"><ele>2.0</ele><time>2026-04-25T10:38:38Z</time></trkpt><trkpt lat="41.4067734731661" lon="12.870155834333024"><ele>2.6666666666666665</ele><time>2026-04-25T10:38:40Z</time></trkpt><trkpt lat="41.406818338477585" lon="12.870035212637367"><ele>3.333333333333333</ele><time>2026-04-25T10:38:43Z</time></trkpt><trkpt lat="41.40684446067629" lon="12.869950149522337"><ele>4.0</ele><time>2026-04-25T10:38:46Z</time></trkpt><trkpt lat="41.40687206819233" lon="12.86985995267463"><ele>4.666666666666667</ele><time>2026-04-25T10:38:50Z</time></trkpt><trkpt lat="41.40691179527283" lon="12.869754503148481"><ele>5.333333333333333</ele><time>2026-04-25T10:38:52Z</time></trkpt><trkpt lat="41.40694220962413" lon="12.86967951402741"><ele>6.0</ele><time>2026-04-25T10:38:53Z</time></trkpt><trkpt lat="41.40698568528955" lon="12.869536680239197"><ele>6.0</ele><time>2026-04-25T10:38:55Z</time></trkpt><trkpt lat="41.40702038126637" lon="12.869426393428089"><ele>6.0</ele><time>2026-04-25T10:38:57Z</time></trkpt><trkpt lat="41.407059029279125" lon="12.86929995265487"><ele>6.0</ele><time>2026-04-25T10:38:59Z</time></trkpt><trkpt lat="41.40709427396939" lon="12.869228200135115"><ele>6.0</ele><time>2026-04-25T10:39:00Z</time></trkpt><trkpt lat="41.40712931212543" lon="12.869134088711025"><ele>6.0</ele><time>2026-04-25T10:39:01Z</time></trkpt><trkpt lat="41.4071602249072" lon="12.869046519650936"><ele>6.0</ele><time>2026-04-25T10:39:02Z</time></trkpt><trkpt lat="41.40721245654744" lon="12.868928558539709"><ele>5.5</ele><time>2026-04-25T10:39:04Z</time></trkpt><trkpt lat="41.40741614860719" lon="12.868953417910735"><ele>5.0</ele><time>2026-04-25T10:39:11Z</time></trkpt><trkpt lat="41.40751883367739" lon="12.868942019505235"><ele>4.5</ele><time>2026-04-25T10:39:13Z</time></trkpt><trkpt lat="41.40759948989622" lon="12.86891635500653"><ele>4.0</ele><time>2026-04-25T10:39:16Z</time></trkpt><trkpt lat="41.40766816480805" lon="12.86890862751351"><ele>4.0</ele><time>2026-04-25T10:39:18Z</time></trkpt><trkpt lat="41.40775424239311" lon="12.868849971588771"><ele>4.0</ele><time>2026-04-25T10:39:21Z</time></trkpt><trkpt lat="41.40781610744079" lon="12.868724917156445"><ele>4.0</ele><time>2026-04-25T10:39:23Z</time></trkpt><trkpt lat="41.40785663795773" lon="12.86863777017414"><ele>4.0</ele><time>2026-04-25T10:39:27Z</time></trkpt><trkpt lat="41.40787967060174" lon="12.868520807005211"><ele>4.0</ele><time>2026-04-25T10:39:30Z</time></trkpt><trkpt lat="41.407927653424814" lon="12.868447134564931"><ele>3.333333333333333</ele><time>2026-04-25T10:39:32Z</time></trkpt><trkpt lat="41.408010099805566" lon="12.868379827637046"><ele>2.6666666666666665</ele><time>2026-04-25T10:39:34Z</time></trkpt><trkpt lat="41.408077737920884" lon="12.868350357992485"><ele>2.0</ele><time>2026-04-25T10:39:35Z</time></trkpt><trkpt lat="41.408155612794225" lon="12.868323159308389"><ele>1.3333333333333333</ele><time>2026-04-25T10:39:36Z</time></trkpt><trkpt lat="41.408242822172255" lon="12.868292441164614"><ele>0.6666666666666666</ele><time>2026-04-25T10:39:37Z</time></trkpt><trkpt lat="41.40832637771716" lon="12.868270710314277"><ele>0.0</ele><time>2026-04-25T10:39:38Z</time></trkpt><trkpt lat="41.408404679554714" lon="12.86825184537653"><ele>0.0</ele><time>2026-04-25T10:39:39Z</time></trkpt><trkpt lat="41.408496363307705" lon="12.868234318791817"><ele>0.0</ele><time>2026-04-25T10:39:40Z</time></trkpt><trkpt lat="41.40857214835558" lon="12.86821402738444"><ele>0.0</ele><time>2026-04-25T10:39:41Z</time></trkpt><trkpt lat="41.40863353572179" lon="12.868195186331398"><ele>0.0</ele><time>2026-04-25T10:39:42Z</time></trkpt><trkpt lat="41.40870018316256" lon="12.86816921611676"><ele>0.0</ele><time>2026-04-25T10:39:43Z</time></trkpt><trkpt lat="41.40876679616479" lon="12.868137219960179"><ele>0.0</ele><time>2026-04-25T10:39:44Z</time></trkpt><trkpt lat="41.40883441183557" lon="12.868093177078435"><ele>0.0</ele><time>2026-04-25T10:39:46.001Z</time></trkpt><trkpt lat="41.408880762846564" lon="12.868027922317447"><ele>-0.3333333333333333</ele><time>2026-04-25T10:39:48.001Z</time></trkpt><trkpt lat="41.40893651186694" lon="12.867940405176265"><ele>-0.6666666666666666</ele><time>2026-04-25T10:39:50.001Z</time></trkpt><trkpt lat="41.40899966218156" lon="12.86786189253691"><ele>-1.0</ele><time>2026-04-25T10:39:52.001Z</time></trkpt><trkpt lat="41.40906701520873" lon="12.867843560545333"><ele>-1.3333333333333333</ele><time>2026-04-25T10:39:54.001Z</time></trkpt><trkpt lat="41.40915203025704" lon="12.867839090100109"><ele>-1.6666666666666665</ele><time>2026-04-25T10:39:56.001Z</time></trkpt><trkpt lat="41.409233626739336" lon="12.867887880285505"><ele>-2.0</ele><time>2026-04-25T10:39:58.001Z</time></trkpt><trkpt lat="41.40930805661563" lon="12.86793121999139"><ele>-2.0</ele><time>2026-04-25T10:40:13.001Z</time></trkpt><trkpt lat="41.40937501161164" lon="12.867975208986435"><ele>-1.9999999999999998</ele><time>2026-04-25T10:40:54Z</time></trkpt><trkpt lat="41.40946143918627" lon="12.868028639836147"><ele>-2.0</ele><time>2026-04-25T10:40:56Z</time></trkpt><trkpt lat="41.40952430704832" lon="12.868071743009995"><ele>-2.0</ele><time>2026-04-25T10:40:57Z</time></trkpt><trkpt lat="41.409591374339634" lon="12.868112851977605"><ele>-1.9999999999999998</ele><time>2026-04-25T10:40:58Z</time></trkpt><trkpt lat="41.40965189268553" lon="12.868142937327635"><ele>-2.0</ele><time>2026-04-25T10:40:59Z</time></trkpt><trkpt lat="41.4097099621342" lon="12.868176945700709"><ele>-2.0</ele><time>2026-04-25T10:41:00Z</time></trkpt><trkpt lat="41.40981668889481" lon="12.868256728305914"><ele>-1.8</ele><time>2026-04-25T10:41:02Z</time></trkpt><trkpt lat="41.409925309061634" lon="12.868331603644426"><ele>-1.6</ele><time>2026-04-25T10:41:04Z</time></trkpt><trkpt lat="41.409985439884565" lon="12.86839253474284"><ele>-1.4000000000000001</ele><time>2026-04-25T10:41:05Z</time></trkpt><trkpt lat="41.41004947992447" lon="12.868462830766607"><ele>-1.2000000000000002</ele><time>2026-04-25T10:41:06Z</time></trkpt><trkpt lat="41.41011397907577" lon="12.868536952713063"><ele>-1.0</ele><time>2026-04-25T10:41:07Z</time></trkpt><trkpt lat="41.41018127031251" lon="12.868608617502534"><ele>-0.8</ele><time>2026-04-25T10:41:08Z</time></trkpt><trkpt lat="41.410259906273765" lon="12.868683448254657"><ele>-0.6000000000000001</ele><time>2026-04-25T10:41:09Z</time></trkpt><trkpt lat="41.41034951507707" lon="12.868763124825456"><ele>-0.4</ele><time>2026-04-25T10:41:10Z</time></trkpt><trkpt lat="41.410439363224505" lon="12.868840755374709"><ele>-0.2</ele><time>2026-04-25T10:41:11Z</time></trkpt><trkpt lat="41.41052373340711" lon="12.86892015338785"><ele>0.0</ele><time>2026-04-25T10:41:12Z</time></trkpt><trkpt lat="41.41060572577614" lon="12.86900277502233"><ele>0.0</ele><time>2026-04-25T10:41:13Z</time></trkpt><trkpt lat="41.41068728080657" lon="12.869087617451273"><ele>0.0</ele><time>2026-04-25T10:41:14Z</time></trkpt><trkpt lat="41.41075617352566" lon="12.869166405091244"><ele>0.0</ele><time>2026-04-25T10:41:15Z</time></trkpt><trkpt lat="41.4108257389525" lon="12.869242877733727"><ele>0.0</ele><time>2026-04-25T10:41:16Z</time></trkpt><trkpt lat="41.410914078566" lon="12.869323317715484"><ele>0.0</ele><time>2026-04-25T10:41:17Z</time></trkpt><trkpt lat="41.41101002918766" lon="12.869408665878344"><ele>-0.2</ele><time>2026-04-25T10:41:18Z</time></trkpt><trkpt lat="41.4111015702892" lon="12.869490166434153"><ele>-0.4</ele><time>2026-04-25T10:41:19Z</time></trkpt><trkpt lat="41.41119437154254" lon="12.869589090031656"><ele>-0.6000000000000001</ele><time>2026-04-25T10:41:20Z</time></trkpt><trkpt lat="41.41126400604796" lon="12.869674935960404"><ele>-0.8</ele><time>2026-04-25T10:41:21Z</time></trkpt><trkpt lat="41.41132813397064" lon="12.869745450261032"><ele>-1.0</ele><time>2026-04-25T10:41:22Z</time></trkpt><trkpt lat="41.411390089725664" lon="12.86980353369584"><ele>-0.9999999999999999</ele><time>2026-04-25T10:41:23Z</time></trkpt><trkpt lat="41.41145372285655" lon="12.86985836221945"><ele>-1.0</ele><time>2026-04-25T10:41:24Z</time></trkpt><trkpt lat="41.411527560606494" lon="12.869901754110714"><ele>-1.0</ele><time>2026-04-25T10:41:25Z</time></trkpt><trkpt lat="41.41161670051951" lon="12.869927708467035"><ele>-1.0</ele><time>2026-04-25T10:41:26Z</time></trkpt><trkpt lat="41.4117051857913" lon="12.869946607533246"><ele>-0.9999999999999999</ele><time>2026-04-25T10:41:27Z</time></trkpt><trkpt lat="41.4118047430673" lon="12.86996824638556"><ele>-1.0</ele><time>2026-04-25T10:41:28Z</time></trkpt><trkpt lat="41.41189467271627" lon="12.869990628063572"><ele>-0.9999999999999999</ele><time>2026-04-25T10:41:29Z</time></trkpt><trkpt lat="41.411986963873595" lon="12.87000790066885"><ele>-1.0</ele><time>2026-04-25T10:41:30Z</time></trkpt><trkpt lat="41.41207449994132" lon="12.870023712577096"><ele>-1.0</ele><time>2026-04-25T10:41:31Z</time></trkpt><trkpt lat="41.412144384438854" lon="12.870041426167814"><ele>-1.0</ele><time>2026-04-25T10:41:32Z</time></trkpt><trkpt lat="41.412214468000464" lon="12.870051943916303"><ele>-0.9999999999999999</ele><time>2026-04-25T10:41:33Z</time></trkpt><trkpt lat="41.412278734743076" lon="12.870070973322505"><ele>-1.0</ele><time>2026-04-25T10:41:34Z</time></trkpt><trkpt lat="41.412347077029374" lon="12.87009124769903"><ele>-1.0</ele><time>2026-04-25T10:41:35Z</time></trkpt><trkpt lat="41.41241796617419" lon="12.870107741927582"><ele>-1.0</ele><time>2026-04-25T10:41:36Z</time></trkpt><trkpt lat="41.41254183943193" lon="12.87013494146249"><ele>-1.0</ele><time>2026-04-25T10:41:38Z</time></trkpt><trkpt lat="41.412604940351024" lon="12.870142588278105"><ele>-1.0</ele><time>2026-04-25T10:41:39Z</time></trkpt><trkpt lat="41.412728039979314" lon="12.87016983405818"><ele>-1.0</ele><time>2026-04-25T10:41:41Z</time></trkpt><trkpt lat="41.412834100540046" lon="12.870195025541026"><ele>-0.9999999999999999</ele><time>2026-04-25T10:41:43Z</time></trkpt><trkpt lat="41.4129287936606" lon="12.870219042028909"><ele>-1.0</ele><time>2026-04-25T10:41:45Z</time></trkpt><trkpt lat="41.41302429718162" lon="12.870247430591398"><ele>-1.0</ele><time>2026-04-25T10:41:47Z</time></trkpt><trkpt lat="41.41311427725437" lon="12.870276281732071"><ele>-1.0</ele><time>2026-04-25T10:41:49Z</time></trkpt><trkpt lat="41.41318861692231" lon="12.870286175317323"><ele>-0.9999999999999999</ele><time>2026-04-25T10:41:51Z</time></trkpt><trkpt lat="41.41327302400854" lon="12.870298754721157"><ele>-1.0</ele><time>2026-04-25T10:41:54Z</time></trkpt><trkpt lat="41.41334191219703" lon="12.870304619447358"><ele>-1.0</ele><time>2026-04-25T10:41:57Z</time></trkpt><trkpt lat="41.4134152982288" lon="12.870316813228001"><ele>-0.9999999999999999</ele><time>2026-04-25T10:42:00.001Z</time></trkpt><trkpt lat="41.413478121275475" lon="12.870340513273312"><ele>-1.0</ele><time>2026-04-25T10:42:04.001Z</time></trkpt><trkpt lat="41.41354884740411" lon="12.8703637835605"><ele>-1.0</ele><time>2026-04-25T10:42:08.001Z</time></trkpt><trkpt lat="41.41361287553236" lon="12.870382128518914"><ele>-0.9999999999999999</ele><time>2026-04-25T10:42:12.001Z</time></trkpt><trkpt lat="41.413687175798" lon="12.870408718685061"><ele>-1.0</ele><time>2026-04-25T10:42:17.001Z</time></trkpt><trkpt lat="41.41375622860155" lon="12.87043406943594"><ele>-1.0</ele><time>2026-04-25T10:42:22.001Z</time></trkpt><trkpt lat="41.41382890867573" lon="12.87046234545349"><ele>-0.8571428571428571</ele><time>2026-04-25T10:42:28.001Z</time></trkpt><trkpt lat="41.413892861154" lon="12.870488761770687"><ele>-0.7142857142857142</ele><time>2026-04-25T10:42:34.001Z</time></trkpt><trkpt lat="41.41395929511905" lon="12.870520916372948"><ele>-0.5714285714285714</ele><time>2026-04-25T10:42:39Z</time></trkpt><trkpt lat="41.414028258256884" lon="12.870551358555247"><ele>-0.42857142857142855</ele><time>2026-04-25T10:42:43Z</time></trkpt><trkpt lat="41.41409990889748" lon="12.870590085740956"><ele>-0.2857142857142857</ele><time>2026-04-25T10:42:47Z</time></trkpt><trkpt lat="41.414165513987996" lon="12.870617776126885"><ele>-0.14285714285714285</ele><time>2026-04-25T10:42:51Z</time></trkpt><trkpt lat="41.414229963499736" lon="12.870650059036114"><ele>0.0</ele><time>2026-04-25T10:42:55Z</time></trkpt><trkpt lat="41.414308290890105" lon="12.870688606195076"><ele>0.0</ele><time>2026-04-25T10:43:00Z</time></trkpt><trkpt lat="41.41436399984606" lon="12.870745378686287"><ele>0.0</ele><time>2026-04-25T10:43:03Z</time></trkpt><trkpt lat="41.41441001370437" lon="12.870804379495809"><ele>0.0</ele><time>2026-04-25T10:43:06Z</time></trkpt><trkpt lat="41.414459581798326" lon="12.870868006826253"><ele>0.0</ele><time>2026-04-25T10:43:09Z</time></trkpt><trkpt lat="41.41452497608827" lon="12.870932005816954"><ele>0.0</ele><time>2026-04-25T10:43:13Z</time></trkpt><trkpt lat="41.414582071841636" lon="12.87097031340395"><ele>0.0</ele><time>2026-04-25T10:43:16Z</time></trkpt><trkpt lat="41.414646031319556" lon="12.871004282115964"><ele>0.0</ele><time>2026-04-25T10:43:21Z</time></trkpt><trkpt lat="41.41471744708118" lon="12.871032844258053"><ele>0.42857142857142855</ele><time>2026-04-25T10:43:28Z</time></trkpt><trkpt lat="41.41478952976093" lon="12.871041277160169"><ele>0.8571428571428571</ele><time>2026-04-25T10:43:33Z</time></trkpt><trkpt lat="41.41486051025682" lon="12.871044184975446"><ele>1.2857142857142856</ele><time>2026-04-25T10:43:37Z</time></trkpt><trkpt lat="41.41493347952025" lon="12.871075068122156"><ele>1.7142857142857142</ele><time>2026-04-25T10:43:40Z</time></trkpt><trkpt lat="41.415001765876475" lon="12.871108647589443"><ele>2.142857142857143</ele><time>2026-04-25T10:43:43Z</time></trkpt><trkpt lat="41.41507399180136" lon="12.87114752314502"><ele>2.571428571428571</ele><time>2026-04-25T10:43:58.001Z</time></trkpt><trkpt lat="41.4150969461606" lon="12.871238701197726"><ele>3.0</ele><time>2026-04-25T10:45:39Z</time></trkpt><trkpt lat="41.41507407880583" lon="12.871342714511362"><ele>3.0</ele><time>2026-04-25T10:45:42Z</time></trkpt><trkpt lat="41.4150367430331" lon="12.871439626003832"><ele>3.0</ele><time>2026-04-25T10:45:45Z</time></trkpt><trkpt lat="41.41501783141925" lon="12.871534384975096"><ele>3.0</ele><time>2026-04-25T10:45:48Z</time></trkpt><trkpt lat="41.41499155425148" lon="12.87162865637502"><ele>3.0</ele><time>2026-04-25T10:45:51Z</time></trkpt><trkpt lat="41.414974433558896" lon="12.871735037660644"><ele>3.0</ele><time>2026-04-25T10:45:54Z</time></trkpt><trkpt lat="41.41496125957195" lon="12.871839502090666"><ele>3.0</ele><time>2026-04-25T10:45:57Z</time></trkpt><trkpt lat="41.41494380358291" lon="12.871948995461933"><ele>3.0</ele><time>2026-04-25T10:46:00Z</time></trkpt><trkpt lat="41.41492911354705" lon="12.872050650718956"><ele>3.0</ele><time>2026-04-25T10:46:03Z</time></trkpt><trkpt lat="41.41491552897045" lon="12.872152905206487"><ele>3.0</ele><time>2026-04-25T10:46:06Z</time></trkpt><trkpt lat="41.41489227757968" lon="12.872253954991233"><ele>3.0</ele><time>2026-04-25T10:46:09Z</time></trkpt><trkpt lat="41.41488287703402" lon="12.872357561697534"><ele>3.0</ele><time>2026-04-25T10:46:12Z</time></trkpt><trkpt lat="41.41485665771232" lon="12.87245547166682"><ele>3.0</ele><time>2026-04-25T10:46:15Z</time></trkpt><trkpt lat="41.41484041980957" lon="12.872561135971177"><ele>2.8333333333333335</ele><time>2026-04-25T10:46:18Z</time></trkpt><trkpt lat="41.41482360953547" lon="12.8726591646801"><ele>2.6666666666666665</ele><time>2026-04-25T10:46:21Z</time></trkpt><trkpt lat="41.41480374810581" lon="12.872765294311462"><ele>2.5</ele><time>2026-04-25T10:46:24Z</time></trkpt><trkpt lat="41.41478649333686" lon="12.872860716789893"><ele>2.333333333333333</ele><time>2026-04-25T10:46:27.001Z</time></trkpt><trkpt lat="41.41477202814388" lon="12.872962674740421"><ele>2.1666666666666665</ele><time>2026-04-25T10:46:30.001Z</time></trkpt><trkpt lat="41.41475180167282" lon="12.87305612837074"><ele>2.0</ele><time>2026-04-25T10:46:33.001Z</time></trkpt><trkpt lat="41.41473238810212" lon="12.873151389662029"><ele>1.9999999999999998</ele><time>2026-04-25T10:46:36.001Z</time></trkpt><trkpt lat="41.41470921794517" lon="12.873262207398948"><ele>2.0</ele><time>2026-04-25T10:46:39.001Z</time></trkpt><trkpt lat="41.41470162809444" lon="12.873367998630854"><ele>2.0</ele><time>2026-04-25T10:46:42.001Z</time></trkpt><trkpt lat="41.41470435050323" lon="12.873475327577705"><ele>2.0</ele><time>2026-04-25T10:46:45.001Z</time></trkpt><trkpt lat="41.41468092978476" lon="12.873554516172964"><ele>1.9999999999999998</ele><time>2026-04-25T10:46:46.999Z</time></trkpt><trkpt lat="41.41466222034843" lon="12.873658104558366"><ele>2.0</ele><time>2026-04-25T10:46:49.999Z</time></trkpt><trkpt lat="41.41462965887714" lon="12.873755805263682"><ele>1.9999999999999998</ele><time>2026-04-25T10:46:52.999Z</time></trkpt><trkpt lat="41.41460467360285" lon="12.873856284763823"><ele>2.0</ele><time>2026-04-25T10:46:55.999Z</time></trkpt><trkpt lat="41.414593742116736" lon="12.873979125787587"><ele>2.0</ele><time>2026-04-25T10:46:58.999Z</time></trkpt><trkpt lat="41.41458779170672" lon="12.87408624898735"><ele>2.0</ele><time>2026-04-25T10:47:01.999Z</time></trkpt><trkpt lat="41.41456927757415" lon="12.874175514590842"><ele>1.9999999999999998</ele><time>2026-04-25T10:47:04.999Z</time></trkpt><trkpt lat="41.414553189815486" lon="12.874286481720537"><ele>2.0</ele><time>2026-04-25T10:47:07.999Z</time></trkpt><trkpt lat="41.41453606178637" lon="12.874386212735402"><ele>2.0</ele><time>2026-04-25T10:47:10.999Z</time></trkpt><trkpt lat="41.41451451668044" lon="12.874475304927724"><ele>2.0</ele><time>2026-04-25T10:47:13.999Z</time></trkpt><trkpt lat="41.41450985447472" lon="12.874605567674601"><ele>2.0</ele><time>2026-04-25T10:47:17Z</time></trkpt><trkpt lat="41.41449075370473" lon="12.874758092829317"><ele>2.0</ele><time>2026-04-25T10:47:19Z</time></trkpt><trkpt lat="41.41446551518257" lon="12.874887876767147"><ele>2.0</ele><time>2026-04-25T10:47:21Z</time></trkpt><trkpt lat="41.41445256203584" lon="12.875021800961111"><ele>2.0</ele><time>2026-04-25T10:47:24Z</time></trkpt><trkpt lat="41.41443557108107" lon="12.875110223639325"><ele>2.0</ele><time>2026-04-25T10:47:26Z</time></trkpt><trkpt lat="41.41440858983761" lon="12.875199115502415"><ele>2.0</ele><time>2026-04-25T10:47:34Z</time></trkpt><trkpt lat="41.414394693248504" lon="12.87528172300132"><ele>2.0</ele><time>2026-04-25T10:47:46Z</time></trkpt><trkpt lat="41.41451003116023" lon="12.875379031329626"><ele>2.0</ele><time>2026-04-25T10:47:48Z</time></trkpt><trkpt lat="41.41462699144149" lon="12.87543202481908"><ele>1.5</ele><time>2026-04-25T10:47:50Z</time></trkpt><trkpt lat="41.41474345555258" lon="12.875484770428205"><ele>1.0</ele><time>2026-04-25T10:47:52Z</time></trkpt><trkpt lat="41.414847935470505" lon="12.875532149909564"><ele>0.5</ele><time>2026-04-25T10:47:54Z</time></trkpt><trkpt lat="41.41495244873072" lon="12.875579534674642"><ele>0.0</ele><time>2026-04-25T10:47:56Z</time></trkpt><trkpt lat="41.41507213492925" lon="12.875633798624081"><ele>0.0</ele><time>2026-04-25T10:47:58Z</time></trkpt><trkpt lat="41.415134815068875" lon="12.875662216872092"><ele>0.0</ele><time>2026-04-25T10:47:59Z</time></trkpt><trkpt lat="41.415200975023936" lon="12.875671209729386"><ele>0.0</ele><time>2026-04-25T10:48:00Z</time></trkpt><trkpt lat="41.415259190272174" lon="12.875718342195924"><ele>0.0</ele><time>2026-04-25T10:48:01Z</time></trkpt><trkpt lat="41.41532039858517" lon="12.875747097940708"><ele>0.0</ele><time>2026-04-25T10:48:02Z</time></trkpt><trkpt lat="41.41538208371624" lon="12.875774690288354"><ele>0.0</ele><time>2026-04-25T10:48:03Z</time></trkpt><trkpt lat="41.41544359295019" lon="12.875804410287069"><ele>0.0</ele><time>2026-04-25T10:48:04Z</time></trkpt><trkpt lat="41.41550484626187" lon="12.875830583839106"><ele>0.14285714285714285</ele><time>2026-04-25T10:48:05Z</time></trkpt><trkpt lat="41.41556691775591" lon="12.875859148918469"><ele>0.2857142857142857</ele><time>2026-04-25T10:48:06Z</time></trkpt><trkpt lat="41.415634831109536" lon="12.875887992447039"><ele>0.42857142857142855</ele><time>2026-04-25T10:48:07Z</time></trkpt><trkpt lat="41.41570323870994" lon="12.875918214702406"><ele>0.5714285714285714</ele><time>2026-04-25T10:48:08Z</time></trkpt><trkpt lat="41.415771991427704" lon="12.875950201623375"><ele>0.7142857142857142</ele><time>2026-04-25T10:48:09Z</time></trkpt><trkpt lat="41.415843156211714" lon="12.87597780216866"><ele>0.8571428571428571</ele><time>2026-04-25T10:48:10Z</time></trkpt><trkpt lat="41.41591738857289" lon="12.87600128662215"><ele>1.0</ele><time>2026-04-25T10:48:11Z</time></trkpt><trkpt lat="41.415989288177926" lon="12.876035425425382"><ele>1.0</ele><time>2026-04-25T10:48:12Z</time></trkpt><trkpt lat="41.416079458868055" lon="12.876080353742251"><ele>1.0</ele><time>2026-04-25T10:48:13Z</time></trkpt><trkpt lat="41.41618761002217" lon="12.876132763352336"><ele>1.0</ele><time>2026-04-25T10:48:14Z</time></trkpt><trkpt lat="41.4163010152219" lon="12.876184101961783"><ele>1.0</ele><time>2026-04-25T10:48:15Z</time></trkpt><trkpt lat="41.41642512354008" lon="12.876239968770799"><ele>1.25</ele><time>2026-04-25T10:48:16Z</time></trkpt><trkpt lat="41.416547882465835" lon="12.876303267925518"><ele>1.5</ele><time>2026-04-25T10:48:17Z</time></trkpt><trkpt lat="41.41668192986355" lon="12.876362029566678"><ele>1.75</ele><time>2026-04-25T10:48:18Z</time></trkpt><trkpt lat="41.416842949202014" lon="12.876429207690007"><ele>2.0</ele><time>2026-04-25T10:48:19Z</time></trkpt><trkpt lat="41.417011065889525" lon="12.876510538662181"><ele>1.75</ele><time>2026-04-25T10:48:20Z</time></trkpt><trkpt lat="41.41716808685241" lon="12.876584414555564"><ele>1.5</ele><time>2026-04-25T10:48:21Z</time></trkpt><trkpt lat="41.41730769165196" lon="12.876643600838902"><ele>1.25</ele><time>2026-04-25T10:48:22Z</time></trkpt><trkpt lat="41.41743613085784" lon="12.87669778569945"><ele>1.0</ele><time>2026-04-25T10:48:23Z</time></trkpt><trkpt lat="41.41756147610449" lon="12.876754964998819"><ele>1.0</ele><time>2026-04-25T10:48:24Z</time></trkpt><trkpt lat="41.41768402228022" lon="12.876805827592355"><ele>1.0</ele><time>2026-04-25T10:48:25Z</time></trkpt><trkpt lat="41.41779286871026" lon="12.876854655072137"><ele>1.0</ele><time>2026-04-25T10:48:26Z</time></trkpt><trkpt lat="41.417888320491166" lon="12.8769032679284"><ele>1.0</ele><time>2026-04-25T10:48:27Z</time></trkpt><trkpt lat="41.41797475338685" lon="12.876945906754095"><ele>1.0</ele><time>2026-04-25T10:48:28Z</time></trkpt><trkpt lat="41.418074597006765" lon="12.876992401307923"><ele>1.25</ele><time>2026-04-25T10:48:29Z</time></trkpt><trkpt lat="41.41818293751261" lon="12.877043304092838"><ele>1.5</ele><time>2026-04-25T10:48:30Z</time></trkpt><trkpt lat="41.41828387929297" lon="12.877086019191903"><ele>1.75</ele><time>2026-04-25T10:48:31Z</time></trkpt><trkpt lat="41.41838871957132" lon="12.877128207434716"><ele>2.0</ele><time>2026-04-25T10:48:32Z</time></trkpt><trkpt lat="41.41850326809188" lon="12.877180092175843"><ele>2.0</ele><time>2026-04-25T10:48:33Z</time></trkpt><trkpt lat="41.418614296215324" lon="12.877226952626668"><ele>2.0</ele><time>2026-04-25T10:48:34Z</time></trkpt><trkpt lat="41.41872855204822" lon="12.87727682451195"><ele>2.0</ele><time>2026-04-25T10:48:35Z</time></trkpt><trkpt lat="41.41883770437442" lon="12.877326818129035"><ele>2.0</ele><time>2026-04-25T10:48:36Z</time></trkpt><trkpt lat="41.418951313047856" lon="12.877377216771274"><ele>2.25</ele><time>2026-04-25T10:48:37Z</time></trkpt><trkpt lat="41.419060002444276" lon="12.877430344080851"><ele>2.5</ele><time>2026-04-25T10:48:38Z</time></trkpt><trkpt lat="41.41916667410688" lon="12.87748206770539"><ele>2.75</ele><time>2026-04-25T10:48:39Z</time></trkpt><trkpt lat="41.41927874702186" lon="12.877533181820215"><ele>3.0</ele><time>2026-04-25T10:48:40Z</time></trkpt><trkpt lat="41.41939206083022" lon="12.87758420624986"><ele>2.8</ele><time>2026-04-25T10:48:41Z</time></trkpt><trkpt lat="41.419503543907126" lon="12.877630338357504"><ele>2.5999999999999996</ele><time>2026-04-25T10:48:42Z</time></trkpt><trkpt lat="41.4196106373512" lon="12.87767568752665"><ele>2.4000000000000004</ele><time>2026-04-25T10:48:43Z</time></trkpt><trkpt lat="41.419700116049256" lon="12.877720241141"><ele>2.2</ele><time>2026-04-25T10:48:44Z</time></trkpt><trkpt lat="41.41977307328686" lon="12.877778898001848"><ele>2.0</ele><time>2026-04-25T10:48:45Z</time></trkpt><trkpt lat="41.41984119946511" lon="12.877818565172186"><ele>1.8333333333333333</ele><time>2026-04-25T10:48:46Z</time></trkpt><trkpt lat="41.41990114438518" lon="12.87784956968207"><ele>1.6666666666666665</ele><time>2026-04-25T10:48:47Z</time></trkpt><trkpt lat="41.4200091982058" lon="12.877933331407968"><ele>1.5</ele><time>2026-04-25T10:48:49Z</time></trkpt><trkpt lat="41.420061811989314" lon="12.877991637451457"><ele>1.3333333333333333</ele><time>2026-04-25T10:48:50Z</time></trkpt><trkpt lat="41.4201097131208" lon="12.878063718285015"><ele>1.1666666666666665</ele><time>2026-04-25T10:48:51Z</time></trkpt><trkpt lat="41.42015596142135" lon="12.878122501228969"><ele>1.0</ele><time>2026-04-25T10:48:52Z</time></trkpt><trkpt lat="41.420216607758164" lon="12.878156072677145"><ele>0.9999999999999999</ele><time>2026-04-25T10:48:52.999Z</time></trkpt><trkpt lat="41.420293660848984" lon="12.87816246506951"><ele>1.0</ele><time>2026-04-25T10:48:53.999Z</time></trkpt><trkpt lat="41.42037534575278" lon="12.878141642484836"><ele>1.0</ele><time>2026-04-25T10:48:54.999Z</time></trkpt><trkpt lat="41.42044277010273" lon="12.878132028671057"><ele>1.0</ele><time>2026-04-25T10:48:55.999Z</time></trkpt><trkpt lat="41.4205134052569" lon="12.878151606599037"><ele>0.9999999999999999</ele><time>2026-04-25T10:48:56.999Z</time></trkpt><trkpt lat="41.42059828485902" lon="12.878174537726355"><ele>1.0</ele><time>2026-04-25T10:48:57.999Z</time></trkpt><trkpt lat="41.420691113214595" lon="12.878201129079034"><ele>1.4</ele><time>2026-04-25T10:48:58.999Z</time></trkpt><trkpt lat="41.420780492320006" lon="12.878238833001811"><ele>1.8</ele><time>2026-04-25T10:48:59.999Z</time></trkpt><trkpt lat="41.42087061898827" lon="12.87828228478439"><ele>2.1999999999999997</ele><time>2026-04-25T10:49:00.999Z</time></trkpt><trkpt lat="41.420965923252346" lon="12.878328720695961"><ele>2.6</ele><time>2026-04-25T10:49:01.999Z</time></trkpt><trkpt lat="41.42106588191104" lon="12.878377994698647"><ele>3.0</ele><time>2026-04-25T10:49:02.999Z</time></trkpt><trkpt lat="41.42117295407878" lon="12.878425095591714"><ele>3.0</ele><time>2026-04-25T10:49:03.999Z</time></trkpt><trkpt lat="41.4212797965414" lon="12.878475925694133"><ele>3.0</ele><time>2026-04-25T10:49:04.999Z</time></trkpt><trkpt lat="41.42139385367988" lon="12.878523821456755"><ele>3.0</ele><time>2026-04-25T10:49:05.999Z</time></trkpt><trkpt lat="41.42149967649006" lon="12.878575944606963"><ele>3.0</ele><time>2026-04-25T10:49:07Z</time></trkpt><trkpt lat="41.42161021712282" lon="12.878628206768974"><ele>3.5</ele><time>2026-04-25T10:49:08Z</time></trkpt><trkpt lat="41.42173154699159" lon="12.878683190494916"><ele>4.0</ele><time>2026-04-25T10:49:09Z</time></trkpt><trkpt lat="41.421855803146634" lon="12.87873748101536"><ele>4.5</ele><time>2026-04-25T10:49:10Z</time></trkpt><trkpt lat="41.42198553741769" lon="12.878793860072646"><ele>5.0</ele><time>2026-04-25T10:49:11Z</time></trkpt><trkpt lat="41.422113004318696" lon="12.878844793285023"><ele>4.75</ele><time>2026-04-25T10:49:12Z</time></trkpt><trkpt lat="41.42224546357017" lon="12.878902167430173"><ele>4.5</ele><time>2026-04-25T10:49:13Z</time></trkpt><trkpt lat="41.42237480664265" lon="12.878962542673445"><ele>4.25</ele><time>2026-04-25T10:49:14Z</time></trkpt><trkpt lat="41.422493666345325" lon="12.879013436300209"><ele>4.0</ele><time>2026-04-25T10:49:15Z</time></trkpt><trkpt lat="41.422603409735096" lon="12.879057474175893"><ele>3.9999999999999996</ele><time>2026-04-25T10:49:16Z</time></trkpt><trkpt lat="41.4227012660967" lon="12.879101442534083"><ele>4.0</ele><time>2026-04-25T10:49:17Z</time></trkpt><trkpt lat="41.42279640464498" lon="12.879144290631666"><ele>4.0</ele><time>2026-04-25T10:49:18Z</time></trkpt><trkpt lat="41.422869437635924" lon="12.87918571404514"><ele>4.0</ele><time>2026-04-25T10:49:19Z</time></trkpt><trkpt lat="41.42292931509432" lon="12.87922900333583"><ele>3.9999999999999996</ele><time>2026-04-25T10:49:21Z</time></trkpt><trkpt lat="41.4230207121415" lon="12.879230619144812"><ele>4.0</ele><time>2026-04-25T10:49:54Z</time></trkpt><trkpt lat="41.42309336991731" lon="12.879237301716726"><ele>4.2</ele><time>2026-04-25T10:49:55Z</time></trkpt><trkpt lat="41.423169134257996" lon="12.87926924758571"><ele>4.4</ele><time>2026-04-25T10:49:56Z</time></trkpt><trkpt lat="41.42326859391902" lon="12.879317280074648"><ele>4.6</ele><time>2026-04-25T10:49:57Z</time></trkpt><trkpt lat="41.4233882335003" lon="12.879362977175195"><ele>4.8</ele><time>2026-04-25T10:49:58Z</time></trkpt><trkpt lat="41.423519858872076" lon="12.879408859688542"><ele>5.0</ele><time>2026-04-25T10:49:59Z</time></trkpt><trkpt lat="41.42364747470531" lon="12.879451869024434"><ele>5.0</ele><time>2026-04-25T10:50:00Z</time></trkpt><trkpt lat="41.42376967269914" lon="12.87948922620913"><ele>5.0</ele><time>2026-04-25T10:50:01Z</time></trkpt><trkpt lat="41.423888432168" lon="12.879531091227335"><ele>5.0</ele><time>2026-04-25T10:50:02Z</time></trkpt><trkpt lat="41.42401115785155" lon="12.87957722901552"><ele>5.0</ele><time>2026-04-25T10:50:03Z</time></trkpt><trkpt lat="41.42413114317686" lon="12.879618819657692"><ele>5.0</ele><time>2026-04-25T10:50:04Z</time></trkpt><trkpt lat="41.42425712850183" lon="12.879661163842457"><ele>5.0</ele><time>2026-04-25T10:50:05Z</time></trkpt><trkpt lat="41.42439181624314" lon="12.879704461645389"><ele>5.0</ele><time>2026-04-25T10:50:06Z</time></trkpt><trkpt lat="41.424533041695675" lon="12.879746720064201"><ele>5.0</ele><time>2026-04-25T10:50:07Z</time></trkpt><trkpt lat="41.42466580093543" lon="12.87979188693916"><ele>5.0</ele><time>2026-04-25T10:50:08Z</time></trkpt><trkpt lat="41.424807603169484" lon="12.879831321286769"><ele>5.0</ele><time>2026-04-25T10:50:09Z</time></trkpt><trkpt lat="41.42494829803713" lon="12.87987385909353"><ele>5.0</ele><time>2026-04-25T10:50:10Z</time></trkpt><trkpt lat="41.425090751862164" lon="12.879919740503476"><ele>5.0</ele><time>2026-04-25T10:50:11Z</time></trkpt><trkpt lat="41.42523120067621" lon="12.879959244092849"><ele>5.0</ele><time>2026-04-25T10:50:12Z</time></trkpt><trkpt lat="41.425373465254935" lon="12.879996022300494"><ele>5.0</ele><time>2026-04-25T10:50:13Z</time></trkpt><trkpt lat="41.4255124045045" lon="12.88003001478579"><ele>5.0</ele><time>2026-04-25T10:50:14Z</time></trkpt><trkpt lat="41.425646981991264" lon="12.88006232262216"><ele>5.0</ele><time>2026-04-25T10:50:15Z</time></trkpt><trkpt lat="41.42578356634071" lon="12.880102765097783"><ele>5.25</ele><time>2026-04-25T10:50:16Z</time></trkpt><trkpt lat="41.42592532887682" lon="12.880140648253194"><ele>5.5</ele><time>2026-04-25T10:50:17Z</time></trkpt><trkpt lat="41.42606115491444" lon="12.88017289476467"><ele>5.75</ele><time>2026-04-25T10:50:18Z</time></trkpt><trkpt lat="41.426201617849756" lon="12.880206202612968"><ele>6.0</ele><time>2026-04-25T10:50:19Z</time></trkpt><trkpt lat="41.42634724864902" lon="12.880237793559571"><ele>6.0</ele><time>2026-04-25T10:50:20Z</time></trkpt><trkpt lat="41.426489863517624" lon="12.880268558002019"><ele>6.0</ele><time>2026-04-25T10:50:21Z</time></trkpt><trkpt lat="41.42663011082057" lon="12.880296690225373"><ele>6.0</ele><time>2026-04-25T10:50:22Z</time></trkpt><trkpt lat="41.42676033178704" lon="12.880321821416691"><ele>6.0</ele><time>2026-04-25T10:50:23Z</time></trkpt><trkpt lat="41.42688959728386" lon="12.880349026943275"><ele>6.0</ele><time>2026-04-25T10:50:24Z</time></trkpt><trkpt lat="41.42701043659854" lon="12.880374893217711"><ele>6.0</ele><time>2026-04-25T10:50:25Z</time></trkpt><trkpt lat="41.427134353392006" lon="12.88039139185779"><ele>6.0</ele><time>2026-04-25T10:50:26Z</time></trkpt><trkpt lat="41.427257181531495" lon="12.880411286727208"><ele>6.0</ele><time>2026-04-25T10:50:27Z</time></trkpt><trkpt lat="41.42738729627831" lon="12.88043497293771"><ele>6.75</ele><time>2026-04-25T10:50:28Z</time></trkpt><trkpt lat="41.427519418800046" lon="12.880459845931329"><ele>7.5</ele><time>2026-04-25T10:50:29.001Z</time></trkpt><trkpt lat="41.42764843966823" lon="12.88048556031732"><ele>8.25</ele><time>2026-04-25T10:50:30.001Z</time></trkpt><trkpt lat="41.42777981069613" lon="12.880513816778286"><ele>9.0</ele><time>2026-04-25T10:50:31.001Z</time></trkpt><trkpt lat="41.42791962507943" lon="12.880542399066229"><ele>10.0</ele><time>2026-04-25T10:50:32.001Z</time></trkpt><trkpt lat="41.42807219385975" lon="12.880574185772291"><ele>11.0</ele><time>2026-04-25T10:50:33.001Z</time></trkpt><trkpt lat="41.42821783758455" lon="12.880602653664068"><ele>12.0</ele><time>2026-04-25T10:50:34.001Z</time></trkpt><trkpt lat="41.42835608001735" lon="12.880623531070984"><ele>13.0</ele><time>2026-04-25T10:50:35.001Z</time></trkpt><trkpt lat="41.428496002573105" lon="12.880648643730328"><ele>13.0</ele><time>2026-04-25T10:50:36.001Z</time></trkpt><trkpt lat="41.428630558689335" lon="12.880683501696694"><ele>13.0</ele><time>2026-04-25T10:50:37.001Z</time></trkpt><trkpt lat="41.42876928492955" lon="12.880709074965939"><ele>13.0</ele><time>2026-04-25T10:50:38.001Z</time></trkpt><trkpt lat="41.42889861282545" lon="12.880726236095608"><ele>13.0</ele><time>2026-04-25T10:50:39.001Z</time></trkpt><trkpt lat="41.429033164012736" lon="12.880748509084091"><ele>13.0</ele><time>2026-04-25T10:50:40.001Z</time></trkpt><trkpt lat="41.42917171860851" lon="12.880775920704346"><ele>13.0</ele><time>2026-04-25T10:50:41.001Z</time></trkpt><trkpt lat="41.42930721763011" lon="12.880801143027485"><ele>13.0</ele><time>2026-04-25T10:50:42.001Z</time></trkpt><trkpt lat="41.42944261888823" lon="12.88082416804519"><ele>13.0</ele><time>2026-04-25T10:50:43.001Z</time></trkpt><trkpt lat="41.429567880812684" lon="12.880844616000815"><ele>12.75</ele><time>2026-04-25T10:50:44.001Z</time></trkpt><trkpt lat="41.429682177236096" lon="12.880857565953935"><ele>12.5</ele><time>2026-04-25T10:50:45.001Z</time></trkpt><trkpt lat="41.42980381881777" lon="12.88087040474897"><ele>12.25</ele><time>2026-04-25T10:50:46.001Z</time></trkpt><trkpt lat="41.429923507557525" lon="12.880900889551718"><ele>12.0</ele><time>2026-04-25T10:50:47.001Z</time></trkpt><trkpt lat="41.43004547217783" lon="12.880933154028055"><ele>12.0</ele><time>2026-04-25T10:50:48.001Z</time></trkpt><trkpt lat="41.43017703491871" lon="12.880959714350976"><ele>12.0</ele><time>2026-04-25T10:50:49.001Z</time></trkpt><trkpt lat="41.430306516845825" lon="12.88097645842606"><ele>12.0</ele><time>2026-04-25T10:50:50.001Z</time></trkpt><trkpt lat="41.43043478936875" lon="12.880996760391469"><ele>12.0</ele><time>2026-04-25T10:50:51.001Z</time></trkpt><trkpt lat="41.430553983250356" lon="12.881021021981665"><ele>12.25</ele><time>2026-04-25T10:50:52.001Z</time></trkpt><trkpt lat="41.43068324639815" lon="12.881050860926479"><ele>12.5</ele><time>2026-04-25T10:50:53.001Z</time></trkpt><trkpt lat="41.43082117657969" lon="12.881084476117769"><ele>12.75</ele><time>2026-04-25T10:50:54.001Z</time></trkpt><trkpt lat="41.43094716288195" lon="12.881108743030335"><ele>13.0</ele><time>2026-04-25T10:50:55.001Z</time></trkpt><trkpt lat="41.43106333213638" lon="12.88112723013786"><ele>13.0</ele><time>2026-04-25T10:50:56.001Z</time></trkpt><trkpt lat="41.431173431873916" lon="12.881145272952491"><ele>13.0</ele><time>2026-04-25T10:50:57.001Z</time></trkpt><trkpt lat="41.43128175788118" lon="12.881163016329985"><ele>13.0</ele><time>2026-04-25T10:50:58.001Z</time></trkpt><trkpt lat="41.431392620818514" lon="12.881185620859764"><ele>13.0</ele><time>2026-04-25T10:50:59Z</time></trkpt><trkpt lat="41.43150694731516" lon="12.881213206758792"><ele>13.0</ele><time>2026-04-25T10:51:00Z</time></trkpt><trkpt lat="41.43162150237346" lon="12.881230812618854"><ele>12.25</ele><time>2026-04-25T10:51:01Z</time></trkpt><trkpt lat="41.431743125847035" lon="12.881255792043774"><ele>11.5</ele><time>2026-04-25T10:51:02Z</time></trkpt><trkpt lat="41.43186824164247" lon="12.881276819677792"><ele>10.75</ele><time>2026-04-25T10:51:03Z</time></trkpt><trkpt lat="41.43199071478731" lon="12.881298919329526"><ele>10.0</ele><time>2026-04-25T10:51:04Z</time></trkpt><trkpt lat="41.432114060747956" lon="12.881322863183815"><ele>9.75</ele><time>2026-04-25T10:51:05Z</time></trkpt><trkpt lat="41.432234623907725" lon="12.881345623850127"><ele>9.5</ele><time>2026-04-25T10:51:06Z</time></trkpt><trkpt lat="41.4323569617774" lon="12.881372888860598"><ele>9.25</ele><time>2026-04-25T10:51:07Z</time></trkpt><trkpt lat="41.43248466373447" lon="12.88139505286178"><ele>9.0</ele><time>2026-04-25T10:51:08Z</time></trkpt><trkpt lat="41.43261242479163" lon="12.881421541349116"><ele>9.0</ele><time>2026-04-25T10:51:09Z</time></trkpt><trkpt lat="41.43274711168777" lon="12.881452207934402"><ele>9.0</ele><time>2026-04-25T10:51:10Z</time></trkpt><trkpt lat="41.43290257346744" lon="12.88148364223579"><ele>9.0</ele><time>2026-04-25T10:51:11Z</time></trkpt><trkpt lat="41.43306614445194" lon="12.881506752903583"><ele>8.75</ele><time>2026-04-25T10:51:12Z</time></trkpt><trkpt lat="41.43322013622691" lon="12.881533706459011"><ele>8.5</ele><time>2026-04-25T10:51:13Z</time></trkpt><trkpt lat="41.433344061889144" lon="12.881563630675583"><ele>8.25</ele><time>2026-04-25T10:51:14Z</time></trkpt><trkpt lat="41.43344943455398" lon="12.881588651166572"><ele>8.0</ele><time>2026-04-25T10:51:15Z</time></trkpt><trkpt lat="41.43356443448156" lon="12.881616839772933"><ele>8.0</ele><time>2026-04-25T10:51:16Z</time></trkpt><trkpt lat="41.433686932407284" lon="12.881656495678468"><ele>8.0</ele><time>2026-04-25T10:51:17Z</time></trkpt><trkpt lat="41.433824242856836" lon="12.881690585294747"><ele>8.0</ele><time>2026-04-25T10:51:18Z</time></trkpt><trkpt lat="41.4339663745337" lon="12.881733320529985"><ele>8.0</ele><time>2026-04-25T10:51:19Z</time></trkpt><trkpt lat="41.434121475670295" lon="12.88178601735488"><ele>7.0</ele><time>2026-04-25T10:51:20Z</time></trkpt><trkpt lat="41.434273575166635" lon="12.881833157312773"><ele>6.0</ele><time>2026-04-25T10:51:21Z</time></trkpt><trkpt lat="41.43442683926761" lon="12.881882871802148"><ele>5.0</ele><time>2026-04-25T10:51:22Z</time></trkpt><trkpt lat="41.434573393485984" lon="12.881933922004794"><ele>4.75</ele><time>2026-04-25T10:51:23Z</time></trkpt><trkpt lat="41.43471384364952" lon="12.881982385237214"><ele>4.5</ele><time>2026-04-25T10:51:24Z</time></trkpt><trkpt lat="41.43484658278424" lon="12.882032076815344"><ele>4.25</ele><time>2026-04-25T10:51:25Z</time></trkpt><trkpt lat="41.43498452892208" lon="12.882080841415235"><ele>4.0</ele><time>2026-04-25T10:51:26Z</time></trkpt><trkpt lat="41.435124776219574" lon="12.88212837059041"><ele>4.0</ele><time>2026-04-25T10:51:27Z</time></trkpt><trkpt lat="41.43526938269087" lon="12.882180515302991"><ele>4.0</ele><time>2026-04-25T10:51:28Z</time></trkpt><trkpt lat="41.43540876399296" lon="12.882237231001117"><ele>4.0</ele><time>2026-04-25T10:51:29Z</time></trkpt><trkpt lat="41.43553947605205" lon="12.882293585270721"><ele>4.0</ele><time>2026-04-25T10:51:30Z</time></trkpt><trkpt lat="41.435661335668364" lon="12.88234663244244"><ele>4.4</ele><time>2026-04-25T10:51:31Z</time></trkpt><trkpt lat="41.43577093124783" lon="12.882392952993712"><ele>4.800000000000001</ele><time>2026-04-25T10:51:32Z</time></trkpt><trkpt lat="41.43587549839473" lon="12.882445187979656"><ele>5.199999999999999</ele><time>2026-04-25T10:51:33Z</time></trkpt><trkpt lat="41.43596562922202" lon="12.882491896436788"><ele>5.6</ele><time>2026-04-25T10:51:34Z</time></trkpt><trkpt lat="41.436050835902684" lon="12.882528950806217"><ele>6.0</ele><time>2026-04-25T10:51:35Z</time></trkpt><trkpt lat="41.436123730474534" lon="12.882565954479466"><ele>6.0</ele><time>2026-04-25T10:51:36Z</time></trkpt><trkpt lat="41.4361877124344" lon="12.882603380886037"><ele>6.0</ele><time>2026-04-25T10:51:37Z</time></trkpt><trkpt lat="41.436286832887234" lon="12.88265369379767"><ele>6.0</ele><time>2026-04-25T10:51:39Z</time></trkpt><trkpt lat="41.436269082487776" lon="12.882756419344885"><ele>6.0</ele><time>2026-04-25T10:51:42Z</time></trkpt><trkpt lat="41.436223389418316" lon="12.88283224188812"><ele>6.0</ele><time>2026-04-25T10:51:45Z</time></trkpt><trkpt lat="41.436081977379146" lon="12.88268024845228"><ele>5.999999999999999</ele><time>2026-04-25T10:51:47Z</time></trkpt><trkpt lat="41.43600634543838" lon="12.882636027374328"><ele>6.0</ele><time>2026-04-25T10:51:48Z</time></trkpt><trkpt lat="41.43592418661589" lon="12.882614708106177"><ele>6.0</ele><time>2026-04-25T10:51:49Z</time></trkpt><trkpt lat="41.435855117334484" lon="12.882594780348352"><ele>6.0</ele><time>2026-04-25T10:51:50Z</time></trkpt><trkpt lat="41.4357933341831" lon="12.882567342043663"><ele>6.0</ele><time>2026-04-25T10:51:51Z</time></trkpt><trkpt lat="41.43572318303568" lon="12.882542668612466"><ele>5.999999999999999</ele><time>2026-04-25T10:51:52Z</time></trkpt><trkpt lat="41.43565993672418" lon="12.882513980888291"><ele>6.0</ele><time>2026-04-25T10:51:53Z</time></trkpt><trkpt lat="41.43556225755768" lon="12.882472031019898"><ele>6.0</ele><time>2026-04-25T10:51:55Z</time></trkpt><trkpt lat="41.43549561547436" lon="12.882473009278533"><ele>6.0</ele><time>2026-04-25T10:51:57Z</time></trkpt><trkpt lat="41.43544811255314" lon="12.8825618423631"><ele>6.0</ele><time>2026-04-25T10:51:59Z</time></trkpt><trkpt lat="41.43538564080151" lon="12.882682221199234"><ele>6.0</ele><time>2026-04-25T10:52:01.001Z</time></trkpt><trkpt lat="41.43532546770442" lon="12.88280269387608"><ele>6.0</ele><time>2026-04-25T10:52:03.001Z</time></trkpt><trkpt lat="41.43527104201969" lon="12.88290488620201"><ele>5.6</ele><time>2026-04-25T10:52:05.001Z</time></trkpt><trkpt lat="41.435224619371255" lon="12.882984360447802"><ele>5.199999999999999</ele><time>2026-04-25T10:52:07.001Z</time></trkpt><trkpt lat="41.43518235238775" lon="12.883061179612238"><ele>4.800000000000001</ele><time>2026-04-25T10:52:09.001Z</time></trkpt><trkpt lat="41.43512947836154" lon="12.88311377996632"><ele>4.4</ele><time>2026-04-25T10:52:14.001Z</time></trkpt><trkpt lat="41.43521261085882" lon="12.883047206057395"><ele>4.0</ele><time>2026-04-25T10:53:00.001Z</time></trkpt><trkpt lat="41.435300969520505" lon="12.882863454265065"><ele>3.9999999999999996</ele><time>2026-04-25T10:53:02.001Z</time></trkpt><trkpt lat="41.43534118146521" lon="12.88277824575007"><ele>4.0</ele><time>2026-04-25T10:53:03.001Z</time></trkpt><trkpt lat="41.43538981213741" lon="12.882684483953625"><ele>4.0</ele><time>2026-04-25T10:53:04.001Z</time></trkpt><trkpt lat="41.4354367943427" lon="12.882588834491663"><ele>4.0</ele><time>2026-04-25T10:53:05.001Z</time></trkpt><trkpt lat="41.435467909631384" lon="12.882505098052162"><ele>3.9999999999999996</ele><time>2026-04-25T10:53:07Z</time></trkpt><trkpt lat="41.435568375845314" lon="12.88249601643711"><ele>4.0</ele><time>2026-04-25T10:53:10Z</time></trkpt><trkpt lat="41.43564261046894" lon="12.882541310162537"><ele>4.5</ele><time>2026-04-25T10:53:11Z</time></trkpt><trkpt lat="41.435767634875845" lon="12.882597889879076"><ele>5.0</ele><time>2026-04-25T10:53:12Z</time></trkpt><trkpt lat="41.435893817909765" lon="12.882647598166509"><ele>5.5</ele><time>2026-04-25T10:53:13Z</time></trkpt><trkpt lat="41.43599788149078" lon="12.882682979192197"><ele>6.0</ele><time>2026-04-25T10:53:14Z</time></trkpt><trkpt lat="41.436084520845355" lon="12.8827071934645"><ele>6.0</ele><time>2026-04-25T10:53:15Z</time></trkpt><trkpt lat="41.436176791404485" lon="12.882627214538665"><ele>6.0</ele><time>2026-04-25T10:53:16Z</time></trkpt><trkpt lat="41.43626242258859" lon="12.882665981853684"><ele>6.0</ele><time>2026-04-25T10:53:18Z</time></trkpt><trkpt lat="41.43618243633081" lon="12.882955198243641"><ele>6.0</ele><time>2026-04-25T10:54:01.001Z</time></trkpt><trkpt lat="41.43612719759123" lon="12.883041901750675"><ele>6.0</ele><time>2026-04-25T10:54:02.001Z</time></trkpt><trkpt lat="41.43609161164344" lon="12.883124931226673"><ele>6.0</ele><time>2026-04-25T10:54:03.001Z</time></trkpt><trkpt lat="41.43602326450353" lon="12.883191719215374"><ele>6.0</ele><time>2026-04-25T10:54:04.001Z</time></trkpt><trkpt lat="41.43595928378307" lon="12.883276139842698"><ele>6.0</ele><time>2026-04-25T10:54:05.001Z</time></trkpt><trkpt lat="41.43590801413954" lon="12.883361912398717"><ele>6.0</ele><time>2026-04-25T10:54:06.001Z</time></trkpt><trkpt lat="41.43586576787253" lon="12.883440889611949"><ele>6.0</ele><time>2026-04-25T10:54:07.001Z</time></trkpt><trkpt lat="41.435822508163334" lon="12.883524088614374"><ele>6.0</ele><time>2026-04-25T10:54:08.001Z</time></trkpt><trkpt lat="41.43577444085882" lon="12.883592860387377"><ele>6.0</ele><time>2026-04-25T10:54:09.001Z</time></trkpt><trkpt lat="41.43572052502474" lon="12.88366781683428"><ele>6.0</ele><time>2026-04-25T10:54:10.001Z</time></trkpt><trkpt lat="41.43566058046068" lon="12.883752491343829"><ele>6.0</ele><time>2026-04-25T10:54:11.001Z</time></trkpt><trkpt lat="41.43561038554162" lon="12.883849008010552"><ele>6.0</ele><time>2026-04-25T10:54:12.001Z</time></trkpt><trkpt lat="41.43555806249315" lon="12.883932622779335"><ele>6.0</ele><time>2026-04-25T10:54:13.001Z</time></trkpt><trkpt lat="41.43550666415476" lon="12.884014329871663"><ele>6.0</ele><time>2026-04-25T10:54:14.001Z</time></trkpt><trkpt lat="41.43545620089846" lon="12.884094249942015"><ele>6.0</ele><time>2026-04-25T10:54:15.001Z</time></trkpt><trkpt lat="41.435398715270665" lon="12.884178824406211"><ele>6.0</ele><time>2026-04-25T10:54:16.001Z</time></trkpt><trkpt lat="41.43534729823798" lon="12.884270880891401"><ele>6.0</ele><time>2026-04-25T10:54:17.001Z</time></trkpt><trkpt lat="41.43528868554731" lon="12.88436340266858"><ele>6.0</ele><time>2026-04-25T10:54:18.001Z</time></trkpt><trkpt lat="41.43522860015451" lon="12.884454652361836"><ele>6.0</ele><time>2026-04-25T10:54:19.001Z</time></trkpt><trkpt lat="41.43516965599013" lon="12.884551696348694"><ele>5.833333333333333</ele><time>2026-04-25T10:54:20.001Z</time></trkpt><trkpt lat="41.43510344082577" lon="12.884644871454915"><ele>5.666666666666667</ele><time>2026-04-25T10:54:21.001Z</time></trkpt><trkpt lat="41.43504295980391" lon="12.884731542604127"><ele>5.5</ele><time>2026-04-25T10:54:22.001Z</time></trkpt><trkpt lat="41.434986651584374" lon="12.884815740587863"><ele>5.333333333333334</ele><time>2026-04-25T10:54:23.001Z</time></trkpt><trkpt lat="41.43492795326651" lon="12.884901216135352"><ele>5.166666666666667</ele><time>2026-04-25T10:54:24.001Z</time></trkpt><trkpt lat="41.43487682978536" lon="12.884985949633206"><ele>5.0</ele><time>2026-04-25T10:54:25.001Z</time></trkpt><trkpt lat="41.43483537351452" lon="12.885071470770997"><ele>5.4</ele><time>2026-04-25T10:54:26.001Z</time></trkpt><trkpt lat="41.43479245806017" lon="12.885149477765605"><ele>5.8</ele><time>2026-04-25T10:54:27.001Z</time></trkpt><trkpt lat="41.434751621657746" lon="12.88521643325273"><ele>6.199999999999999</ele><time>2026-04-25T10:54:28.001Z</time></trkpt><trkpt lat="41.43467341375468" lon="12.885334478867444"><ele>6.6</ele><time>2026-04-25T10:54:30.001Z</time></trkpt><trkpt lat="41.43459575246254" lon="12.885449671425636"><ele>7.0</ele><time>2026-04-25T10:54:32.001Z</time></trkpt><trkpt lat="41.43452769440812" lon="12.885557151686497"><ele>7.000000000000001</ele><time>2026-04-25T10:54:34.001Z</time></trkpt><trkpt lat="41.43447043424999" lon="12.885651853855771"><ele>7.0</ele><time>2026-04-25T10:54:44.001Z</time></trkpt><trkpt lat="41.434398472685075" lon="12.88576847999267"><ele>7.0</ele><time>2026-04-25T10:54:46.001Z</time></trkpt><trkpt lat="41.434355951476654" lon="12.88584196094219"><ele>7.0</ele><time>2026-04-25T10:54:47.001Z</time></trkpt><trkpt lat="41.434314635359286" lon="12.885908682066617"><ele>7.000000000000001</ele><time>2026-04-25T10:54:48.001Z</time></trkpt><trkpt lat="41.434271945012334" lon="12.885972597255446"><ele>7.0</ele><time>2026-04-25T10:54:49.001Z</time></trkpt><trkpt lat="41.434223397866425" lon="12.886038723311177"><ele>7.000000000000001</ele><time>2026-04-25T10:54:50.001Z</time></trkpt><trkpt lat="41.43417440752154" lon="12.88610574919953"><ele>7.0</ele><time>2026-04-25T10:54:51.001Z</time></trkpt><trkpt lat="41.43412857245679" lon="12.886201437813634"><ele>7.0</ele><time>2026-04-25T10:54:52.001Z</time></trkpt><trkpt lat="41.434066305310964" lon="12.886268840041136"><ele>7.0</ele><time>2026-04-25T10:54:53.001Z</time></trkpt><trkpt lat="41.43401516104463" lon="12.886367652248152"><ele>7.000000000000001</ele><time>2026-04-25T10:54:54.001Z</time></trkpt><trkpt lat="41.433963750915495" lon="12.886463309581254"><ele>7.0</ele><time>2026-04-25T10:54:55.001Z</time></trkpt><trkpt lat="41.43390547352877" lon="12.886560205890882"><ele>7.000000000000001</ele><time>2026-04-25T10:54:56.001Z</time></trkpt><trkpt lat="41.43386221199262" lon="12.88663605525582"><ele>7.0</ele><time>2026-04-25T10:54:57.001Z</time></trkpt><trkpt lat="41.43381255867249" lon="12.886712495148513"><ele>7.0</ele><time>2026-04-25T10:54:58.001Z</time></trkpt><trkpt lat="41.433756669034025" lon="12.886799745359514"><ele>7.0</ele><time>2026-04-25T10:54:59.001Z</time></trkpt><trkpt lat="41.43369915382233" lon="12.886889460137066"><ele>7.000000000000001</ele><time>2026-04-25T10:55:00.001Z</time></trkpt><trkpt lat="41.43364749112523" lon="12.886971496146762"><ele>7.0</ele><time>2026-04-25T10:55:01.001Z</time></trkpt><trkpt lat="41.433603407417195" lon="12.887055720534057"><ele>7.0</ele><time>2026-04-25T10:55:02.001Z</time></trkpt><trkpt lat="41.433558012751185" lon="12.887128698081035"><ele>6.999999999999999</ele><time>2026-04-25T10:55:03.001Z</time></trkpt><trkpt lat="41.433478729541534" lon="12.88724915886969"><ele>6.999999999999999</ele><time>2026-04-25T10:55:05.001Z</time></trkpt><trkpt lat="41.43339735624442" lon="12.887377404212982"><ele>7.0</ele><time>2026-04-25T10:55:07.001Z</time></trkpt><trkpt lat="41.43331819280167" lon="12.887495920708929"><ele>7.0</ele><time>2026-04-25T10:55:09.001Z</time></trkpt><trkpt lat="41.43327883389663" lon="12.887572082734819"><ele>7.000000000000001</ele><time>2026-04-25T10:55:10.001Z</time></trkpt><trkpt lat="41.4332283988892" lon="12.887633764639943"><ele>7.0</ele><time>2026-04-25T10:55:11Z</time></trkpt><trkpt lat="41.433184179583634" lon="12.887717364347257"><ele>7.0</ele><time>2026-04-25T10:55:12Z</time></trkpt><trkpt lat="41.43312550414409" lon="12.887802889681993"><ele>7.0</ele><time>2026-04-25T10:55:13Z</time></trkpt><trkpt lat="41.433068767792" lon="12.887894977094446"><ele>7.000000000000001</ele><time>2026-04-25T10:55:14Z</time></trkpt><trkpt lat="41.43300683775199" lon="12.88800626362218"><ele>7.0</ele><time>2026-04-25T10:55:15Z</time></trkpt><trkpt lat="41.43294144456515" lon="12.88811236747408"><ele>7.0</ele><time>2026-04-25T10:55:16Z</time></trkpt><trkpt lat="41.43288363668142" lon="12.888214106257298"><ele>6.999999999999999</ele><time>2026-04-25T10:55:17Z</time></trkpt><trkpt lat="41.43283003810886" lon="12.888308812213312"><ele>6.999999999999999</ele><time>2026-04-25T10:55:18Z</time></trkpt><trkpt lat="41.43276399893763" lon="12.888410596034536"><ele>7.0</ele><time>2026-04-25T10:55:19Z</time></trkpt><trkpt lat="41.43270187546939" lon="12.888522608261571"><ele>7.0</ele><time>2026-04-25T10:55:20Z</time></trkpt><trkpt lat="41.43263757505913" lon="12.888631623170975"><ele>7.142857142857142</ele><time>2026-04-25T10:55:21Z</time></trkpt><trkpt lat="41.432584424686596" lon="12.888725539166868"><ele>7.285714285714286</ele><time>2026-04-25T10:55:22Z</time></trkpt><trkpt lat="41.432522303316794" lon="12.88879567663767"><ele>7.428571428571429</ele><time>2026-04-25T10:55:23Z</time></trkpt><trkpt lat="41.43248061498198" lon="12.88886598070843"><ele>7.571428571428571</ele><time>2026-04-25T10:55:24Z</time></trkpt><trkpt lat="41.43243536787896" lon="12.888938047770408"><ele>7.7142857142857135</ele><time>2026-04-25T10:55:25Z</time></trkpt><trkpt lat="41.432385208578495" lon="12.889009507930393"><ele>7.857142857142857</ele><time>2026-04-25T10:55:26Z</time></trkpt><trkpt lat="41.432342617710084" lon="12.889074352490711"><ele>8.0</ele><time>2026-04-25T10:55:27Z</time></trkpt><trkpt lat="41.43229052112359" lon="12.88916405490805"><ele>8.0</ele><time>2026-04-25T10:55:29Z</time></trkpt><trkpt lat="41.43223647791485" lon="12.889259874806639"><ele>8.0</ele><time>2026-04-25T10:55:32Z</time></trkpt><trkpt lat="41.43219529204328" lon="12.889335610638451"><ele>8.0</ele><time>2026-04-25T10:55:34Z</time></trkpt><trkpt lat="41.43214603469222" lon="12.889429149980412"><ele>8.0</ele><time>2026-04-25T10:55:36Z</time></trkpt><trkpt lat="41.43208541018658" lon="12.88952413868061"><ele>8.0</ele><time>2026-04-25T10:55:38Z</time></trkpt><trkpt lat="41.43200315616665" lon="12.889656626217358"><ele>7.833333333333333</ele><time>2026-04-25T10:55:40Z</time></trkpt><trkpt lat="41.431952944993206" lon="12.889738494073997"><ele>7.666666666666666</ele><time>2026-04-25T10:55:41Z</time></trkpt><trkpt lat="41.43189531753789" lon="12.889827689026514"><ele>7.5</ele><time>2026-04-25T10:55:42Z</time></trkpt><trkpt lat="41.43184026883483" lon="12.889912443526395"><ele>7.333333333333334</ele><time>2026-04-25T10:55:43Z</time></trkpt><trkpt lat="41.43178266692264" lon="12.889998735706799"><ele>7.166666666666667</ele><time>2026-04-25T10:55:44Z</time></trkpt><trkpt lat="41.43172869874172" lon="12.890086460193881"><ele>7.0</ele><time>2026-04-25T10:55:45Z</time></trkpt><trkpt lat="41.431681384548746" lon="12.890159916099606"><ele>6.833333333333334</ele><time>2026-04-25T10:55:46Z</time></trkpt><trkpt lat="41.43164067494085" lon="12.890245325515222"><ele>6.666666666666667</ele><time>2026-04-25T10:55:47Z</time></trkpt><trkpt lat="41.431601239184864" lon="12.890334098379508"><ele>6.5</ele><time>2026-04-25T10:55:48Z</time></trkpt><trkpt lat="41.4315644327221" lon="12.890418961768978"><ele>6.333333333333334</ele><time>2026-04-25T10:55:49Z</time></trkpt><trkpt lat="41.4315148033269" lon="12.890511875521996"><ele>6.166666666666667</ele><time>2026-04-25T10:55:50Z</time></trkpt><trkpt lat="41.43147418310555" lon="12.890623553493135"><ele>6.0</ele><time>2026-04-25T10:55:51Z</time></trkpt><trkpt lat="41.43143027307299" lon="12.890730191403822"><ele>6.0</ele><time>2026-04-25T10:55:52Z</time></trkpt><trkpt lat="41.43139003637072" lon="12.890830160948934"><ele>6.0</ele><time>2026-04-25T10:55:53Z</time></trkpt><trkpt lat="41.43135180098877" lon="12.89094467571997"><ele>6.0</ele><time>2026-04-25T10:55:54Z</time></trkpt><trkpt lat="41.43130881329276" lon="12.891052533640746"><ele>6.0</ele><time>2026-04-25T10:55:55Z</time></trkpt><trkpt lat="41.43126126988031" lon="12.891170955723002"><ele>6.0</ele><time>2026-04-25T10:55:56Z</time></trkpt><trkpt lat="41.43121873698069" lon="12.891297088867427"><ele>6.199999999999999</ele><time>2026-04-25T10:55:57Z</time></trkpt><trkpt lat="41.43117548227697" lon="12.891417867857346"><ele>6.3999999999999995</ele><time>2026-04-25T10:55:58Z</time></trkpt><trkpt lat="41.43112549240432" lon="12.891539116999839"><ele>6.6</ele><time>2026-04-25T10:55:59Z</time></trkpt><trkpt lat="41.431093264284456" lon="12.891633419358342"><ele>6.8</ele><time>2026-04-25T10:56:00Z</time></trkpt><trkpt lat="41.431043022273656" lon="12.891775643646067"><ele>7.0</ele><time>2026-04-25T10:56:02Z</time></trkpt><trkpt lat="41.430992610431844" lon="12.891918108150664"><ele>7.199999999999999</ele><time>2026-04-25T10:56:04Z</time></trkpt><trkpt lat="41.430953335777076" lon="12.892007124183873"><ele>7.3999999999999995</ele><time>2026-04-25T10:56:05Z</time></trkpt><trkpt lat="41.430914253738514" lon="12.892128990491836"><ele>7.6000000000000005</ele><time>2026-04-25T10:56:06Z</time></trkpt><trkpt lat="41.43087394778225" lon="12.892265213242203"><ele>7.800000000000001</ele><time>2026-04-25T10:56:07Z</time></trkpt><trkpt lat="41.43082554228641" lon="12.89239004185697"><ele>8.0</ele><time>2026-04-25T10:56:08Z</time></trkpt><trkpt lat="41.43078641945873" lon="12.892504179612391"><ele>8.200000000000001</ele><time>2026-04-25T10:56:09.001Z</time></trkpt><trkpt lat="41.430746452170084" lon="12.89261704975114"><ele>8.4</ele><time>2026-04-25T10:56:10.001Z</time></trkpt><trkpt lat="41.430701138218815" lon="12.892736034832149"><ele>8.600000000000001</ele><time>2026-04-25T10:56:11.001Z</time></trkpt><trkpt lat="41.43065746412201" lon="12.892856001717035"><ele>8.8</ele><time>2026-04-25T10:56:12.001Z</time></trkpt><trkpt lat="41.43061722799543" lon="12.892964041977121"><ele>9.0</ele><time>2026-04-25T10:56:13.001Z</time></trkpt><trkpt lat="41.43057560459333" lon="12.893067986275943"><ele>9.0</ele><time>2026-04-25T10:56:14.001Z</time></trkpt><trkpt lat="41.43053742196625" lon="12.893170813425428"><ele>9.0</ele><time>2026-04-25T10:56:15.001Z</time></trkpt><trkpt lat="41.430501814109626" lon="12.893276923834947"><ele>9.0</ele><time>2026-04-25T10:56:16.001Z</time></trkpt><trkpt lat="41.43046883927257" lon="12.893375536184648"><ele>9.0</ele><time>2026-04-25T10:56:17.001Z</time></trkpt><trkpt lat="41.43043300278428" lon="12.893472453208375"><ele>9.0</ele><time>2026-04-25T10:56:18.001Z</time></trkpt><trkpt lat="41.430408958823264" lon="12.893575501752768"><ele>9.0</ele><time>2026-04-25T10:56:19.001Z</time></trkpt><trkpt lat="41.43038586169009" lon="12.893685403761904"><ele>9.0</ele><time>2026-04-25T10:56:20.001Z</time></trkpt><trkpt lat="41.43036601670586" lon="12.89379283993282"><ele>9.0</ele><time>2026-04-25T10:56:21.001Z</time></trkpt><trkpt lat="41.43035568474888" lon="12.893895609429288"><ele>9.0</ele><time>2026-04-25T10:56:22.001Z</time></trkpt><trkpt lat="41.43035090722899" lon="12.893979729611836"><ele>9.0</ele><time>2026-04-25T10:56:23.001Z</time></trkpt><trkpt lat="41.43034043536633" lon="12.894125515366612"><ele>9.0</ele><time>2026-04-25T10:56:25.001Z</time></trkpt><trkpt lat="41.43034220763665" lon="12.89423680054321"><ele>9.0</ele><time>2026-04-25T10:56:27.001Z</time></trkpt><trkpt lat="41.43032272092706" lon="12.894331958453167"><ele>9.0</ele><time>2026-04-25T10:56:29.001Z</time></trkpt><trkpt lat="41.43030494728727" lon="12.894455147457153"><ele>9.0</ele><time>2026-04-25T10:56:44.001Z</time></trkpt><trkpt lat="41.43029546879557" lon="12.894555177311792"><ele>9.0</ele><time>2026-04-25T10:56:45.001Z</time></trkpt><trkpt lat="41.430288480374784" lon="12.894696831486288"><ele>9.0</ele><time>2026-04-25T10:56:46.001Z</time></trkpt><trkpt lat="41.43025831875683" lon="12.894870228951474"><ele>9.0</ele><time>2026-04-25T10:56:47.001Z</time></trkpt><trkpt lat="41.43024588310574" lon="12.895043411101916"><ele>8.4</ele><time>2026-04-25T10:56:48.001Z</time></trkpt><trkpt lat="41.43023628405808" lon="12.895173611138201"><ele>7.800000000000001</ele><time>2026-04-25T10:56:49.001Z</time></trkpt><trkpt lat="41.430241238028024" lon="12.895284776939885"><ele>7.199999999999999</ele><time>2026-04-25T10:56:50.001Z</time></trkpt><trkpt lat="41.43020917541736" lon="12.89541640962882"><ele>6.6</ele><time>2026-04-25T10:56:52.001Z</time></trkpt><trkpt lat="41.43011522605502" lon="12.895498301506546"><ele>6.0</ele><time>2026-04-25T10:56:54.001Z</time></trkpt><trkpt lat="41.430033253551585" lon="12.895480783537533"><ele>6.0</ele><time>2026-04-25T10:56:55.001Z</time></trkpt><trkpt lat="41.429939110514006" lon="12.895431657296099"><ele>6.0</ele><time>2026-04-25T10:56:56.001Z</time></trkpt><trkpt lat="41.42984275354108" lon="12.895369301450609"><ele>6.0</ele><time>2026-04-25T10:56:57.001Z</time></trkpt><trkpt lat="41.42974305642969" lon="12.895307994545334"><ele>6.0</ele><time>2026-04-25T10:56:58.001Z</time></trkpt><trkpt lat="41.42965256173267" lon="12.895254857628776"><ele>6.0</ele><time>2026-04-25T10:56:59.001Z</time></trkpt><trkpt lat="41.42956241482289" lon="12.895208374955022"><ele>5.5</ele><time>2026-04-25T10:57:00.001Z</time></trkpt><trkpt lat="41.42945345552311" lon="12.895155230260123"><ele>5.0</ele><time>2026-04-25T10:57:01.001Z</time></trkpt><trkpt lat="41.42934215257671" lon="12.89508292613565"><ele>4.5</ele><time>2026-04-25T10:57:02.001Z</time></trkpt><trkpt lat="41.42924058099605" lon="12.895025235178716"><ele>4.0</ele><time>2026-04-25T10:57:03.001Z</time></trkpt><trkpt lat="41.429131506544316" lon="12.894961335588858"><ele>4.5</ele><time>2026-04-25T10:57:04.001Z</time></trkpt><trkpt lat="41.42902044313167" lon="12.894902681933791"><ele>5.0</ele><time>2026-04-25T10:57:05.001Z</time></trkpt><trkpt lat="41.42890347687484" lon="12.894843236067455"><ele>5.5</ele><time>2026-04-25T10:57:06.001Z</time></trkpt><trkpt lat="41.42879337110899" lon="12.894776762038699"><ele>6.0</ele><time>2026-04-25T10:57:07.001Z</time></trkpt><trkpt lat="41.428699764056624" lon="12.89472352511621"><ele>6.0</ele><time>2026-04-25T10:57:08.001Z</time></trkpt><trkpt lat="41.42861157970342" lon="12.894676855912394"><ele>6.0</ele><time>2026-04-25T10:57:09.001Z</time></trkpt><trkpt lat="41.428525130370346" lon="12.894618939513586"><ele>6.0</ele><time>2026-04-25T10:57:10.001Z</time></trkpt><trkpt lat="41.428438773194785" lon="12.894574684763036"><ele>6.0</ele><time>2026-04-25T10:57:11.001Z</time></trkpt><trkpt lat="41.428369969724955" lon="12.894541712502669"><ele>6.0</ele><time>2026-04-25T10:57:12.001Z</time></trkpt><trkpt lat="41.42830640708508" lon="12.894498129886285"><ele>6.0</ele><time>2026-04-25T10:57:13.001Z</time></trkpt><trkpt lat="41.42824139088796" lon="12.894463458396572"><ele>6.0</ele><time>2026-04-25T10:57:14.001Z</time></trkpt><trkpt lat="41.42814493713196" lon="12.894415155925806"><ele>6.0</ele><time>2026-04-25T10:57:16.001Z</time></trkpt><trkpt lat="41.42804788179265" lon="12.894374254786987"><ele>6.0</ele><time>2026-04-25T10:57:18Z</time></trkpt><trkpt lat="41.42795117820453" lon="12.894336955942233"><ele>6.0</ele><time>2026-04-25T10:57:20Z</time></trkpt><trkpt lat="41.42786937049061" lon="12.894353427168735"><ele>6.0</ele><time>2026-04-25T10:57:22Z</time></trkpt><trkpt lat="41.427813500218804" lon="12.894459165262502"><ele>5.8</ele><time>2026-04-25T10:57:24Z</time></trkpt><trkpt lat="41.4278485332662" lon="12.894602134395024"><ele>5.6</ele><time>2026-04-25T10:57:26Z</time></trkpt><trkpt lat="41.427865202461895" lon="12.894765011560652"><ele>5.4</ele><time>2026-04-25T10:57:28Z</time></trkpt><trkpt lat="41.42787164394894" lon="12.894857538904327"><ele>5.2</ele><time>2026-04-25T10:57:29Z</time></trkpt><trkpt lat="41.427881191490954" lon="12.895018320270955"><ele>5.0</ele><time>2026-04-25T10:57:31Z</time></trkpt><trkpt lat="41.42789897653322" lon="12.895103415311782"><ele>4.666666666666667</ele><time>2026-04-25T10:57:32Z</time></trkpt><trkpt lat="41.42789869483322" lon="12.895239623118306"><ele>4.333333333333334</ele><time>2026-04-25T10:57:34Z</time></trkpt><trkpt lat="41.42788697284914" lon="12.895368334068"><ele>4.0</ele><time>2026-04-25T10:57:36Z</time></trkpt><trkpt lat="41.427882543750094" lon="12.895481928007122"><ele>3.666666666666667</ele><time>2026-04-25T10:57:38Z</time></trkpt><trkpt lat="41.42783351922437" lon="12.895551575905106"><ele>3.3333333333333335</ele><time>2026-04-25T10:57:41Z</time></trkpt><trkpt lat="41.42776129189658" lon="12.895562436540612"><ele>3.0</ele><time>2026-04-25T10:57:43Z</time></trkpt><trkpt lat="41.42764673555993" lon="12.89546275538014"><ele>3.0</ele><time>2026-04-25T10:57:45Z</time></trkpt><trkpt lat="41.42757032745264" lon="12.895422050867793"><ele>3.0</ele><time>2026-04-25T10:57:46Z</time></trkpt><trkpt lat="41.42748798436224" lon="12.895392301310297"><ele>3.0</ele><time>2026-04-25T10:57:47Z</time></trkpt><trkpt lat="41.42741862145512" lon="12.895376051416417"><ele>3.0</ele><time>2026-04-25T10:57:48Z</time></trkpt><trkpt lat="41.427341382037866" lon="12.89536159352727"><ele>3.0</ele><time>2026-04-25T10:57:49Z</time></trkpt><trkpt lat="41.427274698015076" lon="12.89535520056636"><ele>3.0</ele><time>2026-04-25T10:57:50Z</time></trkpt><trkpt lat="41.427201217715734" lon="12.89535385682276"><ele>2.6666666666666665</ele><time>2026-04-25T10:57:51Z</time></trkpt><trkpt lat="41.427130268561804" lon="12.895355317275838"><ele>2.3333333333333335</ele><time>2026-04-25T10:57:52Z</time></trkpt><trkpt lat="41.427067218932955" lon="12.89535995857231"><ele>2.0</ele><time>2026-04-25T10:57:53Z</time></trkpt><trkpt lat="41.42700681389135" lon="12.895389529991325"><ele>1.6666666666666665</ele><time>2026-04-25T10:57:55Z</time></trkpt><trkpt lat="41.42694090974926" lon="12.895410071904164"><ele>1.3333333333333333</ele><time>2026-04-25T10:57:59Z</time></trkpt><trkpt lat="41.42691488978056" lon="12.895507883521793"><ele>1.0</ele><time>2026-04-25T10:58:01Z</time></trkpt><trkpt lat="41.42692745711248" lon="12.895690660895129"><ele>0.9999999999999999</ele><time>2026-04-25T10:58:03Z</time></trkpt><trkpt lat="41.426935453365864" lon="12.89578865006109"><ele>1.0</ele><time>2026-04-25T10:58:04Z</time></trkpt><trkpt lat="41.42696128818827" lon="12.895920577721643"><ele>1.0</ele><time>2026-04-25T10:58:05Z</time></trkpt><trkpt lat="41.426952911999514" lon="12.896034230371406"><ele>1.0</ele><time>2026-04-25T10:58:06Z</time></trkpt><trkpt lat="41.42696167321393" lon="12.896141346421746"><ele>0.9999999999999999</ele><time>2026-04-25T10:58:07Z</time></trkpt><trkpt lat="41.426964477288664" lon="12.896255297700005"><ele>1.0</ele><time>2026-04-25T10:58:08Z</time></trkpt><trkpt lat="41.42696132754351" lon="12.896361290681542"><ele>1.2000000000000002</ele><time>2026-04-25T10:58:09Z</time></trkpt><trkpt lat="41.426941525479954" lon="12.896472849133726"><ele>1.4000000000000001</ele><time>2026-04-25T10:58:10Z</time></trkpt><trkpt lat="41.42692434605591" lon="12.896603045321383"><ele>1.6</ele><time>2026-04-25T10:58:11Z</time></trkpt><trkpt lat="41.42690245120598" lon="12.896732367277318"><ele>1.8</ele><time>2026-04-25T10:58:12Z</time></trkpt><trkpt lat="41.426871428407146" lon="12.896865955207517"><ele>2.0</ele><time>2026-04-25T10:58:13Z</time></trkpt><trkpt lat="41.42683857558109" lon="12.896998125615907"><ele>2.5</ele><time>2026-04-25T10:58:14Z</time></trkpt><trkpt lat="41.426803349489745" lon="12.897140406016861"><ele>3.0</ele><time>2026-04-25T10:58:15Z</time></trkpt><trkpt lat="41.42676296001002" lon="12.897303541605803"><ele>3.5</ele><time>2026-04-25T10:58:16Z</time></trkpt><trkpt lat="41.426722133143926" lon="12.89746844394118"><ele>4.0</ele><time>2026-04-25T10:58:17Z</time></trkpt><trkpt lat="41.426702574800835" lon="12.897604903853273"><ele>3.9999999999999996</ele><time>2026-04-25T10:58:18Z</time></trkpt><trkpt lat="41.4266676550726" lon="12.897723747604934"><ele>4.0</ele><time>2026-04-25T10:58:19Z</time></trkpt><trkpt lat="41.426639504398764" lon="12.897853591424976"><ele>4.0</ele><time>2026-04-25T10:58:20Z</time></trkpt><trkpt lat="41.42660596586992" lon="12.897971080958039"><ele>4.0</ele><time>2026-04-25T10:58:21Z</time></trkpt><trkpt lat="41.426581332632544" lon="12.898071195882217"><ele>3.9999999999999996</ele><time>2026-04-25T10:58:22Z</time></trkpt><trkpt lat="41.42654008371828" lon="12.898136150613672"><ele>4.0</ele><time>2026-04-25T10:58:23Z</time></trkpt><trkpt lat="41.42646394057069" lon="12.898247596468561"><ele>4.0</ele><time>2026-04-25T10:58:25Z</time></trkpt><trkpt lat="41.426391309015806" lon="12.898326583307345"><ele>4.0</ele><time>2026-04-25T10:58:26Z</time></trkpt><trkpt lat="41.42631145368184" lon="12.898408050625726"><ele>4.0</ele><time>2026-04-25T10:58:27Z</time></trkpt><trkpt lat="41.426227983118" lon="12.898492877617086"><ele>4.0</ele><time>2026-04-25T10:58:28Z</time></trkpt><trkpt lat="41.42615529144317" lon="12.898564815270644"><ele>4.0</ele><time>2026-04-25T10:58:29Z</time></trkpt><trkpt lat="41.42609468148907" lon="12.898628397446531"><ele>4.2</ele><time>2026-04-25T10:58:30Z</time></trkpt><trkpt lat="41.42604246407901" lon="12.8986836633853"><ele>4.4</ele><time>2026-04-25T10:58:31Z</time></trkpt><trkpt lat="41.425956556314084" lon="12.898799618691093"><ele>4.6</ele><time>2026-04-25T10:58:33Z</time></trkpt><trkpt lat="41.42588325867127" lon="12.898902646136962"><ele>4.8</ele><time>2026-04-25T10:58:35Z</time></trkpt><trkpt lat="41.425829058762105" lon="12.8990511670462"><ele>5.0</ele><time>2026-04-25T10:58:37Z</time></trkpt><trkpt lat="41.425792230319686" lon="12.89913160191635"><ele>5.0</ele><time>2026-04-25T10:58:38Z</time></trkpt><trkpt lat="41.42573636252142" lon="12.899218729608267"><ele>5.0</ele><time>2026-04-25T10:58:39Z</time></trkpt><trkpt lat="41.42568492847592" lon="12.899333301648499"><ele>5.0</ele><time>2026-04-25T10:58:40Z</time></trkpt><trkpt lat="41.425632631726636" lon="12.899451855243042"><ele>5.0</ele><time>2026-04-25T10:58:41Z</time></trkpt><trkpt lat="41.42558475277785" lon="12.899566048711117"><ele>5.0</ele><time>2026-04-25T10:58:42Z</time></trkpt><trkpt lat="41.42554153823475" lon="12.899666568884031"><ele>5.0</ele><time>2026-04-25T10:58:43Z</time></trkpt><trkpt lat="41.4254962740256" lon="12.899764799410114"><ele>5.0</ele><time>2026-04-25T10:58:44Z</time></trkpt><trkpt lat="41.42544535950343" lon="12.899859042016224"><ele>5.0</ele><time>2026-04-25T10:58:45Z</time></trkpt><trkpt lat="41.42539901297325" lon="12.899955276664507"><ele>5.0</ele><time>2026-04-25T10:58:46Z</time></trkpt><trkpt lat="41.42535499212999" lon="12.900041979883051"><ele>5.0</ele><time>2026-04-25T10:58:47Z</time></trkpt><trkpt lat="41.42531590912635" lon="12.900118863518685"><ele>5.0</ele><time>2026-04-25T10:58:48Z</time></trkpt><trkpt lat="41.42524169779268" lon="12.900243049822597"><ele>5.0</ele><time>2026-04-25T10:58:50.001Z</time></trkpt><trkpt lat="41.42514376599555" lon="12.900325131991128"><ele>5.0</ele><time>2026-04-25T10:58:52.001Z</time></trkpt><trkpt lat="41.42507929618976" lon="12.900370857321722"><ele>5.0</ele><time>2026-04-25T10:58:53.001Z</time></trkpt><trkpt lat="41.42500436604536" lon="12.900411634383424"><ele>5.0</ele><time>2026-04-25T10:58:54.001Z</time></trkpt><trkpt lat="41.4249263498244" lon="12.900436356984486"><ele>5.0</ele><time>2026-04-25T10:58:55.001Z</time></trkpt><trkpt lat="41.42482547012497" lon="12.900453002002822"><ele>5.0</ele><time>2026-04-25T10:58:56.001Z</time></trkpt><trkpt lat="41.42472037822464" lon="12.900466233124314"><ele>5.0</ele><time>2026-04-25T10:58:57.001Z</time></trkpt><trkpt lat="41.42462750590799" lon="12.900477556607434"><ele>5.0</ele><time>2026-04-25T10:58:58.001Z</time></trkpt><trkpt lat="41.4245479227234" lon="12.900487199939784"><ele>5.0</ele><time>2026-04-25T10:58:59.001Z</time></trkpt><trkpt lat="41.424472117180365" lon="12.900502938890428"><ele>5.0</ele><time>2026-04-25T10:59:00.001Z</time></trkpt><trkpt lat="41.42439367588908" lon="12.900534183046098"><ele>5.0</ele><time>2026-04-25T10:59:01.001Z</time></trkpt><trkpt lat="41.42431814597407" lon="12.90057124046416"><ele>5.0</ele><time>2026-04-25T10:59:02.001Z</time></trkpt><trkpt lat="41.424245219162955" lon="12.90059803825589"><ele>5.0</ele><time>2026-04-25T10:59:03.001Z</time></trkpt><trkpt lat="41.42419356693183" lon="12.900671764451248"><ele>5.0</ele><time>2026-04-25T10:59:04.001Z</time></trkpt><trkpt lat="41.424142522940876" lon="12.900733719085649"><ele>5.0</ele><time>2026-04-25T10:59:05.001Z</time></trkpt><trkpt lat="41.42408799022212" lon="12.900816947008531"><ele>5.0</ele><time>2026-04-25T10:59:06.001Z</time></trkpt><trkpt lat="41.424034026054" lon="12.90091031552006"><ele>5.0</ele><time>2026-04-25T10:59:07.001Z</time></trkpt><trkpt lat="41.42396103789581" lon="12.901039022742902"><ele>5.25</ele><time>2026-04-25T10:59:08.001Z</time></trkpt><trkpt lat="41.42388859888004" lon="12.901179486916615"><ele>5.5</ele><time>2026-04-25T10:59:09.001Z</time></trkpt><trkpt lat="41.42381115542494" lon="12.90131007083794"><ele>5.75</ele><time>2026-04-25T10:59:10.001Z</time></trkpt><trkpt lat="41.42372916857313" lon="12.901420641039074"><ele>6.0</ele><time>2026-04-25T10:59:11.001Z</time></trkpt><trkpt lat="41.42366968232153" lon="12.901529170076088"><ele>5.3999999999999995</ele><time>2026-04-25T10:59:12.001Z</time></trkpt><trkpt lat="41.423603346539736" lon="12.901648346976522"><ele>4.8</ele><time>2026-04-25T10:59:13.001Z</time></trkpt><trkpt lat="41.423546750634664" lon="12.901752544922575"><ele>4.199999999999999</ele><time>2026-04-25T10:59:14.001Z</time></trkpt><trkpt lat="41.42348523593801" lon="12.901851787236962"><ele>3.5999999999999996</ele><time>2026-04-25T10:59:15.001Z</time></trkpt><trkpt lat="41.42342702082353" lon="12.901948995695687"><ele>3.0</ele><time>2026-04-25T10:59:16.001Z</time></trkpt><trkpt lat="41.423381013273946" lon="12.902031267013724"><ele>3.0</ele><time>2026-04-25T10:59:17.001Z</time></trkpt><trkpt lat="41.42333117179594" lon="12.902092028891643"><ele>3.0</ele><time>2026-04-25T10:59:18.001Z</time></trkpt><trkpt lat="41.423282209354376" lon="12.902158032849892"><ele>3.0</ele><time>2026-04-25T10:59:19.001Z</time></trkpt><trkpt lat="41.42319906124013" lon="12.902276871733823"><ele>3.0</ele><time>2026-04-25T10:59:21.001Z</time></trkpt><trkpt lat="41.4231435639198" lon="12.902354611552738"><ele>3.0</ele><time>2026-04-25T10:59:22.001Z</time></trkpt><trkpt lat="41.42308634509562" lon="12.902439071584721"><ele>3.0</ele><time>2026-04-25T10:59:23Z</time></trkpt><trkpt lat="41.423042804190416" lon="12.902529559075232"><ele>3.3333333333333335</ele><time>2026-04-25T10:59:24Z</time></trkpt><trkpt lat="41.422993883667125" lon="12.90260980960887"><ele>3.666666666666667</ele><time>2026-04-25T10:59:25Z</time></trkpt><trkpt lat="41.42293366712936" lon="12.90268003264122"><ele>4.0</ele><time>2026-04-25T10:59:26Z</time></trkpt><trkpt lat="41.42286878467976" lon="12.90275404220683"><ele>4.333333333333334</ele><time>2026-04-25T10:59:27Z</time></trkpt><trkpt lat="41.42281161869193" lon="12.902835623813088"><ele>4.666666666666667</ele><time>2026-04-25T10:59:28Z</time></trkpt><trkpt lat="41.422764143724685" lon="12.902900564138195"><ele>5.0</ele><time>2026-04-25T10:59:29Z</time></trkpt><trkpt lat="41.422711484031694" lon="12.902981685992525"><ele>5.0</ele><time>2026-04-25T10:59:30Z</time></trkpt><trkpt lat="41.422655509068214" lon="12.903071667578425"><ele>5.0</ele><time>2026-04-25T10:59:31Z</time></trkpt><trkpt lat="41.42259955157031" lon="12.903152069516977"><ele>5.0</ele><time>2026-04-25T10:59:32Z</time></trkpt><trkpt lat="41.42254020783164" lon="12.903219053246454"><ele>5.0</ele><time>2026-04-25T10:59:33Z</time></trkpt><trkpt lat="41.42247777921761" lon="12.903293533136726"><ele>5.0</ele><time>2026-04-25T10:59:34Z</time></trkpt><trkpt lat="41.42240355117736" lon="12.903334846039643"><ele>5.0</ele><time>2026-04-25T10:59:35Z</time></trkpt><trkpt lat="41.42233604820568" lon="12.903375487671424"><ele>5.2</ele><time>2026-04-25T10:59:36Z</time></trkpt><trkpt lat="41.42227128675704" lon="12.903414287262601"><ele>5.4</ele><time>2026-04-25T10:59:37Z</time></trkpt><trkpt lat="41.42218408523187" lon="12.903460956805086"><ele>5.6</ele><time>2026-04-25T10:59:38Z</time></trkpt><trkpt lat="41.42208951117137" lon="12.903507902708297"><ele>5.8</ele><time>2026-04-25T10:59:39Z</time></trkpt><trkpt lat="41.421983058096195" lon="12.903556514300705"><ele>6.0</ele><time>2026-04-25T10:59:40Z</time></trkpt><trkpt lat="41.421883498818396" lon="12.903612413616584"><ele>5.6</ele><time>2026-04-25T10:59:41Z</time></trkpt><trkpt lat="41.421789174051035" lon="12.903655571280675"><ele>5.199999999999999</ele><time>2026-04-25T10:59:42Z</time></trkpt><trkpt lat="41.42169555077146" lon="12.903699819314761"><ele>4.800000000000001</ele><time>2026-04-25T10:59:43Z</time></trkpt><trkpt lat="41.42160611194935" lon="12.903742702165495"><ele>4.4</ele><time>2026-04-25T10:59:44Z</time></trkpt><trkpt lat="41.421529255290984" lon="12.903775261048537"><ele>4.0</ele><time>2026-04-25T10:59:45Z</time></trkpt><trkpt lat="41.42145813281209" lon="12.903806541918824"><ele>4.0</ele><time>2026-04-25T10:59:46Z</time></trkpt><trkpt lat="41.42139222450181" lon="12.90384585283729"><ele>4.0</ele><time>2026-04-25T10:59:47Z</time></trkpt><trkpt lat="41.421288672200625" lon="12.903906958214298"><ele>4.0</ele><time>2026-04-25T10:59:49Z</time></trkpt><trkpt lat="41.42119017459638" lon="12.90399325483818"><ele>4.0</ele><time>2026-04-25T10:59:51Z</time></trkpt><trkpt lat="41.421138480216065" lon="12.904049329585915"><ele>4.0</ele><time>2026-04-25T10:59:52Z</time></trkpt><trkpt lat="41.42106804553855" lon="12.904128900242847"><ele>3.833333333333333</ele><time>2026-04-25T10:59:53Z</time></trkpt><trkpt lat="41.42099968035123" lon="12.904213775358164"><ele>3.6666666666666665</ele><time>2026-04-25T10:59:54Z</time></trkpt><trkpt lat="41.42093604980116" lon="12.904299469469876"><ele>3.5</ele><time>2026-04-25T10:59:55Z</time></trkpt><trkpt lat="41.42087741363388" lon="12.904380804177238"><ele>3.333333333333333</ele><time>2026-04-25T10:59:56Z</time></trkpt><trkpt lat="41.42081611450831" lon="12.904450984255089"><ele>3.1666666666666665</ele><time>2026-04-25T10:59:57Z</time></trkpt><trkpt lat="41.420755223709236" lon="12.904522810108007"><ele>3.0</ele><time>2026-04-25T10:59:58Z</time></trkpt><trkpt lat="41.420686268104625" lon="12.904578955552815"><ele>3.0</ele><time>2026-04-25T10:59:59Z</time></trkpt><trkpt lat="41.420618962203015" lon="12.90466437918271"><ele>3.0</ele><time>2026-04-25T11:00:00Z</time></trkpt><trkpt lat="41.42055403605567" lon="12.904733236533351"><ele>3.0</ele><time>2026-04-25T11:00:01Z</time></trkpt><trkpt lat="41.420485562160906" lon="12.904808519017218"><ele>3.0</ele><time>2026-04-25T11:00:02Z</time></trkpt><trkpt lat="41.42042826754677" lon="12.904872800147315"><ele>3.0</ele><time>2026-04-25T11:00:03Z</time></trkpt><trkpt lat="41.42036843278659" lon="12.904949254116183"><ele>3.0</ele><time>2026-04-25T11:00:05Z</time></trkpt><trkpt lat="41.42031831240521" lon="12.905016231802511"><ele>3.1666666666666665</ele><time>2026-04-25T11:00:08Z</time></trkpt><trkpt lat="41.420254523090215" lon="12.90509653644124"><ele>3.333333333333333</ele><time>2026-04-25T11:00:11Z</time></trkpt><trkpt lat="41.4201949498278" lon="12.905129723601641"><ele>3.5</ele><time>2026-04-25T11:00:15Z</time></trkpt><trkpt lat="41.42012441210384" lon="12.905190293148333"><ele>3.6666666666666665</ele><time>2026-04-25T11:01:39Z</time></trkpt><trkpt lat="41.42004216235139" lon="12.905259614080501"><ele>3.833333333333333</ele><time>2026-04-25T11:01:41Z</time></trkpt><trkpt lat="41.41993649476181" lon="12.905274523639886"><ele>4.0</ele><time>2026-04-25T11:01:43Z</time></trkpt><trkpt lat="41.419865793254566" lon="12.90528915639208"><ele>4.0</ele><time>2026-04-25T11:01:44Z</time></trkpt><trkpt lat="41.41979328791284" lon="12.905297276955519"><ele>4.0</ele><time>2026-04-25T11:01:45Z</time></trkpt><trkpt lat="41.419683466478695" lon="12.905305350204907"><ele>4.0</ele><time>2026-04-25T11:01:47Z</time></trkpt><trkpt lat="41.419589011229995" lon="12.905307659933982"><ele>4.0</ele><time>2026-04-25T11:01:49Z</time></trkpt><trkpt lat="41.419472281125586" lon="12.905309139101584"><ele>4.0</ele><time>2026-04-25T11:01:51Z</time></trkpt><trkpt lat="41.41940406621678" lon="12.905281323419176"><ele>3.833333333333333</ele><time>2026-04-25T11:01:52Z</time></trkpt><trkpt lat="41.41933731419679" lon="12.905227521885248"><ele>3.6666666666666665</ele><time>2026-04-25T11:01:53Z</time></trkpt><trkpt lat="41.41927668714407" lon="12.905160600052051"><ele>3.5</ele><time>2026-04-25T11:01:54Z</time></trkpt><trkpt lat="41.419213937270676" lon="12.905085687246014"><ele>3.333333333333333</ele><time>2026-04-25T11:01:55Z</time></trkpt><trkpt lat="41.41915302947239" lon="12.905008586823255"><ele>3.1666666666666665</ele><time>2026-04-25T11:01:56Z</time></trkpt><trkpt lat="41.41908881691513" lon="12.904932057809878"><ele>3.0</ele><time>2026-04-25T11:01:57Z</time></trkpt><trkpt lat="41.41903464660693" lon="12.904832073099708"><ele>2.8333333333333335</ele><time>2026-04-25T11:01:58Z</time></trkpt><trkpt lat="41.41897528150495" lon="12.904746044158452"><ele>2.6666666666666665</ele><time>2026-04-25T11:01:59Z</time></trkpt><trkpt lat="41.41891822094793" lon="12.904662581084823"><ele>2.5</ele><time>2026-04-25T11:02:00Z</time></trkpt><trkpt lat="41.41886430653094" lon="12.904584638056539"><ele>2.333333333333333</ele><time>2026-04-25T11:02:01Z</time></trkpt><trkpt lat="41.418812123594996" lon="12.904509002557097"><ele>2.1666666666666665</ele><time>2026-04-25T11:02:02Z</time></trkpt><trkpt lat="41.41875586740547" lon="12.904434735859349"><ele>2.0</ele><time>2026-04-25T11:02:03Z</time></trkpt><trkpt lat="41.418695587431245" lon="12.904358886819624"><ele>3.0</ele><time>2026-04-25T11:02:04Z</time></trkpt><trkpt lat="41.4186295853062" lon="12.904289234890413"><ele>4.0</ele><time>2026-04-25T11:02:05Z</time></trkpt><trkpt lat="41.41855312382214" lon="12.904215681666205"><ele>5.0</ele><time>2026-04-25T11:02:06Z</time></trkpt><trkpt lat="41.418490061224254" lon="12.90414061568072"><ele>6.0</ele><time>2026-04-25T11:02:07Z</time></trkpt><trkpt lat="41.41842846696123" lon="12.90409019339585"><ele>6.999999999999999</ele><time>2026-04-25T11:02:08Z</time></trkpt><trkpt lat="41.418333967249744" lon="12.904065569590411"><ele>8.0</ele><time>2026-04-25T11:02:10Z</time></trkpt><trkpt lat="41.41827176882864" lon="12.904081595010924"><ele>8.0</ele><time>2026-04-25T11:02:12Z</time></trkpt><trkpt lat="41.418209266610795" lon="12.90412596398206"><ele>8.0</ele><time>2026-04-25T11:02:19Z</time></trkpt><trkpt lat="41.41812523955271" lon="12.904165982385155"><ele>8.0</ele><time>2026-04-25T11:02:22Z</time></trkpt><trkpt lat="41.41805187587268" lon="12.90420533646374"><ele>8.0</ele><time>2026-04-25T11:02:24Z</time></trkpt><trkpt lat="41.418074569411225" lon="12.904429551920435"><ele>8.0</ele><time>2026-04-25T11:02:25Z</time></trkpt><trkpt lat="41.41802577060707" lon="12.904531050089362"><ele>8.600000000000001</ele><time>2026-04-25T11:02:27Z</time></trkpt><trkpt lat="41.41797873800565" lon="12.904629516546985"><ele>9.200000000000001</ele><time>2026-04-25T11:02:29Z</time></trkpt><trkpt lat="41.41792791585085" lon="12.904722722505614"><ele>9.8</ele><time>2026-04-25T11:02:31Z</time></trkpt><trkpt lat="41.41787684919466" lon="12.90482467713729"><ele>10.4</ele><time>2026-04-25T11:02:33Z</time></trkpt><trkpt lat="41.41782152728985" lon="12.904924205678832"><ele>11.0</ele><time>2026-04-25T11:02:35Z</time></trkpt><trkpt lat="41.417756361101354" lon="12.905039530864096"><ele>10.8</ele><time>2026-04-25T11:02:37Z</time></trkpt><trkpt lat="41.41768605410454" lon="12.905182313246703"><ele>10.600000000000001</ele><time>2026-04-25T11:02:39Z</time></trkpt><trkpt lat="41.41764898536111" lon="12.905261654225141"><ele>10.4</ele><time>2026-04-25T11:02:40Z</time></trkpt><trkpt lat="41.41760516881057" lon="12.905348682762826"><ele>10.2</ele><time>2026-04-25T11:02:41Z</time></trkpt><trkpt lat="41.41754063438177" lon="12.905462570183206"><ele>10.0</ele><time>2026-04-25T11:02:42Z</time></trkpt><trkpt lat="41.41746021090145" lon="12.905617279794058"><ele>10.0</ele><time>2026-04-25T11:02:43Z</time></trkpt><trkpt lat="41.41737829655555" lon="12.905774416860716"><ele>10.0</ele><time>2026-04-25T11:02:44Z</time></trkpt><trkpt lat="41.417300532541496" lon="12.905917992888869"><ele>10.0</ele><time>2026-04-25T11:02:45Z</time></trkpt><trkpt lat="41.417224999025784" lon="12.906062792833865"><ele>10.0</ele><time>2026-04-25T11:02:46Z</time></trkpt><trkpt lat="41.417145552619104" lon="12.906219167495902"><ele>10.0</ele><time>2026-04-25T11:02:47Z</time></trkpt><trkpt lat="41.41706094908081" lon="12.906374758012657"><ele>10.0</ele><time>2026-04-25T11:02:48Z</time></trkpt><trkpt lat="41.416976891799436" lon="12.906533935873416"><ele>10.0</ele><time>2026-04-25T11:02:49Z</time></trkpt><trkpt lat="41.41688542879618" lon="12.906710171629191"><ele>9.75</ele><time>2026-04-25T11:02:50Z</time></trkpt><trkpt lat="41.416803283088285" lon="12.906862730429772"><ele>9.5</ele><time>2026-04-25T11:02:51Z</time></trkpt><trkpt lat="41.41673022675487" lon="12.906991160597928"><ele>9.25</ele><time>2026-04-25T11:02:52Z</time></trkpt><trkpt lat="41.41666128918509" lon="12.907125848733719"><ele>9.0</ele><time>2026-04-25T11:02:53Z</time></trkpt><trkpt lat="41.41658853960062" lon="12.90726250177984"><ele>9.0</ele><time>2026-04-25T11:02:54Z</time></trkpt><trkpt lat="41.41651752109295" lon="12.90740248864353"><ele>9.0</ele><time>2026-04-25T11:02:55Z</time></trkpt><trkpt lat="41.416438851827124" lon="12.907549491891691"><ele>9.0</ele><time>2026-04-25T11:02:56Z</time></trkpt><trkpt lat="41.416352754090596" lon="12.90770292430378"><ele>9.0</ele><time>2026-04-25T11:02:57Z</time></trkpt><trkpt lat="41.416269881658316" lon="12.907857183605799"><ele>9.5</ele><time>2026-04-25T11:02:58Z</time></trkpt><trkpt lat="41.416196455790704" lon="12.907996586858074"><ele>10.0</ele><time>2026-04-25T11:02:59Z</time></trkpt><trkpt lat="41.41612762618969" lon="12.908124934350196"><ele>10.5</ele><time>2026-04-25T11:03:00Z</time></trkpt><trkpt lat="41.41605116066142" lon="12.908268680853745"><ele>11.0</ele><time>2026-04-25T11:03:01Z</time></trkpt><trkpt lat="41.4159761543534" lon="12.90840861853524"><ele>10.8</ele><time>2026-04-25T11:03:02Z</time></trkpt><trkpt lat="41.415908781484944" lon="12.908535764928237"><ele>10.600000000000001</ele><time>2026-04-25T11:03:03Z</time></trkpt><trkpt lat="41.41585110656459" lon="12.908659098749792"><ele>10.4</ele><time>2026-04-25T11:03:04Z</time></trkpt><trkpt lat="41.41579850133887" lon="12.90876374637794"><ele>10.2</ele><time>2026-04-25T11:03:05Z</time></trkpt><trkpt lat="41.415747013498795" lon="12.908856453511133"><ele>10.0</ele><time>2026-04-25T11:03:06Z</time></trkpt><trkpt lat="41.4156908117858" lon="12.90895896570231"><ele>10.0</ele><time>2026-04-25T11:03:08Z</time></trkpt><trkpt lat="41.415754387573514" lon="12.908877942241798"><ele>10.0</ele><time>2026-04-25T11:03:33Z</time></trkpt><trkpt lat="41.41579914298252" lon="12.908782888126353"><ele>10.0</ele><time>2026-04-25T11:03:34.001Z</time></trkpt><trkpt lat="41.41584721333316" lon="12.9086960808735"><ele>10.0</ele><time>2026-04-25T11:03:35.001Z</time></trkpt><trkpt lat="41.41589633002343" lon="12.908605528547277"><ele>10.0</ele><time>2026-04-25T11:03:36.001Z</time></trkpt><trkpt lat="41.415945881223095" lon="12.908511203674195"><ele>10.0</ele><time>2026-04-25T11:03:37.001Z</time></trkpt><trkpt lat="41.415995993404245" lon="12.908408238978925"><ele>10.2</ele><time>2026-04-25T11:03:38.001Z</time></trkpt><trkpt lat="41.41605015784982" lon="12.908312411670085"><ele>10.4</ele><time>2026-04-25T11:03:39.001Z</time></trkpt><trkpt lat="41.41610452931826" lon="12.908207644738031"><ele>10.600000000000001</ele><time>2026-04-25T11:03:40.001Z</time></trkpt><trkpt lat="41.41616118835843" lon="12.908096260749417"><ele>10.8</ele><time>2026-04-25T11:03:41.001Z</time></trkpt><trkpt lat="41.416220387004415" lon="12.9079874839061"><ele>11.0</ele><time>2026-04-25T11:03:42.001Z</time></trkpt><trkpt lat="41.41627850313576" lon="12.90786975311053"><ele>10.600000000000001</ele><time>2026-04-25T11:03:43.001Z</time></trkpt><trkpt lat="41.4163381160477" lon="12.907752961247875"><ele>10.200000000000001</ele><time>2026-04-25T11:03:44.001Z</time></trkpt><trkpt lat="41.416398762642274" lon="12.907640642562153"><ele>9.8</ele><time>2026-04-25T11:03:45.001Z</time></trkpt><trkpt lat="41.41645345110511" lon="12.90754202431444"><ele>9.4</ele><time>2026-04-25T11:03:46.001Z</time></trkpt><trkpt lat="41.41650901543441" lon="12.907439415570638"><ele>9.0</ele><time>2026-04-25T11:03:47.001Z</time></trkpt><trkpt lat="41.4165691523459" lon="12.907326940840576"><ele>9.0</ele><time>2026-04-25T11:03:48.001Z</time></trkpt><trkpt lat="41.41663740870926" lon="12.90721114482255"><ele>9.0</ele><time>2026-04-25T11:03:49.001Z</time></trkpt><trkpt lat="41.416701446049004" lon="12.907087093533685"><ele>9.0</ele><time>2026-04-25T11:03:50.001Z</time></trkpt><trkpt lat="41.416760538275284" lon="12.906964538243257"><ele>9.0</ele><time>2026-04-25T11:03:51.001Z</time></trkpt><trkpt lat="41.41683272925185" lon="12.90683059576066"><ele>9.333333333333334</ele><time>2026-04-25T11:03:52.001Z</time></trkpt><trkpt lat="41.416916887682284" lon="12.906667297348582"><ele>9.666666666666668</ele><time>2026-04-25T11:03:53.001Z</time></trkpt><trkpt lat="41.41702038970903" lon="12.906476620546727"><ele>10.0</ele><time>2026-04-25T11:03:54.001Z</time></trkpt><trkpt lat="41.41711665059759" lon="12.906292796521088"><ele>10.0</ele><time>2026-04-25T11:03:55.001Z</time></trkpt><trkpt lat="41.41720766124642" lon="12.906125715677282"><ele>10.0</ele><time>2026-04-25T11:03:56.001Z</time></trkpt><trkpt lat="41.41728550734096" lon="12.905977363354225"><ele>10.0</ele><time>2026-04-25T11:03:57.001Z</time></trkpt><trkpt lat="41.41737177326794" lon="12.90581371308748"><ele>10.0</ele><time>2026-04-25T11:03:58.001Z</time></trkpt><trkpt lat="41.41747388284838" lon="12.905615967501085"><ele>10.0</ele><time>2026-04-25T11:03:59.001Z</time></trkpt><trkpt lat="41.4175702379696" lon="12.905434049140407"><ele>10.0</ele><time>2026-04-25T11:04:00.001Z</time></trkpt><trkpt lat="41.4176484445182" lon="12.90529035424154"><ele>10.0</ele><time>2026-04-25T11:04:01.001Z</time></trkpt><trkpt lat="41.41772276275867" lon="12.905150860071435"><ele>10.0</ele><time>2026-04-25T11:04:02.001Z</time></trkpt><trkpt lat="41.417790642731724" lon="12.905020915137818"><ele>10.0</ele><time>2026-04-25T11:04:03.001Z</time></trkpt><trkpt lat="41.417859142726314" lon="12.904901269770699"><ele>10.0</ele><time>2026-04-25T11:04:04.001Z</time></trkpt><trkpt lat="41.41791423852965" lon="12.904793410944936"><ele>10.0</ele><time>2026-04-25T11:04:05.001Z</time></trkpt><trkpt lat="41.417964414253404" lon="12.90469951661856"><ele>10.0</ele><time>2026-04-25T11:04:06.001Z</time></trkpt><trkpt lat="41.41800816850273" lon="12.904612245054148"><ele>10.0</ele><time>2026-04-25T11:04:07.001Z</time></trkpt><trkpt lat="41.41804610133467" lon="12.904536090218139"><ele>10.0</ele><time>2026-04-25T11:04:08.001Z</time></trkpt><trkpt lat="41.41810882252641" lon="12.904411650727136"><ele>10.0</ele><time>2026-04-25T11:04:10.001Z</time></trkpt><trkpt lat="41.41815775217326" lon="12.904307984703605"><ele>10.0</ele><time>2026-04-25T11:04:12.001Z</time></trkpt><trkpt lat="41.4181954115632" lon="12.90422500353841"><ele>10.0</ele><time>2026-04-25T11:04:14.001Z</time></trkpt><trkpt lat="41.418107970856" lon="12.904260473382998"><ele>10.0</ele><time>2026-04-25T11:04:28.001Z</time></trkpt><trkpt lat="41.41793562789202" lon="12.904070700088921"><ele>9.714285714285714</ele><time>2026-04-25T11:04:29.001Z</time></trkpt><trkpt lat="41.41786768408202" lon="12.904044571616645"><ele>9.428571428571429</ele><time>2026-04-25T11:04:30.001Z</time></trkpt><trkpt lat="41.41780011759119" lon="12.904038430459735"><ele>9.142857142857142</ele><time>2026-04-25T11:04:31.001Z</time></trkpt><trkpt lat="41.41772627545238" lon="12.904036746188549"><ele>8.857142857142858</ele><time>2026-04-25T11:04:32.001Z</time></trkpt><trkpt lat="41.41765503200722" lon="12.904045644224464"><ele>8.571428571428571</ele><time>2026-04-25T11:04:33.001Z</time></trkpt><trkpt lat="41.41758111131253" lon="12.904062757086807"><ele>8.285714285714285</ele><time>2026-04-25T11:04:34.001Z</time></trkpt><trkpt lat="41.41751696658373" lon="12.904066057088345"><ele>8.0</ele><time>2026-04-25T11:04:35.001Z</time></trkpt><trkpt lat="41.41743641625164" lon="12.904088304031616"><ele>8.0</ele><time>2026-04-25T11:04:36.001Z</time></trkpt><trkpt lat="41.41734648070072" lon="12.904104836659728"><ele>8.0</ele><time>2026-04-25T11:04:37.001Z</time></trkpt><trkpt lat="41.4172530595991" lon="12.904120762507372"><ele>8.0</ele><time>2026-04-25T11:04:38.001Z</time></trkpt><trkpt lat="41.417161564822635" lon="12.904081840086228"><ele>8.0</ele><time>2026-04-25T11:04:39.001Z</time></trkpt><trkpt lat="41.41707087596062" lon="12.904081609139135"><ele>8.0</ele><time>2026-04-25T11:04:40.001Z</time></trkpt><trkpt lat="41.416980144647184" lon="12.904080421096408"><ele>7.666666666666666</ele><time>2026-04-25T11:04:41.001Z</time></trkpt><trkpt lat="41.41689307893217" lon="12.904081061825318"><ele>7.333333333333333</ele><time>2026-04-25T11:04:42.001Z</time></trkpt><trkpt lat="41.416803147900204" lon="12.904073586551425"><ele>7.0</ele><time>2026-04-25T11:04:43.001Z</time></trkpt><trkpt lat="41.41671646484517" lon="12.904070532168719"><ele>6.666666666666666</ele><time>2026-04-25T11:04:44.001Z</time></trkpt><trkpt lat="41.41663442719891" lon="12.904060386105524"><ele>6.333333333333333</ele><time>2026-04-25T11:04:45.001Z</time></trkpt><trkpt lat="41.416557631033456" lon="12.904037501229363"><ele>6.0</ele><time>2026-04-25T11:04:46.001Z</time></trkpt><trkpt lat="41.41648834313245" lon="12.904017152379947"><ele>5.999999999999999</ele><time>2026-04-25T11:04:47.001Z</time></trkpt><trkpt lat="41.4164246126523" lon="12.90398731050944"><ele>6.0</ele><time>2026-04-25T11:04:48.001Z</time></trkpt><trkpt lat="41.41636046622265" lon="12.90396195101343"><ele>6.0</ele><time>2026-04-25T11:04:49.001Z</time></trkpt><trkpt lat="41.41629960011043" lon="12.903927622051421"><ele>6.0</ele><time>2026-04-25T11:04:50.001Z</time></trkpt><trkpt lat="41.416235541272464" lon="12.903894139921958"><ele>6.0</ele><time>2026-04-25T11:04:51.001Z</time></trkpt><trkpt lat="41.41617405018708" lon="12.903864773801097"><ele>5.999999999999999</ele><time>2026-04-25T11:04:52.001Z</time></trkpt><trkpt lat="41.416081689496544" lon="12.903825434006531"><ele>6.0</ele><time>2026-04-25T11:04:54.001Z</time></trkpt><trkpt lat="41.41599792743297" lon="12.903786302650193"><ele>6.0</ele><time>2026-04-25T11:04:56.001Z</time></trkpt><trkpt lat="41.415901854988064" lon="12.903762359835708"><ele>6.0</ele><time>2026-04-25T11:04:58.001Z</time></trkpt><trkpt lat="41.415835561860256" lon="12.90375906424247"><ele>6.0</ele><time>2026-04-25T11:04:59.001Z</time></trkpt><trkpt lat="41.41576661068407" lon="12.903764784622188"><ele>6.0</ele><time>2026-04-25T11:05:00.001Z</time></trkpt><trkpt lat="41.415699714567545" lon="12.903778124727602"><ele>6.0</ele><time>2026-04-25T11:05:01.001Z</time></trkpt><trkpt lat="41.415626223706155" lon="12.903814833997833"><ele>6.0</ele><time>2026-04-25T11:05:02.001Z</time></trkpt><trkpt lat="41.41555055964827" lon="12.90385033643119"><ele>5.333333333333333</ele><time>2026-04-25T11:05:03.001Z</time></trkpt><trkpt lat="41.41547263715123" lon="12.903888725551342"><ele>4.666666666666667</ele><time>2026-04-25T11:05:04.001Z</time></trkpt><trkpt lat="41.415402604871026" lon="12.903945622446686"><ele>4.0</ele><time>2026-04-25T11:05:05.001Z</time></trkpt><trkpt lat="41.4153189199375" lon="12.903977891856623"><ele>3.333333333333333</ele><time>2026-04-25T11:05:06.001Z</time></trkpt><trkpt lat="41.41523892449153" lon="12.904034090404481"><ele>2.6666666666666665</ele><time>2026-04-25T11:05:07.001Z</time></trkpt><trkpt lat="41.41515215791371" lon="12.904063465275172"><ele>2.0</ele><time>2026-04-25T11:05:08.001Z</time></trkpt><trkpt lat="41.41509897575542" lon="12.904117518751551"><ele>1.9999999999999998</ele><time>2026-04-25T11:05:09.001Z</time></trkpt><trkpt lat="41.41499062478635" lon="12.904167504946471"><ele>2.0</ele><time>2026-04-25T11:05:11.001Z</time></trkpt><trkpt lat="41.41493781596617" lon="12.904214867723564"><ele>2.0</ele><time>2026-04-25T11:05:12.001Z</time></trkpt><trkpt lat="41.41488340577145" lon="12.904268253962432"><ele>2.0</ele><time>2026-04-25T11:05:13.001Z</time></trkpt><trkpt lat="41.4148256331317" lon="12.904323943504235"><ele>1.9999999999999998</ele><time>2026-04-25T11:05:14.001Z</time></trkpt><trkpt lat="41.414768494705555" lon="12.904389069068264"><ele>2.0</ele><time>2026-04-25T11:05:15.001Z</time></trkpt><trkpt lat="41.41470889430586" lon="12.904460524523994"><ele>1.9999999999999998</ele><time>2026-04-25T11:05:16.001Z</time></trkpt><trkpt lat="41.41465318380643" lon="12.904538220041058"><ele>2.0</ele><time>2026-04-25T11:05:17.001Z</time></trkpt><trkpt lat="41.41459268266371" lon="12.904625898176713"><ele>2.0</ele><time>2026-04-25T11:05:18.001Z</time></trkpt><trkpt lat="41.4145321940689" lon="12.9047105557663"><ele>2.0</ele><time>2026-04-25T11:05:19.001Z</time></trkpt><trkpt lat="41.414462272364275" lon="12.904777117994405"><ele>1.9999999999999998</ele><time>2026-04-25T11:05:20.001Z</time></trkpt><trkpt lat="41.41440049904097" lon="12.904880338228239"><ele>2.0</ele><time>2026-04-25T11:05:22.001Z</time></trkpt><trkpt lat="41.41431792404611" lon="12.904951828141789"><ele>2.0</ele><time>2026-04-25T11:05:24.001Z</time></trkpt><trkpt lat="41.4142326829874" lon="12.905042070993785"><ele>2.0</ele><time>2026-04-25T11:05:26.001Z</time></trkpt><trkpt lat="41.414126283141776" lon="12.905102629963066"><ele>2.0</ele><time>2026-04-25T11:05:28.001Z</time></trkpt><trkpt lat="41.41406264693013" lon="12.905120810871285"><ele>2.0</ele><time>2026-04-25T11:05:29.001Z</time></trkpt><trkpt lat="41.41399826687966" lon="12.905134383845352"><ele>2.0</ele><time>2026-04-25T11:05:30.001Z</time></trkpt><trkpt lat="41.41387929682331" lon="12.905135897931553"><ele>2.25</ele><time>2026-04-25T11:05:32.001Z</time></trkpt><trkpt lat="41.413755450639876" lon="12.905110144271564"><ele>2.5</ele><time>2026-04-25T11:05:34.001Z</time></trkpt><trkpt lat="41.41367405498314" lon="12.905089193872502"><ele>2.75</ele><time>2026-04-25T11:05:35.001Z</time></trkpt><trkpt lat="41.41356256270988" lon="12.905060108078612"><ele>3.0</ele><time>2026-04-25T11:05:36.001Z</time></trkpt><trkpt lat="41.413419481207576" lon="12.905022781356564"><ele>3.0</ele><time>2026-04-25T11:05:37.001Z</time></trkpt><trkpt lat="41.41327800105303" lon="12.904985872403701"><ele>3.0</ele><time>2026-04-25T11:05:38.001Z</time></trkpt><trkpt lat="41.41317354129444" lon="12.904958854083231"><ele>3.0</ele><time>2026-04-25T11:05:39.001Z</time></trkpt><trkpt lat="41.41310127025888" lon="12.904948765427939"><ele>3.0</ele><time>2026-04-25T11:05:40.001Z</time></trkpt><trkpt lat="41.41299222837516" lon="12.904934534594755"><ele>3.0</ele><time>2026-04-25T11:05:42.001Z</time></trkpt><trkpt lat="41.41288833970899" lon="12.904979887227173"><ele>3.0</ele><time>2026-04-25T11:05:44.001Z</time></trkpt><trkpt lat="41.41276373997817" lon="12.905043173542063"><ele>3.0</ele><time>2026-04-25T11:05:46.001Z</time></trkpt><trkpt lat="41.4127997279682" lon="12.904959105223162"><ele>3.0</ele><time>2026-04-25T11:06:02.001Z</time></trkpt><trkpt lat="41.412751378975926" lon="12.905067184573461"><ele>3.0</ele><time>2026-04-25T11:09:30.003Z</time></trkpt><trkpt lat="41.41270387604998" lon="12.905179424315664"><ele>3.0</ele><time>2026-04-25T11:09:31.003Z</time></trkpt><trkpt lat="41.41265368253217" lon="12.90527960858723"><ele>3.0</ele><time>2026-04-25T11:09:32.003Z</time></trkpt><trkpt lat="41.41260066000493" lon="12.90540666265149"><ele>3.0</ele><time>2026-04-25T11:09:33.003Z</time></trkpt><trkpt lat="41.41254333429048" lon="12.905550803700763"><ele>3.0</ele><time>2026-04-25T11:09:34.003Z</time></trkpt><trkpt lat="41.412484197469276" lon="12.905695695266251"><ele>3.0</ele><time>2026-04-25T11:09:35.003Z</time></trkpt><trkpt lat="41.41241502087166" lon="12.905854092787338"><ele>3.0</ele><time>2026-04-25T11:09:36.003Z</time></trkpt><trkpt lat="41.41234292128284" lon="12.906028218165227"><ele>3.0</ele><time>2026-04-25T11:09:37.003Z</time></trkpt><trkpt lat="41.4122689183692" lon="12.906210704585092"><ele>3.0</ele><time>2026-04-25T11:09:38.003Z</time></trkpt><trkpt lat="41.41217956479466" lon="12.9064131940399"><ele>2.6666666666666665</ele><time>2026-04-25T11:09:39.003Z</time></trkpt><trkpt lat="41.41209653730426" lon="12.90659535291275"><ele>2.333333333333333</ele><time>2026-04-25T11:09:40.003Z</time></trkpt><trkpt lat="41.41201587240549" lon="12.906779658393434"><ele>2.0</ele><time>2026-04-25T11:09:41.003Z</time></trkpt><trkpt lat="41.41193866232021" lon="12.906967654975812"><ele>2.0</ele><time>2026-04-25T11:09:42.003Z</time></trkpt><trkpt lat="41.411858448863434" lon="12.907168501258317"><ele>2.0</ele><time>2026-04-25T11:09:43.003Z</time></trkpt><trkpt lat="41.41176699859365" lon="12.907385591963676"><ele>2.0</ele><time>2026-04-25T11:09:44.003Z</time></trkpt><trkpt lat="41.41167610419635" lon="12.907604776586522"><ele>2.6666666666666665</ele><time>2026-04-25T11:09:45.003Z</time></trkpt><trkpt lat="41.41157794354833" lon="12.907819691367383"><ele>3.333333333333333</ele><time>2026-04-25T11:09:46.003Z</time></trkpt><trkpt lat="41.41148345674565" lon="12.908040176864558"><ele>4.0</ele><time>2026-04-25T11:09:47.003Z</time></trkpt><trkpt lat="41.411392721015325" lon="12.9082568147128"><ele>3.333333333333333</ele><time>2026-04-25T11:09:48.003Z</time></trkpt><trkpt lat="41.41129831813116" lon="12.908484754507716"><ele>2.6666666666666665</ele><time>2026-04-25T11:09:49.003Z</time></trkpt><trkpt lat="41.41120715662341" lon="12.908700383195955"><ele>2.0</ele><time>2026-04-25T11:09:50.003Z</time></trkpt><trkpt lat="41.411119789376" lon="12.908908546713228"><ele>2.0</ele><time>2026-04-25T11:09:51.003Z</time></trkpt><trkpt lat="41.41103094125232" lon="12.909111428476683"><ele>2.0</ele><time>2026-04-25T11:09:52.003Z</time></trkpt><trkpt lat="41.4109310927824" lon="12.909338185013452"><ele>2.0</ele><time>2026-04-25T11:09:53.003Z</time></trkpt><trkpt lat="41.410829520714785" lon="12.909556195335496"><ele>2.333333333333333</ele><time>2026-04-25T11:09:54.003Z</time></trkpt><trkpt lat="41.41072781693395" lon="12.909791379255601"><ele>2.6666666666666665</ele><time>2026-04-25T11:09:55.003Z</time></trkpt><trkpt lat="41.41062461154393" lon="12.910027793360054"><ele>3.0</ele><time>2026-04-25T11:09:56.003Z</time></trkpt><trkpt lat="41.41052374208991" lon="12.910265541080237"><ele>3.666666666666667</ele><time>2026-04-25T11:09:57.003Z</time></trkpt><trkpt lat="41.410418494514104" lon="12.910505663061123"><ele>4.333333333333334</ele><time>2026-04-25T11:09:58.003Z</time></trkpt><trkpt lat="41.410317350561115" lon="12.910742354146533"><ele>5.0</ele><time>2026-04-25T11:09:59.003Z</time></trkpt><trkpt lat="41.41022084394918" lon="12.91097540348452"><ele>5.0</ele><time>2026-04-25T11:10:00.003Z</time></trkpt><trkpt lat="41.410124481708195" lon="12.911207732119584"><ele>5.0</ele><time>2026-04-25T11:10:01.003Z</time></trkpt><trkpt lat="41.41002613658608" lon="12.91143297702121"><ele>5.0</ele><time>2026-04-25T11:10:02.003Z</time></trkpt><trkpt lat="41.40993013067162" lon="12.911655887313632"><ele>5.0</ele><time>2026-04-25T11:10:03.003Z</time></trkpt><trkpt lat="41.409836125833515" lon="12.911873807521214"><ele>5.0</ele><time>2026-04-25T11:10:04.003Z</time></trkpt><trkpt lat="41.40974525915467" lon="12.912087181188104"><ele>5.0</ele><time>2026-04-25T11:10:05.003Z</time></trkpt><trkpt lat="41.40965766739367" lon="12.91229193181411"><ele>4.666666666666667</ele><time>2026-04-25T11:10:06.003Z</time></trkpt><trkpt lat="41.40957806127622" lon="12.91249064622248"><ele>4.333333333333333</ele><time>2026-04-25T11:10:07.003Z</time></trkpt><trkpt lat="41.409497461011" lon="12.91267578490865"><ele>4.0</ele><time>2026-04-25T11:10:08.003Z</time></trkpt><trkpt lat="41.40942454195081" lon="12.912850987306532"><ele>4.0</ele><time>2026-04-25T11:10:09.003Z</time></trkpt><trkpt lat="41.409352638852894" lon="12.913020386464037"><ele>4.0</ele><time>2026-04-25T11:10:10.003Z</time></trkpt><trkpt lat="41.40928056260742" lon="12.913183230592965"><ele>4.0</ele><time>2026-04-25T11:10:11.003Z</time></trkpt><trkpt lat="41.40921058803671" lon="12.913347363350049"><ele>4.0</ele><time>2026-04-25T11:10:12.003Z</time></trkpt><trkpt lat="41.409137577069224" lon="12.913511841338574"><ele>4.0</ele><time>2026-04-25T11:10:13.003Z</time></trkpt><trkpt lat="41.40906840746063" lon="12.913679659929587"><ele>4.0</ele><time>2026-04-25T11:10:14.003Z</time></trkpt><trkpt lat="41.408998700901805" lon="12.913843977730632"><ele>4.0</ele><time>2026-04-25T11:10:15.003Z</time></trkpt><trkpt lat="41.40892622818727" lon="12.914006673952903"><ele>4.0</ele><time>2026-04-25T11:10:16.003Z</time></trkpt><trkpt lat="41.408849513470166" lon="12.914175114439502"><ele>4.333333333333333</ele><time>2026-04-25T11:10:17.003Z</time></trkpt><trkpt lat="41.408776142129774" lon="12.914352563795646"><ele>4.666666666666667</ele><time>2026-04-25T11:10:18.003Z</time></trkpt><trkpt lat="41.40870248665715" lon="12.914533258990183"><ele>5.0</ele><time>2026-04-25T11:10:19.003Z</time></trkpt><trkpt lat="41.40862592304944" lon="12.914713833655167"><ele>5.0</ele><time>2026-04-25T11:10:20.003Z</time></trkpt><trkpt lat="41.40854551297111" lon="12.9148965428227"><ele>5.0</ele><time>2026-04-25T11:10:21.003Z</time></trkpt><trkpt lat="41.40846357563583" lon="12.91509308455009"><ele>5.0</ele><time>2026-04-25T11:10:22.003Z</time></trkpt><trkpt lat="41.40837977586322" lon="12.915283524956596"><ele>4.666666666666667</ele><time>2026-04-25T11:10:23.003Z</time></trkpt><trkpt lat="41.408303132513204" lon="12.915471193917424"><ele>4.333333333333333</ele><time>2026-04-25T11:10:24.003Z</time></trkpt><trkpt lat="41.40822484592301" lon="12.915653772811144"><ele>4.0</ele><time>2026-04-25T11:10:25.003Z</time></trkpt><trkpt lat="41.40814883035823" lon="12.915824231355373"><ele>4.5</ele><time>2026-04-25T11:10:26.003Z</time></trkpt><trkpt lat="41.408084938342085" lon="12.91596973933359"><ele>5.0</ele><time>2026-04-25T11:10:27.003Z</time></trkpt><trkpt lat="41.4080230445765" lon="12.91611683682288"><ele>5.5</ele><time>2026-04-25T11:10:28.003Z</time></trkpt><trkpt lat="41.407966796058" lon="12.916249303100592"><ele>6.0</ele><time>2026-04-25T11:10:29.003Z</time></trkpt><trkpt lat="41.407912053963535" lon="12.916370966798215"><ele>6.0</ele><time>2026-04-25T11:10:30.003Z</time></trkpt><trkpt lat="41.407859501974755" lon="12.916491453718729"><ele>6.0</ele><time>2026-04-25T11:10:31.003Z</time></trkpt><trkpt lat="41.40780979579315" lon="12.916605266736697"><ele>6.0</ele><time>2026-04-25T11:10:32.003Z</time></trkpt><trkpt lat="41.407767424738374" lon="12.916720348268148"><ele>6.0</ele><time>2026-04-25T11:10:33.003Z</time></trkpt><trkpt lat="41.407725723291875" lon="12.916824277614603"><ele>6.0</ele><time>2026-04-25T11:10:34.003Z</time></trkpt><trkpt lat="41.4076744560342" lon="12.916898960332787"><ele>6.0</ele><time>2026-04-25T11:10:35.003Z</time></trkpt><trkpt lat="41.407603443662644" lon="12.916941730114328"><ele>6.0</ele><time>2026-04-25T11:10:36.003Z</time></trkpt><trkpt lat="41.40751196565345" lon="12.916950583351912"><ele>6.0</ele><time>2026-04-25T11:10:37.003Z</time></trkpt><trkpt lat="41.40738849800197" lon="12.916947685982493"><ele>6.0</ele><time>2026-04-25T11:10:38.003Z</time></trkpt><trkpt lat="41.407251267245535" lon="12.916945183611796"><ele>6.0</ele><time>2026-04-25T11:10:39.003Z</time></trkpt><trkpt lat="41.40711709039578" lon="12.916946090242012"><ele>6.0</ele><time>2026-04-25T11:10:40.003Z</time></trkpt><trkpt lat="41.40698122652504" lon="12.916947850356863"><ele>6.0</ele><time>2026-04-25T11:10:41.003Z</time></trkpt><trkpt lat="41.406845237579475" lon="12.916950243624004"><ele>6.0</ele><time>2026-04-25T11:10:42.003Z</time></trkpt><trkpt lat="41.40669956826164" lon="12.916954111939985"><ele>6.0</ele><time>2026-04-25T11:10:43.003Z</time></trkpt><trkpt lat="41.406555155967794" lon="12.916956163096241"><ele>6.0</ele><time>2026-04-25T11:10:44.003Z</time></trkpt><trkpt lat="41.40641425051878" lon="12.916962417902258"><ele>6.0</ele><time>2026-04-25T11:10:45.003Z</time></trkpt><trkpt lat="41.406282653827375" lon="12.916965107873434"><ele>6.0</ele><time>2026-04-25T11:10:46.003Z</time></trkpt><trkpt lat="41.406162630304095" lon="12.916966791337249"><ele>6.0</ele><time>2026-04-25T11:10:47.003Z</time></trkpt><trkpt lat="41.406053713116" lon="12.91696446129318"><ele>5.5</ele><time>2026-04-25T11:10:48.003Z</time></trkpt><trkpt lat="41.40595290905336" lon="12.916968420002982"><ele>5.0</ele><time>2026-04-25T11:10:49.003Z</time></trkpt><trkpt lat="41.40585958635417" lon="12.916973229589043"><ele>4.5</ele><time>2026-04-25T11:10:50.003Z</time></trkpt><trkpt lat="41.40577382555471" lon="12.916975441852491"><ele>4.0</ele><time>2026-04-25T11:10:51.003Z</time></trkpt><trkpt lat="41.405691482538536" lon="12.916973855312836"><ele>3.5</ele><time>2026-04-25T11:10:52.003Z</time></trkpt><trkpt lat="41.40561417351114" lon="12.91698312485189"><ele>3.0</ele><time>2026-04-25T11:10:53.003Z</time></trkpt><trkpt lat="41.40554598126293" lon="12.916960522739394"><ele>3.3333333333333335</ele><time>2026-04-25T11:10:54.003Z</time></trkpt><trkpt lat="41.405475299178" lon="12.916965685581136"><ele>3.666666666666667</ele><time>2026-04-25T11:10:55.003Z</time></trkpt><trkpt lat="41.405395934953965" lon="12.916971202572208"><ele>4.0</ele><time>2026-04-25T11:10:56.003Z</time></trkpt><trkpt lat="41.405321697640304" lon="12.916974927625324"><ele>4.333333333333334</ele><time>2026-04-25T11:10:57.003Z</time></trkpt><trkpt lat="41.4052480255753" lon="12.91697952691476"><ele>4.666666666666667</ele><time>2026-04-25T11:10:58.003Z</time></trkpt><trkpt lat="41.40517884218726" lon="12.916984293940525"><ele>5.0</ele><time>2026-04-25T11:10:59.003Z</time></trkpt><trkpt lat="41.40505692960422" lon="12.916974729211326"><ele>5.0</ele><time>2026-04-25T11:11:01.003Z</time></trkpt><trkpt lat="41.4049674232969" lon="12.916987334179442"><ele>5.0</ele><time>2026-04-25T11:11:03.003Z</time></trkpt><trkpt lat="41.40483789980368" lon="12.91698890950947"><ele>5.0</ele><time>2026-04-25T11:11:05.003Z</time></trkpt><trkpt lat="41.40475862239341" lon="12.916984175476781"><ele>5.0</ele><time>2026-04-25T11:11:06.003Z</time></trkpt><trkpt lat="41.40467597362079" lon="12.916989736160184"><ele>5.0</ele><time>2026-04-25T11:11:07.003Z</time></trkpt><trkpt lat="41.40460263178557" lon="12.91698812283936"><ele>5.166666666666667</ele><time>2026-04-25T11:11:08.003Z</time></trkpt><trkpt lat="41.404472118518626" lon="12.916983837874128"><ele>5.333333333333334</ele><time>2026-04-25T11:11:10.003Z</time></trkpt><trkpt lat="41.404396370520736" lon="12.916989455985744"><ele>5.5</ele><time>2026-04-25T11:11:11.003Z</time></trkpt><trkpt lat="41.404323421287316" lon="12.91699373069565"><ele>5.666666666666667</ele><time>2026-04-25T11:11:12.003Z</time></trkpt><trkpt lat="41.404255371840655" lon="12.916993904173971"><ele>5.833333333333333</ele><time>2026-04-25T11:11:13.003Z</time></trkpt><trkpt lat="41.40418459651161" lon="12.916967946813266"><ele>6.0</ele><time>2026-04-25T11:11:14.003Z</time></trkpt><trkpt lat="41.404115265443714" lon="12.916972095798055"><ele>6.0</ele><time>2026-04-25T11:11:15.003Z</time></trkpt><trkpt lat="41.404049037433396" lon="12.916978340158735"><ele>6.0</ele><time>2026-04-25T11:11:16.003Z</time></trkpt><trkpt lat="41.403920682296416" lon="12.916986147827748"><ele>6.0</ele><time>2026-04-25T11:11:18.003Z</time></trkpt><trkpt lat="41.40385650818215" lon="12.916983911899418"><ele>6.0</ele><time>2026-04-25T11:11:19.003Z</time></trkpt><trkpt lat="41.403719621040565" lon="12.916992113722126"><ele>6.0</ele><time>2026-04-25T11:11:21.003Z</time></trkpt><trkpt lat="41.403612351020094" lon="12.917003439407008"><ele>5.75</ele><time>2026-04-25T11:11:22.003Z</time></trkpt><trkpt lat="41.40350121426962" lon="12.917008960974876"><ele>5.5</ele><time>2026-04-25T11:11:23.003Z</time></trkpt><trkpt lat="41.403389593012086" lon="12.916997943832042"><ele>5.25</ele><time>2026-04-25T11:11:24.003Z</time></trkpt><trkpt lat="41.40326982772311" lon="12.916998299665272"><ele>5.0</ele><time>2026-04-25T11:11:25.003Z</time></trkpt><trkpt lat="41.40315729801895" lon="12.917002690459443"><ele>5.0</ele><time>2026-04-25T11:11:26.003Z</time></trkpt><trkpt lat="41.40304576640118" lon="12.917009514374769"><ele>5.0</ele><time>2026-04-25T11:11:27.003Z</time></trkpt><trkpt lat="41.402948094417084" lon="12.917014600351868"><ele>5.0</ele><time>2026-04-25T11:11:28.003Z</time></trkpt><trkpt lat="41.40286308401756" lon="12.91700497944554"><ele>5.0</ele><time>2026-04-25T11:11:29.003Z</time></trkpt><trkpt lat="41.402795687246396" lon="12.91700185011362"><ele>5.0</ele><time>2026-04-25T11:11:30.003Z</time></trkpt><trkpt lat="41.402719366269075" lon="12.916997945538165"><ele>5.0</ele><time>2026-04-25T11:11:31.003Z</time></trkpt><trkpt lat="41.402652203296455" lon="12.916999175792675"><ele>4.833333333333334</ele><time>2026-04-25T11:11:32.003Z</time></trkpt><trkpt lat="41.402549186708946" lon="12.916995043420128"><ele>4.666666666666667</ele><time>2026-04-25T11:11:34.003Z</time></trkpt><trkpt lat="41.402448773115516" lon="12.9170023289729"><ele>4.5</ele><time>2026-04-25T11:11:36.003Z</time></trkpt><trkpt lat="41.40236728649128" lon="12.917009952705868"><ele>4.333333333333333</ele><time>2026-04-25T11:11:38.003Z</time></trkpt><trkpt lat="41.40230031314143" lon="12.917006269145089"><ele>4.166666666666666</ele><time>2026-04-25T11:11:42.003Z</time></trkpt><trkpt lat="41.402219309018" lon="12.917006142238657"><ele>4.0</ele><time>2026-04-25T11:11:47.003Z</time></trkpt><trkpt lat="41.40212633959942" lon="12.917019666198257"><ele>3.9999999999999996</ele><time>2026-04-25T11:11:50.003Z</time></trkpt><trkpt lat="41.402050082630346" lon="12.917028809298186"><ele>4.0</ele><time>2026-04-25T11:11:52.003Z</time></trkpt><trkpt lat="41.40196351640317" lon="12.917039349620072"><ele>4.0</ele><time>2026-04-25T11:11:54.004Z</time></trkpt><trkpt lat="41.40187313512196" lon="12.917015857695075"><ele>4.0</ele><time>2026-04-25T11:11:56.004Z</time></trkpt><trkpt lat="41.40179558369877" lon="12.917024005215932"><ele>3.9999999999999996</ele><time>2026-04-25T11:11:59.004Z</time></trkpt><trkpt lat="41.40172557646316" lon="12.917030308154363"><ele>4.0</ele><time>2026-04-25T11:12:02.004Z</time></trkpt><trkpt lat="41.401648059084515" lon="12.917023039927626"><ele>3.9999999999999996</ele><time>2026-04-25T11:12:05.004Z</time></trkpt><trkpt lat="41.401558794658385" lon="12.917024891598304"><ele>4.0</ele><time>2026-04-25T11:13:39.004Z</time></trkpt><trkpt lat="41.401471643867694" lon="12.917026399747275"><ele>4.0</ele><time>2026-04-25T11:13:42.004Z</time></trkpt><trkpt lat="41.401393678286404" lon="12.917028246145993"><ele>4.0</ele><time>2026-04-25T11:13:44.004Z</time></trkpt><trkpt lat="41.40131082875754" lon="12.91703702328079"><ele>3.9999999999999996</ele><time>2026-04-25T11:13:46.004Z</time></trkpt><trkpt lat="41.40123140491977" lon="12.917043379673485"><ele>4.0</ele><time>2026-04-25T11:13:48.004Z</time></trkpt><trkpt lat="41.401160059745756" lon="12.917054538890858"><ele>3.833333333333333</ele><time>2026-04-25T11:13:50.004Z</time></trkpt><trkpt lat="41.401070614899275" lon="12.917059406844553"><ele>3.6666666666666665</ele><time>2026-04-25T11:13:52.004Z</time></trkpt><trkpt lat="41.40098577538985" lon="12.917065296897704"><ele>3.5</ele><time>2026-04-25T11:13:54.004Z</time></trkpt><trkpt lat="41.40091363373425" lon="12.917044828673696"><ele>3.333333333333333</ele><time>2026-04-25T11:13:56.004Z</time></trkpt><trkpt lat="41.400845567305296" lon="12.917037579682793"><ele>3.1666666666666665</ele><time>2026-04-25T11:13:58.004Z</time></trkpt><trkpt lat="41.40077363519393" lon="12.917035158622358"><ele>3.0</ele><time>2026-04-25T11:14:00.004Z</time></trkpt><trkpt lat="41.40069174739047" lon="12.917039041560747"><ele>3.0</ele><time>2026-04-25T11:14:03.004Z</time></trkpt><trkpt lat="41.40062497073819" lon="12.917042492491673"><ele>3.0</ele><time>2026-04-25T11:14:11.004Z</time></trkpt><trkpt lat="41.40054164042531" lon="12.917050289161281"><ele>3.0</ele><time>2026-04-25T11:15:58.005Z</time></trkpt><trkpt lat="41.40044364799297" lon="12.917059852053116"><ele>3.0</ele><time>2026-04-25T11:16:01.005Z</time></trkpt><trkpt lat="41.400362649078446" lon="12.917067827657961"><ele>3.0</ele><time>2026-04-25T11:16:03.005Z</time></trkpt><trkpt lat="41.400280206396346" lon="12.91707363636556"><ele>3.0</ele><time>2026-04-25T11:16:05.005Z</time></trkpt><trkpt lat="41.4002020911232" lon="12.917075053154905"><ele>2.8</ele><time>2026-04-25T11:16:07.005Z</time></trkpt><trkpt lat="41.40010548639043" lon="12.917079022581092"><ele>2.5999999999999996</ele><time>2026-04-25T11:16:09.005Z</time></trkpt><trkpt lat="41.40001974945545" lon="12.917063142654737"><ele>2.4000000000000004</ele><time>2026-04-25T11:16:11.005Z</time></trkpt><trkpt lat="41.399924245333246" lon="12.91707153480349"><ele>2.2</ele><time>2026-04-25T11:16:13.005Z</time></trkpt><trkpt lat="41.39981810324212" lon="12.917067899610712"><ele>2.0</ele><time>2026-04-25T11:16:15.005Z</time></trkpt><trkpt lat="41.399714707427314" lon="12.91704516517188"><ele>2.4000000000000004</ele><time>2026-04-25T11:16:17.005Z</time></trkpt><trkpt lat="41.39961426182687" lon="12.917029036055284"><ele>2.8000000000000003</ele><time>2026-04-25T11:16:19.005Z</time></trkpt><trkpt lat="41.39952397988309" lon="12.917002551316841"><ele>3.2</ele><time>2026-04-25T11:16:21.005Z</time></trkpt><trkpt lat="41.399443303346516" lon="12.916964349306706"><ele>3.6</ele><time>2026-04-25T11:16:23.005Z</time></trkpt><trkpt lat="41.399368788029896" lon="12.916907143187327"><ele>4.0</ele><time>2026-04-25T11:16:25.005Z</time></trkpt><trkpt lat="41.399300985434124" lon="12.916839900640285"><ele>4.0</ele><time>2026-04-25T11:16:27.005Z</time></trkpt><trkpt lat="41.399239092777414" lon="12.916772440960253"><ele>4.0</ele><time>2026-04-25T11:16:29.005Z</time></trkpt><trkpt lat="41.399177213829624" lon="12.91671389964835"><ele>4.0</ele><time>2026-04-25T11:16:31.005Z</time></trkpt><trkpt lat="41.399082036555384" lon="12.916649209236287"><ele>4.0</ele><time>2026-04-25T11:16:33.005Z</time></trkpt><trkpt lat="41.398993798688025" lon="12.916565990423633"><ele>4.0</ele><time>2026-04-25T11:16:35.005Z</time></trkpt><trkpt lat="41.39891689623579" lon="12.916469706549725"><ele>3.8000000000000003</ele><time>2026-04-25T11:16:37.005Z</time></trkpt><trkpt lat="41.39883851767421" lon="12.916409684562"><ele>3.6000000000000005</ele><time>2026-04-25T11:16:39.005Z</time></trkpt><trkpt lat="41.3987842067402" lon="12.916353516894942"><ele>3.4</ele><time>2026-04-25T11:16:43.005Z</time></trkpt><trkpt lat="41.39877149783591" lon="12.916572071008504"><ele>3.2</ele><time>2026-04-25T11:16:47.005Z</time></trkpt><trkpt lat="41.398790731435724" lon="12.916684525185016"><ele>3.0</ele><time>2026-04-25T11:16:49.005Z</time></trkpt><trkpt lat="41.398815141065434" lon="12.916794872366895"><ele>3.1666666666666665</ele><time>2026-04-25T11:16:51.005Z</time></trkpt><trkpt lat="41.39883066757052" lon="12.916909300521176"><ele>3.333333333333333</ele><time>2026-04-25T11:16:53.005Z</time></trkpt><trkpt lat="41.39883657125373" lon="12.917010519847722"><ele>3.5</ele><time>2026-04-25T11:16:55.005Z</time></trkpt><trkpt lat="41.39882394436483" lon="12.91712836637227"><ele>3.6666666666666665</ele><time>2026-04-25T11:16:58.005Z</time></trkpt><trkpt lat="41.398803246336335" lon="12.91724277862566"><ele>3.833333333333333</ele><time>2026-04-25T11:17:01.005Z</time></trkpt><trkpt lat="41.39877615682775" lon="12.917351819156409"><ele>4.0</ele><time>2026-04-25T11:17:03.005Z</time></trkpt><trkpt lat="41.398734861466" lon="12.917446592869961"><ele>4.5</ele><time>2026-04-25T11:17:05.005Z</time></trkpt><trkpt lat="41.39869414833821" lon="12.917525083645861"><ele>5.0</ele><time>2026-04-25T11:17:07.005Z</time></trkpt><trkpt lat="41.39865223366041" lon="12.917601260335603"><ele>5.5</ele><time>2026-04-25T11:17:09.005Z</time></trkpt><trkpt lat="41.398588327951956" lon="12.917711319517686"><ele>6.0</ele><time>2026-04-25T11:17:12.005Z</time></trkpt><trkpt lat="41.398543351152654" lon="12.917809273510594"><ele>6.500000000000001</ele><time>2026-04-25T11:17:14.005Z</time></trkpt><trkpt lat="41.398492802648434" lon="12.917876930512938"><ele>7.0</ele><time>2026-04-25T11:17:16.005Z</time></trkpt><trkpt lat="41.39843657739967" lon="12.917963429917455"><ele>7.000000000000001</ele><time>2026-04-25T11:17:18.005Z</time></trkpt><trkpt lat="41.39838289345936" lon="12.918085329644068"><ele>7.0</ele><time>2026-04-25T11:17:21.005Z</time></trkpt><trkpt lat="41.398334842347346" lon="12.91816978934115"><ele>7.0</ele><time>2026-04-25T11:17:23.005Z</time></trkpt><trkpt lat="41.39828216454045" lon="12.918247150107625"><ele>7.0</ele><time>2026-04-25T11:17:25.006Z</time></trkpt><trkpt lat="41.39822024008819" lon="12.918311446957155"><ele>7.000000000000001</ele><time>2026-04-25T11:17:27.006Z</time></trkpt><trkpt lat="41.398156222441095" lon="12.918397377327654"><ele>7.0</ele><time>2026-04-25T11:17:29.006Z</time></trkpt><trkpt lat="41.398107971998016" lon="12.918484908532896"><ele>7.333333333333334</ele><time>2026-04-25T11:17:31.006Z</time></trkpt><trkpt lat="41.3980535796241" lon="12.91855486754993"><ele>7.666666666666667</ele><time>2026-04-25T11:17:33.006Z</time></trkpt><trkpt lat="41.39799124903873" lon="12.918641703840064"><ele>8.0</ele><time>2026-04-25T11:17:35.006Z</time></trkpt><trkpt lat="41.397911425904084" lon="12.918734799976109"><ele>8.333333333333334</ele><time>2026-04-25T11:17:37.006Z</time></trkpt><trkpt lat="41.39785794518733" lon="12.918800421557242"><ele>8.666666666666666</ele><time>2026-04-25T11:17:39.006Z</time></trkpt><trkpt lat="41.397793142367235" lon="12.918881008397408"><ele>9.0</ele><time>2026-04-25T11:17:41.006Z</time></trkpt><trkpt lat="41.39772519706058" lon="12.91894946396276"><ele>9.0</ele><time>2026-04-25T11:17:43.006Z</time></trkpt><trkpt lat="41.39766329392872" lon="12.919024414496901"><ele>9.0</ele><time>2026-04-25T11:17:45.006Z</time></trkpt><trkpt lat="41.39760102806529" lon="12.919114655131908"><ele>9.0</ele><time>2026-04-25T11:17:47.006Z</time></trkpt><trkpt lat="41.39755073923478" lon="12.919204656360469"><ele>9.0</ele><time>2026-04-25T11:17:49.006Z</time></trkpt><trkpt lat="41.397495823611365" lon="12.919302194205095"><ele>9.0</ele><time>2026-04-25T11:17:51.006Z</time></trkpt><trkpt lat="41.39746410084042" lon="12.91942060506485"><ele>9.0</ele><time>2026-04-25T11:17:53.006Z</time></trkpt><trkpt lat="41.397441268284" lon="12.919542674361265"><ele>9.666666666666666</ele><time>2026-04-25T11:17:55.006Z</time></trkpt><trkpt lat="41.39743280631739" lon="12.919637837400959"><ele>10.333333333333332</ele><time>2026-04-25T11:17:57.006Z</time></trkpt><trkpt lat="41.397412856805936" lon="12.919746922141403"><ele>11.0</ele><time>2026-04-25T11:17:59.006Z</time></trkpt><trkpt lat="41.39741491443081" lon="12.919886283620327"><ele>11.666666666666666</ele><time>2026-04-25T11:18:01.006Z</time></trkpt><trkpt lat="41.39740471817491" lon="12.919992629384843"><ele>12.333333333333332</ele><time>2026-04-25T11:18:03.006Z</time></trkpt><trkpt lat="41.39740787139677" lon="12.920098707520983"><ele>13.0</ele><time>2026-04-25T11:18:05.006Z</time></trkpt><trkpt lat="41.3973898402125" lon="12.92023391860663"><ele>13.4</ele><time>2026-04-25T11:18:07.006Z</time></trkpt><trkpt lat="41.397385278770074" lon="12.920354537787466"><ele>13.8</ele><time>2026-04-25T11:18:09.006Z</time></trkpt><trkpt lat="41.39738681067375" lon="12.920487766634055"><ele>14.2</ele><time>2026-04-25T11:18:11.006Z</time></trkpt><trkpt lat="41.397377870103995" lon="12.92059920450831"><ele>14.6</ele><time>2026-04-25T11:18:13.006Z</time></trkpt><trkpt lat="41.39736662758235" lon="12.920696154925201"><ele>15.0</ele><time>2026-04-25T11:18:15.006Z</time></trkpt><trkpt lat="41.397365785317895" lon="12.920844500293343"><ele>14.6</ele><time>2026-04-25T11:18:17.006Z</time></trkpt><trkpt lat="41.397366934253654" lon="12.92095551467459"><ele>14.2</ele><time>2026-04-25T11:18:19.006Z</time></trkpt><trkpt lat="41.39736484938587" lon="12.92106610049643"><ele>13.8</ele><time>2026-04-25T11:18:21.006Z</time></trkpt><trkpt lat="41.39737005094966" lon="12.921200083678668"><ele>13.4</ele><time>2026-04-25T11:18:23.006Z</time></trkpt><trkpt lat="41.39739122993482" lon="12.921331554283332"><ele>13.0</ele><time>2026-04-25T11:18:25.006Z</time></trkpt><trkpt lat="41.397381872423736" lon="12.921444754718086"><ele>12.999999999999998</ele><time>2026-04-25T11:18:27.006Z</time></trkpt><trkpt lat="41.39739380109929" lon="12.92158223471343"><ele>13.0</ele><time>2026-04-25T11:18:29.006Z</time></trkpt><trkpt lat="41.39738573051658" lon="12.921708801705845"><ele>13.0</ele><time>2026-04-25T11:18:31.006Z</time></trkpt><trkpt lat="41.397374888818746" lon="12.921830884606653"><ele>13.0</ele><time>2026-04-25T11:18:33.006Z</time></trkpt><trkpt lat="41.397352863757455" lon="12.921926538680156"><ele>12.999999999999998</ele><time>2026-04-25T11:18:35.006Z</time></trkpt><trkpt lat="41.39733737131869" lon="12.922015490513854"><ele>13.0</ele><time>2026-04-25T11:18:37.006Z</time></trkpt><trkpt lat="41.397325230859536" lon="12.922138744501613"><ele>11.6</ele><time>2026-04-25T11:18:39.006Z</time></trkpt><trkpt lat="41.39731765089034" lon="12.922278109779077"><ele>10.200000000000001</ele><time>2026-04-25T11:18:41.006Z</time></trkpt><trkpt lat="41.39733447861733" lon="12.922409820080098"><ele>8.8</ele><time>2026-04-25T11:18:43.006Z</time></trkpt><trkpt lat="41.39735118348753" lon="12.92252766555357"><ele>7.4</ele><time>2026-04-25T11:18:45.006Z</time></trkpt><trkpt lat="41.39734267085823" lon="12.922634072255573"><ele>6.0</ele><time>2026-04-25T11:18:47.006Z</time></trkpt><trkpt lat="41.39729796041111" lon="12.922718206334576"><ele>5.666666666666667</ele><time>2026-04-25T11:18:50.006Z</time></trkpt><trkpt lat="41.39721411056885" lon="12.922743782459367"><ele>5.333333333333333</ele><time>2026-04-25T11:18:52.006Z</time></trkpt><trkpt lat="41.39711436304281" lon="12.922753721326824"><ele>5.0</ele><time>2026-04-25T11:18:54.006Z</time></trkpt><trkpt lat="41.39702768894075" lon="12.922751344943977"><ele>4.666666666666666</ele><time>2026-04-25T11:18:56.006Z</time></trkpt><trkpt lat="41.396954590155644" lon="12.92276647404807"><ele>4.333333333333333</ele><time>2026-04-25T11:18:58.006Z</time></trkpt><trkpt lat="41.39688431558608" lon="12.922782284004203"><ele>4.0</ele><time>2026-04-25T11:19:00.006Z</time></trkpt><trkpt lat="41.39680870012673" lon="12.92280368541797"><ele>3.6666666666666665</ele><time>2026-04-25T11:19:02.006Z</time></trkpt><trkpt lat="41.39674530621373" lon="12.922831824592647"><ele>3.333333333333333</ele><time>2026-04-25T11:19:04.006Z</time></trkpt><trkpt lat="41.39668076820069" lon="12.922866018237997"><ele>3.0</ele><time>2026-04-25T11:19:06.006Z</time></trkpt><trkpt lat="41.396609887884644" lon="12.922931003129936"><ele>2.6666666666666665</ele><time>2026-04-25T11:19:08.006Z</time></trkpt><trkpt lat="41.396557262650184" lon="12.923004725400729"><ele>2.333333333333333</ele><time>2026-04-25T11:19:10.006Z</time></trkpt><trkpt lat="41.39649205010529" lon="12.923068839193723"><ele>2.0</ele><time>2026-04-25T11:19:12.006Z</time></trkpt><trkpt lat="41.39643065033212" lon="12.923125102886138"><ele>2.0</ele><time>2026-04-25T11:19:14.006Z</time></trkpt><trkpt lat="41.39637582042197" lon="12.923188484485163"><ele>1.9999999999999998</ele><time>2026-04-25T11:19:16.006Z</time></trkpt><trkpt lat="41.39632383064123" lon="12.923241212199672"><ele>2.0</ele><time>2026-04-25T11:19:18.006Z</time></trkpt><trkpt lat="41.39626099393085" lon="12.923303205370484"><ele>2.0</ele><time>2026-04-25T11:19:20.006Z</time></trkpt><trkpt lat="41.39620395612413" lon="12.923369800273736"><ele>1.9999999999999998</ele><time>2026-04-25T11:19:22.006Z</time></trkpt><trkpt lat="41.39615390517957" lon="12.923431794404081"><ele>2.0</ele><time>2026-04-25T11:19:24.006Z</time></trkpt><trkpt lat="41.39610098922892" lon="12.923485787035425"><ele>2.0</ele><time>2026-04-25T11:19:26.006Z</time></trkpt><trkpt lat="41.39604193072604" lon="12.923547884088329"><ele>2.333333333333333</ele><time>2026-04-25T11:19:28.006Z</time></trkpt><trkpt lat="41.395985046060055" lon="12.92360414979225"><ele>2.6666666666666665</ele><time>2026-04-25T11:19:30.006Z</time></trkpt><trkpt lat="41.395916397575455" lon="12.923673392543572"><ele>3.0</ele><time>2026-04-25T11:19:33.006Z</time></trkpt><trkpt lat="41.39584715982809" lon="12.923764195628204"><ele>3.333333333333333</ele><time>2026-04-25T11:19:36.006Z</time></trkpt><trkpt lat="41.39579529811515" lon="12.923827792529806"><ele>3.6666666666666665</ele><time>2026-04-25T11:19:38.006Z</time></trkpt><trkpt lat="41.39574097294813" lon="12.923886810169233"><ele>4.0</ele><time>2026-04-25T11:19:40.006Z</time></trkpt><trkpt lat="41.395678528645334" lon="12.923948023998529"><ele>3.9999999999999996</ele><time>2026-04-25T11:19:42.006Z</time></trkpt><trkpt lat="41.395602345845056" lon="12.924006274164324"><ele>4.0</ele><time>2026-04-25T11:19:44.006Z</time></trkpt><trkpt lat="41.395530515168" lon="12.924081874571147"><ele>4.0</ele><time>2026-04-25T11:19:46.006Z</time></trkpt><trkpt lat="41.395454060023646" lon="12.924122015155877"><ele>4.0</ele><time>2026-04-25T11:19:48.006Z</time></trkpt><trkpt lat="41.395370170060886" lon="12.924146783908547"><ele>3.9999999999999996</ele><time>2026-04-25T11:19:50.006Z</time></trkpt><trkpt lat="41.39529238861894" lon="12.924175900684679"><ele>4.0</ele><time>2026-04-25T11:19:52.006Z</time></trkpt><trkpt lat="41.395212507457245" lon="12.924204974550499"><ele>3.9999999999999996</ele><time>2026-04-25T11:19:54.006Z</time></trkpt><trkpt lat="41.395124814623856" lon="12.924256465640136"><ele>4.0</ele><time>2026-04-25T11:19:56.006Z</time></trkpt><trkpt lat="41.39504138282919" lon="12.92430639940547"><ele>4.0</ele><time>2026-04-25T11:19:58.006Z</time></trkpt><trkpt lat="41.394969619396385" lon="12.924367268547012"><ele>4.0</ele><time>2026-04-25T11:20:00.006Z</time></trkpt><trkpt lat="41.394914496124755" lon="12.924440399892239"><ele>3.9999999999999996</ele><time>2026-04-25T11:20:03.006Z</time></trkpt><trkpt lat="41.39487027615782" lon="12.92452070764881"><ele>4.0</ele><time>2026-04-25T11:20:05.006Z</time></trkpt><trkpt lat="41.39482310759271" lon="12.924618815775736"><ele>3.9999999999999996</ele><time>2026-04-25T11:20:07.006Z</time></trkpt><trkpt lat="41.39475726745324" lon="12.924719600918698"><ele>4.0</ele><time>2026-04-25T11:20:09.006Z</time></trkpt><trkpt lat="41.39472697983459" lon="12.92479342512704"><ele>4.0</ele><time>2026-04-25T11:20:10.006Z</time></trkpt><trkpt lat="41.39467577433007" lon="12.924858270232887"><ele>4.0</ele><time>2026-04-25T11:20:11.007Z</time></trkpt><trkpt lat="41.394641075421504" lon="12.92492973073052"><ele>3.9999999999999996</ele><time>2026-04-25T11:20:12.007Z</time></trkpt><trkpt lat="41.39459568241813" lon="12.925037774614415"><ele>4.0</ele><time>2026-04-25T11:20:14.007Z</time></trkpt><trkpt lat="41.39453785742209" lon="12.925122468259486"><ele>3.9999999999999996</ele><time>2026-04-25T11:20:16.007Z</time></trkpt><trkpt lat="41.394503392684896" lon="12.9252282564255"><ele>4.0</ele><time>2026-04-25T11:20:18.007Z</time></trkpt><trkpt lat="41.39444569913518" lon="12.925339993187295"><ele>4.0</ele><time>2026-04-25T11:20:20.007Z</time></trkpt><trkpt lat="41.39437086507622" lon="12.925421068046886"><ele>4.0</ele><time>2026-04-25T11:20:22.007Z</time></trkpt><trkpt lat="41.39428925196251" lon="12.925464813391093"><ele>3.9999999999999996</ele><time>2026-04-25T11:20:24.007Z</time></trkpt><trkpt lat="41.39422640199591" lon="12.9254969696113"><ele>4.0</ele><time>2026-04-25T11:20:25.007Z</time></trkpt><trkpt lat="41.39413609661973" lon="12.925546059831175"><ele>4.0</ele><time>2026-04-25T11:20:27.007Z</time></trkpt><trkpt lat="41.3940614075127" lon="12.925580952814993"><ele>4.0</ele><time>2026-04-25T11:20:29.007Z</time></trkpt><trkpt lat="41.39397404005725" lon="12.925627383998702"><ele>4.0</ele><time>2026-04-25T11:20:31.007Z</time></trkpt><trkpt lat="41.393893200099036" lon="12.925651594752848"><ele>4.0</ele><time>2026-04-25T11:20:33.007Z</time></trkpt><trkpt lat="41.39377802758666" lon="12.925702161498675"><ele>4.0</ele><time>2026-04-25T11:20:35.007Z</time></trkpt><trkpt lat="41.39368005379204" lon="12.925754716116987"><ele>4.2</ele><time>2026-04-25T11:20:37.007Z</time></trkpt><trkpt lat="41.393568862567456" lon="12.92581391920926"><ele>4.4</ele><time>2026-04-25T11:20:39.007Z</time></trkpt><trkpt lat="41.393462676365765" lon="12.925859633420414"><ele>4.6</ele><time>2026-04-25T11:20:41.007Z</time></trkpt><trkpt lat="41.393365819140385" lon="12.92591057604488"><ele>4.8</ele><time>2026-04-25T11:20:43.007Z</time></trkpt><trkpt lat="41.39326696162637" lon="12.92595815712854"><ele>5.0</ele><time>2026-04-25T11:20:45.007Z</time></trkpt><trkpt lat="41.393198969276966" lon="12.925992320104443"><ele>4.666666666666667</ele><time>2026-04-25T11:20:47.007Z</time></trkpt><trkpt lat="41.393117977737106" lon="12.926033029668954"><ele>4.333333333333334</ele><time>2026-04-25T11:20:49.007Z</time></trkpt><trkpt lat="41.39304912928" lon="12.926059014930182"><ele>4.0</ele><time>2026-04-25T11:20:51.007Z</time></trkpt><trkpt lat="41.392970482719356" lon="12.926099535010191"><ele>3.666666666666667</ele><time>2026-04-25T11:20:54.007Z</time></trkpt><trkpt lat="41.392909056809216" lon="12.92612971237061"><ele>3.3333333333333335</ele><time>2026-04-25T11:20:56.007Z</time></trkpt><trkpt lat="41.3928337160145" lon="12.92616259510264"><ele>3.0</ele><time>2026-04-25T11:20:59.007Z</time></trkpt><trkpt lat="41.39275478300848" lon="12.926212629477652"><ele>2.9999999999999996</ele><time>2026-04-25T11:21:02.007Z</time></trkpt><trkpt lat="41.39265791155262" lon="12.926253260281694"><ele>3.0</ele><time>2026-04-25T11:21:04.007Z</time></trkpt><trkpt lat="41.3925956932592" lon="12.92627225087671"><ele>3.0</ele><time>2026-04-25T11:21:05.007Z</time></trkpt><trkpt lat="41.39252819735344" lon="12.926292904137938"><ele>3.0</ele><time>2026-04-25T11:21:06.007Z</time></trkpt><trkpt lat="41.39246789511102" lon="12.926325196011648"><ele>3.0</ele><time>2026-04-25T11:21:07.007Z</time></trkpt><trkpt lat="41.392405418715235" lon="12.926356096181674"><ele>2.9999999999999996</ele><time>2026-04-25T11:21:08.007Z</time></trkpt><trkpt lat="41.39234350989449" lon="12.926380070426587"><ele>3.0</ele><time>2026-04-25T11:21:09.007Z</time></trkpt><trkpt lat="41.3922318438492" lon="12.926437042882254"><ele>3.1666666666666665</ele><time>2026-04-25T11:21:11.007Z</time></trkpt><trkpt lat="41.39213840938996" lon="12.926499773876511"><ele>3.333333333333333</ele><time>2026-04-25T11:21:13.007Z</time></trkpt><trkpt lat="41.39203717477471" lon="12.926548482241074"><ele>3.5</ele><time>2026-04-25T11:21:15.007Z</time></trkpt><trkpt lat="41.39196859005276" lon="12.926576194977239"><ele>3.6666666666666665</ele><time>2026-04-25T11:21:17.007Z</time></trkpt><trkpt lat="41.39189408984953" lon="12.92661059161042"><ele>3.833333333333333</ele><time>2026-04-25T11:21:20.007Z</time></trkpt><trkpt lat="41.39182251236568" lon="12.926634676263559"><ele>4.0</ele><time>2026-04-25T11:21:22.007Z</time></trkpt><trkpt lat="41.39172198822817" lon="12.926672808260014"><ele>4.0</ele><time>2026-04-25T11:21:24.007Z</time></trkpt><trkpt lat="41.39162634923531" lon="12.926722508542074"><ele>4.0</ele><time>2026-04-25T11:21:26.007Z</time></trkpt><trkpt lat="41.391528493171506" lon="12.926768293901363"><ele>4.0</ele><time>2026-04-25T11:21:28.007Z</time></trkpt><trkpt lat="41.391441631733684" lon="12.926819721317687"><ele>4.0</ele><time>2026-04-25T11:21:30.007Z</time></trkpt><trkpt lat="41.391342350115" lon="12.926869962155065"><ele>4.0</ele><time>2026-04-25T11:21:32.007Z</time></trkpt><trkpt lat="41.39124275066764" lon="12.926891143672192"><ele>3.4000000000000004</ele><time>2026-04-25T11:21:34.007Z</time></trkpt><trkpt lat="41.39115125531382" lon="12.926931767373873"><ele>2.8000000000000003</ele><time>2026-04-25T11:21:36.007Z</time></trkpt><trkpt lat="41.39105812862944" lon="12.9269842841513"><ele>2.2</ele><time>2026-04-25T11:21:38.007Z</time></trkpt><trkpt lat="41.39096973922288" lon="12.927026900749539"><ele>1.6</ele><time>2026-04-25T11:21:40.007Z</time></trkpt><trkpt lat="41.39086780773833" lon="12.927062648542293"><ele>1.0</ele><time>2026-04-25T11:21:41.994Z</time></trkpt><trkpt lat="41.39080379601909" lon="12.92709361591636"><ele>0.9999999999999999</ele><time>2026-04-25T11:21:42.994Z</time></trkpt><trkpt lat="41.39069069462919" lon="12.927137771475362"><ele>1.0</ele><time>2026-04-25T11:21:44.994Z</time></trkpt><trkpt lat="41.39057983851841" lon="12.927196710716924"><ele>1.0</ele><time>2026-04-25T11:21:46.994Z</time></trkpt><trkpt lat="41.39051682329328" lon="12.927230578546265"><ele>1.0</ele><time>2026-04-25T11:21:47.994Z</time></trkpt><trkpt lat="41.39045786778486" lon="12.92728083497438"><ele>0.9999999999999999</ele><time>2026-04-25T11:21:48.994Z</time></trkpt><trkpt lat="41.39040546045149" lon="12.927338262349874"><ele>1.0</ele><time>2026-04-25T11:21:49.994Z</time></trkpt><trkpt lat="41.39033212766227" lon="12.92745702436073"><ele>1.0</ele><time>2026-04-25T11:21:51.994Z</time></trkpt><trkpt lat="41.39026057904745" lon="12.9275654920688"><ele>1.0</ele><time>2026-04-25T11:21:53.994Z</time></trkpt><trkpt lat="41.390190461505945" lon="12.92767241203728"><ele>1.0</ele><time>2026-04-25T11:21:55.994Z</time></trkpt><trkpt lat="41.39013311764955" lon="12.92775819838321"><ele>1.0</ele><time>2026-04-25T11:21:57.994Z</time></trkpt><trkpt lat="41.390077369310816" lon="12.927842077911118"><ele>1.0</ele><time>2026-04-25T11:21:59.994Z</time></trkpt><trkpt lat="41.390024612243664" lon="12.927909032218823"><ele>0.9999999999999999</ele><time>2026-04-25T11:22:01.994Z</time></trkpt><trkpt lat="41.38997933831002" lon="12.927990085571976"><ele>1.0</ele><time>2026-04-25T11:22:03.994Z</time></trkpt><trkpt lat="41.389919896021496" lon="12.928066194018424"><ele>1.0</ele><time>2026-04-25T11:22:05.994Z</time></trkpt><trkpt lat="41.38985824567276" lon="12.928146141144438"><ele>1.0</ele><time>2026-04-25T11:22:07.994Z</time></trkpt><trkpt lat="41.38979688321332" lon="12.92824727062012"><ele>0.9999999999999999</ele><time>2026-04-25T11:22:09.994Z</time></trkpt><trkpt lat="41.38973831687809" lon="12.928348441594178"><ele>1.0</ele><time>2026-04-25T11:22:11.994Z</time></trkpt><trkpt lat="41.389671005876274" lon="12.928458272797652"><ele>0.9999999999999999</ele><time>2026-04-25T11:22:13.994Z</time></trkpt><trkpt lat="41.38962745958117" lon="12.928537857380526"><ele>1.0</ele><time>2026-04-25T11:22:14.994Z</time></trkpt><trkpt lat="41.3895686198033" lon="12.928620330323362"><ele>1.0</ele><time>2026-04-25T11:22:15.994Z</time></trkpt><trkpt lat="41.389508799022735" lon="12.92870234761726"><ele>1.0</ele><time>2026-04-25T11:22:16.994Z</time></trkpt><trkpt lat="41.389452204949386" lon="12.928790661860505"><ele>0.9999999999999999</ele><time>2026-04-25T11:22:17.994Z</time></trkpt><trkpt lat="41.38940657166771" lon="12.928863961155423"><ele>1.0</ele><time>2026-04-25T11:22:18.994Z</time></trkpt><trkpt lat="41.38935356123176" lon="12.928934364552156"><ele>1.0</ele><time>2026-04-25T11:22:19.994Z</time></trkpt><trkpt lat="41.38929790986789" lon="12.929018548137881"><ele>1.0</ele><time>2026-04-25T11:22:20.994Z</time></trkpt><trkpt lat="41.38924419817587" lon="12.92909659439132"><ele>1.0</ele><time>2026-04-25T11:22:21.994Z</time></trkpt><trkpt lat="41.38918548738525" lon="12.929183063980947"><ele>1.0</ele><time>2026-04-25T11:22:22.994Z</time></trkpt><trkpt lat="41.389115692289046" lon="12.929281172490649"><ele>1.0</ele><time>2026-04-25T11:22:23.994Z</time></trkpt><trkpt lat="41.389046411964706" lon="12.929389892141884"><ele>1.2000000000000002</ele><time>2026-04-25T11:22:24.994Z</time></trkpt><trkpt lat="41.38898491330187" lon="12.929487832039696"><ele>1.4000000000000001</ele><time>2026-04-25T11:22:25.995Z</time></trkpt><trkpt lat="41.388920362726616" lon="12.929583923280877"><ele>1.6</ele><time>2026-04-25T11:22:26.995Z</time></trkpt><trkpt lat="41.38885348186808" lon="12.929676725833156"><ele>1.8</ele><time>2026-04-25T11:22:27.995Z</time></trkpt><trkpt lat="41.38878791431346" lon="12.929776564937143"><ele>2.0</ele><time>2026-04-25T11:22:28.993Z</time></trkpt><trkpt lat="41.38871742600545" lon="12.929872462939668"><ele>1.9999999999999998</ele><time>2026-04-25T11:22:29.993Z</time></trkpt><trkpt lat="41.38865567975975" lon="12.92994977378884"><ele>2.0</ele><time>2026-04-25T11:22:30.993Z</time></trkpt><trkpt lat="41.38859287974817" lon="12.930026319385103"><ele>2.0</ele><time>2026-04-25T11:22:31.993Z</time></trkpt><trkpt lat="41.38854362008489" lon="12.930095640510675"><ele>2.0</ele><time>2026-04-25T11:22:32.993Z</time></trkpt><trkpt lat="41.38849503121924" lon="12.930165634460895"><ele>1.9999999999999998</ele><time>2026-04-25T11:22:33.993Z</time></trkpt><trkpt lat="41.388420152540334" lon="12.930255821539639"><ele>2.0</ele><time>2026-04-25T11:22:34.993Z</time></trkpt><trkpt lat="41.388355657115284" lon="12.93036780475888"><ele>2.0</ele><time>2026-04-25T11:22:35.993Z</time></trkpt><trkpt lat="41.388286907172116" lon="12.930470172906976"><ele>2.0</ele><time>2026-04-25T11:22:36.993Z</time></trkpt><trkpt lat="41.3882056494108" lon="12.930556978343246"><ele>2.0</ele><time>2026-04-25T11:22:37.993Z</time></trkpt><trkpt lat="41.38815254841188" lon="12.930641810650123"><ele>2.0</ele><time>2026-04-25T11:22:38.993Z</time></trkpt><trkpt lat="41.38807815153095" lon="12.930750012710668"><ele>2.0</ele><time>2026-04-25T11:22:39.993Z</time></trkpt><trkpt lat="41.388001261457156" lon="12.930861940323313"><ele>1.8333333333333333</ele><time>2026-04-25T11:22:40.993Z</time></trkpt><trkpt lat="41.38793321950627" lon="12.930972599172678"><ele>1.6666666666666665</ele><time>2026-04-25T11:22:41.993Z</time></trkpt><trkpt lat="41.38786987037882" lon="12.93105501693431"><ele>1.5</ele><time>2026-04-25T11:22:42.993Z</time></trkpt><trkpt lat="41.38782123563648" lon="12.931132331712092"><ele>1.3333333333333333</ele><time>2026-04-25T11:22:43.993Z</time></trkpt><trkpt lat="41.387776408124225" lon="12.93121483454676"><ele>1.1666666666666665</ele><time>2026-04-25T11:22:44.993Z</time></trkpt><trkpt lat="41.387730678734286" lon="12.931282695197474"><ele>1.0</ele><time>2026-04-25T11:22:45.993Z</time></trkpt><trkpt lat="41.387633667487634" lon="12.931397193857292"><ele>1.0</ele><time>2026-04-25T11:22:47.993Z</time></trkpt><trkpt lat="41.38756049434687" lon="12.931519693869381"><ele>1.0</ele><time>2026-04-25T11:22:49.993Z</time></trkpt><trkpt lat="41.387520231441435" lon="12.931585212209193"><ele>1.0</ele><time>2026-04-25T11:22:50.993Z</time></trkpt><trkpt lat="41.387481478010905" lon="12.9316545457651"><ele>1.0</ele><time>2026-04-25T11:22:51.993Z</time></trkpt><trkpt lat="41.387405013919505" lon="12.931771213907787"><ele>1.0</ele><time>2026-04-25T11:22:53.993Z</time></trkpt><trkpt lat="41.387325932495386" lon="12.93186718576158"><ele>1.2000000000000002</ele><time>2026-04-25T11:22:55.993Z</time></trkpt><trkpt lat="41.38725092615264" lon="12.931924337225302"><ele>1.4000000000000001</ele><time>2026-04-25T11:22:57.993Z</time></trkpt><trkpt lat="41.38716405647993" lon="12.931939819881425"><ele>1.6</ele><time>2026-04-25T11:22:59.993Z</time></trkpt><trkpt lat="41.38709474313585" lon="12.93194323034368"><ele>1.8</ele><time>2026-04-25T11:23:02.993Z</time></trkpt><trkpt lat="41.387020277528165" lon="12.931967414121162"><ele>2.0</ele><time>2026-04-25T11:24:01.994Z</time></trkpt><trkpt lat="41.38705108511366" lon="12.93214225213689"><ele>2.1666666666666665</ele><time>2026-04-25T11:24:02.994Z</time></trkpt><trkpt lat="41.387061901256686" lon="12.932256617475252"><ele>2.333333333333333</ele><time>2026-04-25T11:24:03.994Z</time></trkpt><trkpt lat="41.38707792786407" lon="12.932352355930295"><ele>2.5</ele><time>2026-04-25T11:24:04.994Z</time></trkpt><trkpt lat="41.387110843409395" lon="12.932474182659098"><ele>2.6666666666666665</ele><time>2026-04-25T11:24:05.994Z</time></trkpt><trkpt lat="41.38712681122736" lon="12.932596550071255"><ele>2.8333333333333335</ele><time>2026-04-25T11:24:06.994Z</time></trkpt><trkpt lat="41.3871410630281" lon="12.932722194194092"><ele>3.0</ele><time>2026-04-25T11:24:07.994Z</time></trkpt><trkpt lat="41.38715527601546" lon="12.932859037697929"><ele>3.0</ele><time>2026-04-25T11:24:08.994Z</time></trkpt><trkpt lat="41.387179866995744" lon="12.932991231260283"><ele>3.0</ele><time>2026-04-25T11:24:09.994Z</time></trkpt><trkpt lat="41.387192754056606" lon="12.93312099193481"><ele>3.0</ele><time>2026-04-25T11:24:10.994Z</time></trkpt><trkpt lat="41.38721195644096" lon="12.933263188828592"><ele>3.0</ele><time>2026-04-25T11:24:11.994Z</time></trkpt><trkpt lat="41.387228147895854" lon="12.933403598411092"><ele>3.0</ele><time>2026-04-25T11:24:12.994Z</time></trkpt><trkpt lat="41.38724516494189" lon="12.933561485111792"><ele>3.0</ele><time>2026-04-25T11:24:13.994Z</time></trkpt><trkpt lat="41.387270487384185" lon="12.933743817711274"><ele>3.0</ele><time>2026-04-25T11:24:14.994Z</time></trkpt><trkpt lat="41.387297962098145" lon="12.93395933501911"><ele>3.0</ele><time>2026-04-25T11:24:15.994Z</time></trkpt><trkpt lat="41.38732184298834" lon="12.934160494457743"><ele>3.0</ele><time>2026-04-25T11:24:16.994Z</time></trkpt><trkpt lat="41.38734330808103" lon="12.934336847635615"><ele>3.0</ele><time>2026-04-25T11:24:17.994Z</time></trkpt><trkpt lat="41.38736376905574" lon="12.934496107679713"><ele>3.0</ele><time>2026-04-25T11:24:18.994Z</time></trkpt><trkpt lat="41.38736678593419" lon="12.9346559871711"><ele>3.0</ele><time>2026-04-25T11:24:19.994Z</time></trkpt><trkpt lat="41.38738204064051" lon="12.934794078610821"><ele>3.0</ele><time>2026-04-25T11:24:20.994Z</time></trkpt><trkpt lat="41.3873975669121" lon="12.93493359003836"><ele>3.0</ele><time>2026-04-25T11:24:21.994Z</time></trkpt><trkpt lat="41.38741475829548" lon="12.935077616207261"><ele>3.0</ele><time>2026-04-25T11:24:22.994Z</time></trkpt><trkpt lat="41.38743250832651" lon="12.93523599847055"><ele>3.0</ele><time>2026-04-25T11:24:23.994Z</time></trkpt><trkpt lat="41.38745288166521" lon="12.935405576524184"><ele>2.75</ele><time>2026-04-25T11:24:24.994Z</time></trkpt><trkpt lat="41.38747451726129" lon="12.935581941589236"><ele>2.5</ele><time>2026-04-25T11:24:25.994Z</time></trkpt><trkpt lat="41.38749688910842" lon="12.93576114562818"><ele>2.25</ele><time>2026-04-25T11:24:26.994Z</time></trkpt><trkpt lat="41.387518819394145" lon="12.935946652521633"><ele>2.0</ele><time>2026-04-25T11:24:27.994Z</time></trkpt><trkpt lat="41.387536226467724" lon="12.93611372799125"><ele>2.0</ele><time>2026-04-25T11:24:28.994Z</time></trkpt><trkpt lat="41.387549674830026" lon="12.93625749307953"><ele>2.0</ele><time>2026-04-25T11:24:29.994Z</time></trkpt><trkpt lat="41.38756341284369" lon="12.93639045565407"><ele>2.0</ele><time>2026-04-25T11:24:30.994Z</time></trkpt><trkpt lat="41.387582878492275" lon="12.936514080752227"><ele>2.0</ele><time>2026-04-25T11:24:31.994Z</time></trkpt><trkpt lat="41.387595512424575" lon="12.936626242466987"><ele>2.0</ele><time>2026-04-25T11:24:32.994Z</time></trkpt><trkpt lat="41.38760132957376" lon="12.936724826607147"><ele>2.4000000000000004</ele><time>2026-04-25T11:24:33.994Z</time></trkpt><trkpt lat="41.38759197014013" lon="12.936852027571494"><ele>2.8000000000000003</ele><time>2026-04-25T11:24:35.992Z</time></trkpt><trkpt lat="41.38744427888262" lon="12.936880036378371"><ele>3.2</ele><time>2026-04-25T11:24:37.992Z</time></trkpt><trkpt lat="41.3873397719796" lon="12.93689606629568"><ele>3.6</ele><time>2026-04-25T11:24:38.992Z</time></trkpt><trkpt lat="41.38725319726519" lon="12.93690767915848"><ele>4.0</ele><time>2026-04-25T11:24:39.992Z</time></trkpt><trkpt lat="41.38718809808665" lon="12.936921307621926"><ele>4.0</ele><time>2026-04-25T11:24:40.992Z</time></trkpt><trkpt lat="41.38707904249467" lon="12.93694332768769"><ele>4.0</ele><time>2026-04-25T11:24:42.992Z</time></trkpt><trkpt lat="41.38699581957561" lon="12.936895958273455"><ele>4.0</ele><time>2026-04-25T11:24:44.992Z</time></trkpt><trkpt lat="41.386987842166114" lon="12.936748703950096"><ele>4.0</ele><time>2026-04-25T11:24:45.992Z</time></trkpt><trkpt lat="41.38698560908508" lon="12.936655505780854"><ele>4.0</ele><time>2026-04-25T11:24:46.991Z</time></trkpt><trkpt lat="41.38698275165737" lon="12.936557536611376"><ele>3.4999999999999996</ele><time>2026-04-25T11:24:47.991Z</time></trkpt><trkpt lat="41.38697595533575" lon="12.936402671663826"><ele>3.0</ele><time>2026-04-25T11:24:49.991Z</time></trkpt><trkpt lat="41.38696751002866" lon="12.936296041255314"><ele>2.5</ele><time>2026-04-25T11:24:51.991Z</time></trkpt><trkpt lat="41.38696715186136" lon="12.936196736852718"><ele>2.0</ele><time>2026-04-25T11:24:55.991Z</time></trkpt><trkpt lat="41.386949205409245" lon="12.936084523310251"><ele>1.5</ele><time>2026-04-25T11:25:07.991Z</time></trkpt><trkpt lat="41.38693403976756" lon="12.935995748827159"><ele>1.0</ele><time>2026-04-25T11:25:08.991Z</time></trkpt><trkpt lat="41.386924575298146" lon="12.935893750327704"><ele>1.6</ele><time>2026-04-25T11:25:09.991Z</time></trkpt><trkpt lat="41.38691734781246" lon="12.935797192048065"><ele>2.2</ele><time>2026-04-25T11:25:10.991Z</time></trkpt><trkpt lat="41.386906220099846" lon="12.935686252449312"><ele>2.8000000000000003</ele><time>2026-04-25T11:25:11.991Z</time></trkpt><trkpt lat="41.38688194818859" lon="12.93555118718814"><ele>3.4000000000000004</ele><time>2026-04-25T11:25:12.991Z</time></trkpt><trkpt lat="41.386861060772794" lon="12.935369496866938"><ele>4.0</ele><time>2026-04-25T11:25:13.991Z</time></trkpt><trkpt lat="41.38683869300937" lon="12.935161984821105"><ele>3.333333333333333</ele><time>2026-04-25T11:25:14.991Z</time></trkpt><trkpt lat="41.386815027635066" lon="12.934940199813255"><ele>2.6666666666666665</ele><time>2026-04-25T11:25:15.991Z</time></trkpt><trkpt lat="41.38679298582789" lon="12.934728157473032"><ele>2.0</ele><time>2026-04-25T11:25:16.991Z</time></trkpt><trkpt lat="41.38677444409098" lon="12.93454403531741"><ele>2.0</ele><time>2026-04-25T11:25:17.991Z</time></trkpt><trkpt lat="41.38675685510055" lon="12.93437849169003"><ele>2.0</ele><time>2026-04-25T11:25:18.991Z</time></trkpt><trkpt lat="41.386740605032486" lon="12.934224687269662"><ele>2.0</ele><time>2026-04-25T11:25:19.991Z</time></trkpt><trkpt lat="41.38671885750331" lon="12.934086416532399"><ele>2.0</ele><time>2026-04-25T11:25:20.991Z</time></trkpt><trkpt lat="41.386710066413215" lon="12.933979198475303"><ele>2.0</ele><time>2026-04-25T11:25:21.991Z</time></trkpt><trkpt lat="41.386699487332876" lon="12.933884931235886"><ele>1.8</ele><time>2026-04-25T11:25:22.991Z</time></trkpt><trkpt lat="41.38668057064448" lon="12.933730275213655"><ele>1.6</ele><time>2026-04-25T11:25:24.991Z</time></trkpt><trkpt lat="41.38666451152833" lon="12.933592682380382"><ele>1.4000000000000001</ele><time>2026-04-25T11:25:26.991Z</time></trkpt><trkpt lat="41.386633958880736" lon="12.933440066301857"><ele>1.2000000000000002</ele><time>2026-04-25T11:25:28.991Z</time></trkpt><trkpt lat="41.386637772147715" lon="12.93333902539288"><ele>1.0</ele><time>2026-04-25T11:25:29.991Z</time></trkpt><trkpt lat="41.38661330635679" lon="12.933221853681069"><ele>1.0</ele><time>2026-04-25T11:25:30.991Z</time></trkpt><trkpt lat="41.38660635350468" lon="12.933090439676597"><ele>1.0</ele><time>2026-04-25T11:25:31.991Z</time></trkpt><trkpt lat="41.38658777090406" lon="12.932963056497693"><ele>1.0</ele><time>2026-04-25T11:25:32.991Z</time></trkpt><trkpt lat="41.386570014100656" lon="12.93283534240615"><ele>1.0</ele><time>2026-04-25T11:25:33.991Z</time></trkpt><trkpt lat="41.38655473480324" lon="12.932709593491499"><ele>1.0</ele><time>2026-04-25T11:25:34.991Z</time></trkpt><trkpt lat="41.386541335594686" lon="12.932563992251707"><ele>1.5</ele><time>2026-04-25T11:25:35.991Z</time></trkpt><trkpt lat="41.386529928118655" lon="12.932410893934785"><ele>2.0</ele><time>2026-04-25T11:25:36.991Z</time></trkpt><trkpt lat="41.38650581998088" lon="12.932239618531966"><ele>2.5</ele><time>2026-04-25T11:25:37.991Z</time></trkpt><trkpt lat="41.38648540995404" lon="12.932037594037816"><ele>3.0</ele><time>2026-04-25T11:25:38.991Z</time></trkpt><trkpt lat="41.38646074111109" lon="12.931860647199747"><ele>2.6666666666666665</ele><time>2026-04-25T11:25:39.991Z</time></trkpt><trkpt lat="41.38644002494327" lon="12.931671556855592"><ele>2.333333333333333</ele><time>2026-04-25T11:25:40.991Z</time></trkpt><trkpt lat="41.38642283067875" lon="12.931477470550554"><ele>2.0</ele><time>2026-04-25T11:25:41.991Z</time></trkpt><trkpt lat="41.3864056249225" lon="12.931263780550413"><ele>2.0</ele><time>2026-04-25T11:25:42.991Z</time></trkpt><trkpt lat="41.386392694414596" lon="12.931033840277486"><ele>2.0</ele><time>2026-04-25T11:25:43.991Z</time></trkpt><trkpt lat="41.386390041904335" lon="12.930816815534792"><ele>2.0</ele><time>2026-04-25T11:25:44.991Z</time></trkpt><trkpt lat="41.38639518756694" lon="12.930617602664654"><ele>2.333333333333333</ele><time>2026-04-25T11:25:45.991Z</time></trkpt><trkpt lat="41.38639114733199" lon="12.930415613733516"><ele>2.6666666666666665</ele><time>2026-04-25T11:25:46.991Z</time></trkpt><trkpt lat="41.38638845054929" lon="12.930196049432443"><ele>3.0</ele><time>2026-04-25T11:25:47.992Z</time></trkpt><trkpt lat="41.38638891331487" lon="12.92994054053523"><ele>3.0</ele><time>2026-04-25T11:25:48.992Z</time></trkpt><trkpt lat="41.38638588427361" lon="12.929642533075976"><ele>3.0</ele><time>2026-04-25T11:25:49.992Z</time></trkpt><trkpt lat="41.38638315347349" lon="12.929354073985184"><ele>3.0</ele><time>2026-04-25T11:25:50.992Z</time></trkpt><trkpt lat="41.386377306284736" lon="12.929044299712336"><ele>3.0</ele><time>2026-04-25T11:25:51.992Z</time></trkpt><trkpt lat="41.386377440850524" lon="12.9287002125914"><ele>3.0</ele><time>2026-04-25T11:25:52.992Z</time></trkpt><trkpt lat="41.38636916554015" lon="12.928347603884879"><ele>3.0</ele><time>2026-04-25T11:25:53.992Z</time></trkpt><trkpt lat="41.386377943622065" lon="12.928045445913499"><ele>3.0</ele><time>2026-04-25T11:25:54.992Z</time></trkpt><trkpt lat="41.386376795192575" lon="12.927776052301835"><ele>3.0</ele><time>2026-04-25T11:25:55.992Z</time></trkpt><trkpt lat="41.386375650537545" lon="12.927523052377923"><ele>3.0</ele><time>2026-04-25T11:25:56.992Z</time></trkpt><trkpt lat="41.38637424754146" lon="12.927273533096818"><ele>3.0</ele><time>2026-04-25T11:25:57.992Z</time></trkpt><trkpt lat="41.38637232676332" lon="12.927016420590396"><ele>3.0</ele><time>2026-04-25T11:25:58.992Z</time></trkpt><trkpt lat="41.386376166627294" lon="12.92675839253999"><ele>2.6666666666666665</ele><time>2026-04-25T11:25:59.992Z</time></trkpt><trkpt lat="41.386374879937364" lon="12.926531939435156"><ele>2.333333333333333</ele><time>2026-04-25T11:26:00.992Z</time></trkpt><trkpt lat="41.386374921877774" lon="12.926317778432887"><ele>2.0</ele><time>2026-04-25T11:26:01.992Z</time></trkpt><trkpt lat="41.38637682945516" lon="12.926115663829076"><ele>2.0</ele><time>2026-04-25T11:26:02.992Z</time></trkpt><trkpt lat="41.38637659607387" lon="12.925927335165364"><ele>2.0</ele><time>2026-04-25T11:26:03.992Z</time></trkpt><trkpt lat="41.386374129072834" lon="12.92575150291314"><ele>2.0</ele><time>2026-04-25T11:26:04.992Z</time></trkpt><trkpt lat="41.38636669135391" lon="12.925586771237768"><ele>2.0</ele><time>2026-04-25T11:26:05.992Z</time></trkpt><trkpt lat="41.38636545016855" lon="12.925434472324863"><ele>1.8333333333333333</ele><time>2026-04-25T11:26:06.992Z</time></trkpt><trkpt lat="41.38636845607894" lon="12.925300447358675"><ele>1.6666666666666665</ele><time>2026-04-25T11:26:07.992Z</time></trkpt><trkpt lat="41.38636613999065" lon="12.925181880293806"><ele>1.5</ele><time>2026-04-25T11:26:08.992Z</time></trkpt><trkpt lat="41.38636490379641" lon="12.925078411601994"><ele>1.3333333333333333</ele><time>2026-04-25T11:26:09.992Z</time></trkpt><trkpt lat="41.38636222358122" lon="12.924993681259869"><ele>1.1666666666666665</ele><time>2026-04-25T11:26:10.992Z</time></trkpt><trkpt lat="41.386366943962166" lon="12.924869987737429"><ele>1.0</ele><time>2026-04-25T11:26:12.992Z</time></trkpt><trkpt lat="41.386371786885995" lon="12.92502038352504"><ele>1.0</ele><time>2026-04-25T11:26:21.992Z</time></trkpt><trkpt lat="41.38636080727519" lon="12.925139749996093"><ele>1.0</ele><time>2026-04-25T11:26:22.992Z</time></trkpt><trkpt lat="41.38637223282005" lon="12.92526228475024"><ele>1.0</ele><time>2026-04-25T11:26:24.992Z</time></trkpt><trkpt lat="41.38620758977609" lon="12.925256254491979"><ele>1.0</ele><time>2026-04-25T11:26:27.992Z</time></trkpt><trkpt lat="41.38608541351921" lon="12.925266173223783"><ele>2.2</ele><time>2026-04-25T11:26:29.992Z</time></trkpt><trkpt lat="41.385956848286796" lon="12.925261005517612"><ele>3.4</ele><time>2026-04-25T11:26:31.992Z</time></trkpt><trkpt lat="41.38584043569849" lon="12.925271747588452"><ele>4.6</ele><time>2026-04-25T11:26:33.992Z</time></trkpt><trkpt lat="41.385730949829274" lon="12.925279355199311"><ele>5.8</ele><time>2026-04-25T11:26:35.992Z</time></trkpt><trkpt lat="41.38565567163982" lon="12.925278192925836"><ele>7.0</ele><time>2026-04-25T11:26:36.992Z</time></trkpt><trkpt lat="41.38554423515116" lon="12.925274823778489"><ele>7.000000000000001</ele><time>2026-04-25T11:26:38.992Z</time></trkpt><trkpt lat="41.38546738393414" lon="12.925274365080849"><ele>7.0</ele><time>2026-04-25T11:26:40.991Z</time></trkpt><trkpt lat="41.38540209580926" lon="12.925280137450173"><ele>7.0</ele><time>2026-04-25T11:26:50.99Z</time></trkpt><trkpt lat="41.385467152330165" lon="12.92529674089106"><ele>7.0</ele><time>2026-04-25T11:28:00.992Z</time></trkpt><trkpt lat="41.38555367608313" lon="12.925295365696941"><ele>7.000000000000001</ele><time>2026-04-25T11:28:02.992Z</time></trkpt><trkpt lat="41.385634959848794" lon="12.925294999581396"><ele>7.0</ele><time>2026-04-25T11:28:03.992Z</time></trkpt><trkpt lat="41.38573788937505" lon="12.925295766652537"><ele>7.000000000000001</ele><time>2026-04-25T11:28:04.992Z</time></trkpt><trkpt lat="41.38582327236112" lon="12.925291598536889"><ele>7.0</ele><time>2026-04-25T11:28:05.992Z</time></trkpt><trkpt lat="41.38590984557198" lon="12.9252929216126"><ele>7.0</ele><time>2026-04-25T11:28:06.992Z</time></trkpt><trkpt lat="41.38598678305268" lon="12.925296405349505"><ele>7.0</ele><time>2026-04-25T11:28:07.992Z</time></trkpt><trkpt lat="41.386081440145745" lon="12.925292131517343"><ele>7.000000000000001</ele><time>2026-04-25T11:28:08.992Z</time></trkpt><trkpt lat="41.386162548795205" lon="12.925291724525946"><ele>7.0</ele><time>2026-04-25T11:28:09.992Z</time></trkpt><trkpt lat="41.38625615968073" lon="12.925295170957687"><ele>7.000000000000001</ele><time>2026-04-25T11:28:11.992Z</time></trkpt><trkpt lat="41.38633250809488" lon="12.925283939931193"><ele>7.0</ele><time>2026-04-25T11:28:54.991Z</time></trkpt><trkpt lat="41.386371438745336" lon="12.925179109961253"><ele>7.0</ele><time>2026-04-25T11:28:56.991Z</time></trkpt><trkpt lat="41.3863621678505" lon="12.925052842051356"><ele>7.0</ele><time>2026-04-25T11:28:57.991Z</time></trkpt><trkpt lat="41.38635584228497" lon="12.924931212061969"><ele>7.000000000000001</ele><time>2026-04-25T11:28:58.991Z</time></trkpt><trkpt lat="41.38636000283883" lon="12.92480469873224"><ele>7.0</ele><time>2026-04-25T11:28:59.991Z</time></trkpt><trkpt lat="41.38635927025112" lon="12.924663077097431"><ele>5.5</ele><time>2026-04-25T11:29:00.991Z</time></trkpt><trkpt lat="41.38636261257197" lon="12.924503929336794"><ele>4.0</ele><time>2026-04-25T11:29:01.991Z</time></trkpt><trkpt lat="41.386361860927224" lon="12.924342337077007"><ele>2.5</ele><time>2026-04-25T11:29:02.991Z</time></trkpt><trkpt lat="41.38636416950575" lon="12.924177283006593"><ele>1.0</ele><time>2026-04-25T11:29:03.991Z</time></trkpt><trkpt lat="41.386363814205" lon="12.924013415646305"><ele>1.0</ele><time>2026-04-25T11:29:04.991Z</time></trkpt><trkpt lat="41.38636267739696" lon="12.923840478159534"><ele>1.0</ele><time>2026-04-25T11:29:05.991Z</time></trkpt><trkpt lat="41.386360523440615" lon="12.923653910283678"><ele>1.0</ele><time>2026-04-25T11:29:06.991Z</time></trkpt><trkpt lat="41.386358402032194" lon="12.923452012379242"><ele>1.0</ele><time>2026-04-25T11:29:07.991Z</time></trkpt><trkpt lat="41.38635868192965" lon="12.92324499064252"><ele>1.0</ele><time>2026-04-25T11:29:08.991Z</time></trkpt><trkpt lat="41.3863619192234" lon="12.92303522396411"><ele>1.0</ele><time>2026-04-25T11:29:09.991Z</time></trkpt><trkpt lat="41.38636339053593" lon="12.922798402092461"><ele>1.0</ele><time>2026-04-25T11:29:10.991Z</time></trkpt><trkpt lat="41.38636421618405" lon="12.922574864716639"><ele>0.6666666666666666</ele><time>2026-04-25T11:29:11.991Z</time></trkpt><trkpt lat="41.38636427956832" lon="12.922357481617547"><ele>0.3333333333333333</ele><time>2026-04-25T11:29:12.991Z</time></trkpt><trkpt lat="41.38636611285315" lon="12.922134528956697"><ele>0.0</ele><time>2026-04-25T11:29:13.991Z</time></trkpt><trkpt lat="41.38636768665611" lon="12.921912589456875"><ele>-0.3333333333333333</ele><time>2026-04-25T11:29:14.991Z</time></trkpt><trkpt lat="41.386369510367814" lon="12.921691029629566"><ele>-0.6666666666666666</ele><time>2026-04-25T11:29:15.991Z</time></trkpt><trkpt lat="41.38636718570665" lon="12.921457904036401"><ele>-1.0</ele><time>2026-04-25T11:29:16.991Z</time></trkpt><trkpt lat="41.38635415728177" lon="12.921217491336344"><ele>-1.3333333333333333</ele><time>2026-04-25T11:29:17.991Z</time></trkpt><trkpt lat="41.38633178403917" lon="12.92098257272931"><ele>-1.6666666666666665</ele><time>2026-04-25T11:29:18.991Z</time></trkpt><trkpt lat="41.386289597028096" lon="12.92071749614078"><ele>-2.0</ele><time>2026-04-25T11:29:19.991Z</time></trkpt><trkpt lat="41.38623436232516" lon="12.920452860034558"><ele>-1.3333333333333333</ele><time>2026-04-25T11:29:20.991Z</time></trkpt><trkpt lat="41.38616864897505" lon="12.920195361027467"><ele>-0.6666666666666666</ele><time>2026-04-25T11:29:21.991Z</time></trkpt><trkpt lat="41.386090487666785" lon="12.919960706502666"><ele>0.0</ele><time>2026-04-25T11:29:22.991Z</time></trkpt><trkpt lat="41.38600625730323" lon="12.919743192860166"><ele>0.3333333333333333</ele><time>2026-04-25T11:29:23.991Z</time></trkpt><trkpt lat="41.38590912315113" lon="12.919526997536774"><ele>0.6666666666666666</ele><time>2026-04-25T11:29:24.991Z</time></trkpt><trkpt lat="41.38579575349924" lon="12.919312194068429"><ele>1.0</ele><time>2026-04-25T11:29:25.991Z</time></trkpt><trkpt lat="41.38568162798268" lon="12.919119797418766"><ele>1.0</ele><time>2026-04-25T11:29:26.991Z</time></trkpt><trkpt lat="41.385576778339704" lon="12.918957090892247"><ele>1.0</ele><time>2026-04-25T11:29:27.991Z</time></trkpt><trkpt lat="41.38547378950062" lon="12.918820120084478"><ele>1.0</ele><time>2026-04-25T11:29:28.991Z</time></trkpt><trkpt lat="41.38536952970912" lon="12.918702314172847"><ele>1.0</ele><time>2026-04-25T11:29:29.991Z</time></trkpt><trkpt lat="41.38528010492727" lon="12.918616326914856"><ele>1.0</ele><time>2026-04-25T11:29:30.991Z</time></trkpt><trkpt lat="41.385204645847374" lon="12.918558387183356"><ele>1.0</ele><time>2026-04-25T11:29:31.991Z</time></trkpt><trkpt lat="41.38511807648165" lon="12.918477030487905"><ele>1.0</ele><time>2026-04-25T11:29:33.991Z</time></trkpt><trkpt lat="41.38500636228918" lon="12.918467157350205"><ele>1.0</ele><time>2026-04-25T11:29:36.991Z</time></trkpt><trkpt lat="41.38494116105312" lon="12.918456414527984"><ele>1.0</ele><time>2026-04-25T11:29:37.991Z</time></trkpt><trkpt lat="41.38486512656462" lon="12.918423187254286"><ele>1.3333333333333333</ele><time>2026-04-25T11:29:38.991Z</time></trkpt><trkpt lat="41.38478742365833" lon="12.91838929554276"><ele>1.6666666666666665</ele><time>2026-04-25T11:29:39.991Z</time></trkpt><trkpt lat="41.38471051149104" lon="12.918352540298782"><ele>2.0</ele><time>2026-04-25T11:29:40.991Z</time></trkpt><trkpt lat="41.384638838523834" lon="12.918321213325083"><ele>2.3333333333333335</ele><time>2026-04-25T11:29:41.991Z</time></trkpt><trkpt lat="41.384568142925445" lon="12.918297716258007"><ele>2.6666666666666665</ele><time>2026-04-25T11:29:42.991Z</time></trkpt><trkpt lat="41.38449736045911" lon="12.918259856252408"><ele>3.0</ele><time>2026-04-25T11:29:43.991Z</time></trkpt><trkpt lat="41.384427130310854" lon="12.918228808576295"><ele>3.3333333333333335</ele><time>2026-04-25T11:29:44.991Z</time></trkpt><trkpt lat="41.38435217560383" lon="12.918207078620283"><ele>3.666666666666667</ele><time>2026-04-25T11:29:45.991Z</time></trkpt><trkpt lat="41.38428149769251" lon="12.91818379154147"><ele>4.0</ele><time>2026-04-25T11:29:46.991Z</time></trkpt><trkpt lat="41.38417812839457" lon="12.918134458075397"><ele>4.333333333333334</ele><time>2026-04-25T11:29:48.991Z</time></trkpt><trkpt lat="41.384088597663784" lon="12.918116110529567"><ele>4.666666666666667</ele><time>2026-04-25T11:29:51.991Z</time></trkpt><trkpt lat="41.383999902266645" lon="12.918072080193271"><ele>5.0</ele><time>2026-04-25T11:29:53.991Z</time></trkpt><trkpt lat="41.38388656944792" lon="12.918038251468785"><ele>5.0</ele><time>2026-04-25T11:29:55.991Z</time></trkpt><trkpt lat="41.38377746717075" lon="12.918009330901821"><ele>5.0</ele><time>2026-04-25T11:29:57.991Z</time></trkpt><trkpt lat="41.38369685123476" lon="12.917998512661754"><ele>5.0</ele><time>2026-04-25T11:29:59.991Z</time></trkpt><trkpt lat="41.383627448007864" lon="12.918024888801382"><ele>5.0</ele><time>2026-04-25T11:30:01.991Z</time></trkpt><trkpt lat="41.38353851901035" lon="12.918092982548309"><ele>5.0</ele><time>2026-04-25T11:30:03.991Z</time></trkpt><trkpt lat="41.38348101643728" lon="12.918136108317693"><ele>5.0</ele><time>2026-04-25T11:30:04.991Z</time></trkpt><trkpt lat="41.38343202687852" lon="12.918200083744981"><ele>5.0</ele><time>2026-04-25T11:30:05.991Z</time></trkpt><trkpt lat="41.383398274666206" lon="12.918279607290401"><ele>5.0</ele><time>2026-04-25T11:30:06.991Z</time></trkpt><trkpt lat="41.383342343310524" lon="12.91833010019887"><ele>5.0</ele><time>2026-04-25T11:30:08.991Z</time></trkpt><trkpt lat="41.38330255034128" lon="12.918421325519063"><ele>5.0</ele><time>2026-04-25T11:30:10.991Z</time></trkpt><trkpt lat="41.383234930636235" lon="12.918505346438906"><ele>5.0</ele><time>2026-04-25T11:30:12.991Z</time></trkpt><trkpt lat="41.38319003786441" lon="12.918577459493756"><ele>5.0</ele><time>2026-04-25T11:30:14.991Z</time></trkpt><trkpt lat="41.383255769213115" lon="12.918472227231097"><ele>5.0</ele><time>2026-04-25T11:31:16.99Z</time></trkpt><trkpt lat="41.3833283882943" lon="12.918356810131"><ele>5.0</ele><time>2026-04-25T11:31:18.99Z</time></trkpt><trkpt lat="41.383401138845514" lon="12.918264280284887"><ele>5.0</ele><time>2026-04-25T11:31:20.99Z</time></trkpt><trkpt lat="41.38343225112934" lon="12.918184128075474"><ele>5.0</ele><time>2026-04-25T11:31:22.99Z</time></trkpt><trkpt lat="41.38349710973851" lon="12.918087679664504"><ele>5.0</ele><time>2026-04-25T11:31:24.99Z</time></trkpt><trkpt lat="41.38358967108346" lon="12.91801847499001"><ele>5.0</ele><time>2026-04-25T11:31:25.99Z</time></trkpt><trkpt lat="41.38364638411535" lon="12.917978339842511"><ele>5.0</ele><time>2026-04-25T11:31:26.99Z</time></trkpt><trkpt lat="41.383818674608726" lon="12.91812295300664"><ele>5.0</ele><time>2026-04-25T11:31:27.99Z</time></trkpt><trkpt lat="41.383935399585695" lon="12.918163903101822"><ele>5.0</ele><time>2026-04-25T11:31:28.99Z</time></trkpt><trkpt lat="41.384021429620084" lon="12.918199567235131"><ele>5.0</ele><time>2026-04-25T11:31:29.99Z</time></trkpt><trkpt lat="41.38409375461159" lon="12.918211685055397"><ele>5.0</ele><time>2026-04-25T11:31:37.99Z</time></trkpt><trkpt lat="41.38417587357736" lon="12.91823265189264"><ele>5.0</ele><time>2026-04-25T11:31:39.99Z</time></trkpt><trkpt lat="41.384262881152004" lon="12.918225518799755"><ele>5.0</ele><time>2026-04-25T11:31:40.99Z</time></trkpt><trkpt lat="41.38432959171545" lon="12.918251068567052"><ele>5.0</ele><time>2026-04-25T11:31:41.99Z</time></trkpt><trkpt lat="41.384399165670224" lon="12.918279864863917"><ele>5.0</ele><time>2026-04-25T11:31:42.99Z</time></trkpt><trkpt lat="41.38446476754325" lon="12.91830716430769"><ele>5.0</ele><time>2026-04-25T11:31:43.99Z</time></trkpt><trkpt lat="41.38454066814156" lon="12.918338749419132"><ele>5.0</ele><time>2026-04-25T11:31:44.99Z</time></trkpt><trkpt lat="41.3846351737712" lon="12.918377585589642"><ele>5.0</ele><time>2026-04-25T11:31:45.99Z</time></trkpt><trkpt lat="41.38473697648989" lon="12.918436991250864"><ele>5.0</ele><time>2026-04-25T11:31:46.99Z</time></trkpt><trkpt lat="41.38485646987996" lon="12.918476652375313"><ele>5.0</ele><time>2026-04-25T11:31:47.99Z</time></trkpt><trkpt lat="41.38498097629036" lon="12.918524713471182"><ele>3.666666666666667</ele><time>2026-04-25T11:31:48.99Z</time></trkpt><trkpt lat="41.38511348836138" lon="12.918589132762582"><ele>2.3333333333333335</ele><time>2026-04-25T11:31:49.99Z</time></trkpt><trkpt lat="41.38528062406803" lon="12.918683891140795"><ele>1.0</ele><time>2026-04-25T11:31:50.99Z</time></trkpt><trkpt lat="41.385419319573494" lon="12.918854686007966"><ele>1.0</ele><time>2026-04-25T11:31:51.99Z</time></trkpt><trkpt lat="41.385567559339236" lon="12.919055687262238"><ele>1.0</ele><time>2026-04-25T11:31:52.99Z</time></trkpt><trkpt lat="41.385709474637665" lon="12.919291201837474"><ele>1.0</ele><time>2026-04-25T11:31:53.99Z</time></trkpt><trkpt lat="41.38583260343476" lon="12.91951735659107"><ele>1.0</ele><time>2026-04-25T11:31:54.99Z</time></trkpt><trkpt lat="41.385940096219294" lon="12.919732554892182"><ele>1.0</ele><time>2026-04-25T11:31:55.99Z</time></trkpt><trkpt lat="41.38603422631704" lon="12.919940335879925"><ele>1.0</ele><time>2026-04-25T11:31:56.99Z</time></trkpt><trkpt lat="41.38611635394321" lon="12.920155177410539"><ele>0.6666666666666666</ele><time>2026-04-25T11:31:57.99Z</time></trkpt><trkpt lat="41.386183636467955" lon="12.920391612952999"><ele>0.3333333333333333</ele><time>2026-04-25T11:31:58.99Z</time></trkpt><trkpt lat="41.38623621723676" lon="12.92063666671378"><ele>0.0</ele><time>2026-04-25T11:31:59.99Z</time></trkpt><trkpt lat="41.38628113645484" lon="12.920891388810531"><ele>0.0</ele><time>2026-04-25T11:32:00.99Z</time></trkpt><trkpt lat="41.386317824266534" lon="12.921152284958943"><ele>0.0</ele><time>2026-04-25T11:32:01.99Z</time></trkpt><trkpt lat="41.3863435623501" lon="12.92143834837775"><ele>0.0</ele><time>2026-04-25T11:32:02.99Z</time></trkpt><trkpt lat="41.3863460132498" lon="12.921762890903969"><ele>0.0</ele><time>2026-04-25T11:32:03.99Z</time></trkpt><trkpt lat="41.38634667340707" lon="12.922099194724835"><ele>0.0</ele><time>2026-04-25T11:32:04.99Z</time></trkpt><trkpt lat="41.38634697782128" lon="12.922462646912816"><ele>0.5</ele><time>2026-04-25T11:32:05.99Z</time></trkpt><trkpt lat="41.38634563136523" lon="12.922820987240023"><ele>1.0</ele><time>2026-04-25T11:32:06.99Z</time></trkpt><trkpt lat="41.38634623111968" lon="12.923143573510176"><ele>1.0</ele><time>2026-04-25T11:32:07.99Z</time></trkpt><trkpt lat="41.386340987743985" lon="12.923454196453292"><ele>1.0</ele><time>2026-04-25T11:32:08.99Z</time></trkpt><trkpt lat="41.386347444427535" lon="12.923755831573462"><ele>1.0</ele><time>2026-04-25T11:32:09.99Z</time></trkpt><trkpt lat="41.386351917244404" lon="12.92408128170741"><ele>1.0</ele><time>2026-04-25T11:32:10.99Z</time></trkpt><trkpt lat="41.38635515160392" lon="12.924437590116579"><ele>1.0</ele><time>2026-04-25T11:32:11.99Z</time></trkpt><trkpt lat="41.386339241665034" lon="12.924801567519197"><ele>1.0</ele><time>2026-04-25T11:32:12.99Z</time></trkpt><trkpt lat="41.38635387885504" lon="12.925158673881498"><ele>1.0</ele><time>2026-04-25T11:32:13.99Z</time></trkpt><trkpt lat="41.386353482051874" lon="12.92550708054287"><ele>1.0</ele><time>2026-04-25T11:32:14.99Z</time></trkpt><trkpt lat="41.38634592367328" lon="12.925821135931916"><ele>1.3333333333333333</ele><time>2026-04-25T11:32:15.99Z</time></trkpt><trkpt lat="41.38634640769896" lon="12.926108181150694"><ele>1.6666666666666665</ele><time>2026-04-25T11:32:16.99Z</time></trkpt><trkpt lat="41.38635544917445" lon="12.926392297004991"><ele>2.0</ele><time>2026-04-25T11:32:17.99Z</time></trkpt><trkpt lat="41.38635769610722" lon="12.926681015842123"><ele>2.333333333333333</ele><time>2026-04-25T11:32:18.99Z</time></trkpt><trkpt lat="41.386356913364025" lon="12.926972193181353"><ele>2.6666666666666665</ele><time>2026-04-25T11:32:19.99Z</time></trkpt><trkpt lat="41.38635764164766" lon="12.92726801797276"><ele>3.0</ele><time>2026-04-25T11:32:20.99Z</time></trkpt><trkpt lat="41.38635095504047" lon="12.927564996018672"><ele>3.0</ele><time>2026-04-25T11:32:21.99Z</time></trkpt><trkpt lat="41.38634972121517" lon="12.927855037538025"><ele>3.0</ele><time>2026-04-25T11:32:22.99Z</time></trkpt><trkpt lat="41.38634954254872" lon="12.928137266712971"><ele>3.0</ele><time>2026-04-25T11:32:23.99Z</time></trkpt><trkpt lat="41.38634977420965" lon="12.92841701156706"><ele>3.0</ele><time>2026-04-25T11:32:24.99Z</time></trkpt><trkpt lat="41.38635076029584" lon="12.928694792094499"><ele>3.0</ele><time>2026-04-25T11:32:25.99Z</time></trkpt><trkpt lat="41.38635194442068" lon="12.928983716397955"><ele>3.0</ele><time>2026-04-25T11:32:26.99Z</time></trkpt><trkpt lat="41.38635357799709" lon="12.929262286397188"><ele>3.0</ele><time>2026-04-25T11:32:27.99Z</time></trkpt><trkpt lat="41.38635514718909" lon="12.929529876434994"><ele>3.0</ele><time>2026-04-25T11:32:28.99Z</time></trkpt><trkpt lat="41.38635670227877" lon="12.929795061710367"><ele>3.0</ele><time>2026-04-25T11:32:29.99Z</time></trkpt><trkpt lat="41.38635825443026" lon="12.930059746615491"><ele>3.0</ele><time>2026-04-25T11:32:30.99Z</time></trkpt><trkpt lat="41.38635991644737" lon="12.930343166268068"><ele>3.0</ele><time>2026-04-25T11:32:31.99Z</time></trkpt><trkpt lat="41.38637484813324" lon="12.93063065204082"><ele>3.0</ele><time>2026-04-25T11:32:32.99Z</time></trkpt><trkpt lat="41.38636585199137" lon="12.930919108438747"><ele>3.0</ele><time>2026-04-25T11:32:33.99Z</time></trkpt><trkpt lat="41.38637211336335" lon="12.931200743308993"><ele>3.0</ele><time>2026-04-25T11:32:34.99Z</time></trkpt><trkpt lat="41.38638949738035" lon="12.931488664009358"><ele>3.0</ele><time>2026-04-25T11:32:35.99Z</time></trkpt><trkpt lat="41.3864335414111" lon="12.93180748761377"><ele>3.0</ele><time>2026-04-25T11:32:36.99Z</time></trkpt><trkpt lat="41.386473364958604" lon="12.932158290647166"><ele>3.0</ele><time>2026-04-25T11:32:37.99Z</time></trkpt><trkpt lat="41.386524132493015" lon="12.932539769356936"><ele>2.0</ele><time>2026-04-25T11:32:38.99Z</time></trkpt><trkpt lat="41.38657069603566" lon="12.932902424978602"><ele>1.0</ele><time>2026-04-25T11:32:39.99Z</time></trkpt><trkpt lat="41.386606917011825" lon="12.933224301704895"><ele>0.6666666666666666</ele><time>2026-04-25T11:32:40.99Z</time></trkpt><trkpt lat="41.38664062361563" lon="12.933519350370167"><ele>0.3333333333333333</ele><time>2026-04-25T11:32:41.99Z</time></trkpt><trkpt lat="41.386654303112095" lon="12.933796887661241"><ele>0.0</ele><time>2026-04-25T11:32:42.99Z</time></trkpt><trkpt lat="41.386684268671004" lon="12.934069944232975"><ele>0.6666666666666666</ele><time>2026-04-25T11:32:43.99Z</time></trkpt><trkpt lat="41.38671669122337" lon="12.934345917944473"><ele>1.3333333333333333</ele><time>2026-04-25T11:32:44.99Z</time></trkpt><trkpt lat="41.38674511856325" lon="12.934587476481843"><ele>2.0</ele><time>2026-04-25T11:32:45.99Z</time></trkpt><trkpt lat="41.3867883177767" lon="12.934823137488877"><ele>2.0</ele><time>2026-04-25T11:32:46.99Z</time></trkpt><trkpt lat="41.38679734526806" lon="12.935048335527325"><ele>2.0</ele><time>2026-04-25T11:32:47.99Z</time></trkpt><trkpt lat="41.38682170856898" lon="12.935254592432445"><ele>2.0</ele><time>2026-04-25T11:32:48.99Z</time></trkpt><trkpt lat="41.38684193777547" lon="12.935445970557888"><ele>1.75</ele><time>2026-04-25T11:32:49.99Z</time></trkpt><trkpt lat="41.38686287904688" lon="12.935623961380122"><ele>1.5</ele><time>2026-04-25T11:32:50.99Z</time></trkpt><trkpt lat="41.386882356732876" lon="12.935791082659309"><ele>1.25</ele><time>2026-04-25T11:32:51.99Z</time></trkpt><trkpt lat="41.3869052909399" lon="12.935948455566237"><ele>1.0</ele><time>2026-04-25T11:32:52.99Z</time></trkpt><trkpt lat="41.38691546188184" lon="12.93608651869015"><ele>1.0</ele><time>2026-04-25T11:32:53.99Z</time></trkpt><trkpt lat="41.386924801888306" lon="12.936171729299089"><ele>1.0</ele><time>2026-04-25T11:32:54.99Z</time></trkpt><trkpt lat="41.38679428129987" lon="12.936206933552802"><ele>1.0</ele><time>2026-04-25T11:32:58.989Z</time></trkpt><trkpt lat="41.38670986113275" lon="12.936281943506282"><ele>1.0</ele><time>2026-04-25T11:32:59.989Z</time></trkpt><trkpt lat="41.38663326638382" lon="12.936387010134325"><ele>1.0</ele><time>2026-04-25T11:33:00.989Z</time></trkpt><trkpt lat="41.386558161361975" lon="12.936489574190862"><ele>1.0</ele><time>2026-04-25T11:33:01.989Z</time></trkpt><trkpt lat="41.38649225789396" lon="12.936598625448392"><ele>1.0</ele><time>2026-04-25T11:33:02.989Z</time></trkpt><trkpt lat="41.386422400899235" lon="12.936689376314195"><ele>1.0</ele><time>2026-04-25T11:33:03.989Z</time></trkpt><trkpt lat="41.386351358087765" lon="12.936790444860486"><ele>1.0</ele><time>2026-04-25T11:33:04.989Z</time></trkpt><trkpt lat="41.38626822406351" lon="12.936902326053861"><ele>1.0</ele><time>2026-04-25T11:33:05.989Z</time></trkpt><trkpt lat="41.3861937955054" lon="12.937002760943122"><ele>1.2000000000000002</ele><time>2026-04-25T11:33:06.989Z</time></trkpt><trkpt lat="41.386124439287165" lon="12.937102349317069"><ele>1.4000000000000001</ele><time>2026-04-25T11:33:07.989Z</time></trkpt><trkpt lat="41.3860501094436" lon="12.937191911271247"><ele>1.6</ele><time>2026-04-25T11:33:08.988Z</time></trkpt><trkpt lat="41.38598617531358" lon="12.937285515301742"><ele>1.8</ele><time>2026-04-25T11:33:09.988Z</time></trkpt><trkpt lat="41.38591718661529" lon="12.937365116133412"><ele>2.0</ele><time>2026-04-25T11:33:10.989Z</time></trkpt><trkpt lat="41.385864631190664" lon="12.937476001652758"><ele>2.2</ele><time>2026-04-25T11:33:11.989Z</time></trkpt><trkpt lat="41.38579346334058" lon="12.937582750401793"><ele>2.4000000000000004</ele><time>2026-04-25T11:33:12.989Z</time></trkpt><trkpt lat="41.385706331878495" lon="12.93767214948263"><ele>2.5999999999999996</ele><time>2026-04-25T11:33:13.989Z</time></trkpt><trkpt lat="41.38562874882189" lon="12.9377714532842"><ele>2.8</ele><time>2026-04-25T11:33:14.989Z</time></trkpt><trkpt lat="41.38556195391008" lon="12.93788517343812"><ele>3.0</ele><time>2026-04-25T11:33:15.989Z</time></trkpt><trkpt lat="41.385474957897365" lon="12.937991496321638"><ele>3.0</ele><time>2026-04-25T11:33:16.989Z</time></trkpt><trkpt lat="41.38539152722626" lon="12.938108813578014"><ele>3.0</ele><time>2026-04-25T11:33:17.989Z</time></trkpt><trkpt lat="41.38529402269793" lon="12.938216031870969"><ele>3.0</ele><time>2026-04-25T11:33:18.989Z</time></trkpt><trkpt lat="41.385221713771394" lon="12.93834133913794"><ele>3.0</ele><time>2026-04-25T11:33:19.989Z</time></trkpt><trkpt lat="41.38514041000831" lon="12.938438385928594"><ele>2.75</ele><time>2026-04-25T11:33:20.989Z</time></trkpt><trkpt lat="41.385055779617005" lon="12.93855931231485"><ele>2.5</ele><time>2026-04-25T11:33:21.989Z</time></trkpt><trkpt lat="41.38497151641629" lon="12.938671314621226"><ele>2.25</ele><time>2026-04-25T11:33:22.989Z</time></trkpt><trkpt lat="41.38489180374512" lon="12.938785544866358"><ele>2.0</ele><time>2026-04-25T11:33:23.989Z</time></trkpt><trkpt lat="41.38480417510722" lon="12.938888815325997"><ele>2.0</ele><time>2026-04-25T11:33:24.989Z</time></trkpt><trkpt lat="41.38472744096374" lon="12.938995088644747"><ele>2.0</ele><time>2026-04-25T11:33:25.989Z</time></trkpt><trkpt lat="41.384650174124516" lon="12.939099164886978"><ele>2.0</ele><time>2026-04-25T11:33:26.989Z</time></trkpt><trkpt lat="41.384566870731206" lon="12.939188482580937"><ele>2.0</ele><time>2026-04-25T11:33:27.989Z</time></trkpt><trkpt lat="41.38449796097659" lon="12.93928146857604"><ele>2.0</ele><time>2026-04-25T11:33:28.989Z</time></trkpt><trkpt lat="41.38443742224161" lon="12.939391684249976"><ele>1.6</ele><time>2026-04-25T11:33:29.989Z</time></trkpt><trkpt lat="41.38435605275191" lon="12.939488220333404"><ele>1.2000000000000002</ele><time>2026-04-25T11:33:30.989Z</time></trkpt><trkpt lat="41.384279318340575" lon="12.939604923744557"><ele>0.8</ele><time>2026-04-25T11:33:31.989Z</time></trkpt><trkpt lat="41.38419965929486" lon="12.939714424235556"><ele>0.4</ele><time>2026-04-25T11:33:32.989Z</time></trkpt><trkpt lat="41.384125979568516" lon="12.93981660340786"><ele>0.0</ele><time>2026-04-25T11:33:33.989Z</time></trkpt><trkpt lat="41.3840387086131" lon="12.939913395983824"><ele>0.0</ele><time>2026-04-25T11:33:34.989Z</time></trkpt><trkpt lat="41.38397351138784" lon="12.940030353077306"><ele>0.0</ele><time>2026-04-25T11:33:35.989Z</time></trkpt><trkpt lat="41.38390335406508" lon="12.940120381302773"><ele>0.0</ele><time>2026-04-25T11:33:36.989Z</time></trkpt><trkpt lat="41.38383440682003" lon="12.940216896107918"><ele>0.0</ele><time>2026-04-25T11:33:37.989Z</time></trkpt><trkpt lat="41.383766274871036" lon="12.940312955420818"><ele>0.0</ele><time>2026-04-25T11:33:38.989Z</time></trkpt><trkpt lat="41.38368880700702" lon="12.94041734959616"><ele>0.6</ele><time>2026-04-25T11:33:39.989Z</time></trkpt><trkpt lat="41.38359984416902" lon="12.940512755500247"><ele>1.2</ele><time>2026-04-25T11:33:40.989Z</time></trkpt><trkpt lat="41.38351955953806" lon="12.940612550534855"><ele>1.7999999999999998</ele><time>2026-04-25T11:33:41.989Z</time></trkpt><trkpt lat="41.38344309037041" lon="12.940708843025948"><ele>2.4</ele><time>2026-04-25T11:33:42.989Z</time></trkpt><trkpt lat="41.383366778153245" lon="12.940804937690466"><ele>3.0</ele><time>2026-04-25T11:33:43.989Z</time></trkpt><trkpt lat="41.38329206151255" lon="12.940926639364715"><ele>3.0</ele><time>2026-04-25T11:33:44.989Z</time></trkpt><trkpt lat="41.38321626654907" lon="12.941035794037342"><ele>3.0</ele><time>2026-04-25T11:33:45.989Z</time></trkpt><trkpt lat="41.38314180541063" lon="12.941130751050359"><ele>3.0</ele><time>2026-04-25T11:33:46.989Z</time></trkpt><trkpt lat="41.38307578903881" lon="12.941231089087307"><ele>3.0</ele><time>2026-04-25T11:33:47.989Z</time></trkpt><trkpt lat="41.38299280481428" lon="12.94132119988892"><ele>3.0</ele><time>2026-04-25T11:33:48.989Z</time></trkpt><trkpt lat="41.38291188367783" lon="12.94143178089381"><ele>2.8</ele><time>2026-04-25T11:33:49.989Z</time></trkpt><trkpt lat="41.38284611323542" lon="12.94154165942987"><ele>2.5999999999999996</ele><time>2026-04-25T11:33:50.989Z</time></trkpt><trkpt lat="41.38277276505708" lon="12.941641970863591"><ele>2.4000000000000004</ele><time>2026-04-25T11:33:51.989Z</time></trkpt><trkpt lat="41.382714694308525" lon="12.94172810968211"><ele>2.2</ele><time>2026-04-25T11:33:52.989Z</time></trkpt><trkpt lat="41.38264547623557" lon="12.941819802685547"><ele>2.0</ele><time>2026-04-25T11:33:53.989Z</time></trkpt><trkpt lat="41.382569775143374" lon="12.941922808556274"><ele>1.75</ele><time>2026-04-25T11:33:54.989Z</time></trkpt><trkpt lat="41.382488079455385" lon="12.942037859717422"><ele>1.5</ele><time>2026-04-25T11:33:55.989Z</time></trkpt><trkpt lat="41.382407823396385" lon="12.942138576231384"><ele>1.25</ele><time>2026-04-25T11:33:56.989Z</time></trkpt><trkpt lat="41.382314203630465" lon="12.942250481641496"><ele>1.0</ele><time>2026-04-25T11:33:57.989Z</time></trkpt><trkpt lat="41.38221499308354" lon="12.942371424192107"><ele>1.0</ele><time>2026-04-25T11:33:58.989Z</time></trkpt><trkpt lat="41.38214050709964" lon="12.942507093587523"><ele>1.0</ele><time>2026-04-25T11:33:59.989Z</time></trkpt><trkpt lat="41.38207087405737" lon="12.942620496872953"><ele>1.0</ele><time>2026-04-25T11:34:00.989Z</time></trkpt><trkpt lat="41.38199583367589" lon="12.942752861555322"><ele>1.0</ele><time>2026-04-25T11:34:01.989Z</time></trkpt><trkpt lat="41.38191925867989" lon="12.942886231878058"><ele>1.0</ele><time>2026-04-25T11:34:02.989Z</time></trkpt><trkpt lat="41.38184389340123" lon="12.943029114605077"><ele>1.0</ele><time>2026-04-25T11:34:03.989Z</time></trkpt><trkpt lat="41.38176353304166" lon="12.943174768326305"><ele>1.0</ele><time>2026-04-25T11:34:04.989Z</time></trkpt><trkpt lat="41.38171828420582" lon="12.943311973287633"><ele>1.0</ele><time>2026-04-25T11:34:05.989Z</time></trkpt><trkpt lat="41.381672455789776" lon="12.943421725978727"><ele>1.0</ele><time>2026-04-25T11:34:06.989Z</time></trkpt><trkpt lat="41.38162718935655" lon="12.943534065348244"><ele>1.0</ele><time>2026-04-25T11:34:07.989Z</time></trkpt><trkpt lat="41.3815763919367" lon="12.943663771467996"><ele>1.0</ele><time>2026-04-25T11:34:08.989Z</time></trkpt><trkpt lat="41.381523607317305" lon="12.943795182347282"><ele>1.0</ele><time>2026-04-25T11:34:09.989Z</time></trkpt><trkpt lat="41.381474202770555" lon="12.943933269018125"><ele>1.0</ele><time>2026-04-25T11:34:10.989Z</time></trkpt><trkpt lat="41.38140633627755" lon="12.944056437832478"><ele>1.0</ele><time>2026-04-25T11:34:11.989Z</time></trkpt><trkpt lat="41.38135277282466" lon="12.944186808846847"><ele>1.0</ele><time>2026-04-25T11:34:12.989Z</time></trkpt><trkpt lat="41.38131481237434" lon="12.944315539288109"><ele>1.0</ele><time>2026-04-25T11:34:13.989Z</time></trkpt><trkpt lat="41.38125998421048" lon="12.944447147997867"><ele>1.0</ele><time>2026-04-25T11:34:14.989Z</time></trkpt><trkpt lat="41.381209523819315" lon="12.944570074916854"><ele>1.0</ele><time>2026-04-25T11:34:15.989Z</time></trkpt><trkpt lat="41.38115816535988" lon="12.944692101933281"><ele>1.0</ele><time>2026-04-25T11:34:16.989Z</time></trkpt><trkpt lat="41.381115591843454" lon="12.944798785935697"><ele>1.0</ele><time>2026-04-25T11:34:17.989Z</time></trkpt><trkpt lat="41.381068014132175" lon="12.944906219880746"><ele>1.0</ele><time>2026-04-25T11:34:18.989Z</time></trkpt><trkpt lat="41.38102781840444" lon="12.945007051737031"><ele>1.0</ele><time>2026-04-25T11:34:19.989Z</time></trkpt><trkpt lat="41.38096570572344" lon="12.94512483286811"><ele>1.0</ele><time>2026-04-25T11:34:20.989Z</time></trkpt><trkpt lat="41.38091352496283" lon="12.945253852819326"><ele>1.2000000000000002</ele><time>2026-04-25T11:34:21.989Z</time></trkpt><trkpt lat="41.38086526835998" lon="12.945373170130745"><ele>1.4000000000000001</ele><time>2026-04-25T11:34:22.989Z</time></trkpt><trkpt lat="41.38082928301344" lon="12.94549161341592"><ele>1.6</ele><time>2026-04-25T11:34:23.989Z</time></trkpt><trkpt lat="41.38078657435291" lon="12.945601068056694"><ele>1.8</ele><time>2026-04-25T11:34:24.989Z</time></trkpt><trkpt lat="41.38074266660575" lon="12.945708126158207"><ele>2.0</ele><time>2026-04-25T11:34:25.989Z</time></trkpt><trkpt lat="41.38069978897147" lon="12.945815238967882"><ele>1.9999999999999998</ele><time>2026-04-25T11:34:26.989Z</time></trkpt><trkpt lat="41.380663697080024" lon="12.945906188655083"><ele>2.0</ele><time>2026-04-25T11:34:27.989Z</time></trkpt><trkpt lat="41.38061367914695" lon="12.945993429370544"><ele>2.0</ele><time>2026-04-25T11:34:28.989Z</time></trkpt><trkpt lat="41.380568472695614" lon="12.946102261204524"><ele>2.0</ele><time>2026-04-25T11:34:29.989Z</time></trkpt><trkpt lat="41.380541143464185" lon="12.94621380308217"><ele>1.9999999999999998</ele><time>2026-04-25T11:34:30.989Z</time></trkpt><trkpt lat="41.38049568727617" lon="12.946317723337792"><ele>2.0</ele><time>2026-04-25T11:34:31.989Z</time></trkpt><trkpt lat="41.38042872889284" lon="12.946422513246294"><ele>1.9999999999999998</ele><time>2026-04-25T11:34:32.989Z</time></trkpt><trkpt lat="41.380372332788355" lon="12.946534125631349"><ele>2.0</ele><time>2026-04-25T11:34:33.989Z</time></trkpt><trkpt lat="41.38033873505415" lon="12.946643596982279"><ele>2.0</ele><time>2026-04-25T11:34:34.989Z</time></trkpt><trkpt lat="41.38029332968051" lon="12.946718216051076"><ele>2.0</ele><time>2026-04-25T11:34:35.989Z</time></trkpt><trkpt lat="41.38024858350678" lon="12.946786976745196"><ele>1.9999999999999998</ele><time>2026-04-25T11:34:36.989Z</time></trkpt><trkpt lat="41.380194256420474" lon="12.946847255662115"><ele>2.0</ele><time>2026-04-25T11:34:37.989Z</time></trkpt><trkpt lat="41.380119905228035" lon="12.946885331276432"><ele>1.9999999999999998</ele><time>2026-04-25T11:34:38.989Z</time></trkpt><trkpt lat="41.38005879852132" lon="12.946953229887788"><ele>2.0</ele><time>2026-04-25T11:34:39.989Z</time></trkpt><trkpt lat="41.3799871765335" lon="12.946988628732427"><ele>2.0</ele><time>2026-04-25T11:34:40.989Z</time></trkpt><trkpt lat="41.379918880350914" lon="12.947024600520075"><ele>2.0</ele><time>2026-04-25T11:34:41.989Z</time></trkpt><trkpt lat="41.37983729368146" lon="12.947068127080678"><ele>1.9999999999999998</ele><time>2026-04-25T11:34:42.989Z</time></trkpt><trkpt lat="41.37976011774286" lon="12.9471064116369"><ele>2.0</ele><time>2026-04-25T11:34:43.989Z</time></trkpt><trkpt lat="41.37968625320365" lon="12.94711355170637"><ele>1.8</ele><time>2026-04-25T11:34:44.989Z</time></trkpt><trkpt lat="41.37956194062519" lon="12.947140705175665"><ele>1.6</ele><time>2026-04-25T11:34:46.989Z</time></trkpt><trkpt lat="41.3794758388083" lon="12.947156246327337"><ele>1.4000000000000001</ele><time>2026-04-25T11:34:47.989Z</time></trkpt><trkpt lat="41.37938281593338" lon="12.947171706294174"><ele>1.2000000000000002</ele><time>2026-04-25T11:34:48.989Z</time></trkpt><trkpt lat="41.3792697558312" lon="12.947190496340589"><ele>1.0</ele><time>2026-04-25T11:34:49.99Z</time></trkpt><trkpt lat="41.379146749637414" lon="12.947206789445682"><ele>1.0</ele><time>2026-04-25T11:34:50.99Z</time></trkpt><trkpt lat="41.37898846888106" lon="12.947226367843001"><ele>1.0</ele><time>2026-04-25T11:34:51.99Z</time></trkpt><trkpt lat="41.3788172625202" lon="12.947269187637373"><ele>1.0</ele><time>2026-04-25T11:34:52.99Z</time></trkpt><trkpt lat="41.378682242577895" lon="12.947285821701522"><ele>1.0</ele><time>2026-04-25T11:34:53.99Z</time></trkpt><trkpt lat="41.37856408948192" lon="12.947299662504475"><ele>1.0</ele><time>2026-04-25T11:34:54.99Z</time></trkpt><trkpt lat="41.37843361875963" lon="12.947315603265345"><ele>1.0</ele><time>2026-04-25T11:34:55.99Z</time></trkpt><trkpt lat="41.37830484522915" lon="12.947333347165142"><ele>1.0</ele><time>2026-04-25T11:34:56.99Z</time></trkpt><trkpt lat="41.37818051201831" lon="12.947346792425853"><ele>1.0</ele><time>2026-04-25T11:34:57.99Z</time></trkpt><trkpt lat="41.37804778127937" lon="12.947359406519924"><ele>1.0</ele><time>2026-04-25T11:34:58.99Z</time></trkpt><trkpt lat="41.37792574423009" lon="12.947380627977834"><ele>1.0</ele><time>2026-04-25T11:34:59.99Z</time></trkpt><trkpt lat="41.37780349009408" lon="12.947403387039094"><ele>1.0</ele><time>2026-04-25T11:35:00.99Z</time></trkpt><trkpt lat="41.37770169610191" lon="12.947414630601665"><ele>1.2000000000000002</ele><time>2026-04-25T11:35:01.99Z</time></trkpt><trkpt lat="41.37760314825215" lon="12.9474144713625"><ele>1.4000000000000001</ele><time>2026-04-25T11:35:02.99Z</time></trkpt><trkpt lat="41.37750599941337" lon="12.94743628014608"><ele>1.6</ele><time>2026-04-25T11:35:03.99Z</time></trkpt><trkpt lat="41.377410715285315" lon="12.947460947490866"><ele>1.8</ele><time>2026-04-25T11:35:04.989Z</time></trkpt><trkpt lat="41.377312703440985" lon="12.94750592235516"><ele>2.0</ele><time>2026-04-25T11:35:05.988Z</time></trkpt><trkpt lat="41.37722461653237" lon="12.947555789832542"><ele>1.75</ele><time>2026-04-25T11:35:06.988Z</time></trkpt><trkpt lat="41.37711157048802" lon="12.947617239100142"><ele>1.5</ele><time>2026-04-25T11:35:07.988Z</time></trkpt><trkpt lat="41.377007013730825" lon="12.947695185490366"><ele>1.25</ele><time>2026-04-25T11:35:08.989Z</time></trkpt><trkpt lat="41.37692042834611" lon="12.947786362431431"><ele>1.0</ele><time>2026-04-25T11:35:09.989Z</time></trkpt><trkpt lat="41.37682923292591" lon="12.947876577763951"><ele>1.0</ele><time>2026-04-25T11:35:10.988Z</time></trkpt><trkpt lat="41.37674917857259" lon="12.947957056993163"><ele>1.0</ele><time>2026-04-25T11:35:11.988Z</time></trkpt><trkpt lat="41.376667228352254" lon="12.948070696205368"><ele>1.0</ele><time>2026-04-25T11:35:12.988Z</time></trkpt><trkpt lat="41.37657498561959" lon="12.94819397362808"><ele>1.0</ele><time>2026-04-25T11:35:13.988Z</time></trkpt><trkpt lat="41.37645580724211" lon="12.948317112282375"><ele>1.3333333333333333</ele><time>2026-04-25T11:35:14.989Z</time></trkpt><trkpt lat="41.376334871867165" lon="12.948472598883441"><ele>1.6666666666666665</ele><time>2026-04-25T11:35:15.989Z</time></trkpt><trkpt lat="41.376216716101396" lon="12.948625647434099"><ele>2.0</ele><time>2026-04-25T11:35:16.989Z</time></trkpt><trkpt lat="41.376127975390624" lon="12.948771453377885"><ele>1.9999999999999998</ele><time>2026-04-25T11:35:17.988Z</time></trkpt><trkpt lat="41.376046590128446" lon="12.94887690613251"><ele>2.0</ele><time>2026-04-25T11:35:18.988Z</time></trkpt><trkpt lat="41.37597264365621" lon="12.948973644102129"><ele>2.0</ele><time>2026-04-25T11:35:19.988Z</time></trkpt><trkpt lat="41.375916380982424" lon="12.949061419101461"><ele>2.0</ele><time>2026-04-25T11:35:20.988Z</time></trkpt><trkpt lat="41.37586577070894" lon="12.949139189861402"><ele>1.9999999999999998</ele><time>2026-04-25T11:35:22.988Z</time></trkpt><trkpt lat="41.37580940128382" lon="12.949188492895146"><ele>2.0</ele><time>2026-04-25T11:35:24.988Z</time></trkpt><trkpt lat="41.375754908068274" lon="12.949292027948035"><ele>1.9999999999999998</ele><time>2026-04-25T11:35:27.988Z</time></trkpt><trkpt lat="41.375688574359096" lon="12.949351834986208"><ele>2.0</ele><time>2026-04-25T11:35:29.988Z</time></trkpt><trkpt lat="41.375643708271305" lon="12.949420421109936"><ele>2.0</ele><time>2026-04-25T11:35:32.988Z</time></trkpt><trkpt lat="41.375578828903755" lon="12.949496064580888"><ele>2.0</ele><time>2026-04-25T11:35:46.988Z</time></trkpt><trkpt lat="41.375515647626585" lon="12.949579074521495"><ele>1.9999999999999998</ele><time>2026-04-25T11:35:48.988Z</time></trkpt><trkpt lat="41.3754432196302" lon="12.949674233105803"><ele>2.0</ele><time>2026-04-25T11:35:50.988Z</time></trkpt><trkpt lat="41.37537716019345" lon="12.949781086164998"><ele>2.0</ele><time>2026-04-25T11:35:52.988Z</time></trkpt><trkpt lat="41.37530173185072" lon="12.94990415492895"><ele>2.0</ele><time>2026-04-25T11:35:54.988Z</time></trkpt><trkpt lat="41.37523726404978" lon="12.949962673977954"><ele>2.0</ele><time>2026-04-25T11:35:55.988Z</time></trkpt><trkpt lat="41.37518062459342" lon="12.950042002934484"><ele>2.0</ele><time>2026-04-25T11:35:56.988Z</time></trkpt><trkpt lat="41.375120763462434" lon="12.950125844157625"><ele>2.0</ele><time>2026-04-25T11:35:57.988Z</time></trkpt><trkpt lat="41.37506203975029" lon="12.950239578703393"><ele>2.0</ele><time>2026-04-25T11:35:58.988Z</time></trkpt><trkpt lat="41.37499569906353" lon="12.950328780916546"><ele>2.0</ele><time>2026-04-25T11:35:59.988Z</time></trkpt><trkpt lat="41.37492890555934" lon="12.950420272114652"><ele>2.0</ele><time>2026-04-25T11:36:00.988Z</time></trkpt><trkpt lat="41.37484313419866" lon="12.950514690427157"><ele>2.0</ele><time>2026-04-25T11:36:01.988Z</time></trkpt><trkpt lat="41.37475963993116" lon="12.950631632131033"><ele>2.0</ele><time>2026-04-25T11:36:02.988Z</time></trkpt><trkpt lat="41.37468454665413" lon="12.950757855012665"><ele>2.0</ele><time>2026-04-25T11:36:03.988Z</time></trkpt><trkpt lat="41.37460591049506" lon="12.950873487426298"><ele>2.0</ele><time>2026-04-25T11:36:04.988Z</time></trkpt><trkpt lat="41.37452878827224" lon="12.950981937506642"><ele>2.0</ele><time>2026-04-25T11:36:05.988Z</time></trkpt><trkpt lat="41.37445206018254" lon="12.951086399593498"><ele>2.0</ele><time>2026-04-25T11:36:06.988Z</time></trkpt><trkpt lat="41.374372950914584" lon="12.95118826159494"><ele>2.0</ele><time>2026-04-25T11:36:07.988Z</time></trkpt><trkpt lat="41.37430987222013" lon="12.951278266452375"><ele>1.9999999999999998</ele><time>2026-04-25T11:36:08.988Z</time></trkpt><trkpt lat="41.374241762663026" lon="12.95134118686894"><ele>2.0</ele><time>2026-04-25T11:36:09.988Z</time></trkpt><trkpt lat="41.37419624390008" lon="12.951402498971357"><ele>2.0</ele><time>2026-04-25T11:36:10.988Z</time></trkpt><trkpt lat="41.37416315197377" lon="12.951478371504669"><ele>2.0</ele><time>2026-04-25T11:36:11.988Z</time></trkpt><trkpt lat="41.374107229981384" lon="12.95153559253676"><ele>1.9999999999999998</ele><time>2026-04-25T11:36:12.988Z</time></trkpt><trkpt lat="41.37404916265009" lon="12.951600075452715"><ele>2.0</ele><time>2026-04-25T11:36:13.988Z</time></trkpt><trkpt lat="41.37399147379516" lon="12.951704304325585"><ele>1.75</ele><time>2026-04-25T11:36:14.988Z</time></trkpt><trkpt lat="41.37390478787314" lon="12.951795079482762"><ele>1.5</ele><time>2026-04-25T11:36:15.988Z</time></trkpt><trkpt lat="41.37382129147077" lon="12.951907546070327"><ele>1.25</ele><time>2026-04-25T11:36:16.988Z</time></trkpt><trkpt lat="41.37374416497766" lon="12.952042209100963"><ele>1.0</ele><time>2026-04-25T11:36:17.988Z</time></trkpt><trkpt lat="41.373657470520065" lon="12.952158520431935"><ele>1.0</ele><time>2026-04-25T11:36:18.988Z</time></trkpt><trkpt lat="41.37357431104561" lon="12.952270421248999"><ele>1.0</ele><time>2026-04-25T11:36:19.988Z</time></trkpt><trkpt lat="41.373492382879775" lon="12.952388937161592"><ele>1.0</ele><time>2026-04-25T11:36:20.988Z</time></trkpt><trkpt lat="41.37340212792461" lon="12.952515184311332"><ele>1.0</ele><time>2026-04-25T11:36:21.988Z</time></trkpt><trkpt lat="41.373315449163954" lon="12.952640507214866"><ele>1.0</ele><time>2026-04-25T11:36:22.988Z</time></trkpt><trkpt lat="41.37321923302637" lon="12.952763845468942"><ele>1.0</ele><time>2026-04-25T11:36:23.988Z</time></trkpt><trkpt lat="41.37314045264529" lon="12.952875491147747"><ele>1.0</ele><time>2026-04-25T11:36:24.988Z</time></trkpt><trkpt lat="41.37305291460442" lon="12.952965200713775"><ele>1.0</ele><time>2026-04-25T11:36:25.988Z</time></trkpt><trkpt lat="41.37297482492103" lon="12.95305891568409"><ele>1.0</ele><time>2026-04-25T11:36:26.988Z</time></trkpt><trkpt lat="41.37289233897591" lon="12.953159140329491"><ele>1.0</ele><time>2026-04-25T11:36:27.988Z</time></trkpt><trkpt lat="41.37282238388857" lon="12.953245878116695"><ele>1.0</ele><time>2026-04-25T11:36:28.988Z</time></trkpt><trkpt lat="41.37275782989789" lon="12.953327696594183"><ele>1.0</ele><time>2026-04-25T11:36:29.988Z</time></trkpt><trkpt lat="41.37270678020958" lon="12.953424870776503"><ele>1.0</ele><time>2026-04-25T11:36:30.988Z</time></trkpt><trkpt lat="41.37265845383519" lon="12.953486965865809"><ele>0.9999999999999999</ele><time>2026-04-25T11:36:31.988Z</time></trkpt><trkpt lat="41.37261173397017" lon="12.953552365860235"><ele>1.0</ele><time>2026-04-25T11:36:32.988Z</time></trkpt><trkpt lat="41.37256645726336" lon="12.953628737188653"><ele>1.0</ele><time>2026-04-25T11:36:33.988Z</time></trkpt><trkpt lat="41.37251401348524" lon="12.953710488678848"><ele>1.0</ele><time>2026-04-25T11:36:34.988Z</time></trkpt><trkpt lat="41.37245949248558" lon="12.9537911066379"><ele>0.9999999999999999</ele><time>2026-04-25T11:36:35.988Z</time></trkpt><trkpt lat="41.3724098971962" lon="12.953865613866117"><ele>1.0</ele><time>2026-04-25T11:36:36.989Z</time></trkpt><trkpt lat="41.37235044629517" lon="12.953942825417299"><ele>1.0</ele><time>2026-04-25T11:36:37.989Z</time></trkpt><trkpt lat="41.37229187742237" lon="12.954024212363548"><ele>1.0</ele><time>2026-04-25T11:36:38.989Z</time></trkpt><trkpt lat="41.372221189029034" lon="12.954118191861745"><ele>1.0</ele><time>2026-04-25T11:36:39.989Z</time></trkpt><trkpt lat="41.372148359916366" lon="12.954214725458586"><ele>1.0</ele><time>2026-04-25T11:36:40.989Z</time></trkpt><trkpt lat="41.3720825234864" lon="12.954297847998143"><ele>1.0</ele><time>2026-04-25T11:36:41.989Z</time></trkpt><trkpt lat="41.37202125646826" lon="12.954400950303107"><ele>0.9999999999999999</ele><time>2026-04-25T11:36:42.989Z</time></trkpt><trkpt lat="41.37195764088454" lon="12.954484949200364"><ele>1.0</ele><time>2026-04-25T11:36:43.989Z</time></trkpt><trkpt lat="41.3719000165451" lon="12.954567097539648"><ele>1.0</ele><time>2026-04-25T11:36:44.989Z</time></trkpt><trkpt lat="41.3718308858044" lon="12.954639129737705"><ele>1.0</ele><time>2026-04-25T11:36:45.989Z</time></trkpt><trkpt lat="41.37178198781998" lon="12.954738564123778"><ele>0.9999999999999999</ele><time>2026-04-25T11:36:46.989Z</time></trkpt><trkpt lat="41.37170970509911" lon="12.954823963089774"><ele>1.0</ele><time>2026-04-25T11:36:47.989Z</time></trkpt><trkpt lat="41.37165393820977" lon="12.954906386529492"><ele>1.0</ele><time>2026-04-25T11:36:48.989Z</time></trkpt><trkpt lat="41.371575837340465" lon="12.954990437951487"><ele>1.0</ele><time>2026-04-25T11:36:49.989Z</time></trkpt><trkpt lat="41.3715075691158" lon="12.955084218290091"><ele>1.0</ele><time>2026-04-25T11:36:50.989Z</time></trkpt><trkpt lat="41.371452513126734" lon="12.955189757937836"><ele>1.0</ele><time>2026-04-25T11:36:51.989Z</time></trkpt><trkpt lat="41.37138753376637" lon="12.955277838482017"><ele>1.0</ele><time>2026-04-25T11:36:52.989Z</time></trkpt><trkpt lat="41.37131970944112" lon="12.955378678241582"><ele>1.5</ele><time>2026-04-25T11:36:53.989Z</time></trkpt><trkpt lat="41.371242415205344" lon="12.955472626953501"><ele>2.0</ele><time>2026-04-25T11:36:54.989Z</time></trkpt><trkpt lat="41.37117289361364" lon="12.955563058305799"><ele>2.5</ele><time>2026-04-25T11:36:55.989Z</time></trkpt><trkpt lat="41.371101405207824" lon="12.955657200422312"><ele>3.0</ele><time>2026-04-25T11:36:56.989Z</time></trkpt><trkpt lat="41.37104704957106" lon="12.955733249789073"><ele>3.4999999999999996</ele><time>2026-04-25T11:36:57.989Z</time></trkpt><trkpt lat="41.37099949597237" lon="12.955792601335348"><ele>4.0</ele><time>2026-04-25T11:36:58.989Z</time></trkpt><trkpt lat="41.37095409878559" lon="12.955851067223412"><ele>4.0</ele><time>2026-04-25T11:36:59.989Z</time></trkpt><trkpt lat="41.370880126911416" lon="12.955948134320746"><ele>2.0</ele><time>2026-04-25T11:37:01.989Z</time></trkpt><trkpt lat="41.370824097141806" lon="12.955995316892592"><ele>2.0</ele><time>2026-04-25T11:37:04.989Z</time></trkpt><trkpt lat="41.37076946559409" lon="12.956086411173954"><ele>2.0</ele><time>2026-04-25T11:37:19.988Z</time></trkpt></trkseg></trk></gpx>